# Wetter Temperatur Luftdruck Luftfeuchtigkeit Sichtweite Windgeschwindigkeit Windrichtung Zeit
1 Clouds 18 1008 92 10000 3.6 210 05:19 02.10.2022
2 Clouds 19 1009 92 10000 1.54 300 00:58 02.10.2022
3 Clouds 19 1009 92 10000 1.54 300 00:38 02.10.2022
4 Clouds 18 1010 92 10000 0 0 23:28 01.10.2022
5 Clouds 19 1011 89 10000 1.54 360 21:48 01.10.2022
6 Clouds 22 1013 83 10000 4.12 110 18:54 01.10.2022
7 Clear 23 1014 78 10000 5.14 100 17:46 01.10.2022
8 Clear 28 1016 65 10000 6.69 110 15:28 01.10.2022
9 Clear 29 1017 60 10000 6.69 110 13:52 01.10.2022
10 Clear 29 1018 59 10000 5.14 120 12:34 01.10.2022
11 Clear 28 1018 34 10000 6.69 110 11:22 01.10.2022
12 Clear 28 1019 39 10000 4.63 120 10:51 01.10.2022
13 Clear 28 1019 39 10000 3.09 120 10:29 01.10.2022
14 Clear 23 1019 56 10000 1.54 260 09:21 01.10.2022
15 Clear 20 1019 85 10000 0.51 0 08:26 01.10.2022
16 Clouds 16 1018 96 10000 1.03 360 03:42 01.10.2022
17 Clouds 16 1018 100 10000 1.03 320 02:37 01.10.2022
18 Clouds 18 1017 96 10000 0.51 0 23:21 30.09.2022
19 Clouds 19 1017 92 10000 1.03 0 21:58 30.09.2022
20 Clouds 19 1016 96 10000 0.51 0 20:53 30.09.2022
21 Clear 20 1016 89 10000 1.03 360 20:20 30.09.2022
22 Clear 22 1015 83 10000 3.09 90 18:27 30.09.2022
23 Clear 25 1014 78 10000 6.17 100 16:32 30.09.2022
24 Clouds 28 1014 63 10000 6.17 120 14:23 30.09.2022
25 Clear 27 1014 47 10000 2.57 130 12:29 30.09.2022
26 Clear 26 1014 50 10000 3.09 130 11:55 30.09.2022
27 Clear 20 1013 96 8000 2.06 250 08:57 30.09.2022
28 Clear 18 1012 100 8000 1.03 0 07:50 30.09.2022
29 Clear 16 1011 100 10000 1.03 0 03:19 30.09.2022
30 Clear 17 1010 100 10000 1.03 0 01:23 30.09.2022
31 Clear 20 1008 88 10000 1.03 0 21:39 29.09.2022
32 Clear 19 1008 100 10000 1.54 60 21:19 29.09.2022
33 Clouds 21 1007 78 10000 2.57 100 18:56 29.09.2022
34 Clouds 23 1007 89 10000 4.12 100 17:49 29.09.2022
35 Clouds 24 1007 69 10000 6.17 120 16:29 29.09.2022
36 Clouds 25 1006 83 10000 6.17 110 15:37 29.09.2022
37 Thunderstorm 25 1006 86 10000 6.69 80 14:59 29.09.2022
38 Clouds 27 1007 72 10000 3.6 130 12:22 29.09.2022
39 Clouds 19 1006 100 8000 1.03 0 08:44 29.09.2022
40 Clouds 16 1006 100 10000 1.03 290 04:22 29.09.2022
41 Clear 15 1006 100 10000 1.03 0 01:47 29.09.2022
42 Clear 17 1006 92 10000 0 0 23:21 28.09.2022
43 Clear 18 1006 86 10000 2.06 50 21:31 28.09.2022
44 Clear 18 1006 86 10000 2.06 50 20:51 28.09.2022
45 Rain 18 1006 89 10000 2.06 80 19:56 28.09.2022
46 Clouds 27 1004 52 10000 2.57 70 16:35 28.09.2022
47 Clouds 27 1004 50 10000 6.17 240 13:28 28.09.2022
48 Clouds 27 1004 50 10000 6.17 240 13:28 28.09.2022
49 Clear 25 1004 66 10000 4.63 240 11:45 28.09.2022
50 Clear 20 1005 73 10000 1.54 0 09:36 28.09.2022
51 Clear 15 1004 100 10000 1.03 0 07:42 28.09.2022
52 Clear 13 1004 100 10000 2.06 350 05:32 28.09.2022
53 Clouds 15 1003 100 10000 2.06 320 01:41 28.09.2022
54 Clouds 17 1003 92 10000 2.06 360 23:31 27.09.2022
55 Clouds 17 1003 100 10000 2.06 290 22:40 27.09.2022
56 Clouds 22 1002 68 10000 2.06 270 21:20 27.09.2022
57 Clouds 23 1001 64 10000 3.6 190 20:26 27.09.2022
58 Clouds 23 1001 68 10000 2.57 130 19:37 27.09.2022
59 Clouds 25 1001 57 10000 2.06 200 17:47 27.09.2022
60 Clouds 25 1001 57 10000 2.06 200 17:46 27.09.2022
61 Clouds 26 1001 53 10000 4.63 220 16:25 27.09.2022
62 Clouds 26 1001 53 10000 6.69 240 15:18 27.09.2022
63 Clouds 25 1002 53 10000 4.12 240 13:36 27.09.2022
64 Clouds 25 1003 53 10000 5.14 250 12:36 27.09.2022
65 Clear 23 1004 53 10000 4.63 230 09:54 27.09.2022
66 Clear 19 1004 72 10000 1.03 0 07:41 27.09.2022
67 Clouds 18 1005 72 10000 1.03 0 04:28 27.09.2022
68 Clouds 16 1006 77 10000 0.51 0 01:37 27.09.2022
69 Clouds 17 1007 72 10000 0.51 0 23:45 26.09.2022
70 Clouds 16 1007 77 10000 0 0 23:21 26.09.2022
71 Clouds 18 1009 68 10000 2.06 60 20:58 26.09.2022
72 Clouds 20 1009 64 10000 2.06 70 19:44 26.09.2022
73 Clouds 19 1009 72 10000 3.09 100 18:39 26.09.2022
74 Clear 21 1009 68 10000 5.66 110 17:24 26.09.2022
75 Clear 24 1010 41 10000 6.69 120 14:57 26.09.2022
76 Clear 25 1011 36 10000 2.57 240 12:30 26.09.2022
77 Clear 22 1012 37 10000 1.03 0 10:42 26.09.2022
78 Clear 20 1013 40 10000 1.54 0 10:22 26.09.2022
79 Clear 19 1013 42 10000 1.54 0 09:56 26.09.2022
80 Clear 17 1013 55 10000 1.03 0 09:26 26.09.2022
81 Clear 16 1013 72 10000 1.03 0 08:58 26.09.2022
82 Clouds 12 1014 100 10000 1.03 0 03:48 26.09.2022
83 Clouds 13 1015 94 10000 1.54 40 01:52 26.09.2022
84 Clouds 15 1016 82 10000 2.06 80 23:20 25.09.2022
85 Clouds 16 1016 67 10000 3.09 100 21:44 25.09.2022
86 Clouds 16 1016 67 10000 2.57 50 20:57 25.09.2022
87 Clouds 16 1016 67 10000 2.57 50 20:33 25.09.2022
88 Clouds 18 1016 59 10000 2.57 140 18:44 25.09.2022
89 Clouds 19 1016 59 10000 5.14 140 18:24 25.09.2022
90 Clear 21 1016 52 10000 6.17 140 16:59 25.09.2022
91 Clear 22 1017 46 10000 6.17 140 15:48 25.09.2022
92 Clear 23 1017 38 10000 6.17 130 14:31 25.09.2022
93 Clear 23 1017 38 10000 7.72 120 13:45 25.09.2022
94 Clear 19 1019 48 10000 1.03 0 10:37 25.09.2022
95 Clear 17 1019 55 10000 0.51 0 09:21 25.09.2022
96 Clouds 6 1019 87 10000 1.54 260 06:28 25.09.2022
97 Clouds 7 1019 81 8000 1.03 290 04:28 25.09.2022
98 Clouds 9 1020 66 10000 1.03 0 23:36 24.09.2022
99 Clear 11 1020 62 10000 0 0 21:19 24.09.2022
100 Clouds 14 1019 51 10000 2.06 20 19:24 24.09.2022
101 Clouds 17 1019 39 10000 2.06 360 18:25 24.09.2022
102 Clouds 20 1018 30 10000 6.17 270 16:43 24.09.2022
103 Clouds 20 1018 32 10000 5.66 250 15:23 24.09.2022
104 Clouds 20 1018 32 10000 5.66 270 14:18 24.09.2022
105 Clouds 20 1019 34 10000 6.69 260 12:59 24.09.2022
106 Clouds 20 1019 34 10000 7.72 260 12:20 24.09.2022
107 Clear 15 1020 55 10000 7.72 270 09:57 24.09.2022
108 Clear 14 1019 62 10000 3.6 270 08:50 24.09.2022
109 Clear 10 1019 81 10000 0 0 07:39 24.09.2022
110 Clouds 7 1018 93 10000 1.54 260 04:50 24.09.2022
111 Clear 7 1017 93 10000 1.54 320 03:43 24.09.2022
112 Clouds 9 1018 87 10000 1.03 320 22:39 23.09.2022
113 Clouds 10 1018 81 10000 2.06 360 21:31 23.09.2022
114 Clouds 10 1018 81 10000 2.57 10 20:57 23.09.2022
115 Clouds 11 1018 76 10000 1.54 10 20:20 23.09.2022
116 Clouds 13 1017 71 10000 0.51 0 18:51 23.09.2022
117 Clouds 16 1017 63 10000 3.09 100 14:55 23.09.2022
118 Clear 17 1018 48 10000 3.6 330 10:55 23.09.2022
119 Clear 14 1018 62 10000 2.57 310 09:33 23.09.2022
120 Clouds 9 1017 81 10000 1.03 0 05:58 23.09.2022
121 Clouds 9 1017 81 10000 2.06 240 00:32 23.09.2022
122 Clouds 10 1017 71 10000 1.54 360 23:21 22.09.2022
123 Clouds 11 1017 66 10000 0 0 22:26 22.09.2022
124 Clouds 12 1016 62 10000 1.54 10 20:51 22.09.2022
125 Clouds 13 1016 58 10000 1.54 10 19:37 22.09.2022
126 Clouds 18 1015 42 10000 5.66 320 17:25 22.09.2022
127 Clouds 17 1015 48 10000 5.14 330 12:46 22.09.2022
128 Clouds 15 1016 63 10000 5.14 310 10:32 22.09.2022
129 Clear 12 1016 71 10000 2.06 0 08:52 22.09.2022
130 Clouds 10 1015 76 10000 3.09 290 06:45 22.09.2022
131 Clouds 10 1015 76 10000 1.03 0 02:52 22.09.2022
132 Clouds 13 1016 62 10000 1.03 0 23:31 21.09.2022
133 Clouds 11 1016 76 10000 2.06 260 21:50 21.09.2022
134 Clouds 13 1016 67 10000 3.09 350 20:18 21.09.2022
135 Clouds 16 1015 51 10000 2.57 30 17:48 21.09.2022
136 Clouds 16 1015 63 10000 1.54 0 16:31 21.09.2022
137 Rain 14 1015 67 10000 5.66 190 14:31 21.09.2022
138 Clouds 20 1015 37 10000 2.57 0 12:42 21.09.2022
139 Clear 19 1015 39 10000 3.6 0 11:29 21.09.2022
140 Clear 16 1016 51 10000 4.63 310 09:55 21.09.2022
141 Clear 15 1016 74 10000 3.6 270 09:00 21.09.2022
142 Clear 10 1016 88 10000 2.57 240 07:18 21.09.2022
143 Clear 10 1016 85 10000 1.54 310 02:47 21.09.2022
144 Clear 10 1016 88 10000 1.54 290 02:25 21.09.2022
145 Clouds 11 1016 82 10000 0.51 0 00:34 21.09.2022
146 Clouds 11 1016 66 10000 1.03 0 22:43 20.09.2022
147 Clouds 13 1015 77 10000 1.54 240 20:51 20.09.2022
148 Clouds 14 1015 70 10000 2.06 310 19:32 20.09.2022
149 Clouds 19 1014 56 10000 6.69 290 16:28 20.09.2022
150 Clouds 20 1014 55 10000 6.69 290 14:46 20.09.2022
151 Clouds 20 1014 56 10000 8.23 300 13:22 20.09.2022
152 Clear 17 1015 70 10000 9.77 280 09:34 20.09.2022
153 Clear 15 1014 77 10000 7.2 280 08:26 20.09.2022
154 Clouds 13 1013 80 10000 2.57 280 04:50 20.09.2022
155 Clouds 12 1013 82 10000 4.12 290 03:48 20.09.2022
156 Clouds 13 1013 85 10000 2.57 40 22:55 19.09.2022
157 Clouds 13 1013 85 10000 2.06 20 21:46 19.09.2022
158 Clouds 14 1013 83 10000 2.06 50 20:51 19.09.2022
159 Clouds 15 1013 77 10000 1.54 90 20:30 19.09.2022
160 Clear 19 1012 63 10000 4.63 120 17:44 19.09.2022
161 Clear 22 1013 59 10000 6.17 120 15:34 19.09.2022
162 Clear 22 1013 23 10000 3.09 0 13:32 19.09.2022
163 Clear 20 1015 32 10000 3.6 250 11:25 19.09.2022
164 Clear 17 1015 65 10000 5.14 250 08:51 19.09.2022
165 Clear 10 1015 82 10000 3.09 340 06:42 19.09.2022
166 Clear 13 1014 72 10000 6.17 280 01:55 19.09.2022
167 Clouds 13 1013 72 10000 3.6 290 23:22 18.09.2022
168 Clouds 14 1013 72 10000 5.14 280 21:44 18.09.2022
169 Clouds 16 1012 66 10000 10.29 280 20:25 18.09.2022
170 Clouds 18 1010 64 10000 11.83 290 18:18 18.09.2022
171 Clouds 20 1010 63 10000 10.29 300 17:37 18.09.2022
172 Clouds 20 1008 64 10000 11.32 280 15:44 18.09.2022
173 Clouds 21 1007 66 10000 12.86 290 13:50 18.09.2022
174 Clouds 20 1006 65 10000 14.92 280 12:35 18.09.2022
175 Clouds 18 1006 73 10000 13.38 280 10:55 18.09.2022
176 Clouds 17 1000 100 10000 1.54 100 03:42 18.09.2022
177 Clouds 18 1000 100 10000 1.54 60 01:24 18.09.2022
178 Clouds 18 1000 100 10000 2.57 150 00:23 18.09.2022
179 Rain 19 1002 100 10000 2.06 90 21:39 17.09.2022
180 Clouds 19 1001 100 10000 1.54 350 19:43 17.09.2022
181 Clouds 19 1001 100 10000 1.54 350 19:43 17.09.2022
182 Clouds 20 1001 96 10000 1.03 0 18:57 17.09.2022
183 Rain 22 1003 88 10000 5.14 300 16:18 17.09.2022
184 Clouds 32 1001 60 10000 5.14 120 13:56 17.09.2022
185 Clear 30 1003 45 10000 2.06 130 10:57 17.09.2022
186 Clear 25 1004 83 10000 0.51 0 08:55 17.09.2022
187 Clouds 18 1004 100 10000 1.03 30 06:24 17.09.2022
188 Clouds 20 1006 100 10000 0 0 23:59 16.09.2022
189 Clouds 21 1006 92 10000 1.03 330 22:52 16.09.2022
190 Clouds 22 1006 96 10000 2.06 320 21:22 16.09.2022
191 Clouds 22 1007 89 10000 1.03 0 19:50 16.09.2022
192 Clear 32 1005 50 10000 7.72 310 16:38 16.09.2022
193 Clear 34 1006 45 10000 8.75 270 14:58 16.09.2022
194 Clear 34 1006 46 10000 9.26 270 13:43 16.09.2022
195 Clear 33 1007 48 10000 10.29 280 10:50 16.09.2022
196 Clear 27 1007 67 10000 4.63 260 08:19 16.09.2022
197 Clear 22 1006 80 10000 2.57 310 07:18 16.09.2022
198 Clear 22 1006 80 10000 2.57 310 06:34 16.09.2022
199 Clouds 23 1006 73 10000 2.06 310 02:38 16.09.2022
200 Clouds 24 1007 69 10000 2.06 350 22:43 15.09.2022
201 Clouds 25 1008 65 10000 1.54 20 20:57 15.09.2022
202 Clear 27 1007 61 10000 2.06 40 19:48 15.09.2022
203 Clear 30 1007 52 10000 3.09 240 18:29 15.09.2022
204 Clear 34 1007 44 10000 5.66 260 17:31 15.09.2022
205 Clear 35 1007 40 10000 8.75 280 16:37 15.09.2022
206 Clear 36 1007 40 10000 8.75 270 14:20 15.09.2022
207 Clear 34 1009 27 10000 8.23 270 11:48 15.09.2022
208 Clear 28 1009 56 10000 2.57 290 09:52 15.09.2022
209 Clear 20 1010 77 10000 1.03 0 07:50 15.09.2022
210 Clear 17 1010 86 10000 2.06 340 03:52 15.09.2022
211 Clouds 17 1012 89 10000 3.09 10 23:43 14.09.2022
212 Clouds 18 1012 83 10000 1.54 70 21:26 14.09.2022
213 Clouds 21 1012 76 10000 1.54 120 19:33 14.09.2022
214 Clouds 23 1012 70 10000 3.09 130 18:32 14.09.2022
215 Clear 27 1012 53 10000 5.14 100 16:44 14.09.2022
216 Clear 29 1012 42 10000 3.6 210 15:29 14.09.2022
217 Clear 28 1013 43 10000 5.66 230 13:36 14.09.2022
218 Clear 24 1014 60 10000 5.14 250 10:52 14.09.2022
219 Clear 23 1014 66 10000 5.66 280 09:27 14.09.2022
220 Clear 14 1013 85 10000 2.06 260 06:51 14.09.2022
221 Clear 14 1013 85 10000 2.06 260 06:33 14.09.2022
222 Clouds 14 1013 92 10000 1.54 280 03:54 14.09.2022
223 Clouds 15 1012 92 10000 2.06 330 01:43 14.09.2022
224 Clouds 15 1012 89 10000 1.54 10 01:20 14.09.2022
225 Clouds 17 1013 83 10000 0 0 23:55 13.09.2022
226 Clouds 17 1013 83 10000 0 0 23:37 13.09.2022
227 Clouds 18 1013 80 10000 1.03 0 23:19 13.09.2022
228 Clouds 18 1013 80 10000 0 0 22:43 13.09.2022
229 Clouds 18 1013 80 10000 0 0 22:43 13.09.2022
230 Clouds 19 1013 77 10000 1.03 0 21:42 13.09.2022
231 Clouds 19 1012 77 10000 2.06 120 19:32 13.09.2022
232 Clouds 21 1011 71 10000 3.6 140 16:45 13.09.2022
233 Clouds 21 1011 71 10000 4.12 120 15:53 13.09.2022
234 Clouds 23 1011 64 10000 4.63 120 13:50 13.09.2022
235 Clouds 23 1011 35 10000 3.6 290 12:28 13.09.2022
236 Clear 18 1011 55 10000 3.6 260 08:32 13.09.2022
237 Clouds 16 1011 77 10000 1.54 0 04:24 13.09.2022
238 Clouds 19 1010 77 10000 3.6 300 23:23 12.09.2022
239 Clouds 19 1010 77 10000 6.69 280 22:46 12.09.2022
240 Clouds 20 1009 76 10000 3.6 310 21:35 12.09.2022
241 Clouds 20 1009 73 10000 2.57 290 20:24 12.09.2022
242 Clouds 22 1008 68 10000 3.09 270 18:41 12.09.2022
243 Clouds 26 1008 59 10000 5.66 270 16:20 12.09.2022
244 Clouds 25 1008 64 10000 5.14 280 13:24 12.09.2022
245 Clear 24 1009 72 10000 5.66 300 10:56 12.09.2022
246 Clear 22 1009 78 10000 7.2 300 09:33 12.09.2022
247 Rain 16 1009 100 10000 2.57 280 04:45 12.09.2022
248 Rain 17 1009 92 10000 5.14 260 03:25 12.09.2022
249 Clouds 18 1009 77 10000 2.57 230 23:18 11.09.2022
250 Rain 20 1009 73 10000 1.54 290 21:41 11.09.2022
251 Rain 21 1009 75 10000 1.54 0 20:45 11.09.2022
252 Clear 22 1009 68 10000 1.54 360 19:46 11.09.2022
253 Clear 23 1008 66 10000 2.57 360 19:22 11.09.2022
254 Clear 27 1008 58 10000 5.66 300 17:57 11.09.2022
255 Clear 28 1009 58 10000 6.69 300 16:23 11.09.2022
256 Clear 29 1009 58 10000 6.69 280 14:18 11.09.2022
257 Clear 29 1010 61 10000 6.69 270 12:32 11.09.2022
258 Clouds 21 1011 89 10000 5.66 260 08:27 11.09.2022
259 Clouds 19 1010 100 9000 3.6 290 06:33 11.09.2022
260 Clouds 20 1011 100 10000 1.54 270 00:49 11.09.2022
261 Rain 21 1011 100 10000 1.03 40 22:26 10.09.2022
262 Clouds 22 1011 96 10000 2.06 120 20:51 10.09.2022
263 Clouds 22 1011 92 10000 3.09 140 19:45 10.09.2022
264 Clouds 22 1011 92 10000 3.09 140 19:45 10.09.2022
265 Clouds 22 1010 92 10000 4.12 120 19:27 10.09.2022
266 Clouds 23 1011 89 10000 6.69 110 17:59 10.09.2022
267 Clouds 25 1011 81 10000 7.72 120 15:45 10.09.2022
268 Clouds 26 1012 81 10000 8.23 120 14:37 10.09.2022
269 Clouds 28 1013 79 10000 7.72 110 12:52 10.09.2022
270 Clouds 27 1014 79 10000 6.17 130 10:35 10.09.2022
271 Clouds 25 1014 83 10000 5.14 140 08:42 10.09.2022
272 Clouds 24 1014 86 10000 3.6 150 08:23 10.09.2022
273 Clouds 20 1014 100 10000 2.57 140 05:25 10.09.2022
274 Clouds 22 1016 86 10000 3.6 130 23:52 09.09.2022
275 Clouds 22 1016 86 10000 4.12 130 23:19 09.09.2022
276 Clouds 22 1016 86 10000 4.12 140 21:21 09.09.2022
277 Clouds 22 1016 86 10000 4.12 140 20:22 09.09.2022
278 Clouds 22 1016 83 10000 4.12 130 19:23 09.09.2022
279 Clouds 23 1016 80 10000 6.69 120 18:18 09.09.2022
280 Clear 26 1016 74 10000 7.2 130 15:45 09.09.2022
281 Clear 27 1017 69 10000 8.23 120 13:43 09.09.2022
282 Clear 27 1017 44 10000 6.17 140 11:38 09.09.2022
283 Clear 21 1018 80 10000 2.06 120 07:58 09.09.2022
284 Clear 16 1018 89 10000 2.06 20 03:40 09.09.2022
285 Clear 17 1018 86 10000 1.54 0 00:39 09.09.2022
286 Clear 20 1018 78 10000 2.57 150 21:52 08.09.2022
287 Clear 20 1019 78 10000 3.09 140 20:49 08.09.2022
288 Clear 21 1018 80 10000 3.09 130 20:29 08.09.2022
289 Clear 21 1018 76 10000 3.6 140 19:25 08.09.2022
290 Clear 24 1018 74 10000 7.2 120 17:29 08.09.2022
291 Clear 25 1018 72 10000 7.2 120 15:53 08.09.2022
292 Clouds 26 1018 50 10000 8.23 130 13:30 08.09.2022
293 Clouds 26 1018 47 10000 7.72 120 12:41 08.09.2022
294 Clouds 25 1019 47 10000 4.12 190 11:23 08.09.2022
295 Clear 24 1019 72 10000 4.63 180 09:46 08.09.2022
296 Clear 17 1019 92 10000 0 0 07:25 08.09.2022
297 Clear 14 1019 92 10000 1.03 360 04:43 08.09.2022
298 Clear 15 1019 89 10000 1.54 60 02:36 08.09.2022
299 Clear 15 1019 89 10000 1.54 30 02:18 08.09.2022
300 Clear 16 1020 83 10000 1.03 10 22:58 07.09.2022
301 Clear 19 1020 77 10000 1.54 140 21:45 07.09.2022
302 Clear 19 1020 77 10000 2.06 130 21:21 07.09.2022
303 Clear 20 1020 76 10000 2.57 150 20:28 07.09.2022
304 Clear 21 1019 73 10000 3.6 160 18:54 07.09.2022
305 Clouds 24 1020 67 10000 6.17 140 16:18 07.09.2022
306 Clouds 23 1021 49 10000 5.14 120 10:52 07.09.2022
307 Clouds 23 1021 49 10000 5.14 120 10:32 07.09.2022
308 Clear 19 1021 82 9000 0.51 0 08:26 07.09.2022
309 Clear 11 1020 93 10000 0 0 05:46 07.09.2022
310 Clear 14 1021 85 10000 2.06 340 00:31 07.09.2022
311 Clear 15 1021 67 10000 2.06 20 21:51 06.09.2022
312 Clear 15 1021 67 10000 2.06 20 21:51 06.09.2022
313 Clear 15 1021 67 10000 2.06 360 21:32 06.09.2022
314 Clouds 18 1021 73 10000 1.54 90 19:38 06.09.2022
315 Clouds 20 1021 70 10000 3.6 120 18:34 06.09.2022
316 Clouds 22 1021 63 10000 5.66 110 17:37 06.09.2022
317 Clouds 22 1021 64 10000 6.17 130 16:44 06.09.2022
318 Clouds 23 1021 63 10000 7.2 120 15:55 06.09.2022
319 Clouds 25 1021 62 10000 7.2 130 13:47 06.09.2022
320 Clouds 25 1021 63 10000 7.2 130 13:27 06.09.2022
321 Clouds 24 1022 65 10000 6.17 130 12:56 06.09.2022
322 Clouds 24 1022 38 10000 3.6 140 10:55 06.09.2022
323 Clouds 22 1022 67 10000 3.09 0 09:18 06.09.2022
324 Clouds 15 1022 92 10000 1.54 290 07:52 06.09.2022
325 Clouds 15 1022 92 10000 1.54 290 07:52 06.09.2022
326 Clouds 12 1022 100 10000 1.54 230 06:18 06.09.2022
327 Clear 16 1023 83 10000 1.03 0 00:45 06.09.2022
328 Clear 16 1023 83 10000 3.6 50 22:49 05.09.2022
329 Clear 16 1024 86 10000 2.06 20 21:38 05.09.2022
330 Clouds 17 1024 80 10000 2.57 50 20:18 05.09.2022
331 Clouds 19 1023 77 10000 4.12 110 18:53 05.09.2022
332 Clouds 20 1023 76 10000 4.63 110 18:24 05.09.2022
333 Clouds 21 1023 71 10000 4.63 90 17:47 05.09.2022
334 Clouds 22 1022 72 10000 5.14 110 15:53 05.09.2022
335 Clouds 22 1023 76 10000 5.66 110 14:20 05.09.2022
336 Clouds 23 1023 67 10000 4.12 0 12:29 05.09.2022
337 Clouds 22 1023 69 10000 5.66 40 10:35 05.09.2022
338 Clear 20 1022 73 10000 4.63 10 08:36 05.09.2022
339 Clouds 15 1022 86 10000 3.09 340 03:47 05.09.2022
340 Clouds 17 1022 83 10000 3.6 40 23:58 04.09.2022
341 Clouds 17 1022 83 10000 3.6 40 22:28 04.09.2022
342 Clouds 17 1022 83 10000 3.09 50 21:45 04.09.2022
343 Clouds 18 1022 83 10000 3.09 40 19:44 04.09.2022
344 Clouds 20 1021 83 10000 2.06 160 18:21 04.09.2022
345 Clouds 21 1021 80 10000 3.6 130 17:24 04.09.2022
346 Clear 23 1021 69 10000 3.6 350 14:59 04.09.2022
347 Clouds 23 1021 69 10000 2.57 350 14:21 04.09.2022
348 Clouds 23 1021 72 10000 2.57 10 12:24 04.09.2022
349 Clouds 23 1021 72 10000 4.12 360 10:51 04.09.2022
350 Clear 19 1021 59 10000 4.12 350 09:23 04.09.2022
351 Clouds 15 1020 86 10000 3.6 330 06:24 04.09.2022
352 Clouds 16 1019 89 10000 3.6 290 01:56 04.09.2022
353 Clouds 16 1019 92 10000 4.12 320 22:26 03.09.2022
354 Clouds 16 1018 92 10000 2.57 330 21:24 03.09.2022
355 Clouds 16 1018 92 10000 3.6 330 20:42 03.09.2022
356 Clouds 18 1016 86 10000 7.72 310 17:36 03.09.2022
357 Clouds 20 1016 86 10000 7.72 320 16:34 03.09.2022
358 Clouds 21 1015 68 10000 9.26 320 14:47 03.09.2022
359 Clouds 21 1015 80 10000 9.77 300 14:26 03.09.2022
360 Clouds 22 1015 80 10000 9.77 300 13:39 03.09.2022
361 Clouds 19 1014 82 10000 7.2 310 11:18 03.09.2022
362 Clouds 18 1013 92 10000 4.63 290 08:41 03.09.2022
363 Clouds 18 1012 96 10000 3.09 280 06:59 03.09.2022
364 Clouds 21 1011 92 10000 5.66 350 04:40 03.09.2022
365 Clouds 22 1012 96 10000 0 0 00:46 03.09.2022
366 Clouds 23 1012 89 10000 6.17 70 23:28 02.09.2022
367 Clouds 22 1012 89 10000 4.63 100 21:33 02.09.2022
368 Clouds 23 1013 89 10000 7.2 110 20:39 02.09.2022
369 Clouds 23 1012 86 10000 4.12 80 19:30 02.09.2022
370 Clouds 24 1012 83 10000 4.63 80 18:43 02.09.2022
371 Clouds 24 1012 86 10000 4.63 50 18:24 02.09.2022
372 Clouds 26 1011 81 10000 7.72 60 16:49 02.09.2022
373 Clouds 27 1011 76 10000 8.23 70 15:35 02.09.2022
374 Clouds 28 1012 76 10000 7.2 80 12:49 02.09.2022
375 Clouds 26 1013 81 10000 7.72 80 10:25 02.09.2022
376 Clouds 26 1013 79 10000 7.2 90 09:41 02.09.2022
377 Clouds 23 1013 80 10000 4.12 40 07:54 02.09.2022
378 Clouds 21 1013 86 10000 2.57 20 06:41 02.09.2022
379 Clear 21 1013 83 10000 3.09 100 03:52 02.09.2022
380 Clouds 22 1013 86 10000 4.12 90 22:45 01.09.2022
381 Rain 22 1013 86 10000 3.09 110 21:44 01.09.2022
382 Rain 21 1013 89 10000 2.57 100 21:25 01.09.2022
383 Rain 22 1013 89 10000 0 0 20:46 01.09.2022
384 Clouds 24 1012 83 10000 6.17 90 19:20 01.09.2022
385 Clouds 25 1011 83 10000 5.14 90 17:47 01.09.2022
386 Rain 25 1012 92 10000 2.06 80 16:29 01.09.2022
387 Clouds 27 1011 83 10000 7.2 130 14:33 01.09.2022
388 Clouds 30 1011 71 10000 5.14 130 12:59 01.09.2022
389 Clouds 29 1012 68 10000 3.6 60 11:53 01.09.2022
390 Clouds 29 1012 68 10000 3.6 60 11:32 01.09.2022
391 Clouds 30 1012 69 10000 3.09 50 10:40 01.09.2022
392 Clear 24 1012 76 10000 3.6 10 08:30 01.09.2022
393 Clear 20 1012 73 10000 6.17 350 06:23 01.09.2022
394 Clear 21 1012 78 10000 3.6 270 01:33 01.09.2022
395 Clear 22 1012 68 10000 3.09 350 00:18 01.09.2022
396 Rain 23 1012 83 10000 2.06 300 21:33 31.08.2022
397 Clouds 25 1012 78 10000 2.57 100 19:50 31.08.2022
398 Clouds 27 1011 65 10000 4.63 120 18:18 31.08.2022
399 Clouds 29 1011 70 10000 6.69 130 15:56 31.08.2022
400 Clouds 29 1011 58 10000 6.69 150 14:32 31.08.2022
401 Clear 30 1012 45 10000 3.6 40 12:22 31.08.2022
402 Clear 28 1013 72 10000 4.12 30 11:22 31.08.2022
403 Clouds 22 1013 94 10000 2.06 240 08:36 31.08.2022
404 Clouds 20 1013 100 10000 1.54 260 04:47 31.08.2022
405 Clear 22 1013 100 10000 1.03 350 23:20 30.08.2022
406 Rain 22 1014 92 10000 1.54 10 21:38 30.08.2022
407 Rain 23 1013 89 10000 1.54 40 20:57 30.08.2022
408 Clear 27 1012 79 10000 5.14 120 18:23 30.08.2022
409 Clouds 31 1013 66 10000 7.2 130 14:44 30.08.2022
410 Clouds 32 1014 60 10000 6.69 140 13:24 30.08.2022
411 Clear 30 1014 45 10000 3.09 160 11:21 30.08.2022
412 Clouds 31 1015 67 10000 1.54 0 10:35 30.08.2022
413 Clear 19 1015 83 9000 0 0 06:50 30.08.2022
414 Clouds 20 1014 77 10000 1.03 0 01:53 30.08.2022
415 Clouds 22 1014 73 10000 2.06 10 22:54 29.08.2022
416 Clouds 22 1014 76 10000 2.57 30 22:20 29.08.2022
417 Clouds 23 1014 73 10000 2.06 10 21:24 29.08.2022
418 Clouds 25 1013 83 10000 3.09 80 19:48 29.08.2022
419 Clear 29 1013 65 10000 4.63 110 17:43 29.08.2022
420 Clear 30 1013 58 10000 4.63 110 17:24 29.08.2022
421 Clear 31 1013 54 10000 5.66 100 16:22 29.08.2022
422 Clear 32 1013 55 10000 7.2 110 14:43 29.08.2022
423 Clouds 32 1014 40 10000 7.72 100 12:42 29.08.2022
424 Clear 33 1014 55 10000 4.12 130 10:51 29.08.2022
425 Clear 32 1014 65 10000 1.54 130 09:45 29.08.2022
426 Clouds 27 1014 76 8000 1.54 270 08:28 29.08.2022
427 Clear 20 1013 86 10000 1.03 280 02:48 29.08.2022
428 Clear 22 1013 80 10000 1.03 360 23:52 28.08.2022
429 Clear 24 1013 86 10000 2.57 80 22:22 28.08.2022
430 Rain 25 1013 86 10000 4.12 100 21:32 28.08.2022
431 Clear 26 1012 83 10000 4.63 100 20:39 28.08.2022
432 Clear 28 1011 75 10000 4.63 100 18:38 28.08.2022
433 Clear 29 1011 72 10000 4.63 100 18:19 28.08.2022
434 Clear 31 1011 65 10000 5.14 100 16:55 28.08.2022
435 Clear 32 1011 61 10000 6.69 100 15:42 28.08.2022
436 Clouds 33 1011 29 10000 7.2 120 13:34 28.08.2022
437 Clouds 33 1012 27 10000 6.17 130 12:31 28.08.2022
438 Clear 31 1012 40 10000 2.06 210 10:27 28.08.2022
439 Clear 29 1012 72 10000 1.54 0 09:38 28.08.2022
440 Clear 25 1012 77 10000 1.54 260 08:31 28.08.2022
441 Clear 22 1012 83 10000 1.03 0 07:32 28.08.2022
442 Clear 21 1012 80 10000 2.06 330 01:00 28.08.2022
443 Clear 21 1012 83 10000 2.06 10 00:20 28.08.2022
444 Clear 22 1011 80 10000 2.06 40 22:27 27.08.2022
445 Rain 23 1011 86 10000 2.57 50 20:49 27.08.2022
446 Clouds 24 1011 86 10000 3.09 90 19:37 27.08.2022
447 Clouds 29 1009 71 10000 8.23 100 16:34 27.08.2022
448 Clouds 32 1009 57 10000 7.2 110 15:31 27.08.2022
449 Clouds 33 1009 53 10000 2.57 0 13:57 27.08.2022
450 Clouds 34 1009 49 10000 2.06 0 12:22 27.08.2022
451 Clear 30 1009 37 10000 2.57 0 10:30 27.08.2022
452 Clouds 28 1009 51 10000 0.51 0 09:39 27.08.2022
453 Clouds 22 1009 86 9000 1.03 0 06:54 27.08.2022
454 Clouds 22 1008 86 10000 2.57 360 02:24 27.08.2022
455 Clouds 22 1008 86 10000 2.57 350 23:49 26.08.2022
456 Clouds 23 1008 83 10000 1.03 0 21:53 26.08.2022
457 Clouds 25 1008 83 10000 4.12 100 20:22 26.08.2022
458 Clouds 27 1007 63 10000 1.54 270 18:19 26.08.2022
459 Rain 28 1007 39 10000 2.57 340 16:36 26.08.2022
460 Rain 28 1007 39 10000 4.63 320 15:25 26.08.2022
461 Rain 29 1007 62 10000 2.06 0 13:20 26.08.2022
462 Clouds 28 1007 42 10000 2.06 0 11:48 26.08.2022
463 Clouds 28 1008 39 10000 2.06 220 11:22 26.08.2022
464 Clouds 28 1008 63 10000 4.12 200 09:45 26.08.2022
465 Clouds 22 1007 60 10000 3.6 340 04:56 26.08.2022
466 Clouds 23 1007 80 10000 1.03 0 00:44 26.08.2022
467 Clouds 24 1008 78 10000 2.57 10 22:44 25.08.2022
468 Clouds 25 1008 76 10000 3.09 100 20:57 25.08.2022
469 Clouds 26 1007 68 10000 3.6 100 19:36 25.08.2022
470 Clouds 27 1007 68 10000 3.6 20 18:35 25.08.2022
471 Clouds 28 1008 66 10000 4.12 30 17:32 25.08.2022
472 Clouds 29 1008 69 10000 3.09 30 16:45 25.08.2022
473 Clouds 30 1008 67 10000 6.17 40 15:30 25.08.2022
474 Clouds 32 1008 35 10000 7.2 50 13:59 25.08.2022
475 Clouds 30 1008 70 10000 5.66 350 11:25 25.08.2022
476 Clouds 30 1008 72 10000 4.12 20 10:44 25.08.2022
477 Clouds 23 1008 83 10000 4.63 340 07:35 25.08.2022
478 Clouds 21 1009 89 10000 4.12 340 03:44 25.08.2022
479 Clouds 22 1011 89 10000 2.06 300 23:37 24.08.2022
480 Clouds 22 1011 89 10000 3.6 360 23:18 24.08.2022
481 Clouds 24 1011 83 10000 1.54 290 21:56 24.08.2022
482 Clouds 25 1011 83 10000 2.06 340 21:30 24.08.2022
483 Clouds 28 1010 74 10000 3.09 60 19:56 24.08.2022
484 Clouds 30 1009 74 10000 1.54 120 17:28 24.08.2022
485 Clouds 29 1010 58 10000 3.09 130 15:54 24.08.2022
486 Clouds 30 1010 70 10000 2.57 160 15:28 24.08.2022
487 Clouds 29 1010 54 10000 3.6 90 12:51 24.08.2022
488 Clouds 30 1011 70 10000 2.06 0 11:19 24.08.2022
489 Clouds 26 1011 69 10000 1.54 0 08:45 24.08.2022
490 Clouds 24 1008 92 10000 8.75 360 06:23 24.08.2022
491 Clouds 23 1010 100 10000 0 0 00:53 24.08.2022
492 Clouds 24 1010 89 10000 0 0 22:38 23.08.2022
493 Clouds 25 1011 86 10000 1.54 80 21:55 23.08.2022
494 Clouds 24 1010 89 10000 1.54 50 20:43 23.08.2022
495 Clouds 26 1009 81 10000 4.63 110 19:18 23.08.2022
496 Clouds 27 1009 86 10000 6.69 120 17:59 23.08.2022
497 Clouds 27 1009 86 10000 5.66 120 17:22 23.08.2022
498 Clouds 29 1009 82 10000 7.2 130 15:54 23.08.2022
499 Clouds 30 1009 77 10000 7.2 150 13:54 23.08.2022
500 Clouds 30 1010 79 10000 6.17 140 12:46 23.08.2022
501 Clouds 29 1010 81 10000 3.09 150 10:57 23.08.2022
502 Clouds 28 1010 81 10000 3.09 150 10:33 23.08.2022
503 Clouds 26 1009 86 10000 0.51 0 08:58 23.08.2022
504 Clouds 26 1009 86 10000 0.51 0 08:38 23.08.2022
505 Clouds 25 1009 89 10000 0 0 08:18 23.08.2022
506 Clouds 23 1009 96 10000 2.57 320 07:25 23.08.2022
507 Clouds 22 1009 100 10000 3.09 350 06:22 23.08.2022
508 Clouds 21 1008 92 10000 1.03 0 01:44 23.08.2022
509 Clouds 21 1008 96 10000 0 0 00:26 23.08.2022
510 Clouds 22 1008 92 10000 1.54 120 23:32 22.08.2022
511 Clouds 23 1008 89 10000 3.09 30 22:19 22.08.2022
512 Clear 24 1007 89 10000 2.06 120 19:56 22.08.2022
513 Clear 24 1007 89 10000 2.06 120 19:36 22.08.2022
514 Clear 26 1007 86 10000 3.6 130 18:36 22.08.2022
515 Clouds 30 1006 76 10000 6.69 120 15:45 22.08.2022
516 Clouds 30 1006 79 10000 6.17 120 14:48 22.08.2022
517 Clouds 29 1007 74 10000 2.57 130 11:20 22.08.2022
518 Clouds 27 1008 83 10000 3.09 350 09:20 22.08.2022
519 Mist 20 1006 100 5000 2.06 330 05:44 22.08.2022
520 Rain 22 1006 100 10000 1.54 10 00:56 22.08.2022
521 Rain 22 1006 100 10000 1.03 30 00:36 22.08.2022
522 Clouds 23 1006 92 10000 2.06 40 22:57 21.08.2022
523 Clouds 23 1006 92 10000 1.54 40 21:50 21.08.2022
524 Clouds 24 1006 89 10000 1.54 30 21:18 21.08.2022
525 Clouds 25 1006 89 10000 2.57 130 19:40 21.08.2022
526 Clouds 26 1006 86 10000 4.63 130 18:28 21.08.2022
527 Clouds 29 1006 79 10000 6.17 130 16:29 21.08.2022
528 Clouds 30 1006 74 10000 6.69 110 15:46 21.08.2022
529 Clouds 30 1006 79 10000 7.2 130 14:35 21.08.2022
530 Clouds 29 1006 65 10000 7.2 130 13:43 21.08.2022
531 Clouds 30 1007 74 10000 7.2 140 12:47 21.08.2022
532 Clouds 28 1008 76 10000 1.03 0 09:56 21.08.2022
533 Clouds 28 1008 81 10000 0 0 08:56 21.08.2022
534 Clouds 26 1008 89 10000 0.51 0 08:38 21.08.2022
535 Clouds 23 1008 100 9000 2.57 240 07:28 21.08.2022
536 Clouds 21 1008 100 10000 0 0 04:26 21.08.2022
537 Clear 22 1008 100 10000 0 0 00:53 21.08.2022
538 Clear 23 1009 96 10000 1.03 10 22:59 20.08.2022
539 Rain 24 1009 92 10000 1.54 60 21:45 20.08.2022
540 Clear 25 1009 89 10000 1.54 110 20:48 20.08.2022
541 Clear 25 1009 89 10000 2.06 130 19:42 20.08.2022
542 Clear 26 1008 83 10000 4.63 130 18:43 20.08.2022
543 Clear 27 1008 81 10000 5.14 120 18:25 20.08.2022
544 Clear 29 1008 79 10000 5.66 130 17:19 20.08.2022
545 Clear 30 1009 70 10000 6.69 130 15:51 20.08.2022
546 Clouds 31 1009 48 10000 6.69 110 13:39 20.08.2022
547 Clouds 32 1010 68 10000 5.66 130 11:53 20.08.2022
548 Clouds 31 1010 67 10000 3.09 150 10:36 20.08.2022
549 Clear 28 1010 74 10000 0.51 0 08:53 20.08.2022
550 Mist 20 1010 100 3100 0 0 06:40 20.08.2022
551 Clear 20 1010 100 9000 1.03 0 03:57 20.08.2022
552 Clear 22 1011 89 10000 2.06 320 00:51 20.08.2022
553 Clear 22 1011 89 10000 2.06 350 23:19 19.08.2022
554 Clear 22 1011 92 10000 2.06 340 22:35 19.08.2022
555 Clear 25 1011 83 10000 2.06 130 20:29 19.08.2022
556 Clear 26 1010 81 10000 3.09 140 18:46 19.08.2022
557 Clouds 30 1010 74 10000 6.17 130 15:51 19.08.2022
558 Clouds 33 1010 60 10000 4.63 350 13:36 19.08.2022
559 Clouds 31 1010 67 10000 5.14 360 11:33 19.08.2022
560 Clear 30 1010 70 10000 5.14 340 10:26 19.08.2022
561 Clear 23 1011 83 10000 2.06 310 06:59 19.08.2022
562 Clear 22 1010 92 10000 2.57 270 00:58 19.08.2022
563 Clear 23 1010 89 10000 0 0 00:31 19.08.2022
564 Clear 23 1010 86 10000 0 0 23:48 18.08.2022
565 Clear 24 1011 83 10000 1.03 0 22:51 18.08.2022
566 Clear 24 1011 83 10000 2.06 40 21:57 18.08.2022
567 Clear 24 1011 83 10000 2.06 40 21:35 18.08.2022
568 Clouds 25 1010 83 10000 3.6 100 20:25 18.08.2022
569 Clouds 26 1010 80 10000 3.09 90 19:30 18.08.2022
570 Clouds 28 1010 75 10000 5.14 100 17:50 18.08.2022
571 Clouds 30 1010 74 10000 5.66 120 16:59 18.08.2022
572 Clouds 28 1010 65 10000 3.6 0 14:52 18.08.2022
573 Clouds 29 1010 61 10000 5.14 110 14:19 18.08.2022
574 Clouds 33 1010 35 10000 4.12 360 13:29 18.08.2022
575 Clouds 31 1010 63 10000 4.63 10 11:42 18.08.2022
576 Clear 30 1010 70 10000 2.06 230 09:43 18.08.2022
577 Clear 27 1010 74 10000 1.03 0 08:40 18.08.2022
578 Clear 24 1010 78 10000 1.54 0 07:19 18.08.2022
579 Clear 22 1009 86 10000 2.06 270 03:57 18.08.2022
580 Clouds 23 1009 80 10000 2.06 30 23:34 17.08.2022
581 Clouds 25 1009 79 10000 2.57 100 21:46 17.08.2022
582 Clouds 26 1009 76 10000 3.09 80 20:19 17.08.2022
583 Clouds 27 1008 71 10000 4.12 110 19:28 17.08.2022
584 Rain 31 1008 57 10000 5.14 80 17:36 17.08.2022
585 Clouds 33 1008 53 10000 5.14 110 16:35 17.08.2022
586 Rain 32 1008 57 10000 6.17 120 15:26 17.08.2022
587 Clouds 35 1008 45 10000 5.14 240 12:57 17.08.2022
588 Clouds 33 1009 58 10000 3.09 0 11:37 17.08.2022
589 Clear 30 1009 64 10000 2.06 230 09:31 17.08.2022
590 Clear 26 1009 74 10000 3.09 260 08:23 17.08.2022
591 Clouds 22 1008 86 10000 0 0 03:27 17.08.2022
592 Clouds 22 1009 83 10000 2.06 350 23:58 16.08.2022
593 Clouds 24 1008 81 10000 0 0 22:30 16.08.2022
594 Clouds 25 1009 81 10000 1.03 140 20:52 16.08.2022
595 Clouds 27 1008 76 10000 1.54 0 19:53 16.08.2022
596 Clouds 30 1007 64 10000 3.09 200 18:40 16.08.2022
597 Clouds 32 1007 60 10000 4.12 210 17:41 16.08.2022
598 Clouds 31 1008 42 10000 4.12 160 15:48 16.08.2022
599 Clouds 33 1007 54 10000 5.14 260 14:55 16.08.2022
600 Clouds 34 1007 49 10000 4.63 270 14:37 16.08.2022
601 Clouds 34 1008 53 10000 6.17 240 12:44 16.08.2022
602 Clear 30 1008 69 10000 5.14 250 10:37 16.08.2022
603 Clear 29 1008 70 10000 4.12 260 09:44 16.08.2022
604 Clear 26 1008 76 10000 2.57 270 08:45 16.08.2022
605 Clear 21 1008 92 10000 1.54 290 07:33 16.08.2022
606 Clear 19 1008 92 10000 0 0 01:42 16.08.2022
607 Clear 21 1007 83 10000 0 0 22:29 15.08.2022
608 Clear 22 1008 78 10000 2.57 230 21:53 15.08.2022
609 Clear 23 1007 78 10000 6.17 20 20:48 15.08.2022
610 Clouds 24 1007 76 10000 6.69 20 20:19 15.08.2022
611 Clouds 28 1006 70 10000 4.63 300 18:36 15.08.2022
612 Clouds 29 1006 69 10000 5.14 260 17:23 15.08.2022
613 Clouds 29 1005 69 10000 5.14 250 16:21 15.08.2022
614 Clouds 29 1006 72 10000 5.66 290 13:56 15.08.2022
615 Clouds 26 1006 76 10000 6.17 290 12:29 15.08.2022
616 Clouds 23 1006 86 10000 6.69 300 09:59 15.08.2022
617 Clouds 22 1006 86 10000 6.69 300 08:26 15.08.2022
618 Clouds 20 1006 96 10000 5.14 260 06:20 15.08.2022
619 Clouds 20 1005 96 10000 4.63 280 02:19 15.08.2022
620 Clouds 20 1006 96 10000 3.09 260 22:39 14.08.2022
621 Clouds 20 1006 92 10000 2.57 260 21:39 14.08.2022
622 Clouds 21 1005 92 10000 3.09 270 20:21 14.08.2022
623 Clouds 23 1005 83 10000 4.12 300 19:30 14.08.2022
624 Clouds 25 1005 81 10000 4.12 320 18:19 14.08.2022
625 Clear 25 1004 86 10000 2.06 260 16:54 14.08.2022
626 Clouds 26 1004 81 10000 4.63 250 15:50 14.08.2022
627 Clouds 29 1004 75 10000 5.66 110 14:34 14.08.2022
628 Clouds 30 1004 71 10000 5.14 130 13:50 14.08.2022
629 Clouds 30 1005 69 10000 4.63 50 13:20 14.08.2022
630 Clouds 29 1005 54 10000 7.2 100 12:34 14.08.2022
631 Clouds 29 1005 74 10000 2.57 0 10:50 14.08.2022
632 Clear 26 1006 78 10000 2.57 200 08:52 14.08.2022
633 Clouds 20 1006 89 10000 2.06 240 06:22 14.08.2022
634 Clear 19 1007 100 8000 1.54 310 02:57 14.08.2022
635 Clear 20 1007 92 10000 1.03 0 00:19 14.08.2022
636 Clear 22 1008 89 10000 0 0 22:56 13.08.2022
637 Clear 22 1008 89 10000 1.03 0 21:19 13.08.2022
638 Clear 23 1008 92 10000 3.09 290 20:43 13.08.2022
639 Clouds 24 1008 86 10000 3.09 120 19:44 13.08.2022
640 Clouds 27 1008 79 10000 4.63 130 17:59 13.08.2022
641 Clouds 28 1008 76 10000 6.69 110 15:40 13.08.2022
642 Clouds 29 1008 72 10000 6.69 110 14:28 13.08.2022
643 Clouds 30 1008 70 10000 4.12 140 13:41 13.08.2022
644 Clouds 30 1009 69 10000 4.12 20 11:53 13.08.2022
645 Clouds 28 1010 74 10000 4.12 340 10:31 13.08.2022
646 Clear 26 1010 76 10000 5.14 350 09:18 13.08.2022
647 Clear 20 1011 83 10000 2.06 300 05:34 13.08.2022
648 Clear 20 1012 96 10000 1.54 260 00:29 13.08.2022
649 Clear 20 1012 92 10000 2.06 350 22:20 12.08.2022
650 Clear 22 1013 89 10000 1.03 0 20:54 12.08.2022
651 Clear 23 1012 86 10000 2.57 130 19:42 12.08.2022
652 Clear 25 1012 81 10000 3.6 120 18:48 12.08.2022
653 Clouds 27 1012 79 10000 4.63 120 17:25 12.08.2022
654 Clouds 28 1012 79 10000 7.72 130 15:52 12.08.2022
655 Clouds 28 1012 75 10000 7.2 120 14:44 12.08.2022
656 Clouds 31 1013 62 10000 4.12 360 12:55 12.08.2022
657 Clouds 28 1014 70 10000 4.12 10 11:19 12.08.2022
658 Clear 23 1014 78 10000 3.09 290 08:31 12.08.2022
659 Clear 20 1014 80 10000 2.57 270 06:56 12.08.2022
660 Clear 20 1014 78 10000 2.06 0 03:20 12.08.2022
661 Clouds 23 1014 72 10000 6.17 360 00:27 12.08.2022
662 Clouds 23 1014 72 10000 6.17 360 23:35 11.08.2022
663 Clouds 24 1014 69 10000 6.17 360 22:27 11.08.2022
664 Clouds 25 1013 69 10000 4.12 360 21:43 11.08.2022
665 Clouds 25 1013 66 10000 5.14 360 20:51 11.08.2022
666 Clouds 26 1013 44 10000 5.14 360 20:19 11.08.2022
667 Clouds 26 1013 63 10000 5.66 360 19:32 11.08.2022
668 Clouds 29 1013 58 10000 6.17 350 17:48 11.08.2022
669 Clouds 29 1013 58 10000 5.66 360 16:37 11.08.2022
670 Clouds 30 1013 53 10000 6.69 360 15:24 11.08.2022
671 Clouds 30 1013 56 10000 8.23 350 13:37 11.08.2022
672 Clear 26 1014 69 10000 4.63 300 10:27 11.08.2022
673 Clouds 20 1014 83 10000 5.66 270 07:47 11.08.2022
674 Clear 18 1014 83 10000 4.63 270 03:54 11.08.2022
675 Clear 18 1014 83 10000 10.29 340 00:50 11.08.2022
676 Clear 21 1014 76 10000 8.75 350 22:32 10.08.2022
677 Clear 22 1015 73 10000 7.2 330 21:25 10.08.2022
678 Clear 23 1015 73 10000 6.17 320 20:55 10.08.2022
679 Clear 26 1014 68 10000 5.14 350 19:31 10.08.2022
680 Clear 27 1013 67 10000 3.6 20 18:22 10.08.2022
681 Clear 28 1014 66 10000 6.17 340 16:36 10.08.2022
682 Clouds 30 1014 64 10000 5.14 330 13:36 10.08.2022
683 Clouds 30 1014 65 10000 5.14 350 12:41 10.08.2022
684 Clear 27 1013 70 10000 11.32 10 09:25 10.08.2022
685 Clear 26 1012 70 10000 10.8 20 08:33 10.08.2022
686 Clear 24 1013 73 10000 8.75 20 07:18 10.08.2022
687 Clouds 23 1012 78 10000 8.75 20 03:25 10.08.2022
688 Clear 26 1013 41 10000 6.69 10 23:34 09.08.2022
689 Clear 26 1013 41 10000 5.14 10 22:56 09.08.2022
690 Clear 27 1013 29 10000 4.63 10 21:35 09.08.2022
691 Clear 26 1013 44 10000 3.6 40 20:26 09.08.2022
692 Clouds 32 1012 20 10000 5.66 70 18:44 09.08.2022
693 Clouds 34 1012 36 10000 7.2 60 17:28 09.08.2022
694 Clouds 34 1012 36 10000 7.2 60 17:28 09.08.2022
695 Rain 34 1012 36 10000 9.26 70 16:40 09.08.2022
696 Clouds 34 1012 34 10000 8.23 70 15:58 09.08.2022
697 Clouds 35 1013 33 10000 8.75 50 12:51 09.08.2022
698 Clear 29 1014 67 10000 5.66 20 09:36 09.08.2022
699 Clear 28 1014 47 10000 6.17 20 08:50 09.08.2022
700 Clear 24 1013 64 10000 7.2 20 07:52 09.08.2022
701 Clear 22 1013 78 10000 6.69 360 04:22 09.08.2022
702 Clear 25 1014 64 10000 1.54 0 23:27 08.08.2022
703 Clear 26 1014 44 10000 3.6 30 22:54 08.08.2022
704 Rain 26 1014 64 10000 4.12 30 21:58 08.08.2022
705 Clear 26 1014 63 10000 5.14 30 20:59 08.08.2022
706 Clear 28 1014 64 10000 4.63 40 19:50 08.08.2022
707 Clear 30 1013 55 10000 7.72 80 18:38 08.08.2022
708 Clouds 34 1013 41 10000 7.2 80 16:37 08.08.2022
709 Clouds 33 1014 41 10000 7.2 70 15:39 08.08.2022
710 Clouds 33 1014 47 10000 7.72 50 12:51 08.08.2022
711 Clear 33 1015 53 10000 6.17 60 11:53 08.08.2022
712 Clear 28 1015 70 10000 6.17 20 09:36 08.08.2022
713 Clear 23 1013 80 10000 7.2 20 05:37 08.08.2022
714 Clear 24 1013 72 10000 6.17 10 02:27 08.08.2022
715 Clear 26 1012 65 10000 5.66 30 22:25 07.08.2022
716 Rain 26 1012 64 10000 6.17 30 21:38 07.08.2022
717 Clear 27 1012 64 10000 4.63 40 20:25 07.08.2022
718 Clear 28 1011 59 10000 5.14 50 19:54 07.08.2022
719 Clear 28 1011 62 10000 5.66 60 19:33 07.08.2022
720 Clear 30 1010 58 10000 8.23 70 18:22 07.08.2022
721 Clear 32 1010 55 10000 8.23 70 16:54 07.08.2022
722 Clouds 33 1010 54 10000 8.23 60 16:28 07.08.2022
723 Clouds 33 1011 54 10000 8.75 50 15:19 07.08.2022
724 Clouds 31 1011 65 10000 7.72 80 13:22 07.08.2022
725 Clouds 30 1011 72 10000 7.2 40 10:59 07.08.2022
726 Clouds 30 1011 72 10000 7.2 40 10:33 07.08.2022
727 Clear 20 1010 100 10000 0 0 05:48 07.08.2022
728 Clear 21 1010 89 10000 1.03 0 03:19 07.08.2022
729 Clear 22 1011 89 10000 2.57 30 23:37 06.08.2022
730 Clear 23 1011 86 10000 0 0 22:20 06.08.2022
731 Clouds 24 1011 89 10000 1.54 360 20:24 06.08.2022
732 Clouds 25 1011 86 10000 1.03 0 19:38 06.08.2022
733 Clouds 26 1011 83 10000 3.09 140 18:22 06.08.2022
734 Clouds 28 1011 81 10000 5.66 130 16:40 06.08.2022
735 Clouds 28 1011 74 10000 5.66 140 14:31 06.08.2022
736 Clouds 29 1011 72 10000 6.69 130 13:39 06.08.2022
737 Clouds 28 1011 76 10000 6.69 130 11:24 06.08.2022
738 Clear 30 1011 70 10000 2.57 0 09:50 06.08.2022
739 Clear 25 1011 83 10000 2.06 250 07:51 06.08.2022
740 Clear 20 1011 96 10000 0 0 03:24 06.08.2022
741 Clear 21 1012 100 10000 2.06 330 23:27 05.08.2022
742 Clear 22 1013 92 10000 2.06 20 21:51 05.08.2022
743 Clouds 25 1012 86 10000 3.09 130 19:29 05.08.2022
744 Clouds 26 1012 83 10000 4.12 130 18:44 05.08.2022
745 Clear 28 1012 79 10000 5.14 130 17:26 05.08.2022
746 Clouds 28 1012 79 10000 5.14 120 16:48 05.08.2022
747 Clouds 29 1013 76 10000 6.17 130 15:21 05.08.2022
748 Clouds 30 1013 70 10000 6.69 120 13:53 05.08.2022
749 Clouds 30 1013 70 10000 6.17 120 13:22 05.08.2022
750 Clouds 30 1013 66 10000 4.12 360 12:24 05.08.2022
751 Clouds 30 1014 67 10000 5.66 10 10:35 05.08.2022
752 Clear 25 1014 79 10000 3.6 340 07:58 05.08.2022
753 Clear 20 1014 88 10000 1.54 320 05:30 05.08.2022
754 Clouds 21 1015 94 10000 1.54 330 23:51 04.08.2022
755 Clouds 22 1015 88 10000 2.06 360 22:25 04.08.2022
756 Clouds 22 1015 88 10000 1.54 350 21:25 04.08.2022
757 Clouds 23 1015 83 10000 1.03 0 20:42 04.08.2022
758 Clouds 25 1014 73 10000 2.57 140 19:23 04.08.2022
759 Clouds 26 1014 69 10000 6.17 120 18:35 04.08.2022
760 Clouds 27 1014 65 10000 6.17 120 17:31 04.08.2022
761 Clouds 27 1014 65 10000 7.2 120 13:44 04.08.2022
762 Clouds 31 1014 37 10000 5.14 40 12:43 04.08.2022
763 Clouds 28 1015 47 10000 3.6 330 10:50 04.08.2022
764 Clear 24 1015 57 10000 5.66 360 07:52 04.08.2022
765 Clear 18 1015 96 10000 2.06 260 04:30 04.08.2022
766 Clear 19 1015 96 10000 0 0 02:20 04.08.2022
767 Clouds 20 1015 92 10000 2.06 310 23:43 03.08.2022
768 Clouds 20 1015 86 10000 2.06 20 21:50 03.08.2022
769 Clouds 21 1015 83 10000 2.57 10 20:37 03.08.2022
770 Clear 25 1014 76 10000 3.09 120 19:29 03.08.2022
771 Clear 27 1014 67 10000 4.63 120 17:58 03.08.2022
772 Clouds 28 1014 70 10000 6.69 130 16:24 03.08.2022
773 Clouds 29 1014 61 10000 5.14 120 14:43 03.08.2022
774 Clear 29 1015 57 10000 6.69 340 11:53 03.08.2022
775 Clear 25 1015 72 10000 4.12 30 08:20 03.08.2022
776 Clear 19 1014 92 10000 0.51 0 04:46 03.08.2022
777 Clear 20 1014 86 10000 1.03 0 03:27 03.08.2022
778 Clear 20 1014 100 10000 1.54 280 01:18 03.08.2022
779 Clear 20 1014 100 10000 1.54 280 01:18 03.08.2022
780 Clear 21 1014 92 10000 2.06 330 22:59 02.08.2022
781 Clear 22 1014 89 10000 2.06 30 21:53 02.08.2022
782 Clear 22 1013 89 10000 1.03 0 20:58 02.08.2022
783 Clouds 29 1012 61 10000 4.63 20 18:48 02.08.2022
784 Clouds 29 1012 63 10000 6.17 340 16:21 02.08.2022
785 Clouds 28 1012 68 10000 6.17 360 11:45 02.08.2022
786 Clouds 24 1012 75 10000 5.66 350 09:18 02.08.2022
787 Clear 22 1011 80 10000 6.69 360 07:53 02.08.2022
788 Clear 21 1012 83 10000 4.63 360 06:43 02.08.2022
789 Clear 20 1011 83 10000 3.09 330 04:54 02.08.2022
790 Clear 21 1011 86 10000 0 0 23:38 01.08.2022
791 Clear 22 1011 80 10000 2.06 40 22:24 01.08.2022
792 Clear 23 1010 78 10000 2.06 330 20:52 01.08.2022
793 Clouds 26 1009 69 10000 6.17 360 19:25 01.08.2022
794 Clouds 27 1008 71 10000 5.66 360 18:31 01.08.2022
795 Clouds 29 1008 55 10000 4.12 330 16:53 01.08.2022
796 Clouds 30 1008 51 10000 4.12 280 15:52 01.08.2022
797 Clouds 30 1008 53 10000 4.12 290 15:30 01.08.2022
798 Clouds 29 1008 56 10000 5.66 310 14:20 01.08.2022
799 Clouds 29 1009 56 10000 5.14 300 11:59 01.08.2022
800 Clear 25 1009 69 10000 8.23 290 09:40 01.08.2022
801 Clear 23 1009 73 10000 8.23 280 08:25 01.08.2022
802 Clear 19 1009 83 10000 3.6 310 04:48 01.08.2022
803 Clear 18 1009 100 10000 0 0 03:49 01.08.2022
804 Clouds 19 1010 100 10000 1.03 340 00:23 01.08.2022
805 Clouds 20 1010 100 10000 0 0 22:39 31.07.2022
806 Clouds 21 1010 100 10000 1.03 0 21:27 31.07.2022
807 Clouds 24 1009 96 10000 2.06 30 19:41 31.07.2022
808 Rain 24 1009 78 8000 3.09 270 17:48 31.07.2022
809 Clouds 32 1009 63 10000 2.06 10 15:37 31.07.2022
810 Clouds 30 1010 67 10000 5.14 340 13:42 31.07.2022
811 Clouds 30 1010 70 10000 6.17 310 11:58 31.07.2022
812 Clear 29 1010 70 10000 3.09 310 09:43 31.07.2022
813 Clear 23 1011 88 10000 1.03 0 07:38 31.07.2022
814 Clouds 21 1011 96 10000 2.06 280 02:58 31.07.2022
815 Clear 23 1012 100 10000 0 0 23:36 30.07.2022
816 Clear 24 1012 92 10000 2.57 100 22:19 30.07.2022
817 Clear 24 1012 92 10000 2.57 100 22:19 30.07.2022
818 Clear 24 1012 92 10000 3.09 90 21:48 30.07.2022
819 Clear 24 1012 89 10000 3.09 90 20:56 30.07.2022
820 Clear 25 1012 83 10000 2.57 130 19:58 30.07.2022
821 Clear 27 1011 86 10000 4.12 140 18:53 30.07.2022
822 Clouds 29 1011 81 10000 5.66 120 17:42 30.07.2022
823 Clouds 30 1012 82 10000 7.72 120 15:49 30.07.2022
824 Clouds 30 1012 81 10000 6.69 130 15:21 30.07.2022
825 Clouds 33 1013 70 10000 5.66 120 12:55 30.07.2022
826 Clouds 32 1013 72 10000 5.14 130 11:55 30.07.2022
827 Clear 31 1013 72 10000 2.06 160 10:28 30.07.2022
828 Clear 30 1014 74 10000 3.09 190 09:46 30.07.2022
829 Clear 24 1014 92 10000 2.57 240 07:54 30.07.2022
830 Clear 22 1015 100 10000 1.03 30 02:36 30.07.2022
831 Clear 22 1015 100 10000 0.51 0 01:46 30.07.2022
832 Clear 24 1015 86 10000 1.03 0 22:25 29.07.2022
833 Clear 23 1015 86 10000 1.54 340 21:23 29.07.2022
834 Clear 26 1015 80 10000 4.63 120 19:57 29.07.2022
835 Clear 29 1014 65 10000 6.17 130 17:53 29.07.2022
836 Clear 31 1014 56 10000 7.2 140 15:21 29.07.2022
837 Clear 32 1015 56 10000 6.69 140 12:59 29.07.2022
838 Clear 31 1016 60 10000 3.6 140 10:35 29.07.2022
839 Clear 28 1016 65 10000 2.06 50 08:49 29.07.2022
840 Clear 23 1016 73 10000 1.54 230 07:40 29.07.2022
841 Clear 19 1016 92 10000 1.54 250 01:47 29.07.2022
842 Clear 21 1016 89 10000 2.06 60 22:41 28.07.2022
843 Clear 23 1016 83 10000 2.06 70 20:59 28.07.2022
844 Clear 23 1016 83 10000 2.57 100 20:30 28.07.2022
845 Clear 24 1015 78 10000 3.6 100 19:42 28.07.2022
846 Clear 27 1015 74 10000 4.63 110 18:48 28.07.2022
847 Clear 28 1015 69 10000 5.14 140 17:43 28.07.2022
848 Clear 29 1014 62 10000 6.17 130 16:42 28.07.2022
849 Clear 30 1015 65 10000 5.66 130 15:24 28.07.2022
850 Clear 30 1015 67 10000 6.17 130 12:51 28.07.2022
851 Clouds 28 1014 76 10000 4.63 120 09:45 28.07.2022
852 Clear 22 1013 100 10000 0 0 06:25 28.07.2022
853 Clear 21 1013 100 10000 1.03 50 05:27 28.07.2022
854 Clouds 23 1012 96 10000 2.06 120 00:45 28.07.2022
855 Clouds 24 1011 92 10000 2.06 120 22:34 27.07.2022
856 Clouds 24 1010 86 10000 3.09 120 20:56 27.07.2022
857 Clouds 25 1010 83 10000 4.63 110 19:37 27.07.2022
858 Clear 29 1009 70 10000 5.14 120 17:38 27.07.2022
859 Clear 31 1009 65 10000 6.69 130 15:52 27.07.2022
860 Clear 32 1009 63 10000 7.2 120 14:55 27.07.2022
861 Clear 32 1009 64 10000 7.2 120 14:33 27.07.2022
862 Clear 32 1010 57 10000 7.72 100 12:49 27.07.2022
863 Clear 26 1009 66 10000 1.03 0 07:53 27.07.2022
864 Clear 26 1009 66 10000 1.03 0 07:53 27.07.2022
865 Clear 21 1009 80 10000 1.03 0 06:18 27.07.2022
866 Clear 21 1010 80 10000 2.06 80 00:46 27.07.2022
867 Clear 22 1010 80 10000 2.57 100 22:25 26.07.2022
868 Clear 24 1010 78 10000 2.06 90 21:20 26.07.2022
869 Clear 24 1010 78 10000 2.06 90 21:20 26.07.2022
870 Clear 26 1009 57 10000 3.6 110 19:59 26.07.2022
871 Clear 29 1009 62 10000 4.12 130 18:41 26.07.2022
872 Clear 29 1009 62 10000 5.14 130 17:57 26.07.2022
873 Clouds 31 1009 57 10000 6.17 130 15:50 26.07.2022
874 Clouds 32 1009 58 10000 6.69 120 14:49 26.07.2022
875 Clouds 32 1010 43 10000 6.69 110 12:59 26.07.2022
876 Clear 30 1011 62 10000 2.57 240 10:58 26.07.2022
877 Clear 25 1011 69 10000 1.03 0 08:43 26.07.2022
878 Mist 18 1012 100 4300 0 0 05:30 26.07.2022
879 Clear 19 1013 96 10000 1.54 330 00:27 26.07.2022
880 Clear 20 1013 92 10000 1.54 30 22:51 25.07.2022
881 Clear 20 1013 96 10000 1.54 30 22:22 25.07.2022
882 Clear 21 1013 96 10000 2.06 20 21:38 25.07.2022
883 Clear 22 1013 100 10000 1.54 10 20:40 25.07.2022
884 Clouds 24 1012 86 10000 3.09 130 19:27 25.07.2022
885 Clouds 26 1012 83 10000 3.6 140 18:18 25.07.2022
886 Clouds 26 1012 86 10000 2.57 140 17:26 25.07.2022
887 Clouds 27 1013 65 10000 6.69 130 14:23 25.07.2022
888 Clouds 26 1014 65 10000 4.12 20 11:39 25.07.2022
889 Clouds 23 1014 86 10000 1.03 0 08:22 25.07.2022
890 Clouds 21 1013 100 10000 1.54 80 01:49 25.07.2022
891 Rain 23 1013 92 10000 2.06 110 23:49 24.07.2022
892 Clouds 24 1013 89 10000 4.12 120 22:54 24.07.2022
893 Clouds 24 1012 86 10000 3.6 120 22:24 24.07.2022
894 Clear 24 1012 86 10000 3.6 130 21:18 24.07.2022
895 Clear 24 1012 78 10000 4.12 120 20:46 24.07.2022
896 Clouds 25 1011 81 10000 5.14 120 19:38 24.07.2022
897 Clouds 26 1012 79 10000 4.63 120 18:30 24.07.2022
898 Clear 30 1012 70 10000 6.69 120 15:57 24.07.2022
899 Clear 30 1012 70 10000 6.69 120 15:33 24.07.2022
900 Clear 31 1013 63 10000 8.75 110 13:51 24.07.2022
901 Clear 32 1013 55 10000 7.72 120 12:52 24.07.2022
902 Clear 32 1013 52 10000 6.69 120 11:37 24.07.2022
903 Clear 32 1013 49 10000 5.66 140 10:48 24.07.2022
904 Clear 26 1014 74 10000 2.06 140 08:30 24.07.2022
905 Clear 25 1014 73 10000 2.06 110 07:46 24.07.2022
906 Clear 19 1015 100 10000 0 0 03:57 24.07.2022
907 Clear 21 1016 80 10000 2.06 20 23:48 23.07.2022
908 Clear 23 1015 92 10000 2.06 130 20:51 23.07.2022
909 Clear 25 1015 73 10000 2.57 140 19:31 23.07.2022
910 Clear 27 1015 71 10000 4.63 120 18:49 23.07.2022
911 Clear 29 1015 56 10000 6.17 140 17:28 23.07.2022
912 Clear 31 1015 50 10000 6.17 120 16:30 23.07.2022
913 Clear 30 1015 42 10000 6.69 120 15:22 23.07.2022
914 Clear 31 1015 51 10000 7.72 120 14:55 23.07.2022
915 Clear 30 1015 42 10000 7.2 130 14:24 23.07.2022
916 Clear 33 1016 29 10000 6.17 140 12:22 23.07.2022
917 Clear 34 1015 43 10000 4.63 60 10:44 23.07.2022
918 Clear 33 1016 50 10000 2.06 240 09:53 23.07.2022
919 Clear 26 1016 68 10000 1.54 250 08:24 23.07.2022
920 Clear 19 1015 83 10000 0.51 0 03:38 23.07.2022
921 Clear 20 1015 77 10000 1.54 320 00:39 23.07.2022
922 Clear 21 1015 78 10000 2.57 10 21:41 22.07.2022
923 Clear 23 1015 76 10000 1.54 50 20:33 22.07.2022
924 Clear 26 1015 63 10000 5.14 120 18:57 22.07.2022
925 Clear 28 1014 60 10000 6.69 120 17:52 22.07.2022
926 Clear 30 1014 58 10000 8.23 110 16:31 22.07.2022
927 Clear 34 1014 38 10000 3.09 0 14:20 22.07.2022
928 Clear 31 1015 45 10000 5.14 340 10:41 22.07.2022
929 Clear 28 1015 55 10000 3.6 360 09:25 22.07.2022
930 Clear 26 1015 64 10000 3.09 360 08:26 22.07.2022
931 Clear 17 1015 100 10000 1.54 290 04:48 22.07.2022
932 Clear 19 1015 96 10000 2.57 30 23:45 21.07.2022
933 Clear 20 1015 89 10000 1.54 20 22:25 21.07.2022
934 Clear 22 1015 86 10000 1.54 140 20:48 21.07.2022
935 Clouds 24 1015 81 10000 5.14 140 18:54 21.07.2022
936 Clouds 26 1014 77 10000 6.69 130 17:29 21.07.2022
937 Clear 26 1014 57 10000 7.2 120 16:53 21.07.2022
938 Clouds 27 1014 74 10000 7.72 120 14:52 21.07.2022
939 Clouds 27 1014 71 10000 6.69 130 14:22 21.07.2022
940 Clouds 31 1014 33 10000 4.12 20 12:27 21.07.2022
941 Clear 30 1013 52 10000 7.2 20 10:39 21.07.2022
942 Clear 28 1013 59 10000 7.72 20 08:54 21.07.2022
943 Clear 28 1013 60 10000 7.72 20 08:35 21.07.2022
944 Clear 25 1013 64 10000 5.66 340 07:23 21.07.2022
945 Clear 16 1014 67 10000 1.54 310 03:48 21.07.2022
946 Clear 20 1016 71 10000 0 0 23:23 20.07.2022
947 Clear 20 1016 73 10000 2.57 20 22:20 20.07.2022
948 Clear 22 1016 49 10000 1.03 0 20:49 20.07.2022
949 Clear 25 1016 55 10000 2.06 130 19:48 20.07.2022
950 Clear 26 1016 54 10000 3.09 150 19:19 20.07.2022
951 Clear 27 1016 48 10000 4.12 120 18:33 20.07.2022
952 Clouds 28 1017 30 10000 4.12 120 17:42 20.07.2022
953 Clouds 28 1018 30 10000 5.14 110 15:59 20.07.2022
954 Clouds 28 1018 32 10000 6.17 120 14:54 20.07.2022
955 Clouds 29 1019 32 10000 6.17 110 13:44 20.07.2022
956 Clear 29 1020 52 10000 4.63 130 11:31 20.07.2022
957 Clear 20 1021 80 10000 1.54 290 07:36 20.07.2022
958 Clear 17 1020 89 10000 1.03 260 01:58 20.07.2022
959 Clear 17 1020 89 10000 1.54 280 00:43 20.07.2022
960 Clear 18 1021 89 10000 2.06 340 22:39 19.07.2022
961 Clear 18 1021 89 10000 1.03 360 22:21 19.07.2022
962 Clear 20 1021 68 10000 1.54 40 20:50 19.07.2022
963 Clear 23 1021 74 10000 4.12 120 19:38 19.07.2022
964 Clear 25 1020 66 10000 4.63 130 18:43 19.07.2022
965 Clear 25 1020 65 10000 5.66 120 17:56 19.07.2022
966 Clear 26 1020 67 10000 7.2 140 16:25 19.07.2022
967 Clouds 25 1021 47 10000 6.69 140 14:20 19.07.2022
968 Clouds 27 1022 52 10000 5.66 130 11:35 19.07.2022
969 Clear 26 1022 57 10000 3.09 120 09:58 19.07.2022
970 Clear 25 1022 66 10000 2.06 0 08:48 19.07.2022
971 Clear 22 1022 73 10000 1.03 0 08:21 19.07.2022
972 Clear 19 1022 83 10000 1.54 250 07:18 19.07.2022
973 Clear 13 1022 94 10000 1.54 260 05:23 19.07.2022
974 Clear 13 1021 94 10000 1.54 280 04:40 19.07.2022
975 Clear 16 1022 89 10000 2.06 360 00:31 19.07.2022
976 Clear 17 1022 89 10000 1.54 360 23:21 18.07.2022
977 Clear 17 1022 89 10000 2.06 360 22:55 18.07.2022
978 Clear 17 1022 86 10000 2.57 10 21:50 18.07.2022
979 Clear 19 1022 68 10000 1.54 360 20:50 18.07.2022
980 Clear 22 1022 72 10000 3.6 140 19:24 18.07.2022
981 Clear 25 1022 67 10000 7.2 120 16:50 18.07.2022
982 Clear 24 1022 50 10000 6.17 130 15:41 18.07.2022
983 Clouds 24 1023 43 10000 2.57 0 13:41 18.07.2022
984 Clouds 25 1023 62 10000 4.12 40 12:29 18.07.2022
985 Clouds 23 1023 64 10000 4.12 70 10:24 18.07.2022
986 Clouds 21 1023 71 10000 2.06 0 08:21 18.07.2022
987 Clouds 20 1022 73 10000 7.2 40 06:48 18.07.2022
988 Clouds 21 1020 89 10000 1.54 320 23:30 17.07.2022
989 Clouds 21 1019 89 10000 2.06 20 22:32 17.07.2022
990 Clouds 22 1019 86 10000 1.03 0 21:43 17.07.2022
991 Clouds 23 1019 83 10000 2.06 130 20:46 17.07.2022
992 Clouds 23 1018 83 10000 3.09 130 20:18 17.07.2022
993 Clouds 25 1018 79 10000 3.6 130 19:26 17.07.2022
994 Clouds 27 1018 71 10000 5.14 130 18:22 17.07.2022
995 Clouds 28 1018 70 10000 5.66 140 17:37 17.07.2022
996 Clouds 28 1018 69 10000 6.69 140 16:49 17.07.2022
997 Clouds 28 1018 69 10000 6.17 130 16:24 17.07.2022
998 Clouds 32 1018 45 10000 3.6 40 13:58 17.07.2022
999 Clouds 32 1018 45 10000 4.63 20 13:24 17.07.2022
1000 Clouds 30 1017 51 10000 6.17 30 10:34 17.07.2022
1001 Clear 27 1017 66 10000 6.17 10 08:38 17.07.2022
1002 Clear 20 1016 92 10000 1.54 250 02:43 17.07.2022
1003 Clear 20 1016 92 10000 1.54 360 00:41 17.07.2022
1004 Clear 21 1016 89 10000 1.54 10 23:18 16.07.2022
1005 Clouds 23 1015 83 10000 5.14 100 20:59 16.07.2022
1006 Clouds 27 1014 67 10000 3.09 140 18:59 16.07.2022
1007 Clouds 28 1014 63 10000 4.12 130 17:48 16.07.2022
1008 Clouds 29 1014 58 10000 5.14 120 16:23 16.07.2022
1009 Clear 30 1014 45 10000 6.69 100 13:47 16.07.2022
1010 Clear 28 1014 66 10000 4.12 120 10:35 16.07.2022
1011 Clear 28 1014 68 10000 2.06 130 09:29 16.07.2022
1012 Clear 26 1014 70 10000 1.03 0 08:42 16.07.2022
1013 Clear 22 1014 80 10000 2.06 290 07:41 16.07.2022
1014 Clear 18 1013 89 10000 1.54 330 03:39 16.07.2022
1015 Clear 19 1013 86 10000 1.54 60 01:39 16.07.2022
1016 Clear 21 1014 78 10000 3.09 110 23:21 15.07.2022
1017 Clear 22 1014 78 10000 2.06 130 22:37 15.07.2022
1018 Clouds 23 1013 80 10000 3.09 130 20:47 15.07.2022
1019 Clouds 24 1013 77 10000 3.6 130 19:49 15.07.2022
1020 Clouds 27 1013 65 10000 4.63 130 18:30 15.07.2022
1021 Clear 29 1012 61 10000 5.14 130 17:19 15.07.2022
1022 Clouds 30 1012 56 10000 8.23 100 14:24 15.07.2022
1023 Clear 30 1013 35 10000 4.63 130 12:38 15.07.2022
1024 Clear 31 1013 53 10000 2.06 0 10:52 15.07.2022
1025 Clear 22 1014 73 10000 1.54 260 07:55 15.07.2022
1026 Clear 17 1014 85 10000 1.03 270 05:54 15.07.2022
1027 Clear 19 1015 75 10000 1.03 0 00:47 15.07.2022
1028 Clear 19 1016 72 10000 2.57 10 23:25 14.07.2022
1029 Clear 20 1016 73 10000 3.09 10 22:32 14.07.2022
1030 Clear 22 1016 66 10000 1.54 50 21:40 14.07.2022
1031 Clear 22 1016 66 10000 1.54 50 21:21 14.07.2022
1032 Clear 23 1016 46 10000 2.57 120 20:43 14.07.2022
1033 Clear 24 1016 41 10000 2.57 140 20:18 14.07.2022
1034 Clear 27 1016 54 10000 3.6 140 18:38 14.07.2022
1035 Clouds 29 1016 47 10000 7.2 120 16:20 14.07.2022
1036 Clouds 31 1016 45 10000 7.72 110 15:26 14.07.2022
1037 Clouds 31 1016 46 10000 3.6 90 13:51 14.07.2022
1038 Clouds 32 1017 42 10000 2.57 0 12:36 14.07.2022
1039 Clear 30 1017 46 10000 3.09 20 11:28 14.07.2022
1040 Clear 30 1018 47 10000 3.6 350 10:52 14.07.2022
1041 Clear 25 1018 61 10000 3.6 260 08:58 14.07.2022
1042 Clear 18 1018 72 10000 1.54 240 04:45 14.07.2022
1043 Clouds 20 1017 68 10000 1.03 0 01:21 14.07.2022
1044 Clouds 21 1017 63 10000 0.51 0 00:51 14.07.2022
1045 Clouds 22 1017 58 10000 5.14 40 22:31 13.07.2022
1046 Clouds 23 1017 54 10000 4.12 20 21:47 13.07.2022
1047 Clouds 23 1016 53 10000 3.6 10 20:41 13.07.2022
1048 Clouds 27 1015 47 10000 5.14 310 18:40 13.07.2022
1049 Clouds 28 1015 45 10000 4.12 310 17:31 13.07.2022
1050 Clouds 28 1015 45 10000 4.12 310 17:31 13.07.2022
1051 Clouds 29 1015 45 10000 5.14 290 16:19 13.07.2022
1052 Clouds 28 1016 44 10000 4.63 300 14:46 13.07.2022
1053 Clouds 27 1017 54 10000 6.17 290 11:54 13.07.2022
1054 Clear 26 1017 61 10000 6.69 300 10:45 13.07.2022
1055 Clear 24 1017 61 10000 4.63 330 09:54 13.07.2022
1056 Clear 23 1017 65 10000 5.14 330 09:20 13.07.2022
1057 Clear 15 1016 83 10000 1.54 290 05:22 13.07.2022
1058 Clouds 17 1017 89 10000 0 0 01:21 13.07.2022
1059 Clouds 19 1017 83 10000 3.09 260 23:21 12.07.2022
1060 Clouds 20 1017 73 10000 3.6 330 21:49 12.07.2022
1061 Clouds 21 1017 64 10000 2.06 170 20:54 12.07.2022
1062 Clouds 21 1017 64 10000 2.06 170 20:36 12.07.2022
1063 Clouds 24 1016 66 10000 4.63 30 18:53 12.07.2022
1064 Clouds 27 1016 57 10000 5.66 280 17:29 12.07.2022
1065 Clouds 25 1016 58 10000 5.14 300 15:35 12.07.2022
1066 Clouds 27 1016 59 10000 6.17 290 13:44 12.07.2022
1067 Clouds 26 1017 53 10000 4.63 290 11:59 12.07.2022
1068 Clear 25 1017 59 10000 5.14 300 10:46 12.07.2022
1069 Clear 22 1017 63 10000 6.69 270 09:18 12.07.2022
1070 Clear 19 1017 71 10000 4.12 280 07:55 12.07.2022
1071 Clear 17 1017 75 10000 1.54 250 05:53 12.07.2022
1072 Clear 17 1017 75 10000 1.54 250 05:34 12.07.2022
1073 Clouds 17 1017 74 10000 1.03 0 01:36 12.07.2022
1074 Clouds 19 1016 67 10000 3.09 220 22:50 11.07.2022
1075 Clouds 20 1016 61 10000 2.06 240 21:37 11.07.2022
1076 Clouds 21 1015 58 10000 2.06 270 20:33 11.07.2022
1077 Clouds 25 1014 52 10000 6.17 280 19:28 11.07.2022
1078 Clouds 26 1014 52 10000 5.66 300 18:30 11.07.2022
1079 Clouds 27 1014 59 10000 6.69 300 16:34 11.07.2022
1080 Clouds 27 1013 59 10000 4.63 270 15:34 11.07.2022
1081 Clouds 26 1013 38 10000 6.17 280 13:37 11.07.2022
1082 Clouds 26 1013 70 10000 5.66 300 11:33 11.07.2022
1083 Clouds 24 1014 73 10000 6.69 280 10:18 11.07.2022
1084 Clouds 23 1014 73 10000 4.12 300 09:40 11.07.2022
1085 Clouds 21 1013 76 10000 3.09 270 08:33 11.07.2022
1086 Clouds 16 1011 89 10000 4.12 310 02:59 11.07.2022
1087 Clouds 17 1010 92 10000 3.09 280 00:18 11.07.2022
1088 Clouds 19 1010 83 10000 4.12 290 22:52 10.07.2022
1089 Clouds 19 1010 92 10000 2.06 230 21:20 10.07.2022
1090 Clouds 20 1010 83 10000 3.09 0 20:37 10.07.2022
1091 Rain 20 1010 83 10000 8.23 280 19:40 10.07.2022
1092 Clouds 25 1008 65 10000 6.69 340 18:43 10.07.2022
1093 Clouds 27 1008 39 10000 4.12 360 17:35 10.07.2022
1094 Clouds 28 1008 55 10000 5.14 330 16:24 10.07.2022
1095 Clouds 29 1008 54 10000 4.63 350 15:20 10.07.2022
1096 Clouds 29 1008 55 10000 4.63 350 13:40 10.07.2022
1097 Clouds 28 1008 60 10000 5.66 360 12:26 10.07.2022
1098 Rain 25 1009 64 10000 5.14 360 09:47 10.07.2022
1099 Rain 23 1009 72 10000 4.12 350 08:44 10.07.2022
1100 Clear 22 1009 73 10000 4.12 350 07:29 10.07.2022
1101 Clouds 23 1008 70 10000 6.69 360 01:23 10.07.2022
1102 Clouds 23 1009 72 10000 3.09 340 22:27 09.07.2022
1103 Clouds 23 1009 70 10000 4.63 350 21:56 09.07.2022
1104 Clouds 25 1008 70 10000 5.14 20 20:23 09.07.2022
1105 Clouds 26 1008 69 10000 5.66 20 18:32 09.07.2022
1106 Rain 26 1008 67 10000 8.23 30 17:32 09.07.2022
1107 Rain 26 1008 70 10000 9.26 40 16:40 09.07.2022
1108 Rain 29 1008 37 10000 5.66 350 15:39 09.07.2022
1109 Clouds 29 1009 39 10000 6.69 10 14:24 09.07.2022
1110 Clouds 29 1009 60 10000 6.69 20 13:48 09.07.2022
1111 Clouds 28 1009 61 10000 6.69 20 12:29 09.07.2022
1112 Clouds 26 1009 47 10000 7.72 10 10:42 09.07.2022
1113 Clouds 26 1009 47 10000 10.29 10 10:21 09.07.2022
1114 Clouds 24 1009 70 10000 8.23 10 07:45 09.07.2022
1115 Clouds 21 1010 60 10000 7.2 10 04:53 09.07.2022
1116 Clouds 23 1010 56 10000 4.63 10 00:43 09.07.2022
1117 Clouds 22 1011 64 10000 2.57 320 22:42 08.07.2022
1118 Clouds 23 1012 68 10000 2.57 360 21:31 08.07.2022
1119 Clouds 23 1012 83 10000 1.54 360 20:40 08.07.2022
1120 Clouds 25 1011 76 10000 2.06 120 19:48 08.07.2022
1121 Clouds 27 1011 68 10000 2.06 220 17:57 08.07.2022
1122 Clouds 28 1011 70 10000 3.09 150 16:39 08.07.2022
1123 Clouds 27 1012 50 10000 3.6 360 14:51 08.07.2022
1124 Clouds 28 1013 69 10000 4.12 20 13:24 08.07.2022
1125 Clouds 28 1013 69 10000 4.12 20 13:24 08.07.2022
1126 Clouds 27 1014 74 10000 4.63 340 11:25 08.07.2022
1127 Clouds 25 1014 73 10000 4.12 320 10:26 08.07.2022
1128 Clouds 21 1014 80 10000 4.63 280 08:24 08.07.2022
1129 Clouds 20 1014 80 10000 5.14 280 06:47 08.07.2022
1130 Clouds 19 1014 83 10000 3.6 0 01:19 08.07.2022
1131 Clouds 21 1014 78 10000 5.14 270 22:57 07.07.2022
1132 Clouds 21 1014 78 10000 5.14 270 22:57 07.07.2022
1133 Clear 21 1014 76 10000 6.17 340 22:27 07.07.2022
1134 Clouds 23 1013 76 10000 5.66 340 19:53 07.07.2022
1135 Clouds 25 1013 57 10000 5.66 340 18:18 07.07.2022
1136 Clouds 28 1012 51 10000 5.66 350 16:43 07.07.2022
1137 Clouds 29 1012 70 10000 5.66 320 14:32 07.07.2022
1138 Clouds 28 1013 74 10000 4.12 330 12:46 07.07.2022
1139 Clouds 28 1013 74 10000 3.09 340 12:23 07.07.2022
1140 Clouds 28 1013 74 10000 3.09 340 11:34 07.07.2022
1141 Clouds 27 1013 74 10000 2.06 10 10:46 07.07.2022
1142 Clouds 27 1013 76 10000 3.09 330 10:28 07.07.2022
1143 Clouds 25 1013 79 10000 3.6 350 09:32 07.07.2022
1144 Clouds 21 1012 86 10000 3.6 0 06:31 07.07.2022
1145 Clouds 22 1012 99 10000 2.45 302 00:28 07.07.2022
1146 Clouds 23 1012 99 10000 2.45 302 23:36 06.07.2022
1147 Clouds 23 1012 80 10000 2.06 0 23:18 06.07.2022
1148 Clouds 23 1012 80 10000 2.06 0 22:52 06.07.2022
1149 Clouds 24 1012 78 10000 3.09 310 22:33 06.07.2022
1150 Clear 25 1011 61 10000 2.06 130 20:23 06.07.2022
1151 Clear 26 1011 69 10000 2.57 130 19:22 06.07.2022
1152 Clouds 28 1011 68 10000 4.12 120 17:21 06.07.2022
1153 Clouds 30 1011 61 10000 6.17 130 15:55 06.07.2022
1154 Clouds 30 1012 37 10000 5.66 130 12:44 06.07.2022
1155 Clouds 31 1012 58 10000 4.63 130 11:52 06.07.2022
1156 Clouds 30 1013 60 10000 2.57 160 10:49 06.07.2022
1157 Clear 27 1012 70 10000 1.03 0 09:21 06.07.2022
1158 Clear 21 1013 80 10000 2.06 290 07:44 06.07.2022
1159 Clear 17 1013 92 10000 2.06 270 06:43 06.07.2022
1160 Clear 19 1013 77 10000 0 0 23:42 05.07.2022
1161 Clear 19 1014 80 10000 1.54 340 22:42 05.07.2022
1162 Clear 24 1014 57 10000 2.57 140 20:48 05.07.2022
1163 Clear 25 1014 68 10000 3.09 140 19:55 05.07.2022
1164 Clear 25 1014 69 10000 3.09 150 19:36 05.07.2022
1165 Clear 27 1014 44 10000 4.63 140 17:50 05.07.2022
1166 Clear 28 1015 63 10000 5.14 130 17:19 05.07.2022
1167 Clear 29 1015 60 10000 5.14 130 16:18 05.07.2022
1168 Clear 29 1015 58 10000 6.17 120 14:54 05.07.2022
1169 Clear 29 1016 37 10000 5.66 120 12:59 05.07.2022
1170 Clear 30 1016 61 10000 4.12 120 12:22 05.07.2022
1171 Clear 28 1016 65 10000 2.57 120 10:45 05.07.2022
1172 Clear 27 1016 67 10000 1.03 0 09:44 05.07.2022
1173 Clear 25 1016 68 10000 0 0 08:20 05.07.2022
1174 Clear 17 1016 88 10000 1.03 0 06:47 05.07.2022
1175 Clear 17 1015 92 10000 0 0 04:30 05.07.2022
1176 Clear 18 1016 89 10000 1.54 330 00:47 05.07.2022
1177 Clear 18 1016 86 10000 2.06 340 23:37 04.07.2022
1178 Clear 19 1016 86 10000 1.03 10 22:54 04.07.2022
1179 Clear 20 1016 80 10000 1.54 30 21:56 04.07.2022
1180 Clear 22 1016 76 10000 1.54 190 20:54 04.07.2022
1181 Clear 23 1016 73 10000 1.54 160 20:35 04.07.2022
1182 Clear 23 1016 56 10000 2.06 140 19:56 04.07.2022
1183 Clear 24 1016 53 10000 2.57 140 19:36 04.07.2022
1184 Clear 26 1016 65 10000 4.12 130 18:34 04.07.2022
1185 Clear 28 1016 59 10000 4.63 120 16:36 04.07.2022
1186 Clear 28 1016 59 10000 5.66 120 15:34 04.07.2022
1187 Clear 28 1017 32 10000 4.63 130 13:35 04.07.2022
1188 Clear 28 1017 32 10000 4.12 120 12:36 04.07.2022
1189 Clear 27 1017 73 10000 4.63 150 10:35 04.07.2022
1190 Clear 26 1017 76 10000 4.63 130 09:53 04.07.2022
1191 Clear 24 1017 76 10000 1.03 0 08:31 04.07.2022
1192 Clear 14 1017 96 10000 1.54 260 05:18 04.07.2022
1193 Clear 17 1017 92 10000 1.54 290 00:42 04.07.2022
1194 Clear 18 1017 89 10000 1.03 0 22:59 03.07.2022
1195 Clear 20 1018 64 10000 2.06 40 20:59 03.07.2022
1196 Clear 24 1018 53 10000 1.54 160 20:41 03.07.2022
1197 Clear 24 1018 53 10000 2.06 140 19:41 03.07.2022
1198 Clear 25 1018 65 10000 2.57 130 19:23 03.07.2022
1199 Clear 27 1018 34 10000 4.12 140 17:45 03.07.2022
1200 Clear 28 1018 53 10000 6.17 140 15:55 03.07.2022
1201 Clear 29 1018 48 10000 6.17 140 14:59 03.07.2022
1202 Clear 29 1018 48 10000 6.17 130 14:20 03.07.2022
1203 Clear 29 1019 52 10000 6.17 150 13:48 03.07.2022
1204 Clear 27 1019 44 10000 6.17 130 12:35 03.07.2022
1205 Clear 28 1019 70 10000 5.66 140 11:29 03.07.2022
1206 Clouds 27 1019 70 10000 5.66 130 10:39 03.07.2022
1207 Clouds 27 1019 74 10000 4.63 140 09:55 03.07.2022
1208 Clouds 21 1018 83 10000 1.54 260 07:35 03.07.2022
1209 Clear 17 1018 72 10000 1.54 330 04:22 03.07.2022
1210 Clear 19 1019 80 10000 1.54 340 00:22 03.07.2022
1211 Clear 20 1019 80 10000 2.06 290 22:34 02.07.2022
1212 Clear 21 1018 80 10000 2.57 10 21:28 02.07.2022
1213 Clear 24 1018 73 10000 2.57 140 19:52 02.07.2022
1214 Clear 26 1018 74 10000 3.09 140 19:20 02.07.2022
1215 Clear 28 1017 73 10000 5.14 130 17:42 02.07.2022
1216 Clear 29 1018 70 10000 5.14 130 16:53 02.07.2022
1217 Clouds 29 1018 76 10000 6.69 140 14:40 02.07.2022
1218 Clouds 30 1018 67 10000 6.69 140 12:21 02.07.2022
1219 Clouds 29 1018 74 10000 4.12 140 11:26 02.07.2022
1220 Clouds 28 1017 79 10000 2.57 150 10:39 02.07.2022
1221 Clouds 26 1017 81 10000 1.54 0 09:18 02.07.2022
1222 Clouds 23 1017 92 10000 2.06 270 08:20 02.07.2022
1223 Clouds 23 1017 100 9000 1.54 250 07:48 02.07.2022
1224 Clear 19 1015 100 10000 0 0 02:50 02.07.2022
1225 Clear 20 1016 92 10000 0 0 23:59 01.07.2022
1226 Clear 21 1015 92 10000 2.06 40 22:41 01.07.2022
1227 Clear 22 1015 86 10000 1.54 80 21:48 01.07.2022
1228 Clear 22 1015 89 10000 1.54 30 21:28 01.07.2022
1229 Clear 23 1014 89 10000 3.09 130 20:40 01.07.2022
1230 Clouds 24 1014 78 10000 3.09 130 19:46 01.07.2022
1231 Clear 27 1014 76 10000 4.12 120 17:53 01.07.2022
1232 Clouds 28 1014 79 10000 5.14 130 15:54 01.07.2022
1233 Clouds 28 1014 61 10000 5.66 140 13:54 01.07.2022
1234 Clear 29 1015 75 10000 5.66 150 12:41 01.07.2022
1235 Clear 29 1014 66 10000 1.54 0 10:20 01.07.2022
1236 Clear 29 1014 66 10000 1.54 0 10:20 01.07.2022
1237 Clear 29 1014 66 10000 1.54 0 10:20 01.07.2022
1238 Clear 28 1014 70 10000 0.51 0 09:43 01.07.2022
1239 Clouds 18 1014 96 10000 0 0 04:49 01.07.2022
1240 Clear 19 1014 86 10000 2.06 340 00:26 01.07.2022
1241 Clear 20 1014 86 10000 1.54 320 22:59 30.06.2022
1242 Clear 20 1014 86 10000 1.54 320 22:41 30.06.2022
1243 Clear 21 1014 80 10000 1.54 360 22:22 30.06.2022
1244 Clear 21 1014 68 10000 1.03 0 21:41 30.06.2022
1245 Clear 24 1013 69 10000 2.06 150 20:30 30.06.2022
1246 Clear 25 1013 61 10000 2.57 150 19:54 30.06.2022
1247 Clear 26 1013 70 10000 2.57 150 19:24 30.06.2022
1248 Clear 27 1013 47 10000 3.09 130 18:42 30.06.2022
1249 Clear 29 1013 65 10000 3.6 130 17:43 30.06.2022
1250 Clear 29 1013 66 10000 4.12 130 16:48 30.06.2022
1251 Clear 30 1013 65 10000 4.63 120 15:38 30.06.2022
1252 Clear 29 1014 45 10000 5.14 130 13:34 30.06.2022
1253 Clear 30 1014 66 10000 5.14 130 12:35 30.06.2022
1254 Clear 29 1014 72 10000 3.09 150 11:37 30.06.2022
1255 Clear 28 1014 72 10000 2.06 160 09:55 30.06.2022
1256 Clear 27 1014 72 10000 2.06 150 09:34 30.06.2022
1257 Clear 24 1014 74 10000 1.03 0 08:18 30.06.2022
1258 Clear 22 1014 86 10000 0 0 07:18 30.06.2022
1259 Clear 19 1014 96 10000 0 0 01:42 30.06.2022
1260 Clear 20 1014 96 10000 1.54 340 23:34 29.06.2022
1261 Clear 20 1013 100 10000 0 0 22:40 29.06.2022
1262 Clear 22 1013 94 10000 1.03 0 21:39 29.06.2022
1263 Clear 23 1013 78 10000 2.57 120 20:34 29.06.2022
1264 Clear 24 1013 73 10000 2.06 140 19:37 29.06.2022
1265 Clear 26 1013 65 10000 4.63 130 17:45 29.06.2022
1266 Clear 28 1013 57 10000 5.14 140 16:43 29.06.2022
1267 Clouds 32 1013 57 10000 4.63 40 15:26 29.06.2022
1268 Clouds 31 1014 64 10000 4.63 60 12:47 29.06.2022
1269 Clear 29 1015 66 10000 4.12 20 11:32 29.06.2022
1270 Clear 27 1015 70 10000 4.12 20 09:33 29.06.2022
1271 Clear 25 1015 70 10000 4.12 10 08:26 29.06.2022
1272 Clouds 20 1014 78 10000 4.63 340 04:57 29.06.2022
1273 Clouds 20 1015 83 10000 2.06 290 01:41 29.06.2022
1274 Clouds 21 1015 89 10000 2.57 330 00:36 29.06.2022
1275 Clouds 21 1016 89 10000 1.54 30 22:55 28.06.2022
1276 Clouds 22 1015 86 10000 4.12 340 22:34 28.06.2022
1277 Clouds 21 1015 89 10000 1.03 0 21:55 28.06.2022
1278 Clouds 22 1015 86 10000 1.54 90 21:33 28.06.2022
1279 Clouds 21 1015 89 10000 2.06 180 20:44 28.06.2022
1280 Clouds 23 1014 73 10000 3.6 20 19:34 28.06.2022
1281 Clouds 23 1014 73 10000 3.6 20 19:34 28.06.2022
1282 Clouds 23 1014 73 10000 4.12 20 18:53 28.06.2022
1283 Clouds 23 1014 78 10000 5.14 350 17:40 28.06.2022
1284 Rain 21 1014 94 10000 5.14 350 15:59 28.06.2022
1285 Rain 20 1014 100 10000 3.6 340 15:38 28.06.2022
1286 Clouds 29 1013 69 10000 6.17 340 14:21 28.06.2022
1287 Clouds 29 1013 69 10000 6.17 340 14:21 28.06.2022
1288 Clouds 28 1013 70 10000 6.17 330 13:52 28.06.2022
1289 Clouds 28 1014 70 10000 5.66 350 12:57 28.06.2022
1290 Clouds 29 1014 68 10000 4.12 20 11:18 28.06.2022
1291 Clouds 26 1015 76 10000 5.14 30 09:30 28.06.2022
1292 Clear 25 1015 76 10000 5.14 20 08:44 28.06.2022
1293 Clouds 24 1015 78 10000 5.66 10 07:42 28.06.2022
1294 Clouds 22 1014 83 10000 4.12 30 06:56 28.06.2022
1295 Clouds 21 1014 92 10000 3.6 340 00:58 28.06.2022
1296 Clouds 21 1015 92 10000 2.57 260 23:37 27.06.2022
1297 Clouds 21 1015 96 10000 2.06 290 22:52 27.06.2022
1298 Rain 21 1015 96 10000 0.51 0 21:38 27.06.2022
1299 Clouds 21 1015 96 10000 0 0 20:52 27.06.2022
1300 Rain 22 1015 92 10000 2.57 290 19:33 27.06.2022
1301 Rain 22 1016 86 10000 0 0 18:25 27.06.2022
1302 Rain 24 1015 81 10000 4.63 70 16:20 27.06.2022
1303 Clouds 24 1015 81 10000 3.6 50 15:22 27.06.2022
1304 Clouds 29 1015 68 10000 6.69 320 13:36 27.06.2022
1305 Clouds 29 1015 70 10000 6.17 360 12:56 27.06.2022
1306 Clouds 27 1016 76 10000 5.14 340 10:34 27.06.2022
1307 Clouds 25 1016 79 10000 3.6 360 09:18 27.06.2022
1308 Clear 22 1016 83 10000 2.06 270 08:19 27.06.2022
1309 Clouds 19 1016 89 10000 3.09 330 06:38 27.06.2022
1310 Clouds 19 1015 86 10000 4.63 270 03:24 27.06.2022
1311 Clouds 20 1015 89 10000 1.54 290 23:55 26.06.2022
1312 Clouds 22 1015 78 10000 2.57 310 21:59 26.06.2022
1313 Clouds 21 1015 86 10000 2.57 20 20:44 26.06.2022
1314 Clouds 23 1015 76 10000 2.06 120 19:32 26.06.2022
1315 Clouds 24 1015 74 10000 1.54 160 18:30 26.06.2022
1316 Clouds 27 1014 68 10000 4.63 130 16:33 26.06.2022
1317 Clouds 27 1014 44 10000 6.69 120 14:42 26.06.2022
1318 Clouds 26 1014 41 10000 7.2 120 13:38 26.06.2022
1319 Clouds 26 1014 41 10000 7.2 120 13:18 26.06.2022
1320 Clouds 28 1014 64 10000 2.57 30 11:26 26.06.2022
1321 Clear 27 1014 66 10000 2.57 40 10:26 26.06.2022
1322 Clear 25 1014 67 10000 1.03 0 09:19 26.06.2022
1323 Clear 21 1014 83 10000 1.54 250 07:41 26.06.2022
1324 Clouds 17 1013 100 10000 0 0 01:53 26.06.2022
1325 Clouds 17 1013 100 10000 0.51 0 00:20 26.06.2022
1326 Clouds 18 1013 96 10000 1.03 290 23:41 25.06.2022
1327 Rain 18 1013 96 10000 0 0 22:55 25.06.2022
1328 Clouds 18 1014 100 10000 1.54 300 22:27 25.06.2022
1329 Clouds 19 1013 89 10000 2.06 80 21:37 25.06.2022
1330 Clouds 19 1013 89 10000 2.06 80 21:18 25.06.2022
1331 Clouds 20 1013 89 10000 1.54 140 20:25 25.06.2022
1332 Clouds 22 1013 83 10000 2.06 160 19:20 25.06.2022
1333 Clear 23 1013 80 10000 6.17 120 17:53 25.06.2022
1334 Clear 24 1013 80 10000 5.66 130 17:19 25.06.2022
1335 Clouds 24 1012 81 10000 6.17 120 14:59 25.06.2022
1336 Clouds 27 1012 67 10000 4.63 360 12:57 25.06.2022
1337 Clouds 28 1012 68 10000 4.63 10 12:37 25.06.2022
1338 Clear 27 1012 70 10000 4.63 350 10:32 25.06.2022
1339 Clear 25 1012 53 10000 3.09 350 08:57 25.06.2022
1340 Clear 24 1012 60 10000 2.57 260 08:29 25.06.2022
1341 Clear 23 1012 75 10000 2.06 270 07:45 25.06.2022
1342 Clouds 20 1011 78 10000 4.12 10 03:30 25.06.2022
1343 Clouds 20 1011 80 10000 1.54 270 00:33 25.06.2022
1344 Clouds 21 1012 76 10000 4.63 360 22:51 24.06.2022
1345 Clouds 21 1012 76 10000 3.6 10 21:31 24.06.2022
1346 Clouds 22 1011 78 10000 2.06 350 20:25 24.06.2022
1347 Clouds 23 1012 73 10000 2.06 360 19:52 24.06.2022
1348 Clouds 24 1011 71 10000 3.09 310 19:19 24.06.2022
1349 Clouds 26 1011 68 10000 3.6 360 18:47 24.06.2022
1350 Clouds 26 1011 65 10000 4.63 360 18:29 24.06.2022
1351 Clouds 27 1011 66 10000 6.69 330 16:52 24.06.2022
1352 Clouds 27 1011 44 10000 7.72 360 15:27 24.06.2022
1353 Clouds 27 1011 65 10000 7.2 340 14:25 24.06.2022
1354 Clouds 26 1011 44 10000 7.72 340 13:46 24.06.2022
1355 Clouds 25 1012 70 10000 7.2 330 11:42 24.06.2022
1356 Clouds 24 1012 73 10000 6.69 310 10:42 24.06.2022
1357 Clouds 24 1013 73 10000 4.63 300 09:42 24.06.2022
1358 Clear 23 1013 73 10000 4.63 340 08:54 24.06.2022
1359 Clear 22 1012 73 10000 4.12 340 08:32 24.06.2022
1360 Clouds 20 1012 78 10000 3.6 290 06:44 24.06.2022
1361 Clouds 19 1012 80 10000 3.6 280 06:25 24.06.2022
1362 Clouds 18 1012 63 10000 0 0 04:50 24.06.2022
1363 Clouds 18 1012 63 10000 0 0 04:50 24.06.2022
1364 Clouds 17 1012 72 10000 1.54 360 23:43 23.06.2022
1365 Clouds 19 1012 59 10000 3.09 300 22:43 23.06.2022
1366 Clouds 19 1012 68 10000 3.6 360 21:22 23.06.2022
1367 Clouds 22 1011 64 10000 1.54 330 20:37 23.06.2022
1368 Clouds 23 1011 60 10000 2.06 330 19:53 23.06.2022
1369 Clouds 24 1011 53 10000 5.14 270 18:27 23.06.2022
1370 Clear 25 1010 47 10000 5.14 280 17:34 23.06.2022
1371 Rain 26 1010 41 10000 5.66 270 16:29 23.06.2022
1372 Clouds 25 1011 47 10000 3.6 250 15:26 23.06.2022
1373 Clouds 25 1011 44 10000 3.09 220 14:34 23.06.2022
1374 Clear 27 1011 61 10000 3.6 250 11:41 23.06.2022
1375 Clear 26 1011 61 10000 1.03 0 10:40 23.06.2022
1376 Clear 24 1011 61 10000 2.57 50 09:19 23.06.2022
1377 Clouds 16 1010 83 10000 1.54 0 04:43 23.06.2022
1378 Clouds 17 1010 89 10000 1.54 340 00:27 23.06.2022
1379 Clouds 16 1010 100 10000 1.54 310 23:49 22.06.2022
1380 Clear 18 1010 89 10000 2.57 10 22:53 22.06.2022
1381 Clear 20 1009 89 10000 1.03 0 21:28 22.06.2022
1382 Clear 21 1009 83 10000 1.54 60 20:48 22.06.2022
1383 Clear 22 1009 92 10000 3.6 90 20:18 22.06.2022
1384 Clear 25 1008 80 10000 4.12 110 18:57 22.06.2022
1385 Clear 26 1007 73 10000 2.06 0 17:31 22.06.2022
1386 Clear 27 1007 73 10000 5.14 130 16:40 22.06.2022
1387 Clouds 27 1007 71 10000 4.12 120 15:28 22.06.2022
1388 Clouds 28 1008 68 10000 4.63 120 14:40 22.06.2022
1389 Clouds 27 1008 72 10000 5.14 130 13:45 22.06.2022
1390 Clouds 27 1008 72 10000 5.66 120 13:23 22.06.2022
1391 Clear 26 1008 70 10000 2.57 0 11:50 22.06.2022
1392 Clear 26 1009 68 10000 2.57 240 10:58 22.06.2022
1393 Clear 25 1009 70 10000 2.06 230 10:26 22.06.2022
1394 Clear 24 1009 72 10000 1.54 0 08:48 22.06.2022
1395 Clear 19 1009 82 10000 2.57 280 06:21 22.06.2022
1396 Clear 23 1005 53 10000 5.14 320 01:50 22.06.2022
1397 Clear 25 1005 44 10000 6.17 320 00:56 22.06.2022
1398 Clouds 27 1004 68 10000 3.6 310 22:40 21.06.2022
1399 Clouds 26 1004 79 10000 2.06 300 20:40 21.06.2022
1400 Clear 30 1004 67 10000 3.6 280 18:53 21.06.2022
1401 Clear 32 1004 65 10000 6.69 280 17:42 21.06.2022
1402 Clear 32 1005 61 10000 7.2 290 16:34 21.06.2022
1403 Clear 29 1007 68 10000 3.09 210 11:56 21.06.2022
1404 Clear 26 1007 72 10000 3.6 250 10:27 21.06.2022
1405 Clear 23 1007 78 10000 2.57 270 08:51 21.06.2022
1406 Clear 18 1008 92 10000 1.54 250 07:35 21.06.2022
1407 Clouds 15 1008 100 10000 1.54 230 03:21 21.06.2022
1408 Clear 16 1011 89 10000 2.06 350 23:27 20.06.2022
1409 Clear 18 1011 86 10000 2.06 10 21:59 20.06.2022
1410 Clear 18 1011 86 10000 2.06 360 21:32 20.06.2022
1411 Clear 21 1011 73 10000 2.06 150 19:57 20.06.2022
1412 Clear 22 1011 68 10000 4.12 130 18:54 20.06.2022
1413 Clear 24 1011 80 10000 4.63 130 18:24 20.06.2022
1414 Clear 23 1011 68 10000 4.63 130 17:41 20.06.2022
1415 Clear 24 1012 60 10000 6.17 140 16:21 20.06.2022
1416 Clouds 24 1013 57 10000 5.66 140 14:29 20.06.2022
1417 Clouds 25 1014 74 10000 4.12 130 11:46 20.06.2022
1418 Clouds 24 1014 83 10000 2.57 100 09:48 20.06.2022
1419 Clouds 22 1015 83 10000 2.06 0 08:45 20.06.2022
1420 Clear 17 1015 100 9000 2.06 280 06:59 20.06.2022
1421 Clear 15 1015 100 7000 0 0 03:51 20.06.2022
1422 Clear 16 1016 100 10000 1.54 350 00:52 20.06.2022
1423 Clear 16 1017 100 10000 1.54 10 23:29 19.06.2022
1424 Clear 17 1017 100 10000 1.54 20 22:19 19.06.2022
1425 Clear 17 1017 100 10000 1.54 20 22:19 19.06.2022
1426 Clear 18 1017 96 10000 1.54 10 21:41 19.06.2022
1427 Clear 18 1017 88 10000 1.03 360 20:46 19.06.2022
1428 Clear 21 1017 78 10000 2.06 150 19:48 19.06.2022
1429 Clear 21 1017 83 10000 2.57 130 19:24 19.06.2022
1430 Clear 23 1017 77 10000 4.63 130 18:31 19.06.2022
1431 Clouds 24 1017 75 10000 4.63 130 17:39 19.06.2022
1432 Clouds 23 1018 60 10000 5.14 130 16:39 19.06.2022
1433 Rain 24 1018 60 10000 5.66 130 15:44 19.06.2022
1434 Clouds 25 1018 57 10000 5.66 140 15:26 19.06.2022
1435 Clouds 25 1018 53 10000 6.17 140 14:35 19.06.2022
1436 Clouds 25 1018 57 10000 6.69 130 13:44 19.06.2022
1437 Rain 26 1018 68 10000 4.12 30 11:53 19.06.2022
1438 Clouds 25 1019 68 10000 4.12 30 10:52 19.06.2022
1439 Clear 23 1019 70 10000 4.63 10 08:55 19.06.2022
1440 Clear 22 1019 75 10000 5.14 10 08:30 19.06.2022
1441 Rain 18 1018 80 10000 2.57 240 06:48 19.06.2022
1442 Mist 15 1018 100 5000 1.54 290 03:37 19.06.2022
1443 Clear 16 1018 100 10000 1.54 270 00:28 19.06.2022
1444 Clear 16 1018 100 10000 2.57 330 23:52 18.06.2022
1445 Clear 16 1018 96 10000 1.54 350 23:34 18.06.2022
1446 Clear 17 1018 92 10000 2.57 10 21:54 18.06.2022
1447 Clear 18 1018 96 10000 2.06 360 20:50 18.06.2022
1448 Clouds 19 1018 86 10000 0 0 20:18 18.06.2022
1449 Clouds 21 1017 83 10000 2.06 150 18:55 18.06.2022
1450 Clouds 21 1017 86 10000 3.09 130 18:30 18.06.2022
1451 Rain 21 1017 89 10000 1.54 230 17:29 18.06.2022
1452 Rain 21 1018 89 10000 1.54 220 15:46 18.06.2022
1453 Rain 21 1018 83 10000 3.09 170 14:50 18.06.2022
1454 Rain 21 1018 78 10000 3.6 20 13:58 18.06.2022
1455 Clouds 22 1018 80 10000 5.66 40 12:28 18.06.2022
1456 Clouds 22 1018 80 10000 3.09 40 10:59 18.06.2022
1457 Rain 21 1017 80 10000 1.54 360 09:31 18.06.2022
1458 Clouds 21 1017 78 10000 2.06 0 08:40 18.06.2022
1459 Clear 21 1016 78 10000 2.06 0 07:34 18.06.2022
1460 Rain 18 1016 80 10000 1.54 0 05:20 18.06.2022
1461 Clouds 17 1016 96 10000 1.03 0 01:47 18.06.2022
1462 Clouds 18 1016 89 10000 2.57 120 01:21 18.06.2022
1463 Clear 17 1016 89 10000 1.54 50 00:23 18.06.2022
1464 Clear 17 1016 89 10000 1.03 80 23:36 17.06.2022
1465 Rain 17 1016 92 10000 2.06 20 22:27 17.06.2022
1466 Clear 20 1016 78 10000 2.57 150 20:29 17.06.2022
1467 Clear 22 1016 69 10000 3.09 140 19:20 17.06.2022
1468 Clear 24 1016 65 10000 4.63 130 17:47 17.06.2022
1469 Clear 25 1016 64 10000 5.66 120 16:44 17.06.2022
1470 Clear 25 1016 66 10000 5.66 120 16:21 17.06.2022
1471 Clear 25 1016 62 10000 5.66 120 15:37 17.06.2022
1472 Clear 26 1017 66 10000 5.66 120 14:23 17.06.2022
1473 Clear 25 1017 53 10000 6.17 120 13:58 17.06.2022
1474 Clear 26 1017 47 10000 4.63 120 13:38 17.06.2022
1475 Clear 25 1017 44 10000 4.63 110 12:24 17.06.2022
1476 Clear 26 1017 66 10000 4.12 120 11:50 17.06.2022
1477 Clear 25 1017 41 10000 2.57 0 11:32 17.06.2022
1478 Clear 22 1018 66 10000 0.51 0 08:56 17.06.2022
1479 Clear 20 1018 72 10000 1.54 260 08:25 17.06.2022
1480 Clear 16 1018 89 10000 1.03 0 06:42 17.06.2022
1481 Clear 13 1018 96 10000 1.54 290 03:42 17.06.2022
1482 Clear 15 1019 86 10000 0 0 01:55 17.06.2022
1483 Clear 16 1019 83 10000 2.06 40 23:35 16.06.2022
1484 Clear 16 1019 83 10000 2.06 70 22:41 16.06.2022
1485 Clear 18 1019 75 10000 2.57 120 21:21 16.06.2022
1486 Clear 20 1019 67 10000 3.09 120 20:51 16.06.2022
1487 Clouds 19 1019 71 10000 3.09 120 20:27 16.06.2022
1488 Clouds 22 1018 68 10000 4.12 150 19:31 16.06.2022
1489 Clear 24 1018 43 10000 3.09 160 17:54 16.06.2022
1490 Clear 25 1019 41 10000 3.09 120 17:27 16.06.2022
1491 Clear 25 1019 41 10000 3.6 150 16:24 16.06.2022
1492 Clouds 25 1019 38 10000 4.12 140 15:21 16.06.2022
1493 Clouds 26 1020 41 10000 4.63 120 14:27 16.06.2022
1494 Clouds 25 1020 41 10000 3.6 130 12:56 16.06.2022
1495 Clouds 25 1020 38 10000 3.09 130 12:34 16.06.2022
1496 Rain 26 1020 64 10000 2.57 150 11:48 16.06.2022
1497 Rain 25 1020 60 10000 1.54 0 10:42 16.06.2022
1498 Clear 24 1020 59 10000 1.54 260 09:43 16.06.2022
1499 Clear 23 1020 64 10000 1.54 0 09:19 16.06.2022
1500 Clear 19 1020 85 10000 0 0 07:57 16.06.2022
1501 Fog 15 1020 100 7000 0 0 06:49 16.06.2022
1502 Clear 14 1020 100 10000 1.54 320 04:27 16.06.2022
1503 Clouds 15 1020 100 10000 0 0 01:53 16.06.2022
1504 Clouds 15 1020 100 10000 1.03 20 01:32 16.06.2022
1505 Clouds 15 1020 96 10000 2.06 10 00:31 16.06.2022
1506 Clouds 16 1020 89 10000 2.06 40 22:59 15.06.2022
1507 Clouds 17 1020 92 10000 0 0 21:55 15.06.2022
1508 Clouds 18 1020 89 10000 1.54 20 21:20 15.06.2022
1509 Rain 19 1019 86 10000 3.09 120 20:37 15.06.2022
1510 Clouds 19 1019 86 10000 3.09 120 20:18 15.06.2022
1511 Rain 22 1019 77 10000 4.63 130 18:47 15.06.2022
1512 Clouds 22 1019 64 10000 5.14 140 17:53 15.06.2022
1513 Clouds 24 1019 73 10000 5.66 130 16:34 15.06.2022
1514 Clouds 24 1019 76 10000 3.09 110 15:22 15.06.2022
1515 Clouds 23 1020 76 10000 3.6 50 13:29 15.06.2022
1516 Clouds 22 1020 76 10000 1.54 0 12:47 15.06.2022
1517 Clouds 23 1019 76 10000 2.57 140 11:28 15.06.2022
1518 Clouds 22 1019 64 10000 2.06 50 10:22 15.06.2022
1519 Clear 22 1019 60 10000 2.06 0 09:34 15.06.2022
1520 Rain 20 1018 75 10000 2.57 0 07:43 15.06.2022
1521 Clouds 18 1017 89 10000 2.57 240 05:57 15.06.2022
1522 Clouds 18 1017 92 10000 3.6 0 02:55 15.06.2022
1523 Rain 19 1017 92 10000 3.6 350 01:36 15.06.2022
1524 Rain 19 1016 89 10000 1.54 0 00:36 15.06.2022
1525 Rain 19 1016 96 10000 7.2 360 23:38 14.06.2022
1526 Rain 19 1016 96 10000 5.66 360 22:48 14.06.2022
1527 Thunderstorm 20 1016 89 10000 4.12 310 21:43 14.06.2022
1528 Rain 20 1016 92 10000 5.66 260 21:21 14.06.2022
1529 Rain 20 1015 96 10000 2.57 250 20:40 14.06.2022
1530 Rain 20 1014 88 10000 0 0 19:58 14.06.2022
1531 Rain 20 1013 94 10000 2.06 210 18:40 14.06.2022
1532 Thunderstorm 22 1013 68 6000 11.32 230 17:19 14.06.2022
1533 Thunderstorm 24 1012 64 10000 5.14 150 16:42 14.06.2022
1534 Rain 29 1011 54 10000 4.63 20 15:43 14.06.2022
1535 Clouds 29 1012 51 10000 4.63 360 14:53 14.06.2022
1536 Clouds 29 1012 54 10000 5.14 360 13:59 14.06.2022
1537 Clouds 29 1012 72 10000 5.66 320 12:59 14.06.2022
1538 Clear 29 1013 76 10000 4.63 330 11:56 14.06.2022
1539 Clear 28 1012 74 10000 6.17 320 10:52 14.06.2022
1540 Clear 28 1012 74 10000 6.69 320 10:28 14.06.2022
1541 Clouds 26 1012 78 10000 2.06 280 09:18 14.06.2022
1542 Clear 25 1012 79 10000 2.06 240 08:37 14.06.2022
1543 Clouds 21 1011 82 10000 2.06 280 06:20 14.06.2022
1544 Clouds 21 1011 73 10000 0 0 03:52 14.06.2022
1545 Clouds 21 1011 73 10000 3.6 300 01:37 14.06.2022
1546 Clouds 20 1011 86 10000 0 0 00:21 14.06.2022
1547 Clouds 22 1011 80 10000 1.54 0 22:45 13.06.2022
1548 Clouds 21 1011 86 10000 1.03 0 22:22 13.06.2022
1549 Clouds 22 1011 80 10000 2.06 10 21:26 13.06.2022
1550 Clouds 23 1010 68 10000 4.12 360 19:59 13.06.2022
1551 Clouds 24 1010 73 10000 2.57 360 18:54 13.06.2022
1552 Clear 23 1010 73 10000 2.57 290 17:55 13.06.2022
1553 Clouds 23 1010 73 10000 2.06 200 17:23 13.06.2022
1554 Thunderstorm 22 1010 64 10000 3.6 340 16:30 13.06.2022
1555 Clouds 29 1010 54 10000 4.63 340 14:49 13.06.2022
1556 Clouds 29 1011 54 10000 5.14 340 14:23 13.06.2022
1557 Clouds 29 1011 76 10000 4.12 350 13:28 13.06.2022
1558 Clear 28 1011 76 10000 4.12 320 12:22 13.06.2022
1559 Clear 25 1011 81 10000 4.12 300 10:36 13.06.2022
1560 Clear 24 1011 78 10000 4.12 310 09:43 13.06.2022
1561 Clouds 23 1011 80 10000 3.6 0 08:34 13.06.2022
1562 Clear 20 1009 86 10000 8.75 360 06:35 13.06.2022
1563 Clouds 20 1008 85 10000 9.77 360 04:35 13.06.2022
1564 Rain 20 1009 86 10000 8.23 360 01:44 13.06.2022
1565 Clouds 20 1009 86 10000 7.72 360 01:18 13.06.2022
1566 Clouds 20 1009 83 10000 6.69 360 23:41 12.06.2022
1567 Clouds 21 1009 83 10000 7.72 360 22:34 12.06.2022
1568 Clouds 21 1009 83 10000 8.23 360 21:45 12.06.2022
1569 Clouds 22 1009 80 10000 7.72 360 20:49 12.06.2022
1570 Clouds 22 1009 83 10000 7.72 360 19:49 12.06.2022
1571 Clouds 24 1008 76 10000 5.14 10 18:53 12.06.2022
1572 Clouds 26 1007 68 10000 7.2 10 17:20 12.06.2022
1573 Clouds 26 1007 72 10000 7.72 30 15:34 12.06.2022
1574 Clouds 27 1007 70 10000 8.75 30 14:48 12.06.2022
1575 Clouds 25 1007 69 10000 6.17 10 14:18 12.06.2022
1576 Clouds 25 1007 69 10000 5.66 360 13:43 12.06.2022
1577 Rain 23 1008 78 10000 6.17 360 12:22 12.06.2022
1578 Rain 21 1008 92 10000 6.69 350 10:46 12.06.2022
1579 Clouds 20 1007 96 10000 7.72 350 09:36 12.06.2022
1580 Clouds 20 1007 96 10000 7.2 350 08:50 12.06.2022
1581 Rain 19 1007 96 10000 6.69 360 07:51 12.06.2022
1582 Rain 19 1007 100 10000 4.63 360 06:27 12.06.2022
1583 Rain 19 1007 96 10000 6.17 20 03:44 12.06.2022
1584 Rain 19 1008 92 10000 5.66 10 01:49 12.06.2022
1585 Rain 19 1008 92 10000 5.66 20 01:29 12.06.2022
1586 Clouds 19 1008 92 10000 5.66 10 00:43 12.06.2022
1587 Clouds 18 1009 96 10000 5.66 10 00:18 12.06.2022
1588 Rain 19 1009 92 10000 5.66 30 22:58 11.06.2022
1589 Rain 19 1009 92 10000 4.12 30 22:31 11.06.2022
1590 Clouds 19 1009 96 10000 5.66 30 21:18 11.06.2022
1591 Clouds 20 1009 96 10000 4.63 20 20:26 11.06.2022
1592 Clouds 20 1009 96 10000 0 0 19:33 11.06.2022
1593 Rain 20 1009 100 10000 3.09 80 18:37 11.06.2022
1594 Rain 20 1009 100 10000 3.09 80 18:37 11.06.2022
1595 Rain 20 1009 96 8000 5.14 80 17:58 11.06.2022
1596 Rain 21 1009 92 10000 5.14 60 17:38 11.06.2022
1597 Clouds 21 1009 92 10000 5.14 60 17:19 11.06.2022
1598 Clouds 21 1009 92 10000 5.66 50 16:38 11.06.2022
1599 Clouds 21 1009 96 10000 3.6 60 15:46 11.06.2022
1600 Clouds 21 1010 92 10000 1.03 0 13:54 11.06.2022
1601 Clouds 21 1010 96 10000 1.54 40 13:36 11.06.2022
1602 Rain 21 1011 96 10000 1.03 0 11:36 11.06.2022
1603 Rain 20 1012 100 10000 2.57 100 10:29 11.06.2022
1604 Rain 20 1011 96 10000 4.12 100 09:40 11.06.2022
1605 Clouds 20 1011 96 10000 2.57 70 07:58 11.06.2022
1606 Clouds 19 1010 96 10000 0 0 06:31 11.06.2022
1607 Clouds 18 1010 100 10000 2.57 70 05:22 11.06.2022
1608 Clouds 19 1010 100 10000 2.57 90 01:53 11.06.2022
1609 Clouds 18 1011 100 10000 1.54 40 01:34 11.06.2022
1610 Clouds 18 1011 100 10000 1.03 0 00:34 11.06.2022
1611 Clouds 18 1011 100 10000 2.06 50 22:35 10.06.2022
1612 Clouds 19 1011 100 10000 1.54 20 21:54 10.06.2022
1613 Clouds 19 1011 100 10000 1.54 110 20:43 10.06.2022
1614 Clouds 19 1010 96 10000 3.09 100 20:23 10.06.2022
1615 Clouds 20 1010 92 10000 0 0 19:48 10.06.2022
1616 Clouds 20 1010 88 10000 3.09 90 19:18 10.06.2022
1617 Clouds 20 1010 92 10000 3.6 100 18:19 10.06.2022
1618 Clouds 20 1010 92 10000 2.06 120 17:36 10.06.2022
1619 Clouds 20 1010 92 10000 2.57 140 16:56 10.06.2022
1620 Clouds 21 1010 86 10000 4.63 100 15:48 10.06.2022
1621 Rain 21 1010 86 10000 4.12 130 15:19 10.06.2022
1622 Clouds 22 1010 89 10000 5.14 90 13:44 10.06.2022
1623 Clouds 20 1010 92 6000 5.66 120 12:35 10.06.2022
1624 Rain 21 1010 89 10000 6.69 120 11:40 10.06.2022
1625 Clouds 20 1010 89 10000 4.63 110 10:40 10.06.2022
1626 Clouds 20 1009 89 10000 5.14 100 09:43 10.06.2022
1627 Clouds 21 1009 86 10000 4.63 130 08:23 10.06.2022
1628 Clouds 20 1008 92 10000 3.09 90 06:52 10.06.2022
1629 Clouds 20 1008 92 10000 2.06 80 06:32 10.06.2022
1630 Clouds 18 1008 100 10000 1.03 0 05:48 10.06.2022
1631 Clouds 19 1008 100 10000 2.57 110 03:41 10.06.2022
1632 Clouds 19 1008 100 10000 4.12 110 01:38 10.06.2022
1633 Rain 19 1008 96 10000 4.63 120 00:25 10.06.2022
1634 Clouds 18 1008 100 10000 1.03 0 23:25 09.06.2022
1635 Clear 18 1007 100 10000 2.57 100 21:47 09.06.2022
1636 Clouds 18 1007 96 10000 2.06 60 21:29 09.06.2022
1637 Clouds 18 1007 100 10000 1.54 130 20:47 09.06.2022
1638 Clouds 20 1007 83 10000 2.57 120 19:55 09.06.2022
1639 Clouds 20 1007 77 10000 4.12 100 18:47 09.06.2022
1640 Clouds 22 1007 68 10000 4.63 100 17:56 09.06.2022
1641 Clouds 23 1007 83 10000 5.14 90 16:44 09.06.2022
1642 Clouds 23 1007 80 10000 5.14 90 15:44 09.06.2022
1643 Clouds 23 1007 80 10000 4.63 130 14:34 09.06.2022
1644 Clouds 23 1007 80 10000 5.66 110 13:46 09.06.2022
1645 Clouds 22 1007 68 10000 3.6 130 13:26 09.06.2022
1646 Clouds 23 1008 60 10000 2.57 0 11:53 09.06.2022
1647 Clouds 22 1008 80 10000 2.57 30 10:40 09.06.2022
1648 Clouds 22 1008 78 10000 1.03 0 09:41 09.06.2022
1649 Clouds 21 1008 86 10000 1.54 0 09:23 09.06.2022
1650 Fog 17 1008 96 6000 2.06 270 07:34 09.06.2022
1651 Clouds 14 1008 100 6000 2.57 40 05:27 09.06.2022
1652 Clouds 14 1009 100 10000 0 0 01:44 09.06.2022
1653 Clouds 16 1010 100 10000 0 0 23:24 08.06.2022
1654 Clouds 16 1010 100 10000 0 0 22:50 08.06.2022
1655 Clouds 17 1010 96 10000 1.54 30 22:25 08.06.2022
1656 Clouds 17 1010 96 10000 0 0 21:48 08.06.2022
1657 Clouds 18 1010 89 10000 2.57 120 20:33 08.06.2022
1658 Clouds 19 1010 77 10000 2.06 120 19:47 08.06.2022
1659 Rain 20 1010 68 10000 2.57 120 18:56 08.06.2022
1660 Clouds 20 1010 77 10000 3.09 140 18:22 08.06.2022
1661 Clouds 21 1010 83 10000 3.09 190 16:30 08.06.2022
1662 Clouds 20 1011 92 10000 1.54 280 14:49 08.06.2022
1663 Rain 18 1011 100 10000 2.06 150 12:55 08.06.2022
1664 Rain 19 1011 96 10000 2.57 130 11:50 08.06.2022
1665 Rain 18 1011 100 10000 4.12 90 11:22 08.06.2022
1666 Clouds 20 1011 86 10000 2.57 90 09:46 08.06.2022
1667 Clouds 21 1011 80 10000 4.63 90 09:19 08.06.2022
1668 Clouds 18 1011 96 10000 0.51 0 07:30 08.06.2022
1669 Clouds 16 1011 100 10000 2.57 10 04:51 08.06.2022
1670 Clouds 17 1011 100 10000 2.06 100 02:28 08.06.2022
1671 Clouds 17 1011 100 10000 0 0 23:41 07.06.2022
1672 Clouds 17 1012 100 10000 0 0 23:22 07.06.2022
1673 Clouds 17 1012 100 10000 1.03 0 22:38 07.06.2022
1674 Clouds 17 1012 100 6000 0 0 21:45 07.06.2022
1675 Clouds 17 1012 100 6000 0 0 21:24 07.06.2022
1676 Clouds 17 1012 100 8000 0 0 20:43 07.06.2022
1677 Clouds 17 1012 100 10000 1.03 330 19:59 07.06.2022
1678 Clouds 18 1012 100 10000 2.57 300 18:42 07.06.2022
1679 Clouds 18 1012 100 10000 2.06 0 17:51 07.06.2022
1680 Clouds 18 1012 100 9000 2.06 250 16:49 07.06.2022
1681 Clouds 18 1012 94 10000 3.6 250 16:31 07.06.2022
1682 Clouds 19 1012 96 10000 2.06 230 15:38 07.06.2022
1683 Clouds 20 1012 92 10000 2.06 200 15:19 07.06.2022
1684 Clouds 21 1012 86 10000 1.03 0 14:44 07.06.2022
1685 Clouds 20 1013 86 10000 2.57 20 13:42 07.06.2022
1686 Clouds 20 1013 86 10000 2.57 20 13:42 07.06.2022
1687 Clouds 21 1013 80 10000 3.09 20 13:23 07.06.2022
1688 Clouds 20 1014 83 10000 4.63 30 11:56 07.06.2022
1689 Clouds 20 1014 80 10000 3.6 30 10:57 07.06.2022
1690 Clouds 20 1014 80 10000 4.12 300 09:26 07.06.2022
1691 Clouds 19 1014 85 10000 4.12 300 08:28 07.06.2022
1692 Clouds 17 1014 88 10000 3.6 280 07:19 07.06.2022
1693 Clouds 16 1014 92 10000 1.54 280 04:52 07.06.2022
1694 Clouds 16 1014 92 10000 1.54 250 01:43 07.06.2022
1695 Clouds 16 1015 100 10000 2.57 290 23:59 06.06.2022
1696 Clouds 17 1015 89 10000 0 0 22:59 06.06.2022
1697 Clear 17 1015 92 10000 2.06 350 22:30 06.06.2022
1698 Clear 18 1015 89 10000 2.06 10 21:28 06.06.2022
1699 Clouds 20 1015 83 10000 4.12 30 19:29 06.06.2022
1700 Clouds 20 1015 89 10000 3.6 90 18:59 06.06.2022
1701 Clouds 21 1014 86 10000 3.6 110 18:32 06.06.2022
1702 Clouds 21 1014 89 10000 3.09 140 17:27 06.06.2022
1703 Clouds 21 1014 89 10000 4.12 150 16:21 06.06.2022
1704 Clouds 21 1014 83 10000 6.17 140 15:33 06.06.2022
1705 Clouds 21 1014 83 10000 6.17 140 15:33 06.06.2022
1706 Clouds 21 1014 83 10000 3.6 110 14:36 06.06.2022
1707 Clouds 24 1014 64 10000 3.6 10 13:26 06.06.2022
1708 Clouds 24 1014 64 10000 2.06 350 12:36 06.06.2022
1709 Clouds 23 1014 68 10000 2.06 350 11:53 06.06.2022
1710 Clouds 22 1014 68 10000 4.12 40 10:41 06.06.2022
1711 Clouds 20 1014 89 10000 3.09 30 09:39 06.06.2022
1712 Clouds 19 1014 86 10000 3.6 90 08:32 06.06.2022
1713 Clouds 17 1013 88 10000 7.2 90 07:28 06.06.2022
1714 Clouds 20 1012 92 10000 4.12 110 05:27 06.06.2022
1715 Clouds 20 1012 92 10000 1.54 0 02:55 06.06.2022
1716 Clouds 18 1013 100 10000 0 0 01:23 06.06.2022
1717 Clouds 18 1012 100 10000 0 0 00:38 06.06.2022
1718 Clouds 19 1013 100 10000 1.03 0 23:40 05.06.2022
1719 Clouds 19 1012 100 8000 1.54 90 22:45 05.06.2022
1720 Clouds 20 1012 100 10000 1.54 120 20:47 05.06.2022
1721 Clouds 21 1011 100 10000 1.03 0 19:41 05.06.2022
1722 Clouds 23 1013 78 10000 1.54 70 18:30 05.06.2022
1723 Clouds 25 1012 57 10000 5.14 60 17:54 05.06.2022
1724 Clouds 25 1012 68 10000 1.54 130 17:25 05.06.2022
1725 Clouds 25 1012 66 10000 2.06 90 16:51 05.06.2022
1726 Clouds 25 1012 74 10000 2.57 80 16:32 05.06.2022
1727 Clouds 25 1013 83 10000 4.12 130 14:25 05.06.2022
1728 Clouds 29 1013 42 10000 4.63 130 12:49 05.06.2022
1729 Clouds 31 1013 61 10000 2.57 140 11:45 05.06.2022
1730 Clear 29 1014 63 10000 1.03 0 10:33 05.06.2022
1731 Clear 28 1014 60 10000 1.03 0 09:59 05.06.2022
1732 Clear 22 1014 77 8000 1.03 0 08:28 05.06.2022
1733 Clear 21 1014 83 10000 1.54 280 07:41 05.06.2022
1734 Clear 15 1015 85 10000 0.51 30 05:21 05.06.2022
1735 Clear 14 1015 77 10000 0 0 03:46 05.06.2022
1736 Clear 17 1016 80 10000 2.57 10 01:32 05.06.2022
1737 Clear 17 1016 75 10000 2.06 360 00:29 05.06.2022
1738 Clear 19 1017 75 10000 1.54 360 22:22 04.06.2022
1739 Clear 22 1016 53 10000 2.06 90 20:31 04.06.2022
1740 Clouds 25 1016 81 10000 4.63 150 18:19 04.06.2022
1741 Clear 26 1016 65 10000 5.66 140 16:44 04.06.2022
1742 Clear 27 1016 79 10000 6.69 130 16:18 04.06.2022
1743 Clouds 26 1017 69 10000 7.2 140 14:53 04.06.2022
1744 Clouds 29 1018 76 10000 3.6 150 12:35 04.06.2022
1745 Clouds 28 1018 54 10000 3.6 10 11:18 04.06.2022
1746 Clouds 28 1018 72 10000 4.63 20 10:43 04.06.2022
1747 Clouds 27 1018 74 10000 4.63 30 09:42 04.06.2022
1748 Clear 26 1019 76 10000 3.6 40 08:41 04.06.2022
1749 Clear 23 1018 80 10000 2.06 50 07:40 04.06.2022
1750 Clear 22 1018 73 10000 3.09 80 04:57 04.06.2022
1751 Clear 22 1018 83 10000 3.6 20 01:27 04.06.2022
1752 Clear 22 1018 83 10000 1.03 0 23:59 03.06.2022
1753 Clear 24 1018 64 10000 3.09 10 22:40 03.06.2022
1754 Clear 24 1018 64 10000 3.09 20 21:24 03.06.2022
1755 Clear 24 1017 73 10000 1.54 340 20:33 03.06.2022
1756 Clear 27 1017 74 10000 4.63 70 18:23 03.06.2022
1757 Clouds 30 1017 48 10000 7.72 60 16:47 03.06.2022
1758 Clouds 28 1017 79 10000 4.63 150 15:23 03.06.2022
1759 Clouds 30 1017 51 10000 6.69 10 13:22 03.06.2022
1760 Clear 30 1017 69 10000 6.17 60 11:40 03.06.2022
1761 Clear 27 1016 74 10000 6.17 10 09:38 03.06.2022
1762 Clear 26 1016 76 10000 5.14 20 08:58 03.06.2022
1763 Clear 22 1016 83 10000 5.14 350 07:26 03.06.2022
1764 Clear 22 1016 83 10000 5.14 350 07:26 03.06.2022
1765 Clear 20 1016 86 10000 1.54 290 06:34 03.06.2022
1766 Clouds 17 1016 100 10000 1.03 320 05:36 03.06.2022
1767 Clear 18 1015 96 10000 0 0 00:30 03.06.2022
1768 Clear 19 1015 100 10000 0 0 22:45 02.06.2022
1769 Clear 20 1015 94 10000 0 0 21:40 02.06.2022
1770 Clear 21 1014 83 10000 2.57 120 20:22 02.06.2022
1771 Clear 22 1014 78 10000 2.57 130 19:50 02.06.2022
1772 Clear 23 1014 73 10000 3.09 130 19:31 02.06.2022
1773 Clear 25 1014 69 10000 4.12 140 17:32 02.06.2022
1774 Clear 26 1014 65 10000 5.66 130 16:27 02.06.2022
1775 Clouds 27 1015 61 10000 7.2 130 14:20 02.06.2022
1776 Rain 27 1015 61 10000 6.17 140 13:29 02.06.2022
1777 Clouds 29 1015 72 10000 3.6 20 11:36 02.06.2022
1778 Clouds 28 1015 72 10000 1.03 0 10:20 02.06.2022
1779 Clear 26 1015 75 10000 1.54 210 09:28 02.06.2022
1780 Clear 24 1015 80 10000 0.51 0 08:27 02.06.2022
1781 Clear 20 1015 92 10000 1.54 220 07:25 02.06.2022
1782 Mist 17 1014 100 4700 1.54 160 04:52 02.06.2022
1783 Mist 18 1014 100 5000 2.06 290 02:38 02.06.2022
1784 Clouds 18 1015 100 7000 0 0 23:47 01.06.2022
1785 Clear 20 1015 96 10000 0 0 22:32 01.06.2022
1786 Clear 21 1015 92 10000 0 0 21:35 01.06.2022
1787 Clear 21 1015 92 10000 1.54 50 20:58 01.06.2022
1788 Clear 22 1015 89 10000 0 0 20:37 01.06.2022
1789 Clouds 24 1014 83 10000 0 0 19:25 01.06.2022
1790 Clouds 25 1015 79 10000 0 0 17:44 01.06.2022
1791 Clouds 25 1014 83 10000 2.06 110 16:34 01.06.2022
1792 Clouds 26 1014 78 10000 6.17 120 14:54 01.06.2022
1793 Clouds 28 1014 54 10000 5.66 120 13:51 01.06.2022
1794 Clouds 29 1015 72 10000 1.03 0 12:26 01.06.2022
1795 Clouds 27 1015 75 10000 2.06 10 09:41 01.06.2022
1796 Clear 25 1015 81 10000 1.54 270 08:40 01.06.2022
1797 Rain 21 1015 86 10000 1.03 0 07:22 01.06.2022
1798 Rain 18 1014 96 10000 3.09 290 05:23 01.06.2022
1799 Clouds 18 1015 92 10000 1.54 10 00:40 01.06.2022
1800 Clouds 18 1015 96 10000 2.06 20 23:28 31.05.2022
1801 Clouds 19 1015 92 7000 1.03 0 22:36 31.05.2022
1802 Clear 20 1015 94 7000 0 0 21:45 31.05.2022
1803 Clear 21 1014 78 10000 2.06 30 20:45 31.05.2022
1804 Rain 22 1014 83 10000 2.06 120 20:18 31.05.2022
1805 Clouds 22 1014 83 10000 4.12 100 18:52 31.05.2022
1806 Rain 24 1014 77 10000 4.63 110 17:50 31.05.2022
1807 Clouds 25 1013 61 10000 5.66 100 16:56 31.05.2022
1808 Clouds 28 1013 54 10000 5.14 100 15:40 31.05.2022
1809 Clouds 27 1014 50 10000 1.54 0 13:52 31.05.2022
1810 Clouds 27 1015 50 10000 3.6 330 12:20 31.05.2022
1811 Clouds 28 1015 70 10000 2.57 310 10:55 31.05.2022
1812 Clouds 25 1015 78 10000 1.03 0 09:29 31.05.2022
1813 Mist 19 1015 92 5000 1.54 240 07:24 31.05.2022
1814 Clear 16 1014 96 10000 0.51 0 05:19 31.05.2022
1815 Clear 17 1013 96 10000 2.06 290 00:36 31.05.2022
1816 Clear 18 1013 89 10000 0 0 23:26 30.05.2022
1817 Clear 19 1013 86 10000 0 0 22:56 30.05.2022
1818 Clear 20 1012 83 10000 2.06 340 21:52 30.05.2022
1819 Clear 20 1012 77 10000 1.54 330 21:32 30.05.2022
1820 Clouds 21 1011 86 10000 2.06 350 20:20 30.05.2022
1821 Clouds 25 1011 57 10000 5.14 310 18:40 30.05.2022
1822 Clouds 26 1010 67 10000 4.63 310 17:35 30.05.2022
1823 Clouds 26 1010 50 10000 5.14 290 16:41 30.05.2022
1824 Clouds 26 1010 72 10000 5.14 300 14:35 30.05.2022
1825 Rain 25 1010 76 10000 5.14 280 12:24 30.05.2022
1826 Clouds 24 1009 81 10000 6.17 270 10:41 30.05.2022
1827 Clear 22 1009 86 10000 4.63 250 09:19 30.05.2022
1828 Clouds 17 1007 100 10000 1.03 0 06:40 30.05.2022
1829 Clouds 16 1007 100 10000 1.03 0 05:48 30.05.2022
1830 Clouds 16 1007 100 10000 1.54 320 01:42 30.05.2022
1831 Clouds 19 1008 83 10000 4.63 110 22:57 29.05.2022
1832 Clouds 19 1009 83 10000 6.69 100 22:36 29.05.2022
1833 Clouds 18 1008 83 10000 4.12 90 20:54 29.05.2022
1834 Clouds 20 1008 78 10000 5.14 90 19:32 29.05.2022
1835 Clouds 21 1008 76 10000 4.63 80 18:44 29.05.2022
1836 Clear 21 1010 71 10000 6.17 100 17:31 29.05.2022
1837 Clear 23 1009 69 10000 7.72 100 15:48 29.05.2022
1838 Clear 24 1010 74 10000 5.66 100 14:57 29.05.2022
1839 Clear 23 1010 80 10000 6.69 130 13:52 29.05.2022
1840 Rain 23 1011 83 10000 5.66 120 11:41 29.05.2022
1841 Rain 24 1009 78 10000 7.72 100 10:38 29.05.2022
1842 Clouds 22 1012 80 10000 3.09 340 08:47 29.05.2022
1843 Clouds 17 1010 100 10000 2.06 0 05:48 29.05.2022
1844 Clouds 17 1010 96 10000 1.03 0 04:43 29.05.2022
1845 Clouds 18 1010 89 10000 3.6 320 03:41 29.05.2022
1846 Rain 19 1010 83 10000 3.6 100 23:49 28.05.2022
1847 Clouds 19 1010 82 10000 3.6 100 23:26 28.05.2022
1848 Clouds 17 1010 89 10000 3.09 110 22:33 28.05.2022
1849 Clouds 19 1010 82 10000 3.09 90 21:34 28.05.2022
1850 Clouds 19 1010 77 10000 3.09 90 19:24 28.05.2022
1851 Clouds 20 1010 73 10000 3.09 90 18:47 28.05.2022
1852 Clear 22 1009 80 10000 4.63 100 17:36 28.05.2022
1853 Clear 22 1010 64 10000 4.12 120 16:37 28.05.2022
1854 Clouds 22 1010 73 10000 6.69 110 15:39 28.05.2022
1855 Clear 24 1010 64 10000 5.66 120 14:18 28.05.2022
1856 Clear 23 1011 73 10000 5.66 110 12:44 28.05.2022
1857 Clear 24 1011 69 10000 4.63 130 11:57 28.05.2022
1858 Clear 25 1011 65 10000 1.03 0 10:49 28.05.2022
1859 Clear 23 1012 68 10000 1.54 0 09:56 28.05.2022
1860 Clouds 18 1012 100 8000 0 0 08:43 28.05.2022
1861 Fog 15 1012 100 300 1.03 0 07:23 28.05.2022
1862 Fog 15 1012 100 700 0 0 05:24 28.05.2022
1863 Clouds 15 1013 100 8000 1.54 30 02:38 28.05.2022
1864 Clouds 16 1014 100 10000 0.51 0 00:31 28.05.2022
1865 Clouds 17 1015 100 10000 2.57 110 22:50 27.05.2022
1866 Clouds 18 1015 94 10000 3.6 110 21:37 27.05.2022
1867 Clouds 18 1015 94 10000 3.6 110 20:48 27.05.2022
1868 Clouds 18 1015 94 10000 3.09 110 20:21 27.05.2022
1869 Clouds 18 1015 94 10000 3.6 100 19:41 27.05.2022
1870 Clouds 19 1015 82 10000 4.12 100 19:21 27.05.2022
1871 Clear 21 1016 73 10000 5.66 100 17:34 27.05.2022
1872 Clouds 22 1016 68 10000 6.17 110 16:36 27.05.2022
1873 Clouds 22 1017 68 10000 7.2 120 15:20 27.05.2022
1874 Clouds 23 1018 64 10000 6.69 120 13:41 27.05.2022
1875 Clouds 24 1018 60 10000 5.66 120 12:28 27.05.2022
1876 Clouds 24 1018 60 10000 3.6 130 11:31 27.05.2022
1877 Clouds 25 1019 74 10000 3.09 160 10:47 27.05.2022
1878 Clear 24 1019 77 10000 2.06 170 09:59 27.05.2022
1879 Clear 23 1019 80 10000 1.54 0 09:31 27.05.2022
1880 Clear 19 1019 89 10000 0 0 07:40 27.05.2022
1881 Clouds 15 1019 96 10000 2.06 360 05:25 27.05.2022
1882 Clouds 16 1018 94 10000 1.03 90 01:44 27.05.2022
1883 Clouds 17 1019 100 10000 2.06 40 23:31 26.05.2022
1884 Clouds 17 1018 100 10000 0.51 0 22:28 26.05.2022
1885 Clouds 18 1018 100 10000 0.51 0 21:32 26.05.2022
1886 Clouds 20 1016 88 10000 5.14 130 19:39 26.05.2022
1887 Clouds 22 1016 78 10000 6.69 120 18:52 26.05.2022
1888 Clouds 28 1015 51 10000 4.63 300 17:36 26.05.2022
1889 Clouds 29 1016 45 10000 6.17 300 16:31 26.05.2022
1890 Clouds 29 1016 45 10000 6.69 300 15:32 26.05.2022
1891 Clouds 29 1016 45 10000 6.69 320 14:20 26.05.2022
1892 Clear 27 1016 76 10000 4.12 220 12:18 26.05.2022
1893 Clouds 25 1017 77 10000 3.09 250 11:21 26.05.2022
1894 Clouds 20 1016 83 10000 2.06 190 09:39 26.05.2022
1895 Clouds 20 1016 89 10000 1.03 0 08:48 26.05.2022
1896 Clouds 16 1017 100 10000 1.54 0 06:47 26.05.2022
1897 Clouds 13 1016 100 10000 2.57 100 02:51 26.05.2022
1898 Rain 14 1017 100 10000 3.6 100 00:19 26.05.2022
1899 Clouds 15 1018 100 10000 2.57 120 22:58 25.05.2022
1900 Clouds 15 1018 100 10000 2.57 120 21:44 25.05.2022
1901 Clouds 15 1018 96 10000 4.12 110 20:50 25.05.2022
1902 Clouds 16 1017 92 10000 4.63 120 19:56 25.05.2022
1903 Clear 18 1017 85 10000 4.63 120 18:48 25.05.2022
1904 Rain 19 1018 83 10000 5.66 120 17:26 25.05.2022
1905 Clear 20 1018 74 10000 6.69 120 16:34 25.05.2022
1906 Rain 20 1018 68 10000 6.17 120 15:36 25.05.2022
1907 Clear 21 1018 78 10000 6.69 110 14:50 25.05.2022
1908 Clear 21 1018 78 10000 6.69 110 14:32 25.05.2022
1909 Clouds 19 1018 68 10000 7.2 110 13:23 25.05.2022
1910 Clouds 19 1018 68 10000 7.2 110 13:23 25.05.2022
1911 Clouds 22 1019 99 10000 5.28 139 11:50 25.05.2022
1912 Clear 20 1018 83 10000 5.14 120 10:41 25.05.2022
1913 Clouds 19 1018 86 10000 5.14 120 09:38 25.05.2022
1914 Clouds 17 1018 99 10000 2.39 143 07:42 25.05.2022
1915 Rain 12 1016 100 10000 1.54 70 05:41 25.05.2022
1916 Clouds 14 1017 99 10000 1.56 168 02:41 25.05.2022
1917 Clouds 14 1015 100 10000 2.57 110 23:50 24.05.2022
1918 Rain 15 1015 100 10000 2.57 100 22:59 24.05.2022
1919 Rain 15 1015 100 10000 2.57 100 22:59 24.05.2022
1920 Rain 15 1015 100 10000 0 0 21:57 24.05.2022
1921 Rain 15 1014 100 10000 2.06 130 21:37 24.05.2022
1922 Clouds 15 1014 100 10000 2.06 130 21:18 24.05.2022
1923 Rain 16 1014 77 10000 3.09 140 19:23 24.05.2022
1924 Rain 16 1013 72 10000 4.12 130 18:29 24.05.2022
1925 Rain 17 1013 72 10000 7.2 110 16:39 24.05.2022
1926 Rain 17 1013 72 10000 7.2 110 16:39 24.05.2022
1927 Rain 17 1013 72 10000 7.2 120 15:45 24.05.2022
1928 Clear 20 1013 80 10000 7.2 120 14:38 24.05.2022
1929 Clear 20 1013 80 10000 7.2 120 13:46 24.05.2022
1930 Clear 20 1013 80 10000 7.2 110 12:24 24.05.2022
1931 Clear 19 1013 59 10000 3.6 120 09:52 24.05.2022
1932 Clouds 17 1013 88 10000 1.54 170 08:52 24.05.2022
1933 Mist 15 1013 100 4200 0.51 0 07:56 24.05.2022
1934 Mist 13 1012 100 3800 1.03 330 06:39 24.05.2022
1935 Clouds 12 1012 100 10000 0 0 03:38 24.05.2022
1936 Clouds 11 1012 100 10000 0 0 01:46 24.05.2022
1937 Clouds 11 1012 100 10000 1.03 60 00:30 24.05.2022
1938 Clouds 12 1012 100 10000 1.03 30 22:24 23.05.2022
1939 Clouds 13 1012 92 10000 2.57 30 21:50 23.05.2022
1940 Rain 13 1011 89 10000 1.54 40 20:49 23.05.2022
1941 Rain 15 1011 83 10000 1.54 170 19:55 23.05.2022
1942 Clouds 15 1011 83 10000 2.06 170 19:24 23.05.2022
1943 Clouds 16 1010 79 10000 3.09 160 18:41 23.05.2022
1944 Clouds 17 1010 77 10000 3.6 120 17:56 23.05.2022
1945 Clouds 18 1010 82 10000 5.66 120 16:29 23.05.2022
1946 Clouds 18 1009 85 10000 6.69 130 14:18 23.05.2022
1947 Clouds 18 1009 72 10000 6.17 120 11:53 23.05.2022
1948 Clouds 19 1009 63 10000 5.14 140 10:49 23.05.2022
1949 Clouds 20 1009 73 10000 3.09 40 09:48 23.05.2022
1950 Clear 17 1009 80 10000 1.54 0 08:46 23.05.2022
1951 Clouds 15 1009 83 10000 2.06 230 07:31 23.05.2022
1952 Clouds 14 1008 86 10000 3.09 340 06:40 23.05.2022
1953 Clouds 12 1008 95 10000 0 0 03:41 23.05.2022
1954 Clouds 14 1008 89 10000 0 0 02:18 23.05.2022
1955 Clouds 15 1008 83 10000 0 0 01:32 23.05.2022
1956 Clouds 15 1008 80 10000 2.57 90 23:18 22.05.2022
1957 Clouds 15 1008 67 10000 4.12 90 22:27 22.05.2022
1958 Clouds 14 1008 72 10000 2.57 50 21:52 22.05.2022
1959 Clouds 15 1008 67 10000 2.06 90 20:46 22.05.2022
1960 Clouds 16 1008 63 10000 2.57 90 20:22 22.05.2022
1961 Clouds 17 1007 59 10000 3.09 120 19:34 22.05.2022
1962 Clouds 18 1007 55 10000 4.12 130 18:50 22.05.2022
1963 Clouds 18 1007 55 10000 4.12 130 18:21 22.05.2022
1964 Clear 20 1007 52 10000 5.66 110 16:57 22.05.2022
1965 Clear 22 1007 69 10000 5.66 130 15:34 22.05.2022
1966 Clouds 22 1007 70 10000 6.17 130 14:47 22.05.2022
1967 Clouds 22 1007 70 10000 6.17 130 14:47 22.05.2022
1968 Clear 23 1008 72 10000 6.69 130 13:21 22.05.2022
1969 Clouds 23 1008 70 10000 6.17 140 12:45 22.05.2022
1970 Clouds 24 1008 73 10000 3.09 30 10:55 22.05.2022
1971 Clouds 23 1009 73 10000 2.57 0 09:38 22.05.2022
1972 Clear 21 1008 76 10000 3.6 340 07:52 22.05.2022
1973 Clear 20 1008 76 10000 3.09 0 07:20 22.05.2022
1974 Clouds 14 1007 82 10000 1.54 290 04:49 22.05.2022
1975 Clouds 16 1009 92 10000 1.54 350 01:20 22.05.2022
1976 Clouds 16 1010 82 10000 0 0 23:57 21.05.2022
1977 Clouds 15 1010 82 10000 0 0 23:32 21.05.2022
1978 Clear 16 1010 82 10000 0 0 22:22 21.05.2022
1979 Clear 17 1010 82 10000 1.54 40 21:39 21.05.2022
1980 Clear 17 1010 82 10000 0 0 20:48 21.05.2022
1981 Clouds 18 1010 72 10000 0 0 20:19 21.05.2022
1982 Clouds 20 1011 64 10000 3.09 130 19:24 21.05.2022
1983 Clear 25 1012 50 10000 3.6 100 17:35 21.05.2022
1984 Clear 27 1013 41 10000 4.12 140 15:37 21.05.2022
1985 Clear 27 1014 36 10000 2.57 160 14:36 21.05.2022
1986 Clear 27 1014 34 10000 3.6 240 13:36 21.05.2022
1987 Clear 27 1015 32 10000 4.12 250 12:40 21.05.2022
1988 Clear 26 1015 36 10000 3.09 240 11:52 21.05.2022
1989 Clear 23 1016 53 10000 1.54 220 10:22 21.05.2022
1990 Clear 22 1017 75 10000 2.06 250 09:20 21.05.2022
1991 Clear 20 1017 74 10000 2.57 250 08:47 21.05.2022
1992 Clouds 16 1018 99 10000 2.15 241 06:22 21.05.2022
1993 Clouds 12 1019 95 10000 0 0 02:23 21.05.2022
1994 Rain 13 1020 92 10000 0 0 23:42 20.05.2022
1995 Clear 14 1020 89 10000 0 0 22:41 20.05.2022
1996 Rain 14 1020 89 10000 0 0 22:18 20.05.2022
1997 Clear 16 1021 83 10000 2.06 150 21:19 20.05.2022
1998 Clear 16 1020 72 10000 2.06 10 20:51 20.05.2022
1999 Clouds 18 1020 59 10000 2.57 130 19:54 20.05.2022
2000 Clouds 20 1020 56 10000 4.12 100 18:58 20.05.2022
2001 Clouds 21 1021 52 10000 4.63 100 18:23 20.05.2022
2002 Clear 26 1022 25 10000 3.09 290 16:28 20.05.2022
2003 Clear 26 1022 29 10000 4.63 290 15:54 20.05.2022
2004 Clear 26 1022 29 10000 4.63 290 15:32 20.05.2022
2005 Clear 25 1023 33 10000 5.66 290 14:27 20.05.2022
2006 Clear 24 1024 43 10000 3.09 250 12:45 20.05.2022
2007 Clear 22 1025 46 10000 5.66 250 10:48 20.05.2022
2008 Clear 21 1025 69 10000 4.63 240 09:32 20.05.2022
2009 Clear 17 1025 67 10000 2.57 240 08:37 20.05.2022
2010 Mist 12 1025 92 3500 0 0 06:44 20.05.2022
2011 Clear 10 1025 100 6000 0 0 05:52 20.05.2022
2012 Clouds 10 1025 95 10000 1.54 260 02:52 20.05.2022
2013 Clouds 9 1026 92 10000 1.03 0 23:47 19.05.2022
2014 Clouds 10 1026 88 10000 2.06 50 22:37 19.05.2022
2015 Clouds 11 1026 92 10000 2.06 30 21:51 19.05.2022
2016 Clouds 11 1026 89 10000 1.54 40 21:24 19.05.2022
2017 Clouds 12 1026 89 10000 1.03 0 20:52 19.05.2022
2018 Clouds 13 1026 76 10000 1.03 140 19:54 19.05.2022
2019 Clouds 14 1025 83 10000 3.6 120 19:18 19.05.2022
2020 Clouds 16 1025 63 10000 7.72 100 17:46 19.05.2022
2021 Clouds 20 1025 40 10000 5.14 340 15:58 19.05.2022
2022 Clouds 20 1025 66 10000 4.63 340 14:49 19.05.2022
2023 Clouds 19 1025 65 10000 6.17 360 14:20 19.05.2022
2024 Clouds 18 1026 69 10000 6.69 10 11:55 19.05.2022
2025 Clouds 16 1026 73 10000 6.17 330 10:31 19.05.2022
2026 Clear 15 1026 73 10000 5.14 320 08:44 19.05.2022
2027 Clear 12 1026 82 10000 4.12 310 07:18 19.05.2022
2028 Clear 9 1025 88 10000 4.12 350 03:52 19.05.2022
2029 Clouds 8 1025 88 10000 2.57 360 00:58 19.05.2022
2030 Clouds 8 1024 85 10000 2.57 10 23:40 18.05.2022
2031 Clouds 8 1024 88 10000 2.06 350 22:43 18.05.2022
2032 Clouds 10 1024 77 10000 1.03 230 21:43 18.05.2022
2033 Clouds 11 1023 74 10000 2.57 30 21:23 18.05.2022
2034 Clouds 12 1022 72 10000 2.57 10 20:19 18.05.2022
2035 Clouds 14 1021 67 10000 3.6 10 18:53 18.05.2022
2036 Clear 15 1020 64 10000 5.66 20 17:42 18.05.2022
2037 Clear 15 1020 68 10000 3.6 350 17:24 18.05.2022
2038 Clear 14 1019 74 10000 1.54 310 16:53 18.05.2022
2039 Clear 14 1019 77 10000 2.57 340 15:45 18.05.2022
2040 Clear 13 1019 76 10000 2.57 250 15:20 18.05.2022
2041 Clouds 12 1019 82 10000 1.03 0 13:59 18.05.2022
2042 Rain 11 1018 92 10000 2.57 0 12:54 18.05.2022
2043 Rain 11 1016 89 10000 8.75 20 11:48 18.05.2022
2044 Rain 11 1016 89 10000 9.26 20 11:30 18.05.2022
2045 Rain 12 1016 92 10000 7.2 10 10:43 18.05.2022
2046 Clouds 16 1011 96 10000 4.63 360 07:59 18.05.2022
2047 Clouds 17 1011 92 10000 1.54 340 06:54 18.05.2022
2048 Clouds 18 1011 86 10000 7.2 320 03:34 18.05.2022
2049 Rain 16 1010 96 10000 0 0 00:42 18.05.2022
2050 Clouds 17 1011 92 10000 0.51 0 23:21 17.05.2022
2051 Clouds 19 1012 83 10000 2.06 50 21:21 17.05.2022
2052 Clouds 19 1012 83 10000 2.06 80 20:38 17.05.2022
2053 Clouds 19 1012 68 10000 4.63 100 19:30 17.05.2022
2054 Clouds 20 1012 64 10000 5.14 100 18:43 17.05.2022
2055 Clear 23 1012 56 10000 5.66 100 17:31 17.05.2022
2056 Clouds 24 1013 57 10000 5.66 100 16:53 17.05.2022
2057 Clouds 24 1013 60 10000 5.66 100 15:45 17.05.2022
2058 Clouds 25 1014 57 10000 5.66 120 14:48 17.05.2022
2059 Clouds 25 1014 57 10000 5.66 120 14:23 17.05.2022
2060 Clouds 27 1015 36 10000 2.06 230 12:36 17.05.2022
2061 Clear 24 1016 77 10000 1.54 0 10:23 17.05.2022
2062 Clouds 20 1016 85 8000 0.51 0 08:45 17.05.2022
2063 Mist 17 1016 92 4100 1.54 240 07:41 17.05.2022
2064 Clear 11 1016 100 10000 1.03 300 04:33 17.05.2022
2065 Clouds 14 1017 100 10000 1.54 20 00:47 17.05.2022
2066 Clouds 14 1018 100 10000 1.03 140 22:51 16.05.2022
2067 Clouds 15 1017 96 10000 2.06 20 22:30 16.05.2022
2068 Clouds 16 1017 92 10000 2.06 360 20:56 16.05.2022
2069 Clouds 17 1017 92 10000 2.06 10 20:24 16.05.2022
2070 Clouds 20 1017 68 10000 0.51 0 18:39 16.05.2022
2071 Rain 19 1017 85 10000 3.09 80 16:37 16.05.2022
2072 Thunderstorm 20 1017 86 6000 8.23 90 14:46 16.05.2022
2073 Rain 24 1018 75 10000 5.66 100 13:26 16.05.2022
2074 Clouds 25 1019 76 10000 2.06 0 11:42 16.05.2022
2075 Clouds 22 1019 68 10000 2.06 250 10:30 16.05.2022
2076 Mist 14 1019 100 1100 2.06 280 07:45 16.05.2022
2077 Fog 13 1019 100 100 1.54 320 05:40 16.05.2022
2078 Clouds 15 1019 100 10000 0 0 23:59 15.05.2022
2079 Clouds 16 1018 96 10000 1.54 20 22:39 15.05.2022
2080 Clouds 16 1018 96 10000 1.03 0 21:48 15.05.2022
2081 Clouds 16 1018 96 10000 0 0 21:21 15.05.2022
2082 Clouds 17 1018 88 10000 0 0 20:34 15.05.2022
2083 Rain 19 1017 89 10000 2.06 140 17:56 15.05.2022
2084 Clouds 20 1017 83 10000 4.12 130 16:36 15.05.2022
2085 Clouds 19 1017 77 10000 4.63 130 14:18 15.05.2022
2086 Clouds 21 1017 68 10000 4.12 120 13:27 15.05.2022
2087 Clouds 21 1017 73 10000 4.63 140 11:55 15.05.2022
2088 Clouds 21 1017 68 10000 5.14 130 10:35 15.05.2022
2089 Clouds 21 1017 73 10000 1.54 0 08:52 15.05.2022
2090 Clouds 17 1016 96 10000 1.03 0 06:59 15.05.2022
2091 Rain 17 1016 96 10000 1.03 0 06:38 15.05.2022
2092 Rain 17 1015 100 3800 2.57 320 01:43 15.05.2022
2093 Clouds 16 1014 100 10000 1.03 0 23:52 14.05.2022
2094 Clouds 16 1014 100 10000 1.03 0 23:33 14.05.2022
2095 Clouds 16 1014 100 10000 1.03 360 21:43 14.05.2022
2096 Clouds 17 1014 100 8000 1.54 290 21:18 14.05.2022
2097 Clouds 18 1014 100 10000 2.06 250 19:40 14.05.2022
2098 Clouds 18 1014 100 10000 2.06 250 19:40 14.05.2022
2099 Clouds 18 1014 100 10000 2.06 250 19:40 14.05.2022
2100 Clouds 18 1013 94 10000 1.54 350 19:20 14.05.2022
2101 Clouds 19 1013 100 10000 3.09 100 18:47 14.05.2022
2102 Thunderstorm 19 1013 88 8000 6.17 260 17:28 14.05.2022
2103 Rain 25 1012 50 10000 6.69 100 15:34 14.05.2022
2104 Clouds 28 1012 36 10000 1.54 130 14:34 14.05.2022
2105 Clear 27 1013 41 10000 2.57 0 12:49 14.05.2022
2106 Rain 25 1013 47 10000 2.57 360 11:37 14.05.2022
2107 Clouds 25 1013 50 10000 2.57 270 10:22 14.05.2022
2108 Clouds 24 1012 50 10000 1.54 240 09:54 14.05.2022
2109 Clouds 21 1013 52 9000 2.06 280 08:56 14.05.2022
2110 Clear 14 1012 85 10000 0 0 06:52 14.05.2022
2111 Clouds 13 1013 82 10000 0 0 03:27 14.05.2022
2112 Clouds 15 1015 74 10000 2.57 110 23:45 13.05.2022
2113 Clouds 16 1015 73 10000 2.06 80 23:18 13.05.2022
2114 Clouds 16 1015 71 10000 2.06 80 22:43 13.05.2022
2115 Clouds 15 1015 71 10000 3.6 110 22:18 13.05.2022
2116 Clouds 18 1015 45 10000 2.57 100 20:46 13.05.2022
2117 Clouds 20 1015 37 10000 2.57 130 20:27 13.05.2022
2118 Clouds 20 1015 40 10000 2.57 120 19:34 13.05.2022
2119 Clear 24 1015 33 10000 4.12 140 17:53 13.05.2022
2120 Clear 23 1015 43 10000 5.66 100 17:29 13.05.2022
2121 Clear 25 1015 38 10000 7.2 100 16:20 13.05.2022
2122 Clear 26 1015 36 10000 6.69 90 15:29 13.05.2022
2123 Clear 27 1016 39 10000 4.63 110 13:48 13.05.2022
2124 Clear 27 1017 34 10000 3.6 140 12:32 13.05.2022
2125 Clear 26 1018 36 10000 3.09 200 11:22 13.05.2022
2126 Clear 25 1018 66 10000 1.54 0 09:34 13.05.2022
2127 Clear 23 1018 68 10000 0 0 08:44 13.05.2022
2128 Clear 19 1018 74 10000 0.51 0 07:48 13.05.2022
2129 Clear 17 1018 80 10000 0 0 06:33 13.05.2022
2130 Clear 17 1018 80 10000 0 0 06:33 13.05.2022
2131 Clear 17 1018 80 10000 0 0 06:33 13.05.2022
2132 Clear 13 1018 92 10000 2.06 320 03:29 13.05.2022
2133 Clear 16 1018 83 10000 1.03 0 00:24 13.05.2022
2134 Clear 17 1018 77 10000 2.06 40 22:45 12.05.2022
2135 Clear 19 1019 71 10000 1.03 0 21:56 12.05.2022
2136 Clouds 21 1018 46 10000 2.06 110 20:29 12.05.2022
2137 Clouds 24 1018 43 10000 2.06 170 18:51 12.05.2022
2138 Clear 25 1017 41 10000 6.17 100 17:23 12.05.2022
2139 Clear 27 1018 29 10000 4.12 240 15:55 12.05.2022
2140 Clouds 28 1018 28 10000 3.6 220 14:40 12.05.2022
2141 Clouds 27 1019 32 10000 4.63 230 13:38 12.05.2022
2142 Clear 25 1020 44 10000 4.63 270 10:45 12.05.2022
2143 Clear 21 1020 60 10000 1.54 230 09:28 12.05.2022
2144 Clear 20 1020 76 10000 1.03 0 08:50 12.05.2022
2145 Clear 17 1020 83 10000 0.51 0 07:40 12.05.2022
2146 Clouds 11 1019 95 10000 0 0 05:46 12.05.2022
2147 Clouds 10 1019 88 10000 1.03 300 02:49 12.05.2022
2148 Clouds 11 1019 85 10000 1.54 10 00:35 12.05.2022
2149 Clouds 12 1019 85 10000 0 0 22:34 11.05.2022
2150 Clouds 14 1019 80 10000 1.03 0 21:38 11.05.2022
2151 Clouds 14 1019 77 10000 2.06 80 20:55 11.05.2022
2152 Clouds 18 1017 72 10000 5.14 100 18:27 11.05.2022
2153 Clouds 19 1017 48 10000 5.66 100 16:51 11.05.2022
2154 Clouds 19 1017 48 10000 5.66 100 16:51 11.05.2022
2155 Clouds 20 1018 62 10000 6.17 110 14:51 11.05.2022
2156 Clouds 21 1018 62 10000 6.69 110 14:26 11.05.2022
2157 Clouds 21 1018 43 10000 5.66 120 13:51 11.05.2022
2158 Clouds 21 1019 52 10000 1.54 150 11:51 11.05.2022
2159 Clear 20 1019 69 10000 1.54 0 10:27 11.05.2022
2160 Clouds 16 1019 77 9000 1.54 250 08:37 11.05.2022
2161 Rain 8 1018 95 10000 1.03 260 05:19 11.05.2022
2162 Clouds 9 1019 92 10000 1.54 340 00:42 11.05.2022
2163 Clear 10 1019 79 10000 1.54 40 22:30 10.05.2022
2164 Clouds 11 1019 77 10000 2.06 30 21:55 10.05.2022
2165 Clouds 12 1019 78 10000 0.51 50 20:54 10.05.2022
2166 Clouds 13 1019 76 10000 3.09 100 19:26 10.05.2022
2167 Clear 17 1019 63 10000 4.12 90 17:49 10.05.2022
2168 Clear 17 1019 39 10000 4.63 100 16:49 10.05.2022
2169 Clear 20 1020 26 10000 6.69 120 14:33 10.05.2022
2170 Clear 19 1021 37 10000 4.63 130 12:37 10.05.2022
2171 Clear 18 1022 39 10000 3.6 130 11:49 10.05.2022
2172 Clear 18 1022 39 10000 3.09 160 11:18 10.05.2022
2173 Clear 18 1022 39 10000 3.09 160 11:18 10.05.2022
2174 Clear 18 1022 65 10000 2.06 200 09:57 10.05.2022
2175 Clear 16 1022 72 10000 1.03 0 09:18 10.05.2022
2176 Mist 8 1021 95 3600 0 0 06:44 10.05.2022
2177 Clear 7 1021 100 10000 1.03 0 02:59 10.05.2022
2178 Clear 7 1022 100 10000 1.54 360 00:24 10.05.2022
2179 Clear 8 1022 95 10000 1.54 320 22:43 09.05.2022
2180 Clear 9 1022 92 10000 1.54 30 21:48 09.05.2022
2181 Clear 11 1022 88 10000 2.57 110 20:23 09.05.2022
2182 Clear 14 1021 62 10000 3.6 120 18:43 09.05.2022
2183 Clear 15 1021 73 10000 5.14 120 17:39 09.05.2022
2184 Clear 17 1022 73 10000 5.66 130 16:28 09.05.2022
2185 Clear 16 1022 51 10000 5.66 130 15:48 09.05.2022
2186 Clear 17 1023 55 10000 5.66 120 14:46 09.05.2022
2187 Clear 18 1023 65 10000 5.66 130 14:22 09.05.2022
2188 Clear 17 1023 51 10000 5.14 140 13:32 09.05.2022
2189 Clear 18 1023 70 10000 4.63 120 11:54 09.05.2022
2190 Clouds 16 1023 51 10000 3.6 100 10:50 09.05.2022
2191 Clouds 16 1023 77 10000 2.57 140 10:29 09.05.2022
2192 Fog 10 1023 100 250 1.54 260 08:23 09.05.2022
2193 Fog 9 1022 100 250 1.54 310 07:43 09.05.2022
2194 Clouds 7 1022 100 10000 0 0 02:44 09.05.2022
2195 Clouds 9 1022 100 10000 0 0 23:29 08.05.2022
2196 Clouds 9 1022 100 10000 0 0 22:47 08.05.2022
2197 Clouds 10 1022 100 10000 0 0 21:47 08.05.2022
2198 Clouds 10 1022 95 10000 2.06 120 20:31 08.05.2022
2199 Clouds 12 1022 95 10000 2.57 120 19:37 08.05.2022
2200 Clouds 13 1022 76 10000 4.63 120 18:49 08.05.2022
2201 Clear 14 1022 77 10000 6.17 120 17:52 08.05.2022
2202 Clear 15 1022 80 10000 5.66 120 16:30 08.05.2022
2203 Clear 16 1022 80 10000 6.17 120 15:25 08.05.2022
2204 Clear 16 1023 77 10000 5.66 120 14:23 08.05.2022
2205 Clear 15 1023 63 10000 4.63 120 11:53 08.05.2022
2206 Clear 15 1023 79 10000 4.12 120 10:27 08.05.2022
2207 Clear 14 1023 82 10000 3.6 120 09:54 08.05.2022
2208 Clouds 11 1023 92 10000 0 0 08:23 08.05.2022
2209 Clouds 5 1023 100 10000 1.54 250 06:21 08.05.2022
2210 Clouds 5 1023 100 10000 0 0 03:23 08.05.2022
2211 Clouds 7 1023 92 10000 2.06 30 01:19 08.05.2022
2212 Clouds 8 1023 88 10000 1.03 70 23:57 07.05.2022
2213 Clouds 8 1023 88 10000 1.03 70 23:34 07.05.2022
2214 Clouds 8 1023 92 10000 0 0 22:46 07.05.2022
2215 Clouds 9 1023 85 10000 2.57 60 21:56 07.05.2022
2216 Clouds 9 1023 88 10000 2.57 70 21:28 07.05.2022
2217 Clouds 10 1023 85 10000 1.54 70 20:25 07.05.2022
2218 Clouds 13 1022 67 10000 3.6 120 18:52 07.05.2022
2219 Clear 15 1022 69 10000 6.17 130 16:50 07.05.2022
2220 Clear 15 1023 55 10000 6.17 140 14:54 07.05.2022
2221 Clear 18 1024 56 10000 6.17 140 11:28 07.05.2022
2222 Clear 16 1023 44 10000 4.63 110 09:55 07.05.2022
2223 Clear 13 1023 82 10000 1.54 260 08:33 07.05.2022
2224 Clear 9 1023 85 10000 1.54 130 07:25 07.05.2022
2225 Rain 7 1023 88 10000 0 0 06:42 07.05.2022
2226 Rain 4 1023 92 10000 1.54 290 04:18 07.05.2022
2227 Clear 7 1024 82 10000 1.54 310 23:51 06.05.2022
2228 Clear 8 1024 79 10000 2.06 10 22:40 06.05.2022
2229 Clear 9 1023 57 10000 0 0 21:54 06.05.2022
2230 Clear 10 1023 77 10000 0 0 21:29 06.05.2022
2231 Clear 12 1023 76 10000 1.54 30 19:48 06.05.2022
2232 Rain 12 1022 82 10000 3.09 120 19:24 06.05.2022
2233 Clear 15 1023 77 10000 4.63 120 18:31 06.05.2022
2234 Rain 15 1023 63 10000 5.14 120 17:36 06.05.2022
2235 Clear 17 1023 55 10000 5.66 120 15:53 06.05.2022
2236 Clear 17 1023 55 10000 6.17 130 15:28 06.05.2022
2237 Clear 18 1024 45 10000 6.69 130 13:49 06.05.2022
2238 Clear 19 1024 34 10000 7.2 130 12:50 06.05.2022
2239 Clear 20 1024 32 10000 6.17 130 11:58 06.05.2022
2240 Clear 19 1024 27 10000 4.12 80 10:41 06.05.2022
2241 Rain 18 1024 29 10000 3.6 70 09:47 06.05.2022
2242 Clear 18 1024 34 10000 2.06 110 09:18 06.05.2022
2243 Clear 10 1024 66 10000 2.06 260 07:49 06.05.2022
2244 Clear 5 1023 75 10000 0 0 06:26 06.05.2022
2245 Clear 6 1023 88 10000 1.03 0 02:58 06.05.2022
2246 Clear 7 1023 85 10000 0 0 01:58 06.05.2022
2247 Clear 9 1023 74 10000 2.06 350 22:50 05.05.2022
2248 Clear 9 1023 76 10000 2.06 20 21:46 05.05.2022
2249 Clear 10 1023 74 10000 1.54 360 20:34 05.05.2022
2250 Clouds 14 1022 54 10000 3.6 130 18:54 05.05.2022
2251 Clear 17 1021 67 10000 5.66 130 16:40 05.05.2022
2252 Clouds 17 1021 55 10000 4.63 140 14:59 05.05.2022
2253 Clouds 18 1021 69 10000 3.6 110 13:29 05.05.2022
2254 Clouds 19 1021 56 10000 5.14 10 12:55 05.05.2022
2255 Clear 18 1020 36 10000 7.72 20 10:59 05.05.2022
2256 Clouds 17 1020 62 10000 2.57 0 09:40 05.05.2022
2257 Clouds 15 1020 74 10000 1.54 280 08:30 05.05.2022
2258 Clouds 10 1019 88 10000 1.54 0 05:44 05.05.2022
2259 Clouds 9 1018 85 10000 2.06 280 02:20 05.05.2022
2260 Clouds 9 1018 88 10000 1.03 270 01:35 05.05.2022
2261 Clouds 10 1018 82 10000 2.06 330 23:55 04.05.2022
2262 Clouds 10 1018 85 10000 2.06 340 22:54 04.05.2022
2263 Clouds 10 1018 82 10000 2.06 10 21:59 04.05.2022
2264 Clouds 10 1018 82 10000 2.57 360 21:29 04.05.2022
2265 Clouds 11 1018 79 10000 2.06 20 20:42 04.05.2022
2266 Clouds 13 1017 58 10000 1.54 100 19:56 04.05.2022
2267 Clouds 12 1017 66 10000 3.6 100 19:31 04.05.2022
2268 Clouds 15 1016 73 10000 4.63 100 18:22 04.05.2022
2269 Clear 16 1016 51 10000 4.12 110 17:59 04.05.2022
2270 Clouds 17 1016 48 10000 5.66 120 15:57 04.05.2022
2271 Clouds 17 1016 51 10000 4.63 130 15:30 04.05.2022
2272 Clouds 18 1016 66 10000 6.17 110 14:22 04.05.2022
2273 Clouds 16 1016 44 10000 6.17 110 13:50 04.05.2022
2274 Clouds 17 1017 51 10000 4.12 130 12:34 04.05.2022
2275 Clouds 16 1017 73 10000 2.06 150 10:57 04.05.2022
2276 Clouds 16 1016 69 10000 4.63 80 09:46 04.05.2022
2277 Clear 14 1016 80 10000 2.57 210 08:49 04.05.2022
2278 Clear 12 1016 85 10000 2.06 230 07:33 04.05.2022
2279 Clouds 10 1015 81 10000 3.6 350 02:59 04.05.2022
2280 Clouds 10 1015 76 10000 0 0 01:24 04.05.2022
2281 Clouds 11 1015 78 10000 0 0 22:54 03.05.2022
2282 Clouds 11 1015 79 10000 0 0 21:47 03.05.2022
2283 Clouds 10 1015 85 10000 2.06 110 21:20 03.05.2022
2284 Clouds 10 1015 100 10000 2.06 260 20:31 03.05.2022
2285 Rain 12 1015 92 10000 1.54 270 18:54 03.05.2022
2286 Rain 12 1015 92 10000 1.54 270 18:34 03.05.2022
2287 Rain 12 1015 89 10000 3.09 110 17:19 03.05.2022
2288 Clouds 13 1014 82 10000 4.12 130 15:43 03.05.2022
2289 Clouds 14 1014 77 10000 5.14 130 13:32 03.05.2022
2290 Rain 14 1015 74 10000 4.12 60 12:30 03.05.2022
2291 Rain 14 1015 77 10000 4.12 80 10:58 03.05.2022
2292 Rain 14 1015 80 10000 4.12 70 09:58 03.05.2022
2293 Rain 11 1015 92 10000 3.09 50 07:59 03.05.2022
2294 Rain 11 1014 89 10000 3.09 60 06:45 03.05.2022
2295 Clouds 11 1015 85 10000 2.57 70 01:53 03.05.2022
2296 Clouds 11 1016 85 10000 2.06 70 22:45 02.05.2022
2297 Clouds 11 1016 85 10000 2.57 70 22:25 02.05.2022
2298 Clouds 11 1016 85 10000 2.57 110 21:24 02.05.2022
2299 Clouds 14 1015 67 10000 3.6 130 18:57 02.05.2022
2300 Clouds 14 1015 62 10000 4.63 100 18:25 02.05.2022
2301 Clear 15 1015 77 10000 5.14 130 17:37 02.05.2022
2302 Clear 16 1016 77 10000 7.72 130 16:24 02.05.2022
2303 Clear 18 1016 69 10000 7.2 120 15:40 02.05.2022
2304 Clouds 18 1016 48 10000 6.17 120 14:19 02.05.2022
2305 Clouds 18 1016 59 10000 6.17 100 12:45 02.05.2022
2306 Clouds 17 1018 51 10000 6.69 110 11:20 02.05.2022
2307 Clear 14 1018 58 10000 1.54 190 09:32 02.05.2022
2308 Clear 10 1018 88 10000 2.06 260 07:57 02.05.2022
2309 Clear 5 1018 95 10000 1.54 280 05:37 02.05.2022
2310 Clouds 9 1019 76 10000 1.03 0 00:26 02.05.2022
2311 Clouds 7 1020 85 10000 2.06 20 23:52 01.05.2022
2312 Clouds 7 1020 88 10000 2.06 250 22:45 01.05.2022
2313 Clouds 8 1020 88 10000 0.51 0 21:41 01.05.2022
2314 Clouds 11 1020 76 10000 1.54 110 20:23 01.05.2022
2315 Clear 12 1019 54 10000 2.57 110 19:18 01.05.2022
2316 Clear 13 1019 79 10000 3.6 150 18:50 01.05.2022
2317 Clear 15 1019 72 10000 5.14 100 17:47 01.05.2022
2318 Clear 16 1019 80 10000 4.63 140 16:24 01.05.2022
2319 Clear 16 1019 80 10000 5.14 140 15:43 01.05.2022
2320 Clouds 14 1020 67 10000 1.54 100 14:22 01.05.2022
2321 Clouds 16 1020 80 10000 5.66 150 11:41 01.05.2022
2322 Clouds 17 1021 75 10000 4.12 50 09:33 01.05.2022
2323 Clear 16 1020 77 10000 3.6 40 08:49 01.05.2022
2324 Clear 9 1020 92 10000 0 0 05:31 01.05.2022
2325 Clouds 8 1020 93 10000 1.03 280 00:43 01.05.2022
2326 Rain 11 1021 92 10000 1.54 50 21:52 30.04.2022
2327 Clear 12 1020 92 10000 1.03 0 21:30 30.04.2022
2328 Clouds 13 1020 76 10000 2.57 80 19:47 30.04.2022
2329 Clouds 15 1019 67 10000 3.6 80 18:45 30.04.2022
2330 Rain 17 1019 73 10000 4.63 50 17:20 30.04.2022
2331 Clouds 17 1019 73 10000 3.6 50 15:50 30.04.2022
2332 Clouds 16 1019 77 10000 4.12 60 14:54 30.04.2022
2333 Clouds 17 1020 77 10000 5.14 30 13:30 30.04.2022
2334 Clouds 16 1020 77 10000 6.69 30 11:34 30.04.2022
2335 Clear 17 1020 77 10000 5.66 20 10:55 30.04.2022
2336 Clouds 15 1020 80 10000 6.17 20 09:50 30.04.2022
2337 Clouds 12 1020 85 10000 3.09 360 07:31 30.04.2022
2338 Clouds 12 1020 89 10000 2.57 350 03:34 30.04.2022
2339 Clouds 13 1021 89 10000 2.57 70 23:53 29.04.2022
2340 Clouds 14 1021 86 10000 2.57 60 22:35 29.04.2022
2341 Clouds 14 1021 86 10000 1.54 0 21:54 29.04.2022
2342 Clouds 14 1021 88 10000 1.03 0 20:51 29.04.2022
2343 Clouds 14 1020 92 10000 2.06 150 19:47 29.04.2022
2344 Clouds 15 1019 92 10000 1.54 120 18:47 29.04.2022
2345 Clouds 16 1019 89 10000 1.54 170 17:26 29.04.2022
2346 Rain 16 1020 86 10000 5.66 130 15:52 29.04.2022
2347 Clouds 20 1020 69 10000 4.63 360 14:23 29.04.2022
2348 Clouds 20 1020 71 10000 4.12 10 13:27 29.04.2022
2349 Clear 20 1020 73 10000 5.66 360 11:51 29.04.2022
2350 Clouds 18 1021 77 10000 6.69 350 09:23 29.04.2022
2351 Clouds 14 1020 89 10000 3.09 290 07:28 29.04.2022
2352 Clear 14 1020 86 10000 2.57 250 06:46 29.04.2022
2353 Clouds 14 1020 89 10000 1.54 0 05:44 29.04.2022
2354 Clouds 14 1020 92 10000 3.09 350 00:46 29.04.2022
2355 Clouds 14 1021 89 10000 1.54 300 23:34 28.04.2022
2356 Clouds 13 1020 88 10000 2.06 260 22:44 28.04.2022
2357 Clouds 13 1020 82 10000 1.54 330 21:47 28.04.2022
2358 Clouds 13 1020 85 10000 1.03 0 21:21 28.04.2022
2359 Clouds 13 1020 71 10000 1.03 0 20:35 28.04.2022
2360 Clouds 14 1019 67 10000 1.03 310 19:45 28.04.2022
2361 Clouds 14 1019 67 10000 1.03 310 19:45 28.04.2022
2362 Clouds 15 1019 80 10000 2.06 150 19:22 28.04.2022
2363 Clouds 17 1018 74 10000 3.09 150 18:36 28.04.2022
2364 Clear 19 1018 68 10000 5.14 120 17:24 28.04.2022
2365 Clear 19 1018 45 10000 5.14 110 16:40 28.04.2022
2366 Clear 20 1018 64 10000 5.14 130 16:18 28.04.2022
2367 Clear 20 1018 64 10000 5.14 130 15:28 28.04.2022
2368 Clear 20 1018 68 10000 5.66 120 14:19 28.04.2022
2369 Clouds 20 1018 49 10000 6.17 100 12:44 28.04.2022
2370 Clear 20 1018 52 10000 4.12 120 11:58 28.04.2022
2371 Clear 20 1018 49 10000 4.12 120 10:46 28.04.2022
2372 Clear 18 1018 52 10000 4.12 120 09:56 28.04.2022
2373 Clear 15 1018 77 10000 0 0 08:31 28.04.2022
2374 Clear 13 1017 92 10000 0 0 07:19 28.04.2022
2375 Clear 9 1017 100 10000 0 0 05:56 28.04.2022
2376 Clear 9 1017 100 10000 0 0 05:38 28.04.2022
2377 Clear 9 1017 95 10000 1.03 0 04:39 28.04.2022
2378 Clear 11 1017 92 10000 0 0 00:30 28.04.2022
2379 Clear 12 1017 89 10000 0 0 22:39 27.04.2022
2380 Clear 12 1017 82 10000 1.03 0 21:54 27.04.2022
2381 Clear 13 1017 85 10000 2.57 130 20:59 27.04.2022
2382 Clear 13 1017 76 10000 2.57 130 20:37 27.04.2022
2383 Clouds 14 1017 72 10000 2.57 110 19:37 27.04.2022
2384 Clouds 16 1016 63 10000 2.57 120 18:56 27.04.2022
2385 Clouds 17 1016 59 10000 3.6 140 18:22 27.04.2022
2386 Clear 19 1017 71 10000 4.63 110 16:29 27.04.2022
2387 Clouds 20 1017 68 10000 5.66 130 14:31 27.04.2022
2388 Clouds 20 1018 72 10000 5.66 130 12:23 27.04.2022
2389 Clouds 20 1017 73 10000 4.12 140 11:20 27.04.2022
2390 Clear 20 1016 67 10000 2.57 130 09:19 27.04.2022
2391 Clear 14 1016 89 10000 0 0 07:18 27.04.2022
2392 Clouds 12 1015 92 10000 2.06 110 04:21 27.04.2022
2393 Clouds 11 1015 95 10000 1.03 0 01:32 27.04.2022
2394 Rain 13 1015 89 10000 1.54 310 00:36 27.04.2022
2395 Clouds 12 1015 92 10000 1.54 270 23:25 26.04.2022
2396 Clouds 13 1015 89 10000 1.54 30 22:58 26.04.2022
2397 Clouds 13 1015 85 10000 1.03 20 22:39 26.04.2022
2398 Rain 13 1015 89 10000 1.54 20 21:26 26.04.2022
2399 Rain 13 1015 89 10000 1.54 20 21:26 26.04.2022
2400 Rain 13 1015 89 10000 1.54 20 21:26 26.04.2022
2401 Rain 13 1014 85 10000 1.54 310 20:41 26.04.2022
2402 Clouds 15 1014 80 10000 1.03 160 19:49 26.04.2022
2403 Clouds 15 1014 80 10000 1.54 130 19:30 26.04.2022
2404 Rain 16 1013 77 10000 3.09 110 18:44 26.04.2022
2405 Clear 18 1013 72 10000 4.63 120 17:54 26.04.2022
2406 Clear 20 1013 67 10000 5.66 130 16:28 26.04.2022
2407 Rain 20 1013 72 10000 4.12 130 13:59 26.04.2022
2408 Rain 21 1013 71 10000 4.12 140 13:31 26.04.2022
2409 Clouds 19 1013 77 10000 2.06 190 11:48 26.04.2022
2410 Clouds 19 1013 73 10000 2.57 200 10:31 26.04.2022
2411 Rain 13 1013 82 10000 3.6 260 08:47 26.04.2022
2412 Clear 14 1011 89 10000 0 0 06:57 26.04.2022
2413 Clouds 11 1010 92 10000 0.51 0 04:23 26.04.2022
2414 Clouds 11 1010 92 10000 0.51 0 04:23 26.04.2022
2415 Clouds 11 1010 95 10000 0.51 0 00:57 26.04.2022
2416 Clouds 12 1010 92 10000 0.51 0 00:20 26.04.2022
2417 Clouds 12 1010 95 10000 0 0 22:21 25.04.2022
2418 Clouds 13 1010 89 10000 0.51 0 21:33 25.04.2022
2419 Clear 13 1009 89 10000 1.03 140 20:34 25.04.2022
2420 Clear 15 1008 79 10000 4.12 100 18:54 25.04.2022
2421 Clear 17 1007 77 10000 5.66 120 17:41 25.04.2022
2422 Clear 18 1008 77 10000 4.63 100 16:51 25.04.2022
2423 Clear 19 1007 77 10000 5.66 110 15:23 25.04.2022
2424 Clear 19 1008 75 10000 7.2 120 14:34 25.04.2022
2425 Clear 19 1008 74 10000 7.2 110 13:29 25.04.2022
2426 Clear 19 1008 72 10000 6.17 110 10:58 25.04.2022
2427 Clear 18 1009 77 10000 5.66 110 09:55 25.04.2022
2428 Clear 16 1009 79 10000 3.6 120 08:23 25.04.2022
2429 Clouds 9 1009 100 10000 1.54 20 06:18 25.04.2022
2430 Rain 11 1011 81 10000 1.24 136 01:49 25.04.2022
2431 Clouds 12 1011 85 10000 3.09 80 23:57 24.04.2022
2432 Clouds 12 1011 85 10000 2.57 80 23:28 24.04.2022
2433 Clouds 12 1011 85 10000 2.06 110 22:39 24.04.2022
2434 Clouds 14 1011 83 10000 4.12 100 21:58 24.04.2022
2435 Clouds 13 1011 85 10000 4.12 100 21:22 24.04.2022
2436 Clouds 14 1011 85 10000 4.63 100 20:47 24.04.2022
2437 Clouds 14 1011 83 10000 4.63 100 20:21 24.04.2022
2438 Clouds 17 1010 59 10000 5.14 100 18:54 24.04.2022
2439 Clear 20 1010 49 10000 5.14 110 17:54 24.04.2022
2440 Clear 20 1010 49 10000 5.14 110 17:54 24.04.2022
2441 Clear 21 1010 43 10000 5.66 110 17:21 24.04.2022
2442 Clear 21 1010 46 10000 6.17 110 16:55 24.04.2022
2443 Clear 22 1010 43 10000 5.66 110 16:29 24.04.2022
2444 Clear 22 1010 43 10000 6.69 120 15:52 24.04.2022
2445 Clear 23 1011 61 10000 6.69 110 14:36 24.04.2022
2446 Clear 22 1011 46 10000 6.17 100 13:27 24.04.2022
2447 Clear 22 1011 46 10000 6.17 100 13:27 24.04.2022
2448 Clear 22 1011 46 10000 5.66 110 12:56 24.04.2022
2449 Clear 22 1011 43 10000 2.57 240 11:50 24.04.2022
2450 Clear 21 1012 52 10000 1.54 0 10:48 24.04.2022
2451 Clear 20 1012 52 10000 1.03 0 09:47 24.04.2022
2452 Clouds 14 1012 77 10000 0 0 07:55 24.04.2022
2453 Clear 11 1011 95 10000 0 0 05:45 24.04.2022
2454 Clear 12 1010 85 10000 2.06 110 02:30 24.04.2022
2455 Clear 13 1010 71 10000 1.54 270 00:45 24.04.2022
2456 Clear 14 1010 67 10000 2.06 330 23:52 23.04.2022
2457 Clear 14 1009 67 10000 1.03 0 23:25 23.04.2022
2458 Rain 16 1009 63 10000 1.54 350 21:59 23.04.2022
2459 Clear 16 1009 63 10000 1.54 350 21:38 23.04.2022
2460 Clear 16 1008 77 10000 2.57 330 20:59 23.04.2022
2461 Clouds 18 1008 55 10000 3.09 340 19:56 23.04.2022
2462 Clouds 19 1007 52 10000 4.63 290 19:20 23.04.2022
2463 Clouds 21 1007 43 10000 5.14 300 18:53 23.04.2022
2464 Clouds 21 1007 43 10000 5.14 300 18:31 23.04.2022
2465 Clouds 22 1006 66 10000 7.2 270 17:44 23.04.2022
2466 Clouds 23 1006 43 10000 6.17 270 16:45 23.04.2022
2467 Clouds 23 1006 43 10000 6.17 300 15:36 23.04.2022
2468 Clouds 23 1006 43 10000 5.14 280 12:59 23.04.2022
2469 Clear 21 1006 52 10000 3.6 230 11:24 23.04.2022
2470 Clear 17 1006 59 10000 1.03 0 09:39 23.04.2022
2471 Clear 12 1006 89 10000 1.03 0 07:52 23.04.2022
2472 Clouds 12 1007 82 10000 5.14 100 03:56 23.04.2022
2473 Clouds 11 1009 85 10000 2.06 90 01:59 23.04.2022
2474 Clouds 11 1010 85 10000 3.09 100 23:34 22.04.2022
2475 Rain 12 1011 85 10000 5.14 120 22:32 22.04.2022
2476 Rain 11 1011 89 10000 4.12 110 21:44 22.04.2022
2477 Rain 11 1012 89 10000 4.12 100 21:20 22.04.2022
2478 Clouds 11 1012 92 10000 3.6 90 20:28 22.04.2022
2479 Clouds 11 1012 92 9000 2.57 100 19:23 22.04.2022
2480 Rain 11 1012 89 10000 4.12 110 18:52 22.04.2022
2481 Clouds 12 1012 85 10000 4.63 110 17:54 22.04.2022
2482 Clouds 13 1012 85 10000 6.17 110 16:52 22.04.2022
2483 Clouds 14 1013 83 10000 6.69 120 15:56 22.04.2022
2484 Clouds 15 1013 80 10000 5.14 110 15:22 22.04.2022
2485 Clouds 14 1014 92 7000 3.09 120 13:54 22.04.2022
2486 Clouds 14 1014 96 6000 2.57 140 13:27 22.04.2022
2487 Clouds 13 1014 96 8000 2.06 80 12:29 22.04.2022
2488 Mist 11 1016 100 3800 1.03 0 11:22 22.04.2022
2489 Rain 11 1016 100 3600 1.54 360 10:52 22.04.2022
2490 Rain 11 1016 100 3600 1.54 360 10:31 22.04.2022
2491 Rain 11 1015 100 5000 1.54 170 09:53 22.04.2022
2492 Mist 10 1015 100 4700 1.03 0 08:56 22.04.2022
2493 Mist 10 1015 100 4800 0.51 0 08:24 22.04.2022
2494 Clouds 7 1015 100 8000 0 0 05:20 22.04.2022
2495 Clouds 7 1015 95 8000 0.51 80 00:53 22.04.2022
2496 Clouds 7 1015 100 10000 3.09 110 23:28 21.04.2022
2497 Clouds 7 1015 95 10000 3.09 90 22:29 21.04.2022
2498 Clouds 8 1016 88 10000 3.6 90 20:46 21.04.2022
2499 Clouds 9 1016 82 10000 3.09 120 20:26 21.04.2022
2500 Clouds 11 1015 85 10000 5.14 100 18:47 21.04.2022
2501 Clouds 12 1015 82 10000 4.63 120 18:19 21.04.2022
2502 Clear 14 1015 74 10000 6.69 120 16:47 21.04.2022
2503 Clouds 15 1015 73 10000 6.17 120 15:22 21.04.2022
2504 Clouds 15 1015 70 10000 6.69 150 14:50 21.04.2022
2505 Clear 15 1015 44 10000 3.09 170 13:24 21.04.2022
2506 Clear 15 1015 51 10000 3.09 220 12:59 21.04.2022
2507 Clear 13 1015 58 10000 3.6 250 11:19 21.04.2022
2508 Clouds 10 1015 85 10000 5.14 270 08:57 21.04.2022
2509 Clouds 8 1015 92 10000 6.69 290 07:49 21.04.2022
2510 Clouds 5 1015 95 10000 6.17 270 05:44 21.04.2022
2511 Clouds 5 1015 100 10000 4.63 260 03:33 21.04.2022
2512 Clouds 6 1014 95 10000 4.12 260 02:48 21.04.2022
2513 Clouds 6 1014 95 10000 4.12 260 02:48 21.04.2022
2514 Clouds 6 1013 95 10000 4.63 270 01:41 21.04.2022
2515 Rain 7 1013 95 7000 4.12 320 23:51 20.04.2022
2516 Rain 7 1012 95 8000 4.63 330 23:23 20.04.2022
2517 Rain 8 1012 100 6000 2.57 360 22:51 20.04.2022
2518 Rain 8 1012 100 6000 2.57 360 22:32 20.04.2022
2519 Rain 8 1012 100 4300 2.06 300 21:33 20.04.2022
2520 Rain 8 1012 100 5000 2.57 110 20:41 20.04.2022
2521 Rain 8 1012 100 6000 4.12 100 19:53 20.04.2022
2522 Rain 8 1012 100 5000 4.63 100 19:22 20.04.2022
2523 Rain 8 1012 100 4000 3.6 110 18:23 20.04.2022
2524 Clouds 10 1013 85 10000 4.63 160 16:56 20.04.2022
2525 Rain 11 1012 82 10000 5.14 100 16:37 20.04.2022
2526 Clouds 12 1013 82 10000 6.17 100 14:26 20.04.2022
2527 Clouds 11 1014 66 10000 4.12 110 11:55 20.04.2022
2528 Clouds 11 1014 66 10000 1.03 0 11:25 20.04.2022
2529 Clouds 8 1015 87 7000 1.54 0 10:24 20.04.2022
2530 Mist 4 1015 100 2400 1.03 0 09:25 20.04.2022
2531 Fog 2 1016 100 200 1.54 310 08:22 20.04.2022
2532 Fog 2 1016 100 200 1.54 310 08:22 20.04.2022
2533 Fog 3 1015 100 200 0 0 07:37 20.04.2022
2534 Mist 2 1014 100 2300 2.06 300 03:54 20.04.2022
2535 Mist 3 1015 100 4500 2.06 290 00:24 20.04.2022
2536 Mist 2 1015 100 3700 1.54 340 23:59 19.04.2022
2537 Clouds 2 1015 100 6000 2.06 340 22:28 19.04.2022
2538 Mist 3 1015 100 5000 1.54 360 21:57 19.04.2022
2539 Clouds 4 1015 95 7000 1.54 360 21:33 19.04.2022
2540 Clouds 4 1015 95 9000 1.54 360 20:48 19.04.2022
2541 Clouds 4 1015 100 10000 1.54 330 20:26 19.04.2022
2542 Clouds 5 1014 95 10000 3.09 280 19:19 19.04.2022
2543 Clouds 5 1014 95 10000 3.09 280 19:19 19.04.2022
2544 Clouds 6 1014 92 10000 4.12 260 17:51 19.04.2022
2545 Rain 7 1013 92 10000 2.57 240 16:43 19.04.2022
2546 Rain 7 1013 92 10000 2.57 210 16:24 19.04.2022
2547 Clouds 7 1013 82 10000 1.03 0 14:51 19.04.2022
2548 Clouds 8 1013 76 10000 1.54 0 14:27 19.04.2022
2549 Clouds 9 1013 69 10000 3.6 110 12:51 19.04.2022
2550 Clouds 9 1013 67 10000 1.54 350 12:26 19.04.2022
2551 Clouds 8 1013 79 10000 4.63 350 10:50 19.04.2022
2552 Clouds 7 1013 82 10000 1.54 250 09:23 19.04.2022
2553 Clouds 5 1012 82 10000 2.57 300 06:30 19.04.2022
2554 Clouds 4 1011 88 10000 0 0 03:59 19.04.2022
2555 Clouds 3 1012 92 10000 1.03 0 00:56 19.04.2022
2556 Clouds 4 1013 85 10000 1.54 290 23:36 18.04.2022
2557 Clouds 4 1013 95 10000 2.06 350 21:37 18.04.2022
2558 Clouds 4 1013 95 10000 2.06 350 21:18 18.04.2022
2559 Clouds 5 1013 88 10000 1.54 340 20:35 18.04.2022
2560 Clouds 6 1013 79 10000 1.03 0 19:54 18.04.2022
2561 Clouds 6 1013 82 10000 3.09 20 18:57 18.04.2022
2562 Clouds 7 1012 85 10000 1.54 30 17:58 18.04.2022
2563 Clouds 7 1012 85 10000 1.54 30 17:34 18.04.2022
2564 Clouds 7 1012 82 10000 3.09 10 16:59 18.04.2022
2565 Clouds 7 1012 85 10000 3.6 360 16:32 18.04.2022
2566 Clouds 6 1012 92 10000 3.6 330 14:59 18.04.2022
2567 Rain 6 1012 88 10000 3.09 320 13:39 18.04.2022
2568 Clouds 6 1012 88 10000 1.54 0 12:32 18.04.2022
2569 Clouds 5 1011 92 10000 6.17 360 11:35 18.04.2022
2570 Clouds 5 1011 92 10000 6.17 350 10:32 18.04.2022
2571 Clouds 5 1011 92 10000 3.09 330 09:31 18.04.2022
2572 Clouds 5 1010 92 10000 3.6 0 07:54 18.04.2022
2573 Clouds 4 1009 92 10000 7.72 10 05:45 18.04.2022
2574 Rain 5 1011 92 10000 6.17 10 00:49 18.04.2022
2575 Clouds 4 1013 95 10000 2.06 0 22:42 17.04.2022
2576 Clouds 4 1014 92 10000 2.57 0 21:49 17.04.2022
2577 Clouds 4 1014 92 10000 2.57 330 21:26 17.04.2022
2578 Clouds 4 1014 92 9000 3.6 10 20:41 17.04.2022
2579 Rain 4 1013 92 9000 4.63 20 19:38 17.04.2022
2580 Clouds 5 1013 92 10000 8.23 10 17:48 17.04.2022
2581 Clouds 6 1015 92 10000 6.69 20 15:40 17.04.2022
2582 Clouds 6 1015 92 10000 5.66 30 14:55 17.04.2022
2583 Clouds 6 1015 92 10000 7.72 30 14:19 17.04.2022
2584 Rain 7 1015 88 10000 8.75 20 12:59 17.04.2022
2585 Rain 7 1015 92 10000 7.2 10 12:27 17.04.2022
2586 Clouds 7 1017 87 9000 2.06 0 10:46 17.04.2022
2587 Rain 7 1017 87 8000 2.57 0 10:28 17.04.2022
2588 Rain 7 1016 92 8000 5.66 20 09:34 17.04.2022
2589 Rain 8 1015 92 9000 8.75 10 08:51 17.04.2022
2590 Rain 9 1015 92 10000 8.23 20 07:30 17.04.2022
2591 Clouds 12 1013 89 10000 8.75 10 04:29 17.04.2022
2592 Clouds 14 1013 80 10000 5.14 360 00:55 17.04.2022
2593 Clouds 12 1013 88 10000 2.57 100 23:52 16.04.2022
2594 Clouds 13 1013 88 10000 1.54 270 22:35 16.04.2022
2595 Clouds 14 1013 84 10000 0 0 21:38 16.04.2022
2596 Clouds 13 1013 84 10000 0 0 20:32 16.04.2022
2597 Clouds 14 1012 67 10000 2.57 130 18:59 16.04.2022
2598 Clear 20 1012 62 10000 3.09 110 17:46 16.04.2022
2599 Clear 20 1012 56 10000 5.14 110 16:39 16.04.2022
2600 Clear 20 1012 45 10000 5.66 110 15:45 16.04.2022
2601 Clear 20 1012 49 10000 4.63 120 14:56 16.04.2022
2602 Clear 20 1012 49 10000 4.63 130 13:58 16.04.2022
2603 Clear 20 1013 49 10000 3.6 130 13:32 16.04.2022
2604 Clear 19 1013 52 10000 3.09 130 12:22 16.04.2022
2605 Clear 19 1013 48 10000 1.03 0 10:49 16.04.2022
2606 Clear 16 1014 59 10000 1.54 0 09:56 16.04.2022
2607 Clear 14 1014 62 10000 0 0 08:57 16.04.2022
2608 Clear 12 1014 85 10000 1.54 260 07:52 16.04.2022
2609 Clear 10 1014 88 10000 0 0 06:58 16.04.2022
2610 Clouds 8 1014 85 10000 1.03 350 02:46 16.04.2022
2611 Clear 10 1016 79 10000 3.09 100 00:30 16.04.2022
2612 Clouds 12 1017 74 10000 4.12 80 22:58 15.04.2022
2613 Clouds 11 1017 76 10000 3.6 90 22:32 15.04.2022
2614 Clouds 12 1017 75 10000 3.6 90 21:50 15.04.2022
2615 Clouds 12 1017 72 10000 4.12 90 21:18 15.04.2022
2616 Clear 13 1017 72 10000 4.63 90 20:21 15.04.2022
2617 Clear 13 1017 54 10000 6.17 100 19:39 15.04.2022
2618 Clear 14 1016 54 10000 6.69 90 18:53 15.04.2022
2619 Clear 15 1016 51 10000 6.69 90 18:25 15.04.2022
2620 Clear 17 1017 45 10000 7.2 110 17:34 15.04.2022
2621 Clear 18 1017 39 10000 8.23 100 16:37 15.04.2022
2622 Clear 18 1017 39 10000 8.23 100 16:18 15.04.2022
2623 Clear 19 1018 42 10000 7.72 110 14:44 15.04.2022
2624 Clear 20 1018 37 10000 7.2 120 13:34 15.04.2022
2625 Clear 19 1019 37 10000 6.69 110 12:40 15.04.2022
2626 Clear 20 1019 37 10000 5.14 120 11:55 15.04.2022
2627 Clear 19 1020 39 10000 1.54 0 10:58 15.04.2022
2628 Clear 19 1020 39 10000 1.03 0 10:40 15.04.2022
2629 Clear 18 1021 39 10000 1.54 0 09:44 15.04.2022
2630 Clear 16 1020 48 10000 1.03 0 09:19 15.04.2022
2631 Clear 8 1020 76 10000 0 0 07:28 15.04.2022
2632 Clear 8 1020 88 10000 1.03 300 06:28 15.04.2022
2633 Clear 9 1021 82 10000 0 0 02:39 15.04.2022
2634 Clear 10 1022 76 10000 2.57 30 23:31 14.04.2022
2635 Clear 11 1022 77 10000 1.54 10 22:49 14.04.2022
2636 Clear 12 1021 74 10000 1.54 10 22:29 14.04.2022
2637 Clear 11 1021 76 10000 1.54 30 21:59 14.04.2022
2638 Clear 14 1021 64 10000 1.54 100 20:37 14.04.2022
2639 Clouds 14 1020 61 10000 3.6 100 19:23 14.04.2022
2640 Clouds 17 1020 39 10000 3.09 120 18:19 14.04.2022
2641 Clear 19 1020 32 10000 2.57 350 17:38 14.04.2022
2642 Clear 19 1020 32 10000 2.57 280 16:36 14.04.2022
2643 Clear 19 1020 30 10000 5.14 310 14:58 14.04.2022
2644 Clear 19 1021 32 10000 5.66 310 13:45 14.04.2022
2645 Clear 18 1021 32 10000 5.66 300 12:52 14.04.2022
2646 Clear 17 1021 34 10000 5.66 300 12:31 14.04.2022
2647 Clear 16 1021 33 10000 6.69 320 11:29 14.04.2022
2648 Clear 16 1021 33 10000 6.69 330 10:52 14.04.2022
2649 Clear 15 1021 38 10000 2.57 220 10:26 14.04.2022
2650 Clear 10 1021 75 10000 0 0 08:54 14.04.2022
2651 Clear 6 1021 85 10000 1.54 270 06:53 14.04.2022
2652 Clouds 6 1020 82 10000 1.54 250 03:28 14.04.2022
2653 Clouds 6 1020 79 10000 1.54 360 23:25 13.04.2022
2654 Clouds 7 1020 76 10000 0 0 22:19 13.04.2022
2655 Clouds 9 1020 72 10000 1.03 0 21:34 13.04.2022
2656 Clouds 10 1020 68 10000 1.54 160 20:22 13.04.2022
2657 Clouds 11 1019 60 10000 2.57 350 19:32 13.04.2022
2658 Clouds 14 1019 33 10000 4.63 320 18:20 13.04.2022
2659 Clear 15 1018 47 10000 5.66 310 17:24 13.04.2022
2660 Clear 15 1018 47 10000 5.66 330 16:34 13.04.2022
2661 Clear 15 1019 48 10000 6.17 300 15:38 13.04.2022
2662 Clouds 14 1019 51 10000 6.17 320 14:50 13.04.2022
2663 Clouds 14 1019 52 10000 8.23 310 14:26 13.04.2022
2664 Clouds 14 1020 50 10000 5.66 320 13:28 13.04.2022
2665 Clouds 13 1020 33 10000 6.17 320 12:25 13.04.2022
2666 Clouds 13 1020 33 10000 6.17 320 12:25 13.04.2022
2667 Clear 13 1021 38 10000 4.63 320 10:49 13.04.2022
2668 Clear 11 1021 40 10000 5.66 360 09:41 13.04.2022
2669 Clear 10 1021 67 10000 3.6 10 08:42 13.04.2022
2670 Clear 5 1020 88 10000 1.54 0 06:51 13.04.2022
2671 Clouds 4 1020 88 10000 0.51 0 06:25 13.04.2022
2672 Clouds 2 1020 100 10000 1.54 310 05:36 13.04.2022
2673 Clouds 5 1020 88 10000 1.54 340 00:22 13.04.2022
2674 Clouds 4 1020 92 10000 2.06 20 23:45 12.04.2022
2675 Clouds 5 1020 88 10000 2.57 30 22:19 12.04.2022
2676 Clear 6 1020 82 10000 1.54 50 21:18 12.04.2022
2677 Clear 6 1021 82 10000 1.54 30 20:41 12.04.2022
2678 Clouds 6 1020 88 10000 3.09 100 19:49 12.04.2022
2679 Clouds 7 1020 82 10000 5.14 110 19:30 12.04.2022
2680 Clouds 11 1019 64 10000 3.09 280 18:26 12.04.2022
2681 Clouds 11 1019 66 10000 6.17 310 17:28 12.04.2022
2682 Clouds 12 1019 62 10000 6.17 310 16:22 12.04.2022
2683 Clouds 12 1019 74 10000 5.14 220 15:33 12.04.2022
2684 Clouds 9 1020 69 10000 6.69 340 14:26 12.04.2022
2685 Clouds 10 1020 74 10000 2.57 0 13:36 12.04.2022
2686 Clouds 10 1020 74 10000 6.17 270 12:52 12.04.2022
2687 Clouds 12 1020 66 10000 5.66 300 11:46 12.04.2022
2688 Clouds 11 1020 46 10000 3.09 270 10:35 12.04.2022
2689 Clear 9 1020 57 10000 2.57 0 09:18 12.04.2022
2690 Clear 7 1020 76 10000 1.54 260 07:55 12.04.2022
2691 Clear 4 1019 92 10000 2.06 240 05:50 12.04.2022
2692 Clear 4 1019 95 10000 2.06 290 04:55 12.04.2022
2693 Clouds 5 1018 88 10000 3.6 290 23:59 11.04.2022
2694 Clouds 7 1018 82 10000 3.09 290 22:44 11.04.2022
2695 Clouds 7 1017 82 10000 2.06 290 21:37 11.04.2022
2696 Clouds 9 1017 76 10000 3.09 290 20:56 11.04.2022
2697 Clouds 8 1017 79 10000 2.57 320 20:29 11.04.2022
2698 Clouds 9 1016 74 10000 3.09 280 19:54 11.04.2022
2699 Clouds 10 1015 72 10000 3.09 330 19:18 11.04.2022
2700 Clouds 10 1015 70 10000 3.6 310 18:47 11.04.2022
2701 Clouds 11 1014 67 10000 5.14 330 17:56 11.04.2022
2702 Clouds 12 1014 70 10000 6.69 320 16:54 11.04.2022
2703 Clouds 11 1013 66 10000 9.77 340 15:54 11.04.2022
2704 Clouds 10 1013 70 10000 10.8 340 13:59 11.04.2022
2705 Clouds 10 1012 72 10000 11.32 340 12:52 11.04.2022
2706 Clouds 10 1012 72 10000 11.32 340 12:31 11.04.2022
2707 Clouds 9 1013 79 10000 9.77 320 11:31 11.04.2022
2708 Rain 7 1012 88 10000 7.2 310 10:24 11.04.2022
2709 Clouds 6 1009 92 9000 10.29 340 08:56 11.04.2022
2710 Clouds 5 1007 92 10000 11.32 360 06:21 11.04.2022
2711 Clouds 5 1008 92 10000 4.63 330 01:23 11.04.2022
2712 Clouds 6 1007 88 10000 3.6 340 22:34 10.04.2022
2713 Clouds 7 1007 88 10000 3.6 280 21:55 10.04.2022
2714 Clouds 7 1007 88 10000 5.66 300 21:26 10.04.2022
2715 Clouds 7 1006 88 10000 7.2 280 20:30 10.04.2022
2716 Clouds 8 1006 88 10000 4.63 310 19:41 10.04.2022
2717 Clouds 9 1006 88 10000 5.66 310 19:18 10.04.2022
2718 Clouds 10 1005 88 10000 5.66 330 18:38 10.04.2022
2719 Clouds 12 1004 79 10000 4.63 320 17:51 10.04.2022
2720 Clouds 12 1004 79 10000 5.14 330 17:31 10.04.2022
2721 Clouds 15 1004 77 10000 6.69 330 15:53 10.04.2022
2722 Clouds 16 1004 75 10000 7.2 320 14:49 10.04.2022
2723 Clouds 17 1003 75 10000 5.66 300 13:49 10.04.2022
2724 Clouds 20 1003 69 10000 5.14 290 12:33 10.04.2022
2725 Clear 21 1003 46 10000 3.6 280 11:45 10.04.2022
2726 Clouds 20 1003 49 10000 4.63 290 11:24 10.04.2022
2727 Clear 20 1003 49 10000 4.12 280 10:38 10.04.2022
2728 Clouds 19 1002 52 10000 2.06 160 09:46 10.04.2022
2729 Clouds 17 1003 63 10000 2.06 220 08:40 10.04.2022
2730 Clouds 15 1003 72 10000 1.54 300 08:18 10.04.2022
2731 Clear 13 1003 89 10000 1.54 30 06:59 10.04.2022
2732 Clouds 12 1002 89 10000 1.54 360 04:36 10.04.2022
2733 Clear 12 1002 76 10000 2.06 320 02:19 10.04.2022
2734 Clouds 13 1003 85 10000 1.03 0 23:54 09.04.2022
2735 Clouds 13 1003 82 10000 2.06 10 22:56 09.04.2022
2736 Clouds 13 1003 82 10000 2.06 10 22:38 09.04.2022
2737 Clouds 13 1003 85 10000 1.03 0 21:23 09.04.2022
2738 Clouds 16 1003 74 10000 2.06 90 20:30 09.04.2022
2739 Clouds 16 1002 74 10000 1.03 0 19:57 09.04.2022
2740 Clouds 16 1002 74 10000 1.03 0 19:39 09.04.2022
2741 Clouds 19 1001 62 10000 5.14 90 18:23 09.04.2022
2742 Clear 18 1001 52 10000 6.69 100 17:49 09.04.2022
2743 Clear 21 1001 43 10000 5.66 110 16:57 09.04.2022
2744 Clear 22 1001 40 10000 5.66 110 16:38 09.04.2022
2745 Clear 22 1001 40 10000 5.66 110 16:38 09.04.2022
2746 Clear 22 1001 40 10000 5.66 110 16:38 09.04.2022
2747 Clear 22 1001 40 10000 5.66 110 16:38 09.04.2022
2748 Clear 22 1001 40 10000 5.66 110 16:38 09.04.2022
2749 Clear 24 1001 35 10000 5.14 120 15:50 09.04.2022
2750 Clear 24 1002 35 10000 4.12 150 15:25 09.04.2022
2751 Clear 25 1002 29 10000 3.6 200 14:25 09.04.2022
2752 Clear 24 1003 31 10000 4.12 250 13:26 09.04.2022
2753 Clear 24 1003 31 10000 3.09 230 12:54 09.04.2022
2754 Clear 23 1004 33 10000 6.69 270 11:45 09.04.2022
2755 Clear 22 1004 37 10000 4.12 250 10:51 09.04.2022
2756 Clear 20 1004 42 10000 4.63 240 10:18 09.04.2022
2757 Clear 17 1005 48 10000 1.54 0 09:22 09.04.2022
2758 Clear 16 1005 51 10000 0 0 08:18 09.04.2022
2759 Clouds 9 1005 85 10000 1.03 0 04:37 09.04.2022
2760 Clouds 13 1007 77 10000 1.54 10 00:34 09.04.2022
2761 Clouds 13 1008 77 10000 2.57 10 23:22 08.04.2022
2762 Clouds 15 1007 73 10000 2.57 80 21:44 08.04.2022
2763 Clouds 17 1007 65 10000 1.03 0 20:43 08.04.2022
2764 Clouds 19 1006 39 10000 2.57 320 19:47 08.04.2022
2765 Clouds 20 1006 37 10000 5.14 290 18:46 08.04.2022
2766 Clouds 21 1006 49 10000 7.2 280 18:20 08.04.2022
2767 Clear 22 1005 45 10000 9.77 280 17:28 08.04.2022
2768 Clear 23 1005 31 10000 8.75 280 16:55 08.04.2022
2769 Clear 23 1005 31 10000 9.77 270 16:27 08.04.2022
2770 Clear 24 1004 29 10000 7.2 300 15:33 08.04.2022
2771 Clear 23 1004 28 10000 8.75 290 14:45 08.04.2022
2772 Clear 23 1004 33 10000 9.26 310 13:59 08.04.2022
2773 Clear 23 1005 33 10000 9.26 310 13:31 08.04.2022
2774 Clear 21 1003 40 10000 10.29 280 12:49 08.04.2022
2775 Clear 19 1003 45 10000 12.35 270 11:26 08.04.2022
2776 Clear 16 1002 59 10000 8.75 280 09:57 08.04.2022
2777 Clear 15 1001 80 10000 6.69 280 08:59 08.04.2022
2778 Clear 12 1001 85 10000 4.63 280 07:43 08.04.2022
2779 Clouds 11 1000 89 10000 6.17 270 06:45 08.04.2022
2780 Clouds 10 998 92 10000 6.17 290 02:53 08.04.2022
2781 Clouds 8 999 100 6000 3.09 290 00:30 08.04.2022
2782 Mist 7 999 100 4500 0 0 23:43 07.04.2022
2783 Mist 8 999 100 5000 1.03 0 22:44 07.04.2022
2784 Mist 7 998 100 5000 1.54 280 22:23 07.04.2022
2785 Clouds 7 999 100 6000 0 0 21:59 07.04.2022
2786 Clouds 7 999 100 7000 1.03 0 21:30 07.04.2022
2787 Clouds 8 999 100 8000 0 0 20:46 07.04.2022
2788 Clouds 8 999 100 9000 0 0 20:20 07.04.2022
2789 Clouds 9 999 100 9000 1.54 160 17:43 07.04.2022
2790 Clouds 8 999 100 9000 3.6 130 17:22 07.04.2022
2791 Clouds 9 1000 92 10000 3.09 140 16:34 07.04.2022
2792 Clouds 9 1000 92 10000 3.09 110 15:47 07.04.2022
2793 Rain 7 1001 100 8000 6.69 100 13:54 07.04.2022
2794 Rain 8 1002 93 10000 5.66 120 13:24 07.04.2022
2795 Rain 9 1004 88 10000 7.72 110 11:53 07.04.2022
2796 Clouds 9 1005 92 10000 7.72 120 10:54 07.04.2022
2797 Clouds 9 1006 92 10000 7.2 120 09:19 07.04.2022
2798 Clouds 6 1007 100 6000 5.66 110 06:59 07.04.2022
2799 Clouds 5 1009 100 7000 0 0 05:28 07.04.2022
2800 Clear 6 1011 88 10000 4.12 100 02:37 07.04.2022
2801 Clear 7 1012 82 10000 4.63 100 00:43 07.04.2022
2802 Clear 7 1013 85 10000 4.63 110 23:36 06.04.2022
2803 Clear 7 1013 82 10000 4.12 110 22:44 06.04.2022
2804 Clear 7 1013 79 10000 4.12 110 22:20 06.04.2022
2805 Clear 8 1013 76 10000 3.6 100 20:47 06.04.2022
2806 Clear 8 1013 79 10000 4.63 100 20:00 06.04.2022
2807 Clear 9 1013 79 10000 4.12 100 19:24 06.04.2022
2808 Clear 10 1012 78 10000 4.63 100 18:48 06.04.2022
2809 Clouds 13 1012 76 10000 5.66 110 17:36 06.04.2022
2810 Clouds 14 1012 54 10000 6.17 100 16:56 06.04.2022
2811 Clouds 15 1012 59 10000 6.17 100 16:32 06.04.2022
2812 Clear 16 1012 50 10000 6.69 100 15:43 06.04.2022
2813 Clear 17 1013 48 10000 7.2 110 13:34 06.04.2022
2814 Clear 19 1013 34 10000 3.6 160 12:30 06.04.2022
2815 Clear 17 1014 31 10000 1.54 0 10:57 06.04.2022
2816 Clear 17 1014 31 10000 1.54 0 10:33 06.04.2022
2817 Clear 13 1014 62 10000 2.06 280 09:46 06.04.2022
2818 Clear 9 1013 81 8000 2.57 260 08:51 06.04.2022
2819 Mist 5 1013 93 4500 1.54 270 07:58 06.04.2022
2820 Clear 3 1012 100 10000 1.03 340 05:23 06.04.2022
2821 Clear 5 1011 92 10000 1.03 10 00:20 06.04.2022
2822 Clear 5 1011 95 10000 1.54 110 23:47 05.04.2022
2823 Clear 7 1011 88 10000 2.06 70 21:48 05.04.2022
2824 Clear 7 1011 92 10000 3.09 80 20:58 05.04.2022
2825 Clear 7 1011 92 10000 4.12 90 20:23 05.04.2022
2826 Clear 10 1010 82 10000 5.14 100 18:28 05.04.2022
2827 Clear 13 1010 76 10000 5.66 100 17:20 05.04.2022
2828 Clouds 14 1010 71 10000 5.66 110 16:42 05.04.2022
2829 Clouds 13 1010 77 10000 6.17 100 15:51 05.04.2022
2830 Clouds 14 1010 73 10000 6.69 110 15:30 05.04.2022
2831 Clouds 13 1011 54 10000 6.17 120 13:46 05.04.2022
2832 Clouds 14 1013 35 10000 1.54 0 12:29 05.04.2022
2833 Clouds 13 1013 47 10000 1.54 0 11:43 05.04.2022
2834 Clouds 12 1013 50 10000 1.03 0 11:24 05.04.2022
2835 Clear 9 1014 82 10000 1.03 0 09:31 05.04.2022
2836 Clear 7 1015 88 10000 1.03 260 08:27 05.04.2022
2837 Clouds 5 1015 85 10000 1.03 0 03:38 05.04.2022
2838 Clouds 6 1017 82 10000 2.06 100 23:38 04.04.2022
2839 Clouds 6 1017 82 10000 1.54 120 22:37 04.04.2022
2840 Clouds 6 1017 82 10000 2.57 110 21:46 04.04.2022
2841 Clouds 6 1017 82 10000 2.06 130 21:18 04.04.2022
2842 Clouds 6 1017 82 10000 2.57 130 20:47 04.04.2022
2843 Clouds 7 1017 79 10000 3.6 120 19:28 04.04.2022
2844 Clouds 7 1017 79 10000 3.6 120 18:40 04.04.2022
2845 Clear 8 1018 76 10000 5.66 110 17:19 04.04.2022
2846 Clear 9 1018 76 10000 6.17 110 16:28 04.04.2022
2847 Clear 10 1018 73 10000 6.17 110 15:33 04.04.2022
2848 Clouds 10 1019 73 10000 6.17 110 14:46 04.04.2022
2849 Clouds 9 1019 57 10000 6.69 110 14:27 04.04.2022
2850 Clouds 11 1020 37 10000 5.14 260 12:58 04.04.2022
2851 Clouds 9 1021 46 10000 5.66 250 11:29 04.04.2022
2852 Clouds 8 1021 53 10000 5.66 290 10:29 04.04.2022
2853 Clouds 3 1018 85 10000 4.63 290 05:34 04.04.2022
2854 Clouds 5 1017 76 10000 7.2 270 02:59 04.04.2022
2855 Clouds 7 1015 74 10000 5.66 280 23:19 03.04.2022
2856 Clouds 9 1013 69 10000 8.23 280 22:00 03.04.2022
2857 Clouds 9 1013 72 10000 4.63 280 21:27 03.04.2022
2858 Clouds 10 1012 70 10000 5.14 270 20:30 03.04.2022
2859 Clouds 12 1010 66 10000 7.2 290 18:47 03.04.2022
2860 Clear 13 1009 57 10000 9.26 290 17:56 03.04.2022
2861 Clear 14 1009 52 10000 8.75 280 17:36 03.04.2022
2862 Clear 15 1008 49 10000 10.8 280 16:50 03.04.2022
2863 Clear 16 1007 52 10000 12.86 280 15:56 03.04.2022
2864 Clear 16 1006 58 10000 12.86 290 14:25 03.04.2022
2865 Clear 15 1006 66 10000 10.8 280 13:28 03.04.2022
2866 Clouds 14 1006 70 10000 9.77 280 11:50 03.04.2022
2867 Clear 13 1005 47 10000 6.69 280 09:57 03.04.2022
2868 Clear 11 1005 82 10000 6.17 270 08:57 03.04.2022
2869 Clouds 9 1004 88 7000 2.57 270 06:28 03.04.2022
2870 Clouds 9 1004 100 10000 2.06 290 02:55 03.04.2022
2871 Rain 10 1005 100 10000 3.09 250 23:48 02.04.2022
2872 Clouds 11 1004 92 10000 2.06 210 22:45 02.04.2022
2873 Clouds 12 1004 89 10000 4.12 270 21:56 02.04.2022
2874 Clouds 12 1003 89 10000 4.63 290 21:20 02.04.2022
2875 Rain 13 1003 82 10000 3.09 240 20:36 02.04.2022
2876 Rain 13 1001 85 10000 6.17 300 18:47 02.04.2022
2877 Clouds 15 1001 74 10000 3.6 320 18:19 02.04.2022
2878 Rain 15 1001 58 10000 7.72 250 17:23 02.04.2022
2879 Rain 21 999 45 10000 7.2 230 15:55 02.04.2022
2880 Clouds 23 999 25 10000 9.26 230 15:20 02.04.2022
2881 Rain 23 999 21 10000 9.26 230 14:31 02.04.2022
2882 Clouds 23 1000 28 10000 6.69 250 13:34 02.04.2022
2883 Clouds 21 1000 37 10000 5.66 250 12:21 02.04.2022
2884 Clouds 20 1000 37 10000 9.26 270 10:31 02.04.2022
2885 Clouds 16 1000 63 10000 5.66 240 08:26 02.04.2022
2886 Clouds 13 999 85 10000 1.03 0 05:24 02.04.2022
2887 Clouds 15 998 80 10000 2.06 140 02:56 02.04.2022
2888 Clouds 16 999 77 10000 2.06 0 23:54 01.04.2022
2889 Clouds 16 999 77 10000 0 0 22:51 01.04.2022
2890 Clouds 18 999 71 10000 6.69 270 21:24 01.04.2022
2891 Clouds 19 999 69 10000 5.66 240 20:48 01.04.2022
2892 Clouds 19 998 45 10000 4.12 230 19:46 01.04.2022
2893 Clear 20 998 40 10000 3.6 220 19:26 01.04.2022
2894 Clouds 21 998 55 10000 3.6 220 18:38 01.04.2022
2895 Clear 22 997 49 10000 10.8 220 17:39 01.04.2022
2896 Clear 24 998 42 10000 11.83 210 16:24 01.04.2022
2897 Clouds 24 998 25 10000 12.86 210 14:56 01.04.2022
2898 Clear 24 1000 29 10000 6.69 230 13:56 01.04.2022
2899 Clouds 22 1000 30 10000 7.2 220 13:31 01.04.2022
2900 Clear 22 1001 51 10000 8.23 220 12:26 01.04.2022
2901 Clouds 21 1001 57 10000 8.23 220 10:52 01.04.2022
2902 Clouds 19 1002 61 10000 9.26 220 09:41 01.04.2022
2903 Clouds 15 1002 72 10000 0.51 0 07:41 01.04.2022
2904 Clouds 16 1002 73 10000 2.06 230 05:38 01.04.2022
2905 Clouds 15 1002 74 10000 3.09 220 04:41 01.04.2022
2906 Clouds 16 1003 70 10000 2.57 240 03:18 01.04.2022
2907 Clouds 16 1003 73 10000 3.6 200 01:34 01.04.2022
2908 Clouds 17 1003 70 10000 8.75 210 22:31 31.03.2022
2909 Clouds 17 1005 70 10000 5.66 230 21:40 31.03.2022
2910 Clouds 17 1005 73 10000 4.12 250 20:51 31.03.2022
2911 Rain 16 1004 75 10000 4.12 220 20:28 31.03.2022
2912 Clouds 16 1004 75 10000 3.09 220 19:29 31.03.2022
2913 Clouds 17 1004 75 10000 4.12 190 18:33 31.03.2022
2914 Rain 19 1004 69 10000 5.66 230 16:47 31.03.2022
2915 Clouds 21 1003 69 10000 6.17 230 15:55 31.03.2022
2916 Clouds 21 1004 69 10000 6.69 220 15:26 31.03.2022
2917 Clouds 21 1004 69 10000 6.17 240 14:45 31.03.2022
2918 Clouds 20 1004 71 10000 7.2 230 13:28 31.03.2022
2919 Clear 20 1006 73 10000 6.17 230 11:31 31.03.2022
2920 Clear 17 1006 75 10000 6.17 220 10:26 31.03.2022
2921 Clear 16 1006 77 10000 6.17 230 09:39 31.03.2022
2922 Clear 14 1006 80 10000 1.54 0 07:48 31.03.2022
2923 Clear 14 1008 74 10000 1.54 220 01:37 31.03.2022
2924 Clear 14 1007 74 10000 1.03 0 23:24 30.03.2022
2925 Clear 16 1007 73 10000 3.09 220 21:55 30.03.2022
2926 Clear 16 1007 73 10000 3.09 220 21:30 30.03.2022
2927 Clear 16 1007 73 10000 1.54 200 20:37 30.03.2022
2928 Clear 17 1007 65 10000 3.09 130 19:47 30.03.2022
2929 Clear 18 1007 56 10000 3.6 100 18:41 30.03.2022
2930 Clear 18 1007 56 10000 3.6 100 18:41 30.03.2022
2931 Clear 21 1007 30 10000 3.6 220 17:50 30.03.2022
2932 Clear 22 1007 39 10000 5.14 210 16:59 30.03.2022
2933 Clear 22 1007 38 10000 5.14 210 16:39 30.03.2022
2934 Clear 22 1007 26 10000 6.69 230 15:47 30.03.2022
2935 Clear 23 1007 27 10000 3.09 210 14:22 30.03.2022
2936 Clear 23 1008 25 10000 4.12 210 13:20 30.03.2022
2937 Clear 21 1009 35 10000 4.12 250 11:55 30.03.2022
2938 Clear 18 1009 42 10000 4.12 240 10:38 30.03.2022
2939 Clear 15 1010 51 10000 4.12 250 09:30 30.03.2022
2940 Clear 12 1009 62 10000 2.57 320 07:59 30.03.2022
2941 Clouds 9 1009 79 10000 3.09 330 05:41 30.03.2022
2942 Clouds 7 1009 70 10000 3.09 330 05:23 30.03.2022
2943 Clouds 13 1010 68 10000 2.06 290 00:43 30.03.2022
2944 Clouds 14 1010 41 10000 1.54 290 22:35 29.03.2022
2945 Clouds 14 1010 60 10000 0 0 21:46 29.03.2022
2946 Clear 12 1010 70 10000 3.6 110 20:55 29.03.2022
2947 Clouds 15 1010 51 10000 0.51 0 20:24 29.03.2022
2948 Clouds 17 1010 47 10000 3.6 250 18:57 29.03.2022
2949 Clouds 17 1010 34 10000 3.6 250 18:36 29.03.2022
2950 Clear 20 1010 43 10000 4.12 220 17:39 29.03.2022
2951 Clear 19 1010 51 10000 1.54 110 16:58 29.03.2022
2952 Clear 19 1010 51 10000 1.54 110 16:58 29.03.2022
2953 Clear 20 1010 37 10000 2.06 130 15:58 29.03.2022
2954 Clear 20 1011 32 10000 2.57 210 14:53 29.03.2022
2955 Clear 20 1011 34 10000 4.12 0 14:22 29.03.2022
2956 Clear 18 1013 42 10000 2.57 200 12:55 29.03.2022
2957 Clear 17 1013 42 10000 3.6 240 11:44 29.03.2022
2958 Clear 15 1014 47 10000 5.66 250 10:55 29.03.2022
2959 Clear 14 1015 47 10000 1.54 320 09:49 29.03.2022
2960 Clear 8 1016 95 10000 0 0 07:57 29.03.2022
2961 Clouds 5 1016 95 10000 1.54 340 04:47 29.03.2022
2962 Clouds 5 1020 92 10000 2.06 20 00:36 29.03.2022
2963 Clouds 5 1021 88 10000 1.54 40 23:24 28.03.2022
2964 Clouds 5 1021 88 10000 1.54 60 22:53 28.03.2022
2965 Clouds 6 1022 82 10000 1.54 30 22:26 28.03.2022
2966 Clouds 6 1022 82 10000 2.57 90 20:58 28.03.2022
2967 Clouds 6 1023 82 10000 3.09 100 20:23 28.03.2022
2968 Clouds 6 1023 79 10000 3.09 100 19:44 28.03.2022
2969 Clear 6 1023 78 10000 3.09 110 19:25 28.03.2022
2970 Clear 7 1023 76 10000 3.6 110 18:37 28.03.2022
2971 Clear 9 1024 66 10000 4.63 110 17:39 28.03.2022
2972 Clear 11 1024 51 10000 6.17 110 16:20 28.03.2022
2973 Clear 14 1026 42 10000 7.2 110 14:29 28.03.2022
2974 Clear 14 1027 44 10000 7.2 120 13:58 28.03.2022
2975 Clear 13 1028 43 10000 6.69 120 12:20 28.03.2022
2976 Clear 12 1029 35 10000 5.66 120 11:24 28.03.2022
2977 Clear 10 1030 46 10000 4.12 110 09:43 28.03.2022
2978 Clear 9 1029 53 10000 3.09 120 09:19 28.03.2022
2979 Clear 8 1029 76 10000 0 0 08:22 28.03.2022
2980 Clear 4 1029 78 10000 0 0 07:28 28.03.2022
2981 Clear 2 1029 60 10000 0 0 03:43 28.03.2022
2982 Clear 5 1028 75 10000 2.06 20 23:28 27.03.2022
2983 Clear 5 1028 88 10000 2.57 40 22:24 27.03.2022
2984 Clear 6 1028 85 10000 1.03 60 21:41 27.03.2022
2985 Clear 6 1027 88 10000 2.57 90 20:54 27.03.2022
2986 Clouds 7 1026 85 10000 2.57 90 19:47 27.03.2022
2987 Clouds 8 1025 79 10000 4.12 120 18:55 27.03.2022
2988 Clouds 9 1025 76 10000 5.66 120 18:27 27.03.2022
2989 Clear 10 1025 71 10000 5.66 120 17:38 27.03.2022
2990 Clear 13 1024 56 10000 8.23 110 15:59 27.03.2022
2991 Clear 14 1023 41 10000 8.75 110 14:55 27.03.2022
2992 Clear 14 1023 61 10000 9.26 140 13:54 27.03.2022
2993 Clear 14 1023 61 10000 9.26 140 13:54 27.03.2022
2994 Clear 21 1022 23 10000 5.66 340 12:20 27.03.2022
2995 Clear 19 1022 27 10000 5.14 240 10:47 27.03.2022
2996 Clear 11 1022 43 10000 2.57 280 08:37 27.03.2022
2997 Clouds 6 1022 49 10000 2.57 250 05:45 27.03.2022
2998 Clear 5 1022 82 10000 1.54 350 00:47 27.03.2022
2999 Clear 5 1023 79 10000 1.54 320 23:30 26.03.2022
3000 Clear 4 1023 82 10000 2.06 350 22:35 26.03.2022
3001 Clear 5 1023 78 10000 2.06 20 21:33 26.03.2022
3002 Clear 6 1024 70 10000 1.54 130 20:20 26.03.2022
3003 Clear 8 1024 69 10000 2.06 80 18:59 26.03.2022
3004 Clear 10 1023 62 10000 2.57 120 17:46 26.03.2022
3005 Clear 13 1023 51 10000 3.6 250 17:28 26.03.2022
3006 Clear 15 1024 43 10000 5.66 250 16:24 26.03.2022
3007 Clear 15 1024 45 10000 5.66 240 14:50 26.03.2022
3008 Clear 15 1025 48 10000 4.12 260 13:52 26.03.2022
3009 Clear 14 1026 35 10000 5.14 270 12:41 26.03.2022
3010 Clear 13 1027 41 10000 5.66 290 11:28 26.03.2022
3011 Clear 10 1028 50 10000 8.23 310 09:23 26.03.2022
3012 Clear 8 1028 79 10000 5.66 310 08:27 26.03.2022
3013 Clear 3 1027 85 10000 7.72 330 05:53 26.03.2022
3014 Clear 3 1026 85 10000 3.09 330 03:32 26.03.2022
3015 Clouds 4 1025 85 10000 4.12 360 23:21 25.03.2022
3016 Clouds 4 1024 88 10000 2.57 300 20:59 25.03.2022
3017 Clouds 4 1024 88 10000 2.57 300 20:38 25.03.2022
3018 Clouds 5 1024 92 10000 5.66 270 19:27 25.03.2022
3019 Clouds 5 1023 92 10000 4.12 260 18:37 25.03.2022
3020 Clouds 7 1022 76 10000 8.23 360 17:34 25.03.2022
3021 Clouds 8 1021 57 10000 5.66 10 16:39 25.03.2022
3022 Clouds 10 1021 46 10000 7.72 40 15:46 25.03.2022
3023 Clouds 14 1018 26 10000 7.72 330 13:40 25.03.2022
3024 Clear 14 1018 30 10000 6.69 320 11:49 25.03.2022
3025 Clear 12 1019 32 10000 5.66 330 09:46 25.03.2022
3026 Clear 11 1019 35 10000 3.6 0 08:59 25.03.2022
3027 Clear 9 1019 49 10000 2.57 260 07:47 25.03.2022
3028 Clear 8 1019 50 10000 2.06 300 07:20 25.03.2022
3029 Clouds 6 1017 49 10000 2.57 220 03:58 25.03.2022
3030 Clouds 4 1017 52 10000 1.03 0 23:54 24.03.2022
3031 Clouds 6 1016 60 10000 1.54 290 22:24 24.03.2022
3032 Clear 5 1017 62 10000 0 0 21:24 24.03.2022
3033 Clear 6 1017 54 10000 1.54 360 19:50 24.03.2022
3034 Clear 8 1017 49 10000 2.57 100 18:45 24.03.2022
3035 Clear 11 1017 42 10000 4.63 100 17:36 24.03.2022
3036 Clear 13 1017 26 10000 5.66 100 16:39 24.03.2022
3037 Clear 15 1017 37 10000 7.2 100 14:53 24.03.2022
3038 Clear 15 1017 37 10000 7.2 100 14:32 24.03.2022
3039 Clear 16 1018 35 10000 6.69 110 13:36 24.03.2022
3040 Clear 15 1019 26 10000 6.17 110 12:29 24.03.2022
3041 Clear 16 1019 29 10000 2.57 140 11:27 24.03.2022
3042 Clear 11 1020 30 10000 2.06 170 09:28 24.03.2022
3043 Clear 9 1020 27 10000 3.09 230 08:38 24.03.2022
3044 Clear -1 1022 40 10000 2.06 270 05:36 24.03.2022
3045 Clear 3 1024 36 10000 2.57 10 00:38 24.03.2022
3046 Clear 2 1025 40 10000 0 0 22:21 23.03.2022
3047 Clear 3 1025 41 10000 1.54 270 21:24 23.03.2022
3048 Clear 3 1025 40 10000 1.54 280 20:36 23.03.2022
3049 Clear 5 1026 36 10000 0.51 0 19:28 23.03.2022
3050 Clear 7 1026 28 10000 6.69 50 17:52 23.03.2022
3051 Clear 9 1025 24 10000 5.66 40 17:24 23.03.2022
3052 Clear 11 1025 25 10000 6.17 40 15:43 23.03.2022
3053 Clear 12 1025 21 10000 8.75 30 14:47 23.03.2022
3054 Clear 12 1026 24 10000 10.8 50 13:31 23.03.2022
3055 Clear 11 1026 19 10000 9.77 30 11:24 23.03.2022
3056 Clear 6 1027 49 10000 5.66 10 08:29 23.03.2022
3057 Clear 2 1027 88 10000 4.63 10 05:50 23.03.2022
3058 Clouds 4 1028 85 10000 5.14 20 02:28 23.03.2022
3059 Clear 4 1028 85 10000 5.14 30 00:26 23.03.2022
3060 Clear 4 1028 85 10000 5.14 30 00:26 23.03.2022
3061 Clear 5 1028 85 10000 6.17 30 21:40 22.03.2022
3062 Clear 6 1028 82 10000 7.2 40 20:59 22.03.2022
3063 Clear 6 1028 85 10000 8.75 40 20:18 22.03.2022
3064 Clear 6 1028 88 10000 8.23 40 19:26 22.03.2022
3065 Clear 6 1028 85 10000 7.72 40 18:46 22.03.2022
3066 Clouds 6 1028 85 10000 9.26 40 17:43 22.03.2022
3067 Clouds 7 1027 82 10000 11.83 40 16:39 22.03.2022
3068 Clouds 7 1027 82 10000 10.8 40 15:41 22.03.2022
3069 Clouds 8 1027 79 10000 10.8 50 15:19 22.03.2022
3070 Clouds 8 1027 78 10000 10.8 50 14:42 22.03.2022
3071 Clouds 10 1026 72 10000 10.29 40 13:42 22.03.2022
3072 Clouds 12 1026 64 10000 10.29 40 11:53 22.03.2022
3073 Clouds 12 1026 43 10000 9.77 40 10:54 22.03.2022
3074 Clear 11 1026 50 10000 6.17 10 09:21 22.03.2022
3075 Clear 7 1026 57 10000 7.2 10 07:30 22.03.2022
3076 Clear 5 1027 42 10000 6.69 360 03:57 22.03.2022
3077 Clear 6 1029 39 10000 2.57 340 00:46 22.03.2022
3078 Clear 5 1030 45 10000 1.03 0 22:46 21.03.2022
3079 Clear 3 1031 65 10000 1.03 0 21:30 21.03.2022
3080 Clear 4 1031 56 10000 0 0 20:43 21.03.2022
3081 Clear 4 1031 60 10000 0 0 20:23 21.03.2022
3082 Clear 4 1031 72 10000 0 0 19:35 21.03.2022
3083 Clear 4 1031 72 10000 0 0 19:35 21.03.2022
3084 Clear 5 1031 70 10000 1.54 140 18:47 21.03.2022
3085 Clear 8 1031 46 10000 2.57 60 17:35 21.03.2022
3086 Clear 9 1031 40 10000 4.63 50 16:59 21.03.2022
3087 Clear 9 1031 40 10000 6.69 70 16:26 21.03.2022
3088 Clear 8 1032 49 10000 2.57 160 15:43 21.03.2022
3089 Clear 11 1032 33 10000 5.66 70 14:36 21.03.2022
3090 Clear 10 1032 22 10000 6.69 40 13:20 21.03.2022
3091 Clear 10 1033 22 10000 6.17 20 11:58 21.03.2022
3092 Clear 9 1034 21 10000 6.17 20 11:20 21.03.2022
3093 Clear 8 1034 23 10000 6.69 40 09:42 21.03.2022
3094 Clear 4 1034 38 10000 6.17 10 07:33 21.03.2022
3095 Clear 1 1034 70 10000 6.17 10 05:56 21.03.2022
3096 Clear 0 1035 70 10000 4.63 10 01:39 21.03.2022
3097 Clear 1 1036 68 10000 4.63 30 22:57 20.03.2022
3098 Clear 1 1036 68 10000 4.12 20 22:23 20.03.2022
3099 Clear 1 1036 70 10000 3.6 20 21:31 20.03.2022
3100 Clear 2 1036 69 10000 3.6 10 20:54 20.03.2022
3101 Clear 2 1036 69 10000 3.6 20 20:27 20.03.2022
3102 Clear 2 1036 70 10000 3.6 20 19:48 20.03.2022
3103 Clear 2 1036 69 10000 3.09 40 19:19 20.03.2022
3104 Clear 4 1036 41 10000 4.12 60 17:43 20.03.2022
3105 Clear 5 1036 63 10000 5.66 70 17:24 20.03.2022
3106 Clear 7 1036 40 10000 6.17 20 15:58 20.03.2022
3107 Clear 7 1036 40 10000 7.72 40 14:38 20.03.2022
3108 Clear 7 1037 41 10000 6.69 20 13:38 20.03.2022
3109 Clear 8 1038 19 10000 7.72 60 11:58 20.03.2022
3110 Clear 6 1038 36 10000 8.23 30 09:59 20.03.2022
3111 Clear 2 1039 44 10000 5.66 20 08:19 20.03.2022
3112 Clear -1 1038 73 10000 5.14 10 05:49 20.03.2022
3113 Clear -1 1038 73 10000 5.66 360 03:18 20.03.2022
3114 Clear 0 1038 75 10000 4.12 10 00:53 20.03.2022
3115 Clear 0 1039 78 10000 4.63 350 23:37 19.03.2022
3116 Clear -1 1039 69 10000 2.57 350 21:58 19.03.2022
3117 Clear -1 1039 69 10000 3.6 360 21:25 19.03.2022
3118 Clear 1 1039 69 10000 4.12 10 19:22 19.03.2022
3119 Clear 1 1039 67 10000 2.57 30 18:38 19.03.2022
3120 Clear 2 1038 61 10000 3.09 20 17:48 19.03.2022
3121 Clear 3 1038 57 10000 6.17 30 16:46 19.03.2022
3122 Clouds 4 1038 56 10000 6.17 360 15:26 19.03.2022
3123 Clouds 4 1038 54 10000 6.17 30 13:45 19.03.2022
3124 Clouds 4 1039 57 10000 6.17 20 12:42 19.03.2022
3125 Clouds 3 1039 57 10000 6.17 360 12:20 19.03.2022
3126 Clouds 4 1040 59 10000 7.2 10 11:42 19.03.2022
3127 Clear 1 1040 47 10000 6.69 10 09:22 19.03.2022
3128 Clear -3 1039 84 10000 4.12 360 04:42 19.03.2022
3129 Clear -4 1039 84 10000 4.63 310 02:33 19.03.2022
3130 Clear -3 1040 84 10000 2.06 260 23:51 18.03.2022
3131 Clear -3 1040 80 10000 3.09 260 22:48 18.03.2022
3132 Clear -3 1040 84 10000 2.06 290 22:21 18.03.2022
3133 Clear -2 1040 78 10000 3.09 20 20:25 18.03.2022
3134 Clear -2 1040 78 10000 3.09 20 20:25 18.03.2022
3135 Clear -2 1040 78 10000 3.09 20 20:25 18.03.2022
3136 Clear -1 1040 78 10000 4.12 40 19:24 18.03.2022
3137 Clear -1 1040 75 10000 4.12 50 18:35 18.03.2022
3138 Clouds 2 1039 69 10000 7.2 30 16:53 18.03.2022
3139 Clouds 2 1038 70 10000 6.69 30 16:23 18.03.2022
3140 Clouds 3 1038 41 10000 7.2 20 14:26 18.03.2022
3141 Clouds 4 1038 38 10000 8.75 10 13:36 18.03.2022
3142 Clouds 4 1038 57 10000 8.75 10 11:29 18.03.2022
3143 Clouds 3 1038 62 10000 11.32 10 09:52 18.03.2022
3144 Clear 2 1038 70 10000 8.23 360 08:45 18.03.2022
3145 Clear -1 1038 75 10000 4.63 10 06:45 18.03.2022
3146 Clear -1 1038 75 10000 4.63 10 06:45 18.03.2022
3147 Clear -2 1037 80 10000 4.12 350 04:39 18.03.2022
3148 Clear -2 1036 84 10000 3.6 360 00:55 18.03.2022
3149 Clear -3 1036 84 10000 3.09 360 23:52 17.03.2022
3150 Clear -3 1036 84 10000 3.09 360 23:52 17.03.2022
3151 Clear -3 1036 88 10000 1.03 0 22:44 17.03.2022
3152 Clear -3 1036 88 10000 0 0 22:18 17.03.2022
3153 Clear -2 1036 81 10000 1.54 30 21:27 17.03.2022
3154 Clear -2 1035 81 10000 3.6 40 20:52 17.03.2022
3155 Clear -1 1035 81 10000 3.09 50 20:18 17.03.2022
3156 Clear -1 1035 78 10000 2.06 60 19:37 17.03.2022
3157 Clear 0 1035 75 10000 3.09 50 18:51 17.03.2022
3158 Clear 2 1033 70 10000 5.66 70 17:27 17.03.2022
3159 Clouds 3 1033 71 10000 5.66 70 16:19 17.03.2022
3160 Clouds 3 1033 71 10000 5.66 70 16:19 17.03.2022
3161 Clouds 4 1032 69 10000 5.66 50 15:42 17.03.2022
3162 Clouds 4 1032 69 10000 4.63 60 14:58 17.03.2022
3163 Clouds 5 1032 69 10000 7.2 60 13:28 17.03.2022
3164 Clouds 4 1032 69 10000 7.72 40 12:38 17.03.2022
3165 Clouds 5 1032 71 10000 7.2 60 11:31 17.03.2022
3166 Clouds 4 1032 76 10000 6.69 60 10:38 17.03.2022
3167 Clouds 3 1030 85 10000 8.75 50 08:42 17.03.2022
3168 Clouds 3 1028 92 8000 11.32 50 07:57 17.03.2022
3169 Clouds 4 1026 92 10000 10.29 40 05:48 17.03.2022
3170 Clouds 4 1025 95 10000 4.12 30 03:45 17.03.2022
3171 Clouds 5 1024 92 7000 1.54 0 00:21 17.03.2022
3172 Clouds 5 1023 92 9000 1.03 0 22:52 16.03.2022
3173 Clouds 5 1023 92 9000 1.03 0 22:33 16.03.2022
3174 Clouds 5 1023 92 9000 2.57 80 21:52 16.03.2022
3175 Clouds 5 1023 92 10000 0 0 20:32 16.03.2022
3176 Rain 4 1023 88 10000 0.51 0 19:22 16.03.2022
3177 Clear 5 1023 85 10000 1.03 0 18:40 16.03.2022
3178 Clear 5 1022 85 10000 2.57 120 17:44 16.03.2022
3179 Clear 5 1022 85 10000 2.57 120 17:26 16.03.2022
3180 Clear 7 1022 82 10000 4.63 110 15:56 16.03.2022
3181 Clear 7 1022 82 10000 4.12 110 14:31 16.03.2022
3182 Clear 8 1022 79 10000 4.63 120 13:32 16.03.2022
3183 Clear 9 1023 74 10000 4.12 120 11:58 16.03.2022
3184 Clear 8 1024 76 10000 2.57 120 11:21 16.03.2022
3185 Clouds 7 1024 79 7000 2.06 100 10:27 16.03.2022
3186 Clouds 6 1024 82 7000 2.06 120 09:42 16.03.2022
3187 Clouds 0 1025 91 8000 0 0 06:27 16.03.2022
3188 Clear 0 1027 88 10000 0 0 02:29 16.03.2022
3189 Clear 1 1029 84 10000 1.54 350 22:51 15.03.2022
3190 Clear 1 1029 84 10000 1.54 350 22:32 15.03.2022
3191 Clear 3 1030 78 10000 1.54 10 20:36 15.03.2022
3192 Clear 5 1030 74 10000 1.03 0 18:58 15.03.2022
3193 Clear 10 1030 51 10000 2.06 320 17:24 15.03.2022
3194 Clear 11 1030 46 10000 3.6 310 16:32 15.03.2022
3195 Clear 12 1031 32 10000 5.66 310 15:21 15.03.2022
3196 Clear 12 1031 32 10000 5.66 330 14:46 15.03.2022
3197 Clear 12 1031 35 10000 5.14 290 13:55 15.03.2022
3198 Clear 12 1032 32 10000 5.14 310 12:29 15.03.2022
3199 Clear 12 1033 35 10000 6.69 310 11:31 15.03.2022
3200 Clear 8 1034 46 10000 4.12 230 09:46 15.03.2022
3201 Clear 4 1035 60 10000 2.06 260 08:42 15.03.2022
3202 Clear 2 1035 84 10000 1.03 0 07:52 15.03.2022
3203 Clear 2 1035 85 10000 1.03 0 07:32 15.03.2022
3204 Clear -2 1035 95 10000 1.03 260 03:41 15.03.2022
3205 Clear -1 1036 88 10000 1.54 360 23:44 14.03.2022
3206 Clear -1 1036 91 10000 1.03 350 23:23 14.03.2022
3207 Clear -1 1036 91 10000 2.06 360 22:26 14.03.2022
3208 Clear -1 1036 91 9000 2.57 20 21:30 14.03.2022
3209 Clear 0 1036 88 8000 2.57 10 20:48 14.03.2022
3210 Clear 0 1036 88 8000 2.57 10 20:20 14.03.2022
3211 Clear 3 1036 79 10000 1.54 120 18:55 14.03.2022
3212 Clear 4 1035 76 10000 2.06 140 17:54 14.03.2022
3213 Clear 4 1035 60 10000 2.57 140 16:58 14.03.2022
3214 Clouds 5 1035 76 10000 3.09 120 15:43 14.03.2022
3215 Clouds 6 1035 76 10000 4.12 130 14:40 14.03.2022
3216 Clouds 7 1035 60 10000 4.63 360 12:22 14.03.2022
3217 Clouds 7 1035 61 10000 3.6 10 10:54 14.03.2022
3218 Clouds 5 1035 64 10000 3.6 10 09:44 14.03.2022
3219 Clouds 5 1035 48 10000 4.63 20 09:21 14.03.2022
3220 Clear 5 1034 71 10000 5.66 20 08:55 14.03.2022
3221 Clear 3 1034 65 10000 5.14 360 07:32 14.03.2022
3222 Clear 1 1033 81 10000 2.06 350 05:45 14.03.2022
3223 Clear 1 1031 85 10000 2.06 350 01:55 14.03.2022
3224 Clear 1 1031 85 10000 2.06 350 01:24 14.03.2022
3225 Clear 1 1031 88 10000 2.06 20 22:43 13.03.2022
3226 Clear 1 1031 85 10000 0 0 21:29 13.03.2022
3227 Clear 2 1030 81 10000 0 0 20:55 13.03.2022
3228 Clear 2 1030 81 10000 1.54 100 20:30 13.03.2022
3229 Clear 2 1030 69 10000 3.09 90 19:49 13.03.2022
3230 Clear 2 1030 76 10000 1.54 40 19:27 13.03.2022
3231 Clear 3 1029 73 10000 0 0 18:59 13.03.2022
3232 Clear 3 1029 73 10000 0 0 18:31 13.03.2022
3233 Clouds 3 1029 73 10000 1.54 0 17:41 13.03.2022
3234 Clouds 4 1028 73 10000 4.12 100 16:57 13.03.2022
3235 Clouds 4 1028 69 10000 3.6 110 16:29 13.03.2022
3236 Clouds 4 1027 69 10000 3.09 110 15:44 13.03.2022
3237 Clouds 4 1027 69 10000 2.57 120 14:51 13.03.2022
3238 Clouds 5 1027 62 10000 3.6 130 13:43 13.03.2022
3239 Clouds 6 1026 33 10000 3.09 330 12:38 13.03.2022
3240 Clouds 6 1027 36 10000 3.09 280 11:51 13.03.2022
3241 Clouds 6 1027 36 10000 3.6 0 11:31 13.03.2022
3242 Clouds 6 1027 36 10000 3.6 0 11:31 13.03.2022
3243 Clouds 5 1027 38 10000 3.09 330 10:46 13.03.2022
3244 Clear 6 1027 36 10000 2.57 330 09:59 13.03.2022
3245 Clear 6 1027 36 10000 2.57 330 09:40 13.03.2022
3246 Clear 3 1027 48 10000 2.57 270 08:45 13.03.2022
3247 Clear 1 1027 75 10000 3.09 270 07:40 13.03.2022
3248 Clear -3 1027 84 10000 3.6 290 05:40 13.03.2022
3249 Clear -2 1027 78 10000 4.63 320 02:27 13.03.2022
3250 Clear -3 1028 68 10000 5.14 300 23:31 12.03.2022
3251 Clear -2 1028 84 10000 2.57 300 21:49 12.03.2022
3252 Clear -1 1028 81 10000 0 0 20:29 12.03.2022
3253 Clear 0 1028 81 10000 1.54 300 19:47 12.03.2022
3254 Clear 0 1028 78 10000 2.06 270 18:47 12.03.2022
3255 Clear 0 1028 81 10000 2.57 330 18:20 12.03.2022
3256 Clouds 0 1027 78 10000 4.12 350 16:32 12.03.2022
3257 Clouds 1 1027 75 10000 7.2 350 15:55 12.03.2022
3258 Clouds 1 1027 75 10000 7.2 340 15:22 12.03.2022
3259 Clouds 1 1027 75 10000 7.2 340 15:22 12.03.2022
3260 Clouds 1 1028 75 10000 8.23 330 13:54 12.03.2022
3261 Clouds 0 1027 75 10000 8.23 320 12:33 12.03.2022
3262 Clouds 0 1028 78 10000 9.26 320 11:55 12.03.2022
3263 Clouds -1 1028 78 10000 9.26 320 11:34 12.03.2022
3264 Clouds -1 1027 81 10000 8.75 350 10:32 12.03.2022
3265 Clouds -2 1027 81 10000 8.75 350 09:44 12.03.2022
3266 Clouds -2 1027 84 10000 7.2 320 08:24 12.03.2022
3267 Clouds -4 1027 88 10000 5.14 290 06:44 12.03.2022
3268 Clear -5 1027 88 10000 3.6 320 00:55 12.03.2022
3269 Clear -5 1027 88 10000 2.57 280 23:43 11.03.2022
3270 Clear -5 1027 88 10000 2.57 280 23:43 11.03.2022
3271 Clouds -4 1027 88 10000 3.6 320 22:32 11.03.2022
3272 Clouds -4 1027 88 10000 2.57 290 21:24 11.03.2022
3273 Clouds -4 1027 88 10000 1.54 0 20:46 11.03.2022
3274 Clouds -4 1027 88 10000 2.57 330 20:26 11.03.2022
3275 Clouds -3 1027 88 10000 3.6 320 19:33 11.03.2022
3276 Clouds -3 1027 91 10000 4.12 330 18:30 11.03.2022
3277 Clouds -2 1027 80 10000 5.14 340 17:24 11.03.2022
3278 Clouds 0 1026 73 10000 8.23 330 15:59 11.03.2022
3279 Clouds 0 1026 73 10000 8.23 330 15:36 11.03.2022
3280 Clouds 0 1025 62 10000 6.69 330 13:42 11.03.2022
3281 Clouds 0 1025 64 10000 6.69 340 12:39 11.03.2022
3282 Clouds 0 1025 64 10000 7.2 340 12:19 11.03.2022
3283 Clouds -2 1025 46 10000 7.2 350 10:44 11.03.2022
3284 Clouds -1 1025 51 10000 9.77 350 09:34 11.03.2022
3285 Clear -3 1026 59 10000 5.66 330 08:28 11.03.2022
3286 Clear -3 1026 77 10000 4.63 340 07:48 11.03.2022
3287 Clouds -5 1026 80 10000 2.57 290 06:26 11.03.2022
3288 Clear -5 1025 84 10000 3.6 330 04:37 11.03.2022
3289 Clear -4 1025 80 10000 4.63 340 01:20 11.03.2022
3290 Clouds -2 1025 84 10000 3.09 350 22:32 10.03.2022
3291 Clear -2 1025 84 10000 1.54 0 21:53 10.03.2022
3292 Clear -2 1025 81 10000 3.6 10 21:24 10.03.2022
3293 Clear -2 1025 81 10000 3.6 10 21:24 10.03.2022
3294 Clear -2 1025 81 10000 3.6 10 20:18 10.03.2022
3295 Clear -2 1024 84 10000 3.09 10 19:20 10.03.2022
3296 Clouds -1 1024 88 10000 6.69 10 17:50 10.03.2022
3297 Clouds 0 1023 81 10000 6.17 10 16:52 10.03.2022
3298 Clouds 0 1022 84 10000 8.23 30 15:27 10.03.2022
3299 Clouds 2 1021 70 10000 7.72 10 13:41 10.03.2022
3300 Clouds 3 1021 69 10000 8.23 10 12:35 10.03.2022
3301 Clouds 3 1021 72 10000 9.77 10 11:26 10.03.2022
3302 Clouds 1 1020 60 10000 7.2 10 09:28 10.03.2022
3303 Clear -1 1020 69 10000 6.17 10 07:46 10.03.2022
3304 Clouds -4 1019 93 10000 3.6 270 04:59 10.03.2022
3305 Clear -3 1019 86 10000 2.57 250 01:56 10.03.2022
3306 Clear -2 1019 80 10000 2.06 280 23:30 09.03.2022
3307 Clear -1 1019 74 10000 6.17 10 21:56 09.03.2022
3308 Clear -1 1019 74 10000 6.17 10 21:36 09.03.2022
3309 Clear -1 1019 80 10000 5.14 10 19:56 09.03.2022
3310 Clouds 0 1019 74 10000 4.12 10 18:34 09.03.2022
3311 Clouds 2 1018 51 10000 3.09 340 17:27 09.03.2022
3312 Clouds 2 1017 48 10000 5.14 330 16:34 09.03.2022
3313 Clouds 2 1017 51 10000 5.14 340 15:31 09.03.2022
3314 Clouds 4 1017 45 10000 5.66 360 13:54 09.03.2022
3315 Clouds 4 1017 48 10000 5.14 0 12:48 09.03.2022
3316 Clouds 3 1017 60 10000 6.17 350 11:54 09.03.2022
3317 Clouds 3 1017 60 10000 6.17 350 11:35 09.03.2022
3318 Clouds 3 1017 60 10000 5.66 350 10:34 09.03.2022
3319 Clouds 2 1017 69 10000 5.14 350 08:57 09.03.2022
3320 Clouds 1 1017 75 10000 4.63 360 08:23 09.03.2022
3321 Clouds -1 1016 96 9000 6.17 310 02:59 09.03.2022
3322 Clear 0 1017 96 10000 6.17 330 00:46 09.03.2022
3323 Clear 0 1017 92 10000 2.57 270 22:48 08.03.2022
3324 Clear -1 1017 92 10000 2.57 270 22:27 08.03.2022
3325 Clear 0 1017 92 10000 1.54 260 21:23 08.03.2022
3326 Clear 0 1017 92 10000 1.03 0 20:42 08.03.2022
3327 Clear 0 1017 88 10000 1.54 280 19:42 08.03.2022
3328 Clear 0 1017 88 10000 1.54 280 19:42 08.03.2022
3329 Clear 1 1017 86 10000 2.06 290 18:44 08.03.2022
3330 Clear 2 1016 79 10000 1.54 310 17:32 08.03.2022
3331 Clouds 3 1016 80 10000 5.66 350 15:56 08.03.2022
3332 Clouds 4 1016 80 10000 5.66 340 14:19 08.03.2022
3333 Clouds 4 1016 65 10000 5.14 330 12:43 08.03.2022
3334 Clouds 4 1016 56 10000 2.57 350 11:45 08.03.2022
3335 Clouds 4 1016 75 10000 2.57 310 10:48 08.03.2022
3336 Clouds 4 1016 78 10000 3.6 10 09:51 08.03.2022
3337 Clouds 1 1016 92 10000 2.57 360 06:59 08.03.2022
3338 Clouds 0 1016 92 10000 2.06 240 04:52 08.03.2022
3339 Clear 1 1016 92 10000 1.54 290 23:50 07.03.2022
3340 Clouds 1 1015 96 10000 2.57 310 21:54 07.03.2022
3341 Clouds 1 1015 92 10000 2.06 290 21:31 07.03.2022
3342 Clouds 2 1015 88 10000 2.57 300 20:44 07.03.2022
3343 Clouds 2 1015 88 10000 2.06 350 19:55 07.03.2022
3344 Clouds 2 1015 88 10000 2.57 350 19:31 07.03.2022
3345 Clouds 2 1015 88 10000 2.57 340 18:42 07.03.2022
3346 Clouds 2 1014 88 10000 3.09 350 17:47 07.03.2022
3347 Clouds 3 1014 86 10000 2.57 350 16:55 07.03.2022
3348 Clouds 3 1014 89 10000 3.09 300 15:32 07.03.2022
3349 Clouds 3 1014 89 10000 3.6 330 12:54 07.03.2022
3350 Clouds 3 1014 92 10000 3.6 310 12:21 07.03.2022
3351 Clouds 3 1015 88 10000 4.12 20 10:36 07.03.2022
3352 Clouds 2 1015 92 10000 3.09 340 08:39 07.03.2022
3353 Clouds 1 1015 92 10000 5.14 10 03:41 07.03.2022
3354 Rain 2 1016 92 10000 3.6 60 00:22 07.03.2022
3355 Clouds 2 1016 96 10000 2.57 60 23:31 06.03.2022
3356 Clouds 2 1017 96 10000 4.12 50 22:37 06.03.2022
3357 Rain 2 1017 96 10000 3.09 50 21:45 06.03.2022
3358 Rain 3 1017 92 10000 4.63 70 20:30 06.03.2022
3359 Clouds 3 1017 92 10000 4.63 70 19:50 06.03.2022
3360 Clouds 4 1017 86 10000 6.17 60 18:51 06.03.2022
3361 Clouds 4 1017 86 10000 5.66 60 17:54 06.03.2022
3362 Clouds 4 1017 86 10000 5.14 60 17:20 06.03.2022
3363 Clouds 4 1017 86 10000 6.17 70 16:40 06.03.2022
3364 Clouds 5 1017 80 10000 7.2 60 15:37 06.03.2022
3365 Clouds 6 1018 80 10000 6.69 60 14:49 06.03.2022
3366 Clouds 5 1017 83 10000 7.72 60 14:28 06.03.2022
3367 Clouds 6 1018 78 10000 7.2 50 12:44 06.03.2022
3368 Clouds 6 1019 75 10000 6.69 80 11:56 06.03.2022
3369 Clouds 5 1019 80 10000 7.2 70 10:45 06.03.2022
3370 Clouds 5 1019 77 10000 6.17 60 09:34 06.03.2022
3371 Clouds 3 1019 83 10000 5.66 50 08:28 06.03.2022
3372 Clouds 2 1019 85 10000 3.09 60 07:33 06.03.2022
3373 Clouds 1 1019 86 10000 5.66 40 03:58 06.03.2022
3374 Clear 2 1020 88 10000 5.14 60 00:42 06.03.2022
3375 Clouds 2 1020 88 10000 3.6 50 00:23 06.03.2022
3376 Clear 2 1020 88 10000 3.6 110 23:19 05.03.2022
3377 Clear 2 1020 86 10000 3.09 100 22:38 05.03.2022
3378 Clouds 2 1020 88 10000 2.57 120 21:31 05.03.2022
3379 Clouds 3 1019 89 10000 3.6 120 20:57 05.03.2022
3380 Clouds 3 1019 92 10000 2.06 110 19:23 05.03.2022
3381 Clouds 3 1019 92 10000 4.12 60 18:50 05.03.2022
3382 Clouds 4 1018 89 9000 4.63 70 17:39 05.03.2022
3383 Clouds 6 1018 86 10000 4.63 80 16:19 05.03.2022
3384 Clouds 6 1018 86 10000 4.63 100 15:30 05.03.2022
3385 Clouds 7 1018 89 10000 4.63 120 14:36 05.03.2022
3386 Clouds 8 1017 66 10000 6.69 130 13:46 05.03.2022
3387 Clouds 8 1017 66 10000 6.17 140 12:46 05.03.2022
3388 Clouds 7 1018 82 10000 4.63 110 11:21 05.03.2022
3389 Clouds 7 1018 82 10000 4.63 120 10:53 05.03.2022
3390 Clouds 6 1018 88 9000 2.57 130 09:37 05.03.2022
3391 Clouds 6 1017 89 10000 1.54 0 08:31 05.03.2022
3392 Mist 2 1017 100 5000 1.03 10 07:23 05.03.2022
3393 Mist 0 1016 100 2200 1.54 260 05:39 05.03.2022
3394 Clear 2 1015 96 10000 0 0 00:51 05.03.2022
3395 Clear 2 1015 92 10000 1.54 360 23:20 04.03.2022
3396 Clear 2 1015 96 10000 1.03 0 22:39 04.03.2022
3397 Clear 3 1015 89 10000 2.06 10 21:43 04.03.2022
3398 Clear 3 1015 92 10000 1.54 10 20:45 04.03.2022
3399 Clear 3 1015 89 10000 0.51 340 19:38 04.03.2022
3400 Clear 3 1015 86 10000 2.06 30 18:58 04.03.2022
3401 Clear 3 1015 86 10000 2.06 30 18:35 04.03.2022
3402 Clouds 5 1014 86 10000 3.6 120 17:29 04.03.2022
3403 Clouds 7 1014 75 10000 3.09 90 15:58 04.03.2022
3404 Clouds 7 1014 75 10000 4.12 50 15:27 04.03.2022
3405 Clear 9 1014 73 10000 3.6 90 13:36 04.03.2022
3406 Clear 9 1014 49 10000 3.09 140 12:48 04.03.2022
3407 Clear 9 1015 71 10000 2.57 250 11:37 04.03.2022
3408 Clear 9 1015 71 10000 2.57 250 11:37 04.03.2022
3409 Clouds 7 1015 81 10000 2.06 290 10:26 04.03.2022
3410 Clear 6 1015 88 10000 0 0 09:28 04.03.2022
3411 Clouds 2 1015 96 6000 0 0 07:49 04.03.2022
3412 Clouds 0 1014 96 7000 0 0 06:26 04.03.2022
3413 Clouds 0 1014 96 7000 0 0 02:26 04.03.2022
3414 Clouds 0 1014 96 8000 2.06 20 23:41 03.03.2022
3415 Clouds 0 1014 100 8000 1.54 30 22:18 03.03.2022
3416 Clear 0 1014 96 9000 2.06 40 21:36 03.03.2022
3417 Clear 1 1014 92 10000 2.06 30 20:48 03.03.2022
3418 Clear 2 1014 88 10000 1.54 200 19:29 03.03.2022
3419 Clear 2 1013 88 10000 1.03 0 18:26 03.03.2022
3420 Clear 3 1013 86 10000 2.57 300 17:31 03.03.2022
3421 Clear 5 1013 80 10000 4.12 310 16:41 03.03.2022
3422 Clear 6 1012 78 10000 5.66 340 15:44 03.03.2022
3423 Clear 6 1012 75 10000 6.69 310 14:44 03.03.2022
3424 Clouds 6 1012 78 10000 6.69 310 14:26 03.03.2022
3425 Clouds 5 1012 60 10000 7.2 300 12:35 03.03.2022
3426 Clouds 5 1012 79 10000 5.66 300 11:26 03.03.2022
3427 Clouds 5 1013 86 10000 4.12 300 10:38 03.03.2022
3428 Clouds 2 1012 88 10000 4.12 280 08:42 03.03.2022
3429 Clouds 2 1012 86 10000 4.12 300 06:57 03.03.2022
3430 Clouds 2 1012 86 10000 3.6 0 05:37 03.03.2022
3431 Clouds 2 1012 88 10000 5.66 320 00:30 03.03.2022
3432 Clouds 1 1013 92 10000 6.17 330 23:18 02.03.2022
3433 Clouds 2 1014 88 10000 5.14 320 22:42 02.03.2022
3434 Clouds 2 1014 92 10000 3.6 290 21:22 02.03.2022
3435 Clouds 2 1014 92 10000 2.06 310 20:30 02.03.2022
3436 Clouds 2 1015 88 10000 1.54 320 19:43 02.03.2022
3437 Clouds 2 1015 88 10000 3.09 310 19:24 02.03.2022
3438 Clouds 2 1015 88 10000 2.57 280 18:37 02.03.2022
3439 Clouds 2 1015 88 10000 2.57 280 17:45 02.03.2022
3440 Clouds 3 1015 86 10000 3.6 310 16:54 02.03.2022
3441 Clouds 3 1015 86 10000 3.6 290 16:18 02.03.2022
3442 Clouds 3 1016 83 10000 6.17 310 14:39 02.03.2022
3443 Clouds 3 1016 86 10000 6.69 340 13:18 02.03.2022
3444 Clouds 3 1016 89 10000 6.17 310 12:39 02.03.2022
3445 Clouds 3 1018 86 10000 5.66 300 11:28 02.03.2022
3446 Clouds 3 1018 88 10000 5.66 290 10:58 02.03.2022
3447 Clouds 2 1019 88 10000 5.66 280 09:40 02.03.2022
3448 Clouds 2 1019 88 10000 4.63 280 08:45 02.03.2022
3449 Clouds 0 1019 96 7000 4.63 280 07:24 02.03.2022
3450 Clouds 0 1019 92 10000 4.12 330 05:42 02.03.2022
3451 Clouds 0 1021 92 8000 4.63 300 00:51 02.03.2022
3452 Clouds 0 1022 92 10000 3.6 280 23:40 01.03.2022
3453 Clouds 0 1022 92 8000 4.12 290 22:42 01.03.2022
3454 Clouds 0 1023 88 10000 4.12 310 21:55 01.03.2022
3455 Clouds 0 1023 92 10000 3.09 340 20:44 01.03.2022
3456 Clouds 0 1023 88 10000 3.6 340 20:22 01.03.2022
3457 Clouds 0 1023 88 10000 3.6 340 18:59 01.03.2022
3458 Clouds 0 1023 88 10000 3.09 340 18:26 01.03.2022
3459 Clouds 1 1023 86 10000 4.63 330 17:55 01.03.2022
3460 Clouds 1 1023 88 10000 4.63 330 16:39 01.03.2022
3461 Clouds 1 1023 88 10000 6.17 320 15:49 01.03.2022
3462 Clouds 1 1023 88 10000 6.17 320 14:54 01.03.2022
3463 Clouds 1 1023 88 10000 6.17 320 14:33 01.03.2022
3464 Clouds 2 1023 86 10000 4.63 330 13:26 01.03.2022
3465 Clouds 2 1023 86 10000 4.63 320 12:38 01.03.2022
3466 Clouds 2 1023 85 10000 5.14 330 11:44 01.03.2022
3467 Clouds 1 1023 91 10000 4.12 310 09:53 01.03.2022
3468 Clouds 1 1023 92 10000 6.17 330 08:31 01.03.2022
3469 Clouds 1 1023 92 10000 4.63 310 07:32 01.03.2022
3470 Clouds 1 1022 92 10000 6.17 330 03:27 01.03.2022
3471 Clouds 1 1021 92 10000 7.72 350 00:49 01.03.2022
3472 Clouds 1 1020 92 10000 7.2 350 23:47 28.02.2022
3473 Clouds 1 1020 92 10000 8.75 350 22:50 28.02.2022
3474 Snow 1 1021 92 8000 8.23 350 21:48 28.02.2022
3475 Clouds 1 1020 92 7000 10.29 350 20:55 28.02.2022
3476 Snow 1 1020 92 7000 11.32 340 19:51 28.02.2022
3477 Snow 1 1020 92 8000 11.83 350 18:57 28.02.2022
3478 Snow 1 1019 92 2700 11.83 350 17:57 28.02.2022
3479 Snow 1 1019 92 2300 11.83 350 17:23 28.02.2022
3480 Clouds 1 1019 92 6000 11.32 350 16:32 28.02.2022
3481 Clouds 1 1018 92 7000 10.29 350 15:19 28.02.2022
3482 Clouds 1 1018 96 8000 10.8 350 14:29 28.02.2022
3483 Snow 2 1017 92 7000 12.86 360 13:24 28.02.2022
3484 Clouds 1 1016 100 6000 13.38 360 12:31 28.02.2022
3485 Snow 1 1017 96 1300 11.32 360 11:21 28.02.2022
3486 Snow 1 1017 96 1200 10.8 10 10:24 28.02.2022
3487 Snow 1 1017 96 1400 11.83 10 09:53 28.02.2022
3488 Snow 1 1017 96 2400 11.32 10 09:24 28.02.2022
3489 Snow 1 1017 96 2400 11.32 10 09:24 28.02.2022
3490 Snow 2 1017 92 7000 11.32 10 08:22 28.02.2022
3491 Snow 2 1017 92 7000 11.32 10 08:22 28.02.2022
3492 Snow 2 1016 92 10000 10.8 10 06:44 28.02.2022
3493 Snow 2 1017 96 10000 9.26 10 04:31 28.02.2022
3494 Rain 3 1017 96 9000 7.72 20 01:42 28.02.2022
3495 Rain 4 1019 89 10000 10.29 30 22:57 27.02.2022
3496 Rain 4 1019 89 10000 10.29 30 22:32 27.02.2022
3497 Rain 4 1020 89 10000 8.75 40 21:42 27.02.2022
3498 Clouds 5 1021 83 10000 7.2 40 20:51 27.02.2022
3499 Clouds 4 1022 86 10000 6.69 50 20:22 27.02.2022
3500 Clouds 5 1022 83 10000 5.66 50 19:50 27.02.2022
3501 Rain 5 1022 83 10000 5.66 60 19:24 27.02.2022
3502 Clouds 5 1022 83 10000 6.17 70 18:37 27.02.2022
3503 Clouds 5 1023 80 10000 6.69 70 17:53 27.02.2022
3504 Clouds 5 1022 83 10000 9.26 70 16:31 27.02.2022
3505 Clouds 6 1023 80 10000 7.72 50 15:39 27.02.2022
3506 Clouds 7 1024 80 10000 7.2 70 12:43 27.02.2022
3507 Clouds 7 1024 80 10000 8.75 70 12:25 27.02.2022
3508 Clouds 7 1025 80 10000 7.72 50 10:47 27.02.2022
3509 Clouds 6 1025 83 10000 6.69 70 09:58 27.02.2022
3510 Clouds 6 1026 83 10000 5.66 60 09:27 27.02.2022
3511 Clouds 6 1026 86 10000 4.63 70 08:54 27.02.2022
3512 Clouds 5 1025 89 10000 4.63 60 06:42 27.02.2022
3513 Clear 6 1025 86 10000 5.14 50 04:26 27.02.2022
3514 Clear 7 1025 83 10000 3.09 20 00:34 27.02.2022
3515 Clouds 6 1025 86 10000 1.03 280 22:50 26.02.2022
3516 Clear 6 1025 83 10000 0 0 21:34 26.02.2022
3517 Clear 6 1025 80 10000 1.54 130 20:43 26.02.2022
3518 Clouds 7 1024 78 10000 2.06 60 19:58 26.02.2022
3519 Clouds 7 1024 78 10000 2.06 60 19:33 26.02.2022
3520 Clear 7 1024 78 10000 2.57 60 18:40 26.02.2022
3521 Clear 6 1024 89 10000 3.09 110 17:38 26.02.2022
3522 Clear 8 1023 83 10000 4.63 130 16:48 26.02.2022
3523 Clear 9 1022 78 10000 6.17 130 15:45 26.02.2022
3524 Clear 10 1021 75 10000 5.66 130 15:20 26.02.2022
3525 Clear 11 1021 75 10000 5.14 130 14:51 26.02.2022
3526 Clear 11 1021 75 10000 5.66 130 14:24 26.02.2022
3527 Clear 11 1021 50 10000 4.63 150 12:59 26.02.2022
3528 Clear 11 1021 43 10000 3.6 90 11:54 26.02.2022
3529 Clear 11 1021 43 10000 3.09 30 11:27 26.02.2022
3530 Clear 10 1021 73 10000 0.51 0 10:22 26.02.2022
3531 Clear 7 1021 79 10000 2.06 270 08:35 26.02.2022
3532 Clear 4 1020 79 10000 2.57 320 06:40 26.02.2022
3533 Clear 3 1018 86 10000 1.03 0 00:25 26.02.2022
3534 Clear 5 1018 83 10000 1.03 310 22:43 25.02.2022
3535 Clear 6 1018 78 10000 2.57 320 21:33 25.02.2022
3536 Clear 6 1018 78 10000 2.57 320 20:57 25.02.2022
3537 Clear 6 1017 78 10000 1.03 0 20:27 25.02.2022
3538 Clear 7 1017 78 10000 2.06 340 18:18 25.02.2022
3539 Clear 9 1016 71 10000 3.6 320 17:20 25.02.2022
3540 Clear 11 1016 68 10000 5.14 310 16:19 25.02.2022
3541 Clouds 11 1016 69 10000 5.14 300 15:24 25.02.2022
3542 Clouds 11 1016 69 10000 5.14 300 15:24 25.02.2022
3543 Clouds 11 1016 69 10000 6.17 310 14:56 25.02.2022
3544 Clouds 11 1016 69 10000 6.17 310 14:37 25.02.2022
3545 Clouds 11 1016 72 10000 5.14 310 13:30 25.02.2022
3546 Clouds 10 1017 50 10000 6.17 310 12:33 25.02.2022
3547 Clouds 8 1018 57 10000 5.66 320 11:22 25.02.2022
3548 Clouds 8 1018 78 10000 4.12 330 10:24 25.02.2022
3549 Clear 7 1019 80 10000 4.12 330 09:51 25.02.2022
3550 Clear 5 1019 83 10000 3.6 280 08:42 25.02.2022
3551 Clear 4 1019 86 10000 3.09 260 07:35 25.02.2022
3552 Clear 3 1018 86 10000 3.09 280 05:43 25.02.2022
3553 Clear 4 1019 86 10000 3.6 270 02:48 25.02.2022
3554 Clear 6 1020 80 10000 4.12 20 22:48 24.02.2022
3555 Clear 6 1020 78 10000 5.14 30 21:51 24.02.2022
3556 Clear 6 1020 78 10000 3.6 10 21:31 24.02.2022
3557 Clear 7 1021 78 10000 4.12 360 20:47 24.02.2022
3558 Clear 7 1021 80 10000 3.6 360 19:32 24.02.2022
3559 Clear 7 1021 83 10000 4.63 30 18:21 24.02.2022
3560 Clear 7 1021 83 10000 4.63 30 17:58 24.02.2022
3561 Clear 7 1021 83 10000 4.63 30 17:33 24.02.2022
3562 Clear 8 1020 83 10000 4.63 10 16:28 24.02.2022
3563 Clear 8 1020 80 10000 7.2 10 15:44 24.02.2022
3564 Clouds 8 1020 78 10000 8.23 10 14:50 24.02.2022
3565 Clouds 8 1021 83 10000 7.72 10 14:19 24.02.2022
3566 Clouds 8 1021 83 10000 8.75 10 13:39 24.02.2022
3567 Clouds 8 1021 83 10000 8.75 10 13:39 24.02.2022
3568 Clouds 6 1022 86 10000 8.75 10 11:56 24.02.2022
3569 Clouds 6 1022 89 10000 7.72 10 10:34 24.02.2022
3570 Clouds 6 1022 89 10000 6.69 10 08:44 24.02.2022
3571 Clouds 5 1021 92 10000 4.63 10 07:26 24.02.2022
3572 Clouds 5 1020 92 10000 3.09 10 05:43 24.02.2022
3573 Rain 6 1020 100 8000 1.54 340 00:32 24.02.2022
3574 Clouds 6 1020 92 10000 1.03 0 22:25 23.02.2022
3575 Clouds 7 1020 86 10000 3.09 260 20:51 23.02.2022
3576 Clouds 7 1020 89 10000 2.06 0 20:30 23.02.2022
3577 Clouds 8 1020 86 10000 2.57 260 19:36 23.02.2022
3578 Clear 8 1020 83 10000 4.12 310 18:27 23.02.2022
3579 Clear 8 1019 83 10000 5.14 330 16:43 23.02.2022
3580 Clear 10 1018 74 10000 3.6 350 14:33 23.02.2022
3581 Clear 10 1019 75 10000 3.09 340 12:37 23.02.2022
3582 Clouds 9 1019 75 10000 2.57 340 11:23 23.02.2022
3583 Clouds 8 1019 80 10000 3.09 290 10:24 23.02.2022
3584 Clear 7 1018 83 10000 2.06 290 08:56 23.02.2022
3585 Clear 7 1017 86 10000 3.6 280 07:56 23.02.2022
3586 Clouds 7 1015 89 10000 3.09 310 03:29 23.02.2022
3587 Clouds 8 1013 89 10000 2.06 280 00:18 23.02.2022
3588 Rain 8 1013 89 10000 1.54 290 23:34 22.02.2022
3589 Rain 8 1012 86 10000 3.09 310 22:28 22.02.2022
3590 Clouds 9 1012 86 10000 3.6 320 21:48 22.02.2022
3591 Rain 9 1011 86 10000 2.06 230 21:24 22.02.2022
3592 Rain 9 1011 83 10000 2.06 0 20:47 22.02.2022
3593 Clouds 10 1010 83 10000 5.66 360 20:28 22.02.2022
3594 Clouds 11 1009 78 10000 6.17 360 19:34 22.02.2022
3595 Clouds 11 1008 78 10000 5.14 350 18:50 22.02.2022
3596 Clouds 13 1008 81 10000 5.14 10 17:36 22.02.2022
3597 Clouds 14 1006 78 10000 6.69 360 16:58 22.02.2022
3598 Clouds 14 1006 76 10000 6.17 350 16:26 22.02.2022
3599 Clouds 15 1005 79 10000 2.06 0 15:36 22.02.2022
3600 Clouds 16 1004 79 10000 2.57 120 14:37 22.02.2022
3601 Clouds 16 1004 59 10000 2.57 280 11:41 22.02.2022
3602 Clouds 14 1005 67 10000 2.06 230 10:22 22.02.2022
3603 Mist 7 1004 100 3200 1.03 0 07:41 22.02.2022
3604 Mist 7 1004 100 1800 1.54 270 07:23 22.02.2022
3605 Mist 6 1004 100 3800 0 0 02:51 22.02.2022
3606 Mist 6 1006 100 5000 1.54 120 23:48 21.02.2022
3607 Mist 6 1007 100 5000 1.54 100 22:37 21.02.2022
3608 Mist 6 1007 96 5000 2.06 90 21:23 21.02.2022
3609 Clear 6 1008 96 8000 3.09 90 19:36 21.02.2022
3610 Clear 6 1008 96 10000 4.12 90 18:39 21.02.2022
3611 Clear 9 1009 83 10000 5.14 100 16:37 21.02.2022
3612 Clouds 13 1010 78 10000 7.2 100 14:24 21.02.2022
3613 Clouds 13 1010 78 10000 6.69 110 13:54 21.02.2022
3614 Clouds 13 1011 76 10000 5.14 130 12:57 21.02.2022
3615 Clouds 12 1012 58 10000 4.12 140 12:21 21.02.2022
3616 Clouds 10 1014 66 10000 1.54 200 10:31 21.02.2022
3617 Clear 7 1015 89 9000 0.51 0 07:52 21.02.2022
3618 Clear 6 1017 86 10000 5.66 300 00:36 21.02.2022
3619 Clear 7 1016 86 10000 2.57 230 22:37 20.02.2022
3620 Clouds 7 1016 86 10000 1.54 220 21:44 20.02.2022
3621 Clear 7 1016 85 10000 0 0 21:25 20.02.2022
3622 Clear 7 1016 86 10000 1.03 0 20:45 20.02.2022
3623 Clear 7 1016 86 10000 1.54 270 19:51 20.02.2022
3624 Clear 7 1016 86 10000 1.03 310 18:57 20.02.2022
3625 Clear 7 1015 89 10000 2.06 120 18:37 20.02.2022
3626 Clear 8 1015 83 10000 0 0 17:56 20.02.2022
3627 Clear 9 1015 80 10000 0 0 17:24 20.02.2022
3628 Clear 11 1015 76 10000 3.09 150 15:28 20.02.2022
3629 Clear 12 1016 71 10000 4.63 150 13:59 20.02.2022
3630 Clear 12 1016 69 10000 4.63 90 12:47 20.02.2022
3631 Clear 11 1017 69 10000 4.12 90 11:55 20.02.2022
3632 Clear 11 1018 69 10000 4.12 90 10:21 20.02.2022
3633 Clear 11 1018 71 10000 3.6 90 09:35 20.02.2022
3634 Clear 7 1017 83 10000 1.54 310 06:29 20.02.2022
3635 Clear 8 1017 78 10000 2.06 300 00:32 20.02.2022
3636 Clear 8 1017 75 10000 2.57 330 23:33 19.02.2022
3637 Clear 9 1017 72 10000 2.06 340 22:24 19.02.2022
3638 Clear 9 1017 72 10000 2.57 340 21:45 19.02.2022
3639 Clear 8 1017 75 10000 2.06 340 20:26 19.02.2022
3640 Clear 9 1016 72 10000 0 0 19:34 19.02.2022
3641 Clear 11 1016 62 10000 1.54 140 18:40 19.02.2022
3642 Clear 12 1016 58 10000 2.57 230 17:57 19.02.2022
3643 Clear 13 1015 49 10000 2.06 200 16:47 19.02.2022
3644 Clear 15 1015 43 10000 5.66 220 15:59 19.02.2022
3645 Clear 16 1015 27 10000 5.14 210 14:53 19.02.2022
3646 Clear 15 1016 27 10000 4.63 220 13:55 19.02.2022
3647 Clear 13 1017 28 10000 5.66 200 11:42 19.02.2022
3648 Clear 11 1018 37 10000 4.12 190 10:45 19.02.2022
3649 Clear 7 1019 70 10000 0 0 08:54 19.02.2022
3650 Fog 0 1019 100 8000 1.03 350 06:45 19.02.2022
3651 Clear 1 1018 93 10000 0.51 0 23:55 18.02.2022
3652 Clear 2 1018 93 10000 1.03 0 22:24 18.02.2022
3653 Clear 2 1018 93 10000 0 0 21:18 18.02.2022
3654 Clear 1 1017 93 10000 2.06 310 19:56 18.02.2022
3655 Clear 3 1016 87 10000 2.06 10 18:50 18.02.2022
3656 Clear 4 1016 93 10000 0.51 0 18:24 18.02.2022
3657 Clear 5 1015 81 10000 2.06 140 17:55 18.02.2022
3658 Clear 9 1013 61 10000 6.69 20 15:23 18.02.2022
3659 Clouds 10 1011 57 10000 5.14 10 13:56 18.02.2022
3660 Clouds 11 1010 50 10000 5.66 20 13:25 18.02.2022
3661 Clouds 13 1010 35 10000 8.75 310 12:40 18.02.2022
3662 Clouds 11 1010 43 10000 8.75 320 11:40 18.02.2022
3663 Clouds 12 1009 40 10000 9.26 300 10:23 18.02.2022
3664 Clouds 11 1005 54 10000 13.89 270 06:57 18.02.2022
3665 Clear 11 1004 58 10000 10.8 290 05:41 18.02.2022
3666 Clear 11 1003 71 10000 3.09 290 23:34 17.02.2022
3667 Clear 12 1003 66 10000 3.09 290 21:46 17.02.2022
3668 Clear 12 1003 66 10000 3.09 300 21:20 17.02.2022
3669 Rain 13 1003 62 10000 1.54 260 20:39 17.02.2022
3670 Rain 12 1004 62 10000 1.54 320 19:50 17.02.2022
3671 Clouds 12 1004 62 10000 1.54 290 18:52 17.02.2022
3672 Clear 12 1004 58 10000 3.09 320 17:55 17.02.2022
3673 Clear 14 1004 51 10000 4.12 240 16:42 17.02.2022
3674 Clear 15 1005 48 10000 6.17 240 15:38 17.02.2022
3675 Clear 17 1006 48 10000 7.72 230 14:26 17.02.2022
3676 Clear 16 1008 45 10000 8.23 230 12:38 17.02.2022
3677 Clear 14 1009 55 10000 4.63 250 11:23 17.02.2022
3678 Mist 9 1011 81 3500 0 0 08:53 17.02.2022
3679 Mist 5 1013 93 4600 0 0 02:26 17.02.2022
3680 Clouds 5 1014 93 7000 1.54 330 23:21 16.02.2022
3681 Clouds 6 1015 87 9000 2.06 50 21:40 16.02.2022
3682 Clear 6 1015 93 10000 3.09 120 19:47 16.02.2022
3683 Clear 7 1016 81 10000 3.09 100 18:38 16.02.2022
3684 Clear 7 1016 81 10000 3.09 110 17:53 16.02.2022
3685 Clear 11 1016 58 10000 4.63 110 15:39 16.02.2022
3686 Clear 11 1016 58 10000 4.63 110 15:18 16.02.2022
3687 Clear 12 1017 62 10000 5.14 110 12:59 16.02.2022
3688 Clear 11 1018 62 10000 2.57 140 11:58 16.02.2022
3689 Clear 12 1019 62 10000 1.54 0 11:24 16.02.2022
3690 Clear 9 1019 71 10000 1.54 140 10:33 16.02.2022
3691 Mist 2 1020 100 4000 1.03 330 07:21 16.02.2022
3692 Clear 2 1020 93 8000 1.54 10 05:20 16.02.2022
3693 Clear 3 1021 93 10000 1.03 0 23:44 15.02.2022
3694 Clear 4 1021 87 10000 1.54 40 22:28 15.02.2022
3695 Clear 4 1021 87 10000 0 0 21:46 15.02.2022
3696 Clear 4 1021 87 10000 1.03 70 21:27 15.02.2022
3697 Clear 4 1021 93 10000 1.54 70 20:55 15.02.2022
3698 Clear 4 1021 87 10000 3.6 90 19:57 15.02.2022
3699 Clear 5 1021 87 10000 3.6 110 18:52 15.02.2022
3700 Clear 5 1021 93 10000 4.12 100 18:20 15.02.2022
3701 Clear 5 1021 87 10000 4.12 100 17:48 15.02.2022
3702 Clear 7 1020 81 10000 6.17 100 16:32 15.02.2022
3703 Clear 10 1020 66 10000 5.14 100 15:22 15.02.2022
3704 Clear 10 1020 54 10000 4.63 120 13:26 15.02.2022
3705 Clear 10 1021 54 10000 1.54 0 11:57 15.02.2022
3706 Clear 7 1022 66 10000 1.54 0 10:59 15.02.2022
3707 Clear 6 1023 75 10000 0 0 09:28 15.02.2022
3708 Clouds -1 1023 100 7000 1.54 20 06:50 15.02.2022
3709 Clear 1 1022 93 10000 1.03 90 02:36 15.02.2022
3710 Clouds 2 1024 100 10000 2.06 110 22:25 14.02.2022
3711 Clouds 2 1024 100 10000 1.03 0 21:27 14.02.2022
3712 Clouds 1 1024 93 10000 2.57 100 20:24 14.02.2022
3713 Clouds 3 1024 93 10000 1.54 80 19:30 14.02.2022
3714 Clouds 2 1024 93 10000 2.57 120 18:27 14.02.2022
3715 Clouds 3 1024 87 10000 3.6 110 17:43 14.02.2022
3716 Clouds 3 1024 87 10000 3.6 110 17:43 14.02.2022
3717 Clouds 3 1024 87 10000 3.6 110 17:24 14.02.2022
3718 Clouds 5 1024 81 10000 3.6 120 15:58 14.02.2022
3719 Clouds 6 1024 70 10000 3.6 130 13:40 14.02.2022
3720 Clouds 6 1024 70 10000 3.6 130 13:22 14.02.2022
3721 Clouds 6 1024 75 10000 3.09 120 12:32 14.02.2022
3722 Clouds 6 1025 87 10000 3.6 130 11:47 14.02.2022
3723 Clouds 6 1025 81 10000 1.54 200 10:25 14.02.2022
3724 Drizzle 3 1026 100 9000 0 0 08:34 14.02.2022
3725 Mist 2 1026 100 2600 0 0 07:26 14.02.2022
3726 Clouds 4 1027 81 10000 3.6 40 23:37 13.02.2022
3727 Clouds 4 1028 75 10000 1.54 190 22:41 13.02.2022
3728 Clouds 4 1028 75 10000 2.06 40 22:23 13.02.2022
3729 Clouds 4 1028 75 10000 2.06 40 21:27 13.02.2022
3730 Clouds 4 1028 75 10000 5.14 40 20:30 13.02.2022
3731 Clouds 4 1029 75 10000 1.03 0 19:24 13.02.2022
3732 Clouds 4 1029 70 10000 0 0 18:42 13.02.2022
3733 Clouds 4 1029 70 10000 4.12 100 17:52 13.02.2022
3734 Clouds 6 1030 61 10000 5.14 90 15:54 13.02.2022
3735 Clouds 6 1030 61 10000 5.66 100 14:57 13.02.2022
3736 Clouds 7 1030 53 10000 5.66 80 13:42 13.02.2022
3737 Clouds 7 1031 57 10000 6.17 90 12:49 13.02.2022
3738 Clouds 6 1033 61 10000 6.17 70 10:50 13.02.2022
3739 Clouds 6 1033 70 10000 6.17 50 10:27 13.02.2022
3740 Clouds 4 1033 81 10000 5.66 40 08:59 13.02.2022
3741 Clouds 1 1033 86 10000 6.17 30 05:27 13.02.2022
3742 Clear 3 1035 70 10000 3.6 30 00:34 13.02.2022
3743 Clear 4 1035 56 10000 3.09 60 22:58 12.02.2022
3744 Clear 5 1035 56 10000 3.09 60 22:33 12.02.2022
3745 Clear 6 1034 52 10000 2.06 50 21:18 12.02.2022
3746 Clear 6 1034 56 10000 2.06 40 20:25 12.02.2022
3747 Clear 6 1033 65 10000 2.57 20 18:54 12.02.2022
3748 Clear 7 1032 61 10000 2.57 20 18:36 12.02.2022
3749 Clear 7 1032 61 10000 4.12 30 17:55 12.02.2022
3750 Clear 8 1031 57 10000 2.57 360 16:55 12.02.2022
3751 Clear 9 1030 53 10000 4.12 360 16:25 12.02.2022
3752 Clouds 9 1029 53 10000 4.63 10 15:32 12.02.2022
3753 Clouds 10 1029 53 10000 5.66 20 14:30 12.02.2022
3754 Clouds 10 1027 57 10000 4.63 20 12:26 12.02.2022
3755 Clouds 10 1026 62 10000 9.26 310 10:34 12.02.2022
3756 Clear 11 1025 58 10000 6.17 280 09:38 12.02.2022
3757 Clear 9 1024 66 10000 6.17 290 08:48 12.02.2022
3758 Clear 8 1024 66 10000 4.12 290 07:50 12.02.2022
3759 Clouds 3 1022 86 7000 0.51 0 05:31 12.02.2022
3760 Clear 4 1021 87 6000 0 0 02:20 12.02.2022
3761 Clear 4 1021 81 10000 0.51 0 00:31 12.02.2022
3762 Clear 5 1021 75 10000 0 0 22:24 11.02.2022
3763 Clear 5 1021 75 10000 0 0 21:43 11.02.2022
3764 Clear 7 1020 65 10000 1.54 10 20:37 11.02.2022
3765 Clear 7 1020 65 10000 0 0 19:31 11.02.2022
3766 Clear 8 1020 61 10000 1.54 60 18:47 11.02.2022
3767 Clear 13 1019 44 10000 2.06 320 17:27 11.02.2022
3768 Clear 14 1019 38 10000 3.6 270 16:56 11.02.2022
3769 Clear 16 1019 34 10000 6.69 280 15:26 11.02.2022
3770 Clear 17 1019 34 10000 7.2 280 14:38 11.02.2022
3771 Clear 17 1019 34 10000 7.2 280 14:20 11.02.2022
3772 Clear 16 1019 36 10000 6.17 250 13:47 11.02.2022
3773 Clear 17 1019 32 10000 4.63 240 13:28 11.02.2022
3774 Clear 12 1021 50 10000 3.09 260 11:26 11.02.2022
3775 Clear 10 1021 61 10000 2.06 310 09:38 11.02.2022
3776 Clear 8 1022 65 10000 3.09 290 08:36 11.02.2022
3777 Clear 3 1022 80 10000 2.06 310 07:47 11.02.2022
3778 Clear 1 1022 86 10000 1.54 320 06:30 11.02.2022
3779 Clear 2 1022 80 10000 1.03 10 02:24 11.02.2022
3780 Clear 3 1023 75 10000 1.54 50 00:44 11.02.2022
3781 Clear 4 1025 65 10000 2.57 80 22:39 10.02.2022
3782 Clear 4 1025 65 10000 1.54 80 21:43 10.02.2022
3783 Clear 5 1025 56 10000 0.51 0 20:50 10.02.2022
3784 Clear 5 1025 60 10000 1.54 90 19:59 10.02.2022
3785 Clear 6 1025 56 10000 2.06 120 19:23 10.02.2022
3786 Clear 6 1026 56 10000 2.57 90 18:33 10.02.2022
3787 Clear 7 1025 53 10000 3.09 100 17:23 10.02.2022
3788 Clear 7 1025 57 10000 4.12 100 16:43 10.02.2022
3789 Clear 12 1026 43 10000 3.6 90 15:41 10.02.2022
3790 Clear 13 1026 41 10000 3.09 230 15:21 10.02.2022
3791 Clear 13 1026 41 10000 4.12 220 14:35 10.02.2022
3792 Clear 12 1026 43 10000 4.12 210 13:56 10.02.2022
3793 Clear 12 1026 43 10000 3.6 220 13:19 10.02.2022
3794 Clear 12 1027 47 10000 3.6 230 11:53 10.02.2022
3795 Clear 12 1027 47 10000 3.6 230 11:32 10.02.2022
3796 Clear 9 1028 61 10000 3.6 240 10:23 10.02.2022
3797 Clear 8 1028 65 10000 3.09 240 09:44 10.02.2022
3798 Clear 4 1028 81 9000 0 0 08:40 10.02.2022
3799 Clear 0 1027 93 7000 0 0 06:33 10.02.2022
3800 Clear 1 1027 86 10000 0 0 02:43 10.02.2022
3801 Clear 1 1027 93 10000 2.57 260 00:53 10.02.2022
3802 Clear 1 1027 80 10000 0 0 00:30 10.02.2022
3803 Clear 1 1027 80 10000 0.51 0 23:58 09.02.2022
3804 Clear 1 1026 80 10000 1.03 0 22:54 09.02.2022
3805 Clear 2 1026 75 10000 1.54 300 22:30 09.02.2022
3806 Clear 2 1026 80 10000 2.06 270 21:46 09.02.2022
3807 Clear 1 1026 86 10000 1.54 280 21:26 09.02.2022
3808 Clear 2 1028 80 10000 2.06 240 20:42 09.02.2022
3809 Clear 5 1026 65 10000 3.09 360 20:22 09.02.2022
3810 Clear 5 1025 70 10000 3.09 360 19:39 09.02.2022
3811 Clear 4 1025 70 10000 3.6 10 18:31 09.02.2022
3812 Clouds 9 1024 49 10000 3.6 330 16:54 09.02.2022
3813 Clouds 10 1023 46 10000 5.14 330 15:56 09.02.2022
3814 Clouds 10 1023 46 10000 7.2 310 15:22 09.02.2022
3815 Clouds 10 1023 46 10000 7.2 310 15:22 09.02.2022
3816 Clouds 8 1022 49 10000 7.72 320 12:42 09.02.2022
3817 Clouds 6 1022 56 10000 7.72 300 11:23 09.02.2022
3818 Clouds 7 1023 49 10000 6.17 280 10:33 09.02.2022
3819 Clouds 5 1022 60 10000 6.17 250 09:45 09.02.2022
3820 Clear 3 1022 65 10000 4.12 270 09:20 09.02.2022
3821 Clear 2 1022 69 10000 5.14 270 08:43 09.02.2022
3822 Clear -1 1021 74 10000 1.03 0 05:37 09.02.2022
3823 Clear 0 1021 74 10000 1.54 260 03:51 09.02.2022
3824 Clear 1 1020 75 10000 5.14 340 01:33 09.02.2022
3825 Clear 2 1019 69 10000 6.69 340 23:39 08.02.2022
3826 Clear 2 1019 69 10000 5.66 340 22:53 08.02.2022
3827 Clear 2 1019 69 10000 5.66 340 22:22 08.02.2022
3828 Clear 2 1019 69 10000 3.6 330 21:52 08.02.2022
3829 Clear 3 1019 65 10000 3.6 340 21:21 08.02.2022
3830 Clear 3 1019 60 10000 3.6 10 20:55 08.02.2022
3831 Clear 4 1019 56 10000 4.63 10 20:23 08.02.2022
3832 Clear 4 1016 56 10000 7.72 360 18:53 08.02.2022
3833 Clear 4 1016 56 10000 6.17 350 17:50 08.02.2022
3834 Clouds 5 1015 52 10000 8.75 350 16:35 08.02.2022
3835 Clouds 6 1014 52 10000 8.23 350 15:39 08.02.2022
3836 Clouds 6 1012 52 10000 13.38 360 14:56 08.02.2022
3837 Clouds 5 1010 60 10000 16.46 360 13:29 08.02.2022
3838 Clouds 5 1010 65 10000 15.95 360 12:18 08.02.2022
3839 Clouds 4 1009 70 10000 18.01 360 10:39 08.02.2022
3840 Clouds 4 1009 70 10000 15.43 360 09:45 08.02.2022
3841 Clouds 4 1008 70 10000 14.92 360 08:25 08.02.2022
3842 Clouds 4 1006 75 10000 10.8 360 05:41 08.02.2022
3843 Clouds 4 1005 81 10000 9.77 360 04:39 08.02.2022
3844 Rain 3 1006 87 10000 5.14 340 04:21 08.02.2022
3845 Rain 3 1006 87 10000 4.12 310 03:36 08.02.2022
3846 Rain 3 1006 93 10000 5.14 300 03:18 08.02.2022
3847 Rain 4 1006 87 10000 8.23 290 02:59 08.02.2022
3848 Rain 4 1006 87 10000 8.23 290 02:36 08.02.2022
3849 Rain 5 1005 81 10000 6.69 270 02:18 08.02.2022
3850 Clouds 5 1005 81 10000 8.75 270 01:44 08.02.2022
3851 Clouds 5 1005 81 10000 9.26 280 01:24 08.02.2022
3852 Clouds 6 1004 81 10000 12.35 290 00:55 08.02.2022
3853 Clouds 6 1004 81 10000 11.32 280 23:57 07.02.2022
3854 Clouds 7 1004 81 10000 11.32 280 23:39 07.02.2022
3855 Clouds 8 1004 76 10000 4.12 270 23:18 07.02.2022
3856 Clouds 8 1003 76 10000 2.06 240 22:42 07.02.2022
3857 Clouds 8 1003 76 10000 3.6 280 22:18 07.02.2022
3858 Clouds 8 1003 76 10000 2.57 250 21:43 07.02.2022
3859 Clouds 9 1003 71 10000 4.63 340 21:25 07.02.2022
3860 Clouds 9 1003 71 10000 4.63 350 20:41 07.02.2022
3861 Rain 9 1003 71 10000 3.09 340 19:54 07.02.2022
3862 Clear 8 1003 71 10000 1.54 20 19:36 07.02.2022
3863 Clear 8 1003 71 10000 1.54 50 18:18 07.02.2022
3864 Clear 11 1003 58 10000 1.54 230 16:53 07.02.2022
3865 Clear 12 1004 54 10000 2.06 220 15:49 07.02.2022
3866 Clear 12 1004 54 10000 3.09 220 14:56 07.02.2022
3867 Clear 13 1005 47 10000 5.66 220 13:28 07.02.2022
3868 Clear 13 1006 50 10000 6.17 250 12:52 07.02.2022
3869 Clear 12 1006 54 10000 4.63 240 11:58 07.02.2022
3870 Clear 11 1007 62 10000 2.06 250 11:36 07.02.2022
3871 Clear 10 1008 66 10000 1.54 310 10:51 07.02.2022
3872 Clear 10 1009 66 10000 1.54 310 10:31 07.02.2022
3873 Clear 9 1008 71 10000 0.51 0 09:53 07.02.2022
3874 Clear 8 1009 76 10000 2.06 290 09:18 07.02.2022
3875 Clear 7 1009 81 10000 2.06 330 08:38 07.02.2022
3876 Clear 1 1009 93 10000 2.06 10 06:58 07.02.2022
3877 Clear 0 1010 93 10000 1.03 0 06:34 07.02.2022
3878 Clear 0 1013 93 10000 1.03 0 02:59 07.02.2022
3879 Clear 1 1014 93 10000 2.57 110 00:45 07.02.2022
3880 Clear 1 1014 93 10000 2.57 110 00:45 07.02.2022
3881 Clear 3 1016 80 10000 2.06 360 23:47 06.02.2022
3882 Clear 2 1017 80 10000 1.03 0 22:48 06.02.2022
3883 Clear 2 1018 86 10000 2.57 360 21:54 06.02.2022
3884 Clear 2 1018 86 10000 2.57 360 21:35 06.02.2022
3885 Clear 2 1019 86 10000 2.57 20 20:54 06.02.2022
3886 Clear 2 1019 86 10000 2.57 20 20:31 06.02.2022
3887 Clear 3 1019 87 10000 1.03 90 19:37 06.02.2022
3888 Clear 4 1020 75 10000 1.54 90 18:38 06.02.2022
3889 Clear 4 1020 81 10000 3.09 80 17:55 06.02.2022
3890 Clear 5 1020 81 10000 4.63 100 16:56 06.02.2022
3891 Clear 9 1020 32 10000 3.6 100 16:38 06.02.2022
3892 Clear 10 1020 30 10000 4.63 280 15:47 06.02.2022
3893 Clear 10 1020 28 10000 5.14 270 15:26 06.02.2022
3894 Clear 10 1021 35 10000 5.14 240 14:33 06.02.2022
3895 Clouds 10 1021 46 10000 2.06 250 13:25 06.02.2022
3896 Clouds 9 1022 53 10000 4.12 240 12:49 06.02.2022
3897 Clear 8 1023 61 10000 2.57 220 11:23 06.02.2022
3898 Clear 7 1024 65 10000 1.54 280 09:56 06.02.2022
3899 Clear 5 1024 75 10000 2.57 270 08:47 06.02.2022
3900 Clear 2 1023 80 10000 3.6 310 07:36 06.02.2022
3901 Clear 1 1022 86 10000 2.57 280 05:29 06.02.2022
3902 Clear 3 1020 81 10000 3.6 280 02:26 06.02.2022
3903 Clear 5 1019 75 10000 4.12 270 01:32 06.02.2022
3904 Clear 5 1019 75 10000 3.6 270 00:24 06.02.2022
3905 Clear 4 1017 81 10000 2.06 320 22:19 05.02.2022
3906 Clear 5 1017 75 10000 1.54 290 20:52 05.02.2022
3907 Clear 4 1017 81 10000 1.54 320 20:24 05.02.2022
3908 Clear 5 1016 70 10000 0 0 19:45 05.02.2022
3909 Clear 5 1016 65 10000 2.06 120 18:49 05.02.2022
3910 Clear 7 1015 61 10000 0 0 17:37 05.02.2022
3911 Clear 9 1015 49 10000 2.06 310 16:37 05.02.2022
3912 Clear 11 1015 43 10000 4.63 280 15:33 05.02.2022
3913 Clear 11 1017 40 10000 4.63 300 14:40 05.02.2022
3914 Clear 11 1015 35 10000 4.63 240 12:46 05.02.2022
3915 Clear 9 1016 46 10000 5.66 250 11:47 05.02.2022
3916 Clear 7 1017 61 10000 1.54 0 10:46 05.02.2022
3917 Clouds 5 1017 70 9000 2.57 250 09:51 05.02.2022
3918 Clear 4 1017 75 10000 2.06 260 09:23 05.02.2022
3919 Clear 0 1017 86 10000 1.54 320 07:36 05.02.2022
3920 Clear -2 1017 86 10000 2.06 320 06:56 05.02.2022
3921 Clear -1 1017 86 10000 1.54 50 03:22 05.02.2022
3922 Clear -1 1018 86 10000 1.54 30 01:18 05.02.2022
3923 Clear -1 1018 86 10000 1.54 360 00:39 05.02.2022
3924 Clear -1 1018 86 10000 1.54 110 23:33 04.02.2022
3925 Clear -1 1019 86 10000 1.03 0 22:55 04.02.2022
3926 Clear 0 1019 80 10000 2.06 40 21:36 04.02.2022
3927 Clear 0 1019 80 10000 2.06 40 21:18 04.02.2022
3928 Clear 0 1019 80 10000 1.03 0 20:40 04.02.2022
3929 Clear 1 1020 75 10000 1.54 360 19:29 04.02.2022
3930 Clear 4 1019 56 10000 2.57 310 16:56 04.02.2022
3931 Clear 6 1019 45 10000 5.66 290 15:34 04.02.2022
3932 Clear 7 1020 42 10000 6.17 280 14:51 04.02.2022
3933 Clear 6 1020 49 10000 5.14 280 12:43 04.02.2022
3934 Clear 5 1021 52 10000 4.12 270 11:46 04.02.2022
3935 Clear 4 1022 48 10000 4.63 250 10:59 04.02.2022
3936 Clear 4 1022 48 10000 4.12 260 10:22 04.02.2022
3937 Clear 0 1022 64 10000 0 0 08:31 04.02.2022
3938 Clear -1 1021 64 10000 1.54 280 04:45 04.02.2022
3939 Clear 1 1021 60 10000 4.12 360 02:38 04.02.2022
3940 Clear 3 1020 65 10000 2.06 0 23:56 03.02.2022
3941 Clear 3 1020 70 10000 3.09 320 22:51 03.02.2022
3942 Clear 3 1019 65 10000 4.63 360 21:58 03.02.2022
3943 Clear 3 1019 70 10000 3.6 350 21:29 03.02.2022
3944 Clear 4 1019 65 10000 4.12 360 20:22 03.02.2022
3945 Clear 4 1019 65 10000 4.12 360 20:22 03.02.2022
3946 Clear 4 1018 65 10000 3.6 360 19:46 03.02.2022
3947 Clouds 4 1018 70 10000 3.09 340 18:56 03.02.2022
3948 Clouds 4 1018 70 10000 1.54 340 17:59 03.02.2022
3949 Clouds 5 1017 65 10000 2.06 300 16:55 03.02.2022
3950 Clear 6 1016 65 10000 4.63 350 15:28 03.02.2022
3951 Clear 6 1015 61 10000 5.14 350 13:50 03.02.2022
3952 Clear 6 1014 61 10000 4.63 10 12:22 03.02.2022
3953 Clear 2 1012 75 10000 3.09 300 08:56 03.02.2022
3954 Clear 1 1012 80 10000 3.09 280 07:41 03.02.2022
3955 Mist 1 1008 93 4600 0.51 320 00:47 03.02.2022
3956 Mist 1 1008 100 5000 1.54 290 00:22 03.02.2022
3957 Mist 1 1008 100 3800 0 0 22:38 02.02.2022
3958 Mist 1 1007 100 2200 1.54 230 21:45 02.02.2022
3959 Mist 1 1007 100 4500 0 0 21:27 02.02.2022
3960 Mist 1 1007 100 4900 1.54 300 20:20 02.02.2022
3961 Mist 1 1007 100 3900 1.54 280 19:45 02.02.2022
3962 Clouds 1 1007 100 3600 1.03 0 18:55 02.02.2022
3963 Snow 0 1007 100 2800 0 0 18:23 02.02.2022
3964 Snow 1 1007 100 2400 1.54 290 17:20 02.02.2022
3965 Clouds 1 1006 100 3000 1.54 280 16:48 02.02.2022
3966 Snow 1 1006 100 3500 2.06 250 14:21 02.02.2022
3967 Snow 1 1007 93 1400 2.57 250 12:29 02.02.2022
3968 Snow 1 1007 100 7000 2.57 240 11:42 02.02.2022
3969 Snow 2 1007 93 4300 3.6 280 11:23 02.02.2022
3970 Clouds 1 1007 93 10000 3.6 280 07:59 02.02.2022
3971 Rain 2 1008 93 9000 5.14 250 01:37 02.02.2022
3972 Clouds 3 1008 93 10000 3.09 280 22:29 01.02.2022
3973 Clouds 3 1008 93 10000 2.57 280 20:49 01.02.2022
3974 Clouds 3 1008 96 10000 3.09 310 18:55 01.02.2022
3975 Rain 4 1007 100 6000 2.57 280 16:44 01.02.2022
3976 Clouds 6 1006 96 8000 0.51 0 15:30 01.02.2022
3977 Clouds 8 1005 80 10000 5.14 100 12:49 01.02.2022
3978 Clear 9 1006 83 10000 3.6 90 11:48 01.02.2022
3979 Clouds 5 1006 86 10000 2.06 90 08:34 01.02.2022
3980 Clear 0 1008 83 10000 1.03 0 23:54 31.01.2022
3981 Clear 0 1008 83 10000 1.03 0 23:54 31.01.2022
3982 Clear 0 1008 84 10000 1.03 0 23:36 31.01.2022
3983 Clear 0 1008 84 10000 1.03 0 23:36 31.01.2022
3984 Clear 0 1008 78 10000 1.54 20 22:27 31.01.2022
3985 Clear 0 1008 81 10000 2.06 10 21:34 31.01.2022
3986 Clear 1 1009 77 10000 0.51 30 20:34 31.01.2022
3987 Clear 2 1009 73 10000 1.54 30 19:46 31.01.2022
3988 Clear 5 1009 67 10000 2.57 0 18:29 31.01.2022
3989 Clear 4 1008 69 10000 0 0 17:46 31.01.2022
3990 Clear 6 1008 61 10000 3.09 280 16:48 31.01.2022
3991 Clear 8 1008 52 10000 6.17 280 15:44 31.01.2022
3992 Clouds 10 1009 51 10000 8.75 270 14:25 31.01.2022
3993 Clouds 9 1009 40 10000 8.23 270 12:51 31.01.2022
3994 Clouds 9 1010 43 10000 8.75 270 11:59 31.01.2022
3995 Clear 7 1011 49 10000 9.26 270 10:52 31.01.2022
3996 Clear 7 1011 49 10000 8.75 280 10:34 31.01.2022
3997 Clear 6 1011 75 10000 8.23 270 09:27 31.01.2022
3998 Clear 5 1012 75 10000 7.72 260 08:52 31.01.2022
3999 Clear 5 1012 75 10000 7.72 260 08:52 31.01.2022
4000 Clear 4 1012 80 10000 5.14 260 08:20 31.01.2022
4001 Clear 2 1011 79 10000 3.6 220 06:21 31.01.2022
4002 Clear 2 1010 88 10000 3.09 300 03:33 31.01.2022
4003 Clear 4 1008 80 10000 8.75 280 23:19 30.01.2022
4004 Clear 5 1008 77 10000 7.72 280 22:29 30.01.2022
4005 Clear 5 1008 77 10000 8.75 280 21:42 30.01.2022
4006 Clear 5 1008 77 10000 7.72 280 21:19 30.01.2022
4007 Clear 6 1007 75 10000 8.23 280 20:49 30.01.2022
4008 Clear 6 1007 77 10000 5.14 280 20:29 30.01.2022
4009 Clear 5 1007 75 10000 3.6 290 19:52 30.01.2022
4010 Clouds 5 1007 75 10000 3.6 290 18:44 30.01.2022
4011 Clouds 4 1007 60 10000 3.6 320 18:20 30.01.2022
4012 Clouds 4 1007 56 10000 3.09 310 17:27 30.01.2022
4013 Clouds 4 1007 56 10000 3.6 290 16:40 30.01.2022
4014 Clouds 4 1007 56 10000 3.6 290 16:40 30.01.2022
4015 Clouds 5 1008 52 10000 5.14 280 16:22 30.01.2022
4016 Clouds 7 1008 45 10000 4.12 260 15:51 30.01.2022
4017 Clouds 6 1008 49 10000 3.09 280 15:32 30.01.2022
4018 Clouds 6 1008 52 10000 5.14 240 14:46 30.01.2022
4019 Clouds 2 1011 87 10000 2.06 0 12:47 30.01.2022
4020 Clouds 1 1011 93 10000 1.03 0 12:25 30.01.2022
4021 Rain 3 1014 77 10000 5.14 280 10:36 30.01.2022
4022 Clouds 3 1014 79 10000 3.09 240 09:56 30.01.2022
4023 Clear 2 1015 85 10000 1.03 0 08:56 30.01.2022
4024 Clear -1 1015 88 10000 2.57 270 07:29 30.01.2022
4025 Clear -1 1020 92 10000 0 0 01:56 30.01.2022
4026 Clear -1 1021 92 10000 1.03 0 00:34 30.01.2022
4027 Clear 0 1022 88 10000 1.54 310 23:20 29.01.2022
4028 Clear 0 1022 88 10000 1.03 0 21:50 29.01.2022
4029 Clear 1 1022 82 10000 2.06 30 21:24 29.01.2022
4030 Clouds 1 1023 85 10000 1.54 40 20:32 29.01.2022
4031 Clouds 2 1023 82 10000 1.54 20 19:34 29.01.2022
4032 Clear 2 1023 82 10000 2.06 20 18:52 29.01.2022
4033 Clouds 2 1023 79 10000 0 0 18:24 29.01.2022
4034 Clouds 4 1023 75 10000 2.06 120 17:31 29.01.2022
4035 Clouds 5 1022 73 10000 2.57 130 16:25 29.01.2022
4036 Clear 7 1022 69 10000 4.12 130 14:23 29.01.2022
4037 Clear 8 1022 67 10000 4.63 130 13:44 29.01.2022
4038 Clear 7 1022 67 10000 1.03 0 13:24 29.01.2022
4039 Clouds 8 1022 46 10000 2.57 40 11:49 29.01.2022
4040 Clouds 7 1023 49 10000 3.6 0 11:24 29.01.2022
4041 Clear 3 1022 70 10000 4.63 290 08:43 29.01.2022
4042 Clear 1 1021 88 10000 5.14 250 06:55 29.01.2022
4043 Clear 3 1018 80 10000 7.72 280 00:35 29.01.2022
4044 Clear 4 1018 80 10000 8.75 280 23:51 28.01.2022
4045 Clear 4 1018 77 10000 8.23 270 22:50 28.01.2022
4046 Clear 4 1018 80 10000 8.23 260 22:21 28.01.2022
4047 Clear 5 1017 77 10000 8.75 270 21:35 28.01.2022
4048 Clear 5 1017 77 10000 8.75 270 20:29 28.01.2022
4049 Clouds 6 1016 75 10000 7.2 280 19:28 28.01.2022
4050 Clouds 6 1016 78 10000 8.75 280 18:42 28.01.2022
4051 Clouds 8 1015 53 10000 7.72 270 16:45 28.01.2022
4052 Clear 12 1014 37 10000 9.77 290 14:59 28.01.2022
4053 Clear 11 1014 37 10000 7.2 270 13:34 28.01.2022
4054 Clear 10 1015 37 10000 9.26 280 12:27 28.01.2022
4055 Clear 7 1016 42 10000 4.12 260 10:41 28.01.2022
4056 Clear 6 1016 45 10000 5.14 260 09:48 28.01.2022
4057 Clear 3 1016 74 10000 2.06 360 07:43 28.01.2022
4058 Clear 1 1017 77 10000 2.57 330 06:32 28.01.2022
4059 Clear 0 1018 85 10000 2.06 350 03:52 28.01.2022
4060 Clear 1 1019 82 10000 0 0 02:29 28.01.2022
4061 Clear 1 1019 88 10000 0 0 01:57 28.01.2022
4062 Clear 1 1019 88 10000 2.57 330 01:30 28.01.2022
4063 Clear 1 1021 82 10000 1.03 0 22:40 27.01.2022
4064 Clear 2 1021 79 10000 2.06 290 21:41 27.01.2022
4065 Clear 2 1021 79 10000 2.06 290 21:21 27.01.2022
4066 Clear 3 1022 79 10000 1.54 280 19:47 27.01.2022
4067 Clear 4 1022 60 10000 2.57 280 18:22 27.01.2022
4068 Clear 4 1022 60 10000 2.57 260 16:59 27.01.2022
4069 Clear 7 1022 71 10000 7.2 270 14:23 27.01.2022
4070 Clear 7 1023 73 10000 6.17 270 12:53 27.01.2022
4071 Clear 5 1023 56 10000 5.66 260 12:18 27.01.2022
4072 Clear 3 1024 83 10000 5.14 270 09:49 27.01.2022
4073 Clear 1 1023 86 10000 4.63 240 08:40 27.01.2022
4074 Clear 1 1023 86 10000 3.09 260 07:53 27.01.2022
4075 Clear 1 1022 82 10000 2.06 270 03:34 27.01.2022
4076 Clear 1 1022 82 10000 4.12 250 00:24 27.01.2022
4077 Clear 1 1022 86 10000 3.6 250 22:28 26.01.2022
4078 Clouds 1 1022 86 10000 3.6 270 21:44 26.01.2022
4079 Clouds 1 1022 86 10000 5.14 250 20:52 26.01.2022
4080 Clouds 1 1022 86 10000 5.14 250 20:32 26.01.2022
4081 Clear 1 1022 86 10000 5.14 280 19:49 26.01.2022
4082 Clouds 2 1022 74 10000 5.14 280 18:48 26.01.2022
4083 Clouds 1 1022 77 10000 5.14 280 18:24 26.01.2022
4084 Clouds 2 1022 72 10000 5.14 290 17:33 26.01.2022
4085 Clouds 2 1021 74 10000 5.14 290 16:49 26.01.2022
4086 Clouds 2 1021 72 10000 6.17 280 16:22 26.01.2022
4087 Clouds 3 1020 68 10000 6.17 290 14:40 26.01.2022
4088 Clear 2 1021 68 10000 6.69 280 12:20 26.01.2022
4089 Clouds 0 1022 55 10000 6.69 260 10:52 26.01.2022
4090 Clouds 0 1022 55 10000 6.69 260 10:52 26.01.2022
4091 Clouds 0 1022 79 10000 6.17 270 09:52 26.01.2022
4092 Clouds -2 1022 88 10000 4.12 260 08:49 26.01.2022
4093 Clouds -3 1022 79 10000 4.63 290 06:36 26.01.2022
4094 Clear -5 1024 84 10000 4.63 270 00:24 26.01.2022
4095 Clear -4 1024 82 10000 3.09 280 23:41 25.01.2022
4096 Clear -4 1025 79 10000 4.12 270 22:48 25.01.2022
4097 Clear -4 1025 82 10000 3.6 280 22:18 25.01.2022
4098 Clear -4 1025 82 10000 3.09 300 21:27 25.01.2022
4099 Clear -4 1025 82 10000 3.09 290 20:45 25.01.2022
4100 Clear -3 1025 82 10000 3.09 290 19:54 25.01.2022
4101 Clear -3 1025 82 10000 3.09 310 19:28 25.01.2022
4102 Clear -2 1025 77 10000 4.12 290 17:56 25.01.2022
4103 Clear -1 1025 74 10000 4.63 270 17:20 25.01.2022
4104 Clear -1 1025 68 10000 4.63 320 16:34 25.01.2022
4105 Clear 0 1025 60 10000 6.69 320 15:39 25.01.2022
4106 Clear 0 1025 59 10000 6.69 320 15:19 25.01.2022
4107 Clear 0 1025 56 10000 7.2 310 14:51 25.01.2022
4108 Clear 0 1027 43 10000 6.69 320 12:20 25.01.2022
4109 Clear -3 1028 63 10000 5.14 320 09:25 25.01.2022
4110 Clear -4 1029 68 10000 6.17 300 07:52 25.01.2022
4111 Clear -5 1029 88 10000 4.63 290 06:55 25.01.2022
4112 Clear -5 1029 88 10000 4.63 300 05:23 25.01.2022
4113 Clouds -5 1031 84 10000 5.14 310 00:31 25.01.2022
4114 Clear -5 1032 83 10000 4.63 290 23:36 24.01.2022
4115 Clear -5 1032 84 10000 4.63 290 23:18 24.01.2022
4116 Clear -5 1032 83 10000 4.63 270 22:42 24.01.2022
4117 Clear -5 1031 87 10000 4.12 310 21:58 24.01.2022
4118 Clear -5 1031 87 10000 4.12 310 21:32 24.01.2022
4119 Clear -5 1031 85 10000 3.09 300 20:38 24.01.2022
4120 Clear -5 1031 85 10000 3.09 300 20:20 24.01.2022
4121 Clear -4 1031 88 10000 4.12 350 19:38 24.01.2022
4122 Clear -3 1031 85 10000 4.63 350 18:47 24.01.2022
4123 Clouds -2 1030 85 10000 5.66 340 17:24 24.01.2022
4124 Clouds -2 1030 85 10000 6.17 340 16:58 24.01.2022
4125 Clouds -2 1030 85 10000 6.17 340 16:58 24.01.2022
4126 Clouds -2 1030 85 10000 6.17 340 16:58 24.01.2022
4127 Clouds -2 1029 85 10000 7.72 350 16:30 24.01.2022
4128 Clouds -1 1028 85 10000 7.72 360 14:54 24.01.2022
4129 Clouds -2 1028 74 10000 3.6 320 13:39 24.01.2022
4130 Clouds -2 1028 74 10000 5.14 0 12:33 24.01.2022
4131 Clouds -1 1027 69 10000 10.29 360 11:21 24.01.2022
4132 Clouds -2 1027 82 10000 10.8 10 09:50 24.01.2022
4133 Clouds -2 1026 85 10000 11.32 10 09:25 24.01.2022
4134 Clouds -3 1026 88 10000 8.75 10 07:28 24.01.2022
4135 Clear -2 1023 88 10000 9.77 10 01:34 24.01.2022
4136 Clear -2 1022 88 10000 8.75 360 00:47 24.01.2022
4137 Clear -2 1023 88 10000 7.2 10 00:28 24.01.2022
4138 Clouds -2 1023 88 10000 3.09 310 22:46 23.01.2022
4139 Clouds -2 1023 92 10000 1.54 300 21:51 23.01.2022
4140 Clear -3 1023 92 10000 4.12 310 21:27 23.01.2022
4141 Clear -3 1022 92 10000 4.63 280 20:54 23.01.2022
4142 Clear -2 1022 88 10000 4.63 280 19:55 23.01.2022
4143 Clear -1 1022 88 10000 4.12 260 18:52 23.01.2022
4144 Clear -1 1021 85 10000 2.06 280 17:54 23.01.2022
4145 Clouds 0 1021 79 10000 6.17 340 16:52 23.01.2022
4146 Clouds 1 1020 69 10000 6.69 320 15:18 23.01.2022
4147 Clear 1 1020 69 10000 6.69 320 14:33 23.01.2022
4148 Clouds 2 1019 67 10000 6.69 320 13:27 23.01.2022
4149 Clouds 2 1019 67 10000 6.17 340 12:36 23.01.2022
4150 Clouds 2 1019 69 10000 6.69 330 12:18 23.01.2022
4151 Clouds 1 1020 72 10000 7.72 330 11:24 23.01.2022
4152 Clouds 1 1020 74 10000 7.72 330 10:57 23.01.2022
4153 Clear 0 1020 77 10000 8.75 310 10:21 23.01.2022
4154 Clear 0 1020 79 10000 7.2 310 09:22 23.01.2022
4155 Clear -4 1019 88 10000 6.17 340 05:59 23.01.2022
4156 Clear -3 1018 82 10000 5.66 360 02:25 23.01.2022
4157 Clear -3 1017 85 10000 6.69 360 01:35 23.01.2022
4158 Clear -3 1017 85 10000 7.2 360 00:41 23.01.2022
4159 Clear -3 1017 82 10000 6.17 350 23:57 22.01.2022
4160 Clear -3 1017 82 10000 7.2 330 22:47 22.01.2022
4161 Clear -2 1017 82 10000 3.6 330 21:38 22.01.2022
4162 Clear -2 1016 85 10000 3.09 310 20:24 22.01.2022
4163 Clear -3 1016 88 10000 2.57 320 19:27 22.01.2022
4164 Clear -2 1016 85 10000 2.06 350 18:29 22.01.2022
4165 Clear -2 1015 85 10000 2.57 330 17:41 22.01.2022
4166 Clouds -1 1015 79 10000 4.12 330 16:57 22.01.2022
4167 Clouds 0 1014 74 10000 3.09 320 15:55 22.01.2022
4168 Clouds 0 1014 77 10000 2.06 270 15:37 22.01.2022
4169 Clouds 2 1014 66 10000 4.63 310 13:59 22.01.2022
4170 Clouds 3 1014 65 10000 5.14 270 12:55 22.01.2022
4171 Clouds 2 1015 51 10000 6.17 290 12:30 22.01.2022
4172 Clouds 2 1015 51 10000 6.17 270 11:49 22.01.2022
4173 Clear 0 1016 59 10000 5.14 250 10:31 22.01.2022
4174 Clear 1 1016 79 10000 4.63 250 09:59 22.01.2022
4175 Clear -1 1017 85 10000 5.66 280 08:53 22.01.2022
4176 Clear -2 1016 85 10000 3.09 270 08:27 22.01.2022
4177 Clear -3 1016 88 10000 4.12 290 05:20 22.01.2022
4178 Clear -2 1018 88 10000 3.6 260 01:58 22.01.2022
4179 Clear -2 1018 88 10000 2.57 230 23:48 21.01.2022
4180 Clear -1 1018 85 10000 3.09 250 22:41 21.01.2022
4181 Clear 0 1017 79 10000 6.17 290 20:45 21.01.2022
4182 Clear 2 1017 77 10000 4.12 290 18:41 21.01.2022
4183 Clear 2 1017 77 10000 5.14 280 17:45 21.01.2022
4184 Clouds 3 1016 77 10000 4.63 280 15:47 21.01.2022
4185 Clouds 3 1016 89 10000 3.09 330 14:37 21.01.2022
4186 Clouds 4 1017 75 10000 6.17 300 12:40 21.01.2022
4187 Clouds 4 1017 83 10000 8.23 300 11:29 21.01.2022
4188 Clouds 4 1017 86 10000 6.69 280 10:22 21.01.2022
4189 Rain 4 1016 86 10000 7.2 280 08:25 21.01.2022
4190 Rain 4 1016 86 10000 7.2 280 08:25 21.01.2022
4191 Clouds 5 1015 86 10000 4.12 290 07:19 21.01.2022
4192 Clear 3 1014 73 10000 3.09 310 00:59 21.01.2022
4193 Clear 3 1015 73 10000 2.57 290 22:45 20.01.2022
4194 Clear 4 1015 70 10000 2.57 300 21:48 20.01.2022
4195 Clear 4 1015 71 10000 2.57 300 20:56 20.01.2022
4196 Clear 6 1015 42 10000 3.6 290 19:21 20.01.2022
4197 Clear 6 1015 64 10000 5.66 250 18:51 20.01.2022
4198 Clear 6 1015 45 10000 7.2 270 17:31 20.01.2022
4199 Clear 10 1015 34 10000 8.23 270 15:45 20.01.2022
4200 Clear 10 1015 32 10000 5.66 240 15:25 20.01.2022
4201 Clear 10 1016 32 10000 6.69 250 13:42 20.01.2022
4202 Clear 9 1017 36 10000 6.17 270 12:38 20.01.2022
4203 Clear 7 1018 42 10000 5.66 260 11:57 20.01.2022
4204 Clear 6 1019 45 10000 5.14 260 10:47 20.01.2022
4205 Clear 4 1019 74 10000 4.63 280 09:42 20.01.2022
4206 Clear 2 1020 77 10000 2.06 300 08:35 20.01.2022
4207 Clear -2 1021 85 10000 2.57 360 05:38 20.01.2022
4208 Clear -2 1025 88 10000 1.54 10 23:42 19.01.2022
4209 Clear -1 1026 85 10000 1.54 110 22:37 19.01.2022
4210 Clear 0 1027 85 10000 1.54 360 21:24 19.01.2022
4211 Clear 0 1027 85 10000 1.03 0 20:51 19.01.2022
4212 Clear 0 1027 79 10000 1.54 300 19:58 19.01.2022
4213 Snow 1 1027 82 10000 0 0 18:43 19.01.2022
4214 Clear 1 1028 82 10000 2.06 330 17:49 19.01.2022
4215 Clear 2 1028 72 10000 2.57 320 16:57 19.01.2022
4216 Clear 4 1028 58 10000 7.2 310 14:42 19.01.2022
4217 Clear 5 1029 53 10000 5.14 310 12:53 19.01.2022
4218 Clear 4 1029 64 10000 6.17 310 11:42 19.01.2022
4219 Clear 2 1030 51 10000 5.66 310 10:37 19.01.2022
4220 Clear 1 1032 74 10000 4.12 320 09:34 19.01.2022
4221 Clear -2 1030 82 10000 4.12 330 07:18 19.01.2022
4222 Clear -1 1029 85 10000 3.6 290 05:18 19.01.2022
4223 Clouds 0 1027 79 10000 8.75 350 23:20 18.01.2022
4224 Clouds 1 1027 77 10000 6.69 330 22:44 18.01.2022
4225 Clear 0 1025 72 10000 7.2 330 21:20 18.01.2022
4226 Clear 1 1024 72 10000 7.72 340 19:55 18.01.2022
4227 Clear 1 1024 72 10000 7.72 340 19:37 18.01.2022
4228 Clear 2 1024 74 10000 5.14 320 18:54 18.01.2022
4229 Clear 2 1023 74 10000 4.63 320 17:58 18.01.2022
4230 Clouds 3 1023 73 10000 4.63 310 16:58 18.01.2022
4231 Clouds 4 1023 70 10000 8.23 300 15:47 18.01.2022
4232 Clouds 4 1023 70 10000 8.23 300 15:47 18.01.2022
4233 Clouds 4 1023 67 10000 9.26 300 15:22 18.01.2022
4234 Clouds 6 1022 66 10000 10.8 300 12:47 18.01.2022
4235 Clear 4 1022 60 10000 7.72 280 10:47 18.01.2022
4236 Clear 2 1020 79 10000 7.2 300 08:59 18.01.2022
4237 Clouds 0 1020 88 10000 5.66 280 07:51 18.01.2022
4238 Snow 1 1013 96 4000 6.17 340 02:34 18.01.2022
4239 Clouds 6 1009 75 10000 10.8 280 23:39 17.01.2022
4240 Clear 6 1010 78 10000 7.72 270 22:26 17.01.2022
4241 Clear 6 1011 78 10000 8.75 270 21:34 17.01.2022
4242 Clear 5 1011 80 10000 10.8 280 20:24 17.01.2022
4243 Clear 6 1011 75 10000 9.77 280 18:30 17.01.2022
4244 Clouds 6 1011 75 10000 10.29 270 17:44 17.01.2022
4245 Clouds 6 1012 78 10000 11.83 280 16:40 17.01.2022
4246 Clouds 7 1012 78 10000 11.32 280 15:19 17.01.2022
4247 Clouds 7 1012 78 10000 9.26 280 14:55 17.01.2022
4248 Clouds 9 1014 70 10000 14.4 270 13:22 17.01.2022
4249 Clouds 9 1013 65 10000 13.38 280 12:55 17.01.2022
4250 Clear 9 1014 59 10000 14.4 280 11:49 17.01.2022
4251 Clear 5 1016 69 10000 2.57 260 10:21 17.01.2022
4252 Clear 5 1016 69 10000 2.57 260 10:21 17.01.2022
4253 Clear 4 1017 60 10000 2.57 280 09:34 17.01.2022
4254 Clear 1 1018 82 10000 2.57 340 07:24 17.01.2022
4255 Clear -1 1020 88 10000 2.57 360 02:55 17.01.2022
4256 Clear -1 1022 92 10000 1.54 10 00:55 17.01.2022
4257 Clear 0 1023 88 10000 1.54 50 22:22 16.01.2022
4258 Clear -1 1024 92 10000 1.54 30 20:35 16.01.2022
4259 Clear 0 1025 85 10000 1.54 20 18:51 16.01.2022
4260 Clear 0 1025 85 10000 0 0 17:59 16.01.2022
4261 Clear 2 1025 74 10000 1.54 60 16:59 16.01.2022
4262 Clear 4 1025 68 10000 0 0 16:29 16.01.2022
4263 Clear 5 1026 57 10000 3.6 230 14:30 16.01.2022
4264 Clear 5 1026 57 10000 3.6 230 14:30 16.01.2022
4265 Clear 5 1026 45 10000 4.12 230 13:33 16.01.2022
4266 Clear 5 1027 48 10000 3.09 250 12:26 16.01.2022
4267 Clear 5 1027 45 10000 2.57 260 11:38 16.01.2022
4268 Clear 4 1028 48 10000 3.09 30 10:43 16.01.2022
4269 Clear 3 1028 56 10000 3.6 210 09:58 16.01.2022
4270 Clear 4 1028 75 10000 3.6 210 09:38 16.01.2022
4271 Clear 3 1028 77 10000 3.6 230 09:20 16.01.2022
4272 Clear -2 1027 85 10000 3.6 280 07:21 16.01.2022
4273 Clear 0 1025 79 10000 4.12 330 00:36 16.01.2022
4274 Clear 1 1023 77 10000 6.17 340 22:53 15.01.2022
4275 Clear 2 1022 74 10000 6.17 360 21:22 15.01.2022
4276 Clear 2 1022 73 10000 6.69 340 20:45 15.01.2022
4277 Clear 2 1022 77 10000 4.63 340 20:22 15.01.2022
4278 Clear 3 1021 77 10000 5.14 340 19:27 15.01.2022
4279 Clear 3 1021 75 10000 5.66 340 18:20 15.01.2022
4280 Clear 5 1019 73 10000 5.14 320 16:49 15.01.2022
4281 Clear 8 1019 60 10000 9.26 310 14:38 15.01.2022
4282 Clear 8 1019 34 10000 10.8 330 12:40 15.01.2022
4283 Clear 7 1019 49 10000 9.77 310 11:26 15.01.2022
4284 Clear 6 1020 75 10000 7.2 310 09:46 15.01.2022
4285 Clear 3 1016 86 10000 6.17 320 01:58 15.01.2022
4286 Clear 4 1014 86 10000 6.69 290 23:20 14.01.2022
4287 Clear 5 1013 83 10000 8.23 300 21:18 14.01.2022
4288 Clear 5 1013 83 10000 10.29 290 20:25 14.01.2022
4289 Clear 5 1013 83 10000 8.75 290 19:50 14.01.2022
4290 Clear 5 1014 80 10000 8.75 300 18:38 14.01.2022
4291 Clear 4 1014 83 10000 5.66 280 17:36 14.01.2022
4292 Clear 5 1015 80 10000 8.23 290 16:42 14.01.2022
4293 Clear 6 1015 78 10000 10.29 290 15:30 14.01.2022
4294 Clear 7 1016 78 10000 10.29 280 14:25 14.01.2022
4295 Clear 7 1017 75 10000 10.8 280 12:48 14.01.2022
4296 Clear 6 1019 74 10000 11.32 280 11:52 14.01.2022
4297 Clear 4 1021 73 10000 10.8 280 10:30 14.01.2022
4298 Clear 1 1022 74 10000 5.66 260 08:52 14.01.2022
4299 Clear -1 1024 82 10000 8.23 270 07:30 14.01.2022
4300 Clear -3 1027 88 10000 5.66 280 02:20 14.01.2022
4301 Clear -2 1029 88 10000 6.17 260 23:40 13.01.2022
4302 Clear -2 1030 88 10000 5.14 280 21:46 13.01.2022
4303 Clear -3 1030 85 10000 5.14 260 21:27 13.01.2022
4304 Clear -3 1031 88 10000 5.66 280 19:44 13.01.2022
4305 Clear -3 1031 88 10000 6.17 280 19:23 13.01.2022
4306 Clouds -2 1031 88 10000 6.69 280 18:36 13.01.2022
4307 Clouds -1 1032 82 10000 7.2 290 16:48 13.01.2022
4308 Clouds 0 1032 82 10000 8.75 280 15:38 13.01.2022
4309 Clouds 0 1032 82 10000 7.2 290 15:18 13.01.2022
4310 Clouds 0 1032 79 10000 7.2 300 13:22 13.01.2022
4311 Clouds -2 1035 77 10000 5.14 310 10:29 13.01.2022
4312 Clear -3 1035 79 10000 3.6 270 09:22 13.01.2022
4313 Clear -5 1035 82 10000 2.06 0 08:28 13.01.2022
4314 Clear -6 1034 82 10000 3.6 340 07:58 13.01.2022
4315 Clear -6 1034 82 10000 2.06 0 07:18 13.01.2022
4316 Clear -6 1034 79 10000 3.09 280 05:20 13.01.2022
4317 Clear -5 1033 76 10000 3.6 270 03:33 13.01.2022
4318 Clear -5 1032 79 10000 3.09 290 00:56 13.01.2022
4319 Clear -6 1032 84 10000 2.06 240 23:53 12.01.2022
4320 Clear -6 1032 84 10000 2.06 240 23:32 12.01.2022
4321 Clear -6 1032 84 10000 3.6 250 21:58 12.01.2022
4322 Clear -5 1032 79 10000 4.12 270 21:24 12.01.2022
4323 Clear -5 1032 79 10000 3.6 320 20:57 12.01.2022
4324 Clear -4 1031 76 10000 4.63 350 20:19 12.01.2022
4325 Clear -4 1031 76 10000 4.63 320 18:48 12.01.2022
4326 Clear -4 1030 82 10000 1.54 260 17:53 12.01.2022
4327 Clouds -4 1030 79 10000 3.09 320 16:42 12.01.2022
4328 Clouds -2 1029 79 10000 7.2 10 14:49 12.01.2022
4329 Clouds -3 1028 63 10000 8.23 350 13:37 12.01.2022
4330 Clouds -1 1028 74 10000 6.69 350 12:56 12.01.2022
4331 Clouds -3 1028 79 10000 6.17 360 08:55 12.01.2022
4332 Clouds -3 1027 82 10000 6.69 10 07:55 12.01.2022
4333 Clouds -3 1027 82 10000 6.69 10 07:32 12.01.2022
4334 Clouds -2 1025 82 10000 6.69 360 01:34 12.01.2022
4335 Clouds -2 1024 85 10000 4.12 0 23:25 11.01.2022
4336 Clouds -2 1025 85 10000 6.69 20 22:24 11.01.2022
4337 Clouds -2 1024 85 10000 4.63 20 21:28 11.01.2022
4338 Clouds -1 1024 85 10000 4.63 0 20:35 11.01.2022
4339 Clouds -1 1022 85 10000 2.57 0 18:52 11.01.2022
4340 Clouds -1 1022 88 10000 6.17 10 17:46 11.01.2022
4341 Clouds -1 1021 88 10000 3.6 0 16:39 11.01.2022
4342 Clouds -1 1021 88 10000 3.6 0 16:18 11.01.2022
4343 Clouds -1 1021 88 10000 2.57 40 14:44 11.01.2022
4344 Clouds -1 1020 91 10000 6.17 30 14:18 11.01.2022
4345 Clouds 0 1020 91 10000 4.12 10 13:42 11.01.2022
4346 Clouds 0 1019 91 10000 5.14 10 13:24 11.01.2022
4347 Clouds 0 1019 91 10000 4.63 20 12:23 11.01.2022
4348 Clouds 0 1019 88 10000 4.63 50 10:25 11.01.2022
4349 Clouds 0 1017 92 10000 2.57 0 07:35 11.01.2022
4350 Clouds 2 1014 92 10000 2.57 0 02:57 11.01.2022
4351 Clouds 3 1012 96 10000 7.2 80 00:24 11.01.2022
4352 Clouds 3 1010 96 10000 13.38 20 23:38 10.01.2022
4353 Clouds 4 1010 96 10000 10.29 30 22:20 10.01.2022
4354 Clouds 5 1010 96 10000 10.29 30 21:55 10.01.2022
4355 Clouds 5 1010 96 10000 10.29 30 21:32 10.01.2022
4356 Clouds 5 1009 96 10000 10.8 30 20:58 10.01.2022
4357 Clouds 6 1009 92 10000 9.77 20 20:29 10.01.2022
4358 Rain 6 1009 96 10000 11.83 30 19:47 10.01.2022
4359 Rain 6 1008 96 10000 10.29 20 19:22 10.01.2022
4360 Rain 6 1008 96 10000 12.86 30 18:54 10.01.2022
4361 Rain 6 1008 96 10000 12.86 30 18:34 10.01.2022
4362 Clouds 8 1007 92 10000 9.26 40 16:43 10.01.2022
4363 Clouds 8 1006 96 8000 7.72 50 15:55 10.01.2022
4364 Drizzle 9 1006 96 8000 5.66 60 14:39 10.01.2022
4365 Clouds 9 1005 92 10000 4.12 80 12:31 10.01.2022
4366 Clouds 9 1004 92 10000 7.72 40 11:40 10.01.2022
4367 Clouds 9 1004 92 10000 8.23 30 10:45 10.01.2022
4368 Rain 9 1005 92 10000 2.06 0 08:57 10.01.2022
4369 Clouds 8 1004 96 9000 4.12 90 05:51 10.01.2022
4370 Mist 8 1003 100 5000 2.06 90 01:33 10.01.2022
4371 Mist 8 1003 100 3500 2.06 90 00:36 10.01.2022
4372 Mist 8 1003 100 2600 2.06 100 23:54 09.01.2022
4373 Mist 8 1004 100 2400 1.03 90 22:43 09.01.2022
4374 Drizzle 8 1004 100 3400 1.54 120 21:47 09.01.2022
4375 Mist 8 1004 100 3800 0 0 21:25 09.01.2022
4376 Mist 8 1004 100 3800 0 0 21:25 09.01.2022
4377 Drizzle 8 1004 100 3500 0.51 0 20:55 09.01.2022
4378 Drizzle 8 1004 100 3600 1.54 120 20:37 09.01.2022
4379 Mist 8 1004 100 3600 1.54 120 20:18 09.01.2022
4380 Drizzle 8 1004 100 3600 2.06 130 19:37 09.01.2022
4381 Mist 8 1004 100 4200 2.57 120 19:18 09.01.2022
4382 Mist 8 1005 100 5000 3.6 120 18:37 09.01.2022
4383 Clouds 8 1004 100 6000 3.09 120 17:48 09.01.2022
4384 Clouds 9 1004 96 6000 3.6 120 17:26 09.01.2022
4385 Clouds 9 1004 96 7000 4.12 100 16:38 09.01.2022
4386 Mist 9 1004 96 5000 3.09 100 15:38 09.01.2022
4387 Clouds 9 1004 96 8000 3.09 130 14:41 09.01.2022
4388 Clouds 10 1004 96 9000 2.57 110 14:21 09.01.2022
4389 Clouds 10 1004 92 10000 0 0 13:41 09.01.2022
4390 Clouds 9 1006 96 10000 1.03 0 11:56 09.01.2022
4391 Clouds 9 1006 96 10000 0.51 0 11:25 09.01.2022
4392 Clouds 8 1007 100 10000 2.06 150 09:55 09.01.2022
4393 Clouds 8 1007 100 10000 1.54 160 08:56 09.01.2022
4394 Fog 7 1007 100 650 2.06 140 06:21 09.01.2022
4395 Mist 8 1009 100 1600 0 0 01:28 09.01.2022
4396 Mist 8 1009 100 1600 1.54 270 00:37 09.01.2022
4397 Mist 8 1010 100 5000 0 0 23:30 08.01.2022
4398 Mist 8 1010 100 5000 0 0 22:44 08.01.2022
4399 Clouds 8 1011 100 10000 2.57 80 21:27 08.01.2022
4400 Clouds 8 1012 100 10000 3.09 110 20:43 08.01.2022
4401 Clouds 8 1012 100 9000 3.09 90 20:21 08.01.2022
4402 Drizzle 8 1013 100 4000 5.14 90 19:22 08.01.2022
4403 Clouds 8 1013 100 6000 3.6 90 17:25 08.01.2022
4404 Clouds 8 1013 100 9000 4.12 90 16:42 08.01.2022
4405 Drizzle 8 1014 100 2800 4.63 90 14:52 08.01.2022
4406 Mist 8 1014 100 2700 4.63 90 13:56 08.01.2022
4407 Clouds 7 1016 96 7000 3.09 70 11:30 08.01.2022
4408 Clouds 6 1016 96 7000 4.63 50 10:33 08.01.2022
4409 Rain 6 1017 96 8000 2.57 0 09:57 08.01.2022
4410 Rain 6 1018 92 6000 0.51 0 09:30 08.01.2022
4411 Rain 5 1019 96 10000 3.6 70 05:39 08.01.2022
4412 Rain 6 1021 92 10000 6.69 90 00:59 08.01.2022
4413 Rain 6 1021 92 10000 5.14 70 23:30 07.01.2022
4414 Rain 6 1021 92 10000 5.14 60 21:46 07.01.2022
4415 Clouds 6 1022 89 10000 5.66 60 20:26 07.01.2022
4416 Clouds 6 1022 89 10000 5.14 60 19:26 07.01.2022
4417 Clouds 6 1022 89 10000 5.14 70 18:46 07.01.2022
4418 Clouds 6 1022 89 10000 5.14 60 18:18 07.01.2022
4419 Clouds 6 1022 89 10000 5.66 60 17:23 07.01.2022
4420 Clouds 7 1021 86 10000 4.63 80 14:55 07.01.2022
4421 Clouds 7 1021 83 10000 5.14 60 13:52 07.01.2022
4422 Clouds 8 1021 80 10000 3.6 50 12:50 07.01.2022
4423 Clouds 7 1021 86 10000 3.6 290 10:18 07.01.2022
4424 Clear 6 1017 86 10000 5.66 310 02:59 07.01.2022
4425 Clear 6 1017 86 10000 4.63 290 02:21 07.01.2022
4426 Clear 6 1016 89 10000 5.14 300 01:45 07.01.2022
4427 Clear 6 1016 86 10000 5.66 280 01:23 07.01.2022
4428 Clear 7 1015 86 10000 8.23 250 00:29 07.01.2022
4429 Clear 9 1013 89 10000 5.14 270 21:56 06.01.2022
4430 Clear 10 1012 89 10000 3.6 350 20:37 06.01.2022
4431 Clear 11 1011 82 10000 1.54 360 19:54 06.01.2022
4432 Clear 10 1011 88 10000 3.09 10 19:29 06.01.2022
4433 Clear 12 1010 86 10000 2.06 10 17:51 06.01.2022
4434 Clear 13 1009 81 10000 1.03 0 17:19 06.01.2022
4435 Clear 16 1009 74 10000 2.06 220 16:22 06.01.2022
4436 Clear 16 1009 74 10000 1.54 210 15:41 06.01.2022
4437 Clear 17 1008 72 10000 2.06 220 15:20 06.01.2022
4438 Clear 18 1008 73 10000 5.14 230 14:19 06.01.2022
4439 Clear 18 1008 52 10000 6.69 250 12:59 06.01.2022
4440 Clear 17 1008 77 10000 6.69 250 11:58 06.01.2022
4441 Clear 17 1008 59 10000 6.69 260 11:29 06.01.2022
4442 Clear 15 1008 87 10000 1.03 0 09:33 06.01.2022
4443 Clear 12 1007 85 10000 2.57 260 01:57 06.01.2022
4444 Clear 11 1007 86 10000 1.54 330 23:54 05.01.2022
4445 Clear 12 1007 86 10000 2.06 20 23:19 05.01.2022
4446 Clear 11 1007 86 10000 2.57 320 22:40 05.01.2022
4447 Clear 12 1006 86 10000 0 0 21:59 05.01.2022
4448 Clear 12 1006 89 10000 0 0 21:22 05.01.2022
4449 Clear 12 1006 86 10000 2.06 290 20:21 05.01.2022
4450 Clear 12 1006 86 10000 1.54 290 19:27 05.01.2022
4451 Clear 13 1006 83 10000 1.54 160 17:50 05.01.2022
4452 Clear 12 1006 83 10000 0 0 16:56 05.01.2022
4453 Clear 15 1007 76 10000 3.09 230 15:46 05.01.2022
4454 Clear 16 1007 55 10000 4.63 230 14:50 05.01.2022
4455 Clear 17 1007 70 10000 6.69 260 13:33 05.01.2022
4456 Clear 15 1008 58 10000 0 0 11:46 05.01.2022
4457 Clear 9 1008 92 10000 2.06 320 08:20 05.01.2022
4458 Clouds 7 1008 100 8000 2.57 320 06:25 05.01.2022
4459 Clear 8 1009 96 10000 2.57 320 00:59 05.01.2022
4460 Clear 8 1009 96 10000 2.57 360 23:38 04.01.2022
4461 Clear 7 1009 92 10000 0 0 23:18 04.01.2022
4462 Clear 9 1010 83 10000 1.03 100 21:31 04.01.2022
4463 Clear 7 1011 89 10000 1.54 20 19:55 04.01.2022
4464 Clear 9 1012 80 10000 2.06 150 18:19 04.01.2022
4465 Clear 10 1012 78 10000 2.06 90 16:53 04.01.2022
4466 Clear 11 1012 74 10000 1.54 140 16:30 04.01.2022
4467 Clear 14 1013 66 10000 3.09 220 14:54 04.01.2022
4468 Clear 15 1013 59 10000 2.06 190 14:36 04.01.2022
4469 Clear 15 1013 60 10000 3.09 220 13:40 04.01.2022
4470 Clear 13 1014 54 10000 3.09 250 10:52 04.01.2022
4471 Clear 11 1015 78 10000 2.06 230 09:47 04.01.2022
4472 Clear 8 1015 89 10000 1.54 300 08:34 04.01.2022
4473 Clear 9 1012 83 10000 6.17 280 02:52 04.01.2022
4474 Clear 11 1011 80 10000 7.2 280 00:42 04.01.2022
4475 Clear 11 1011 80 10000 4.63 260 23:34 03.01.2022
4476 Clear 11 1011 80 10000 7.2 270 21:52 03.01.2022
4477 Clear 11 1011 80 10000 7.2 270 21:34 03.01.2022
4478 Clear 11 1011 80 10000 3.6 290 20:26 03.01.2022
4479 Clear 12 1011 80 10000 6.17 270 18:54 03.01.2022
4480 Clear 12 1011 78 10000 3.09 280 18:28 03.01.2022
4481 Clear 13 1010 78 10000 3.6 290 16:59 03.01.2022
4482 Clouds 13 1010 76 10000 5.14 290 15:40 03.01.2022
4483 Clear 14 1010 76 10000 6.17 270 14:31 03.01.2022
4484 Clear 14 1010 76 10000 6.17 270 14:31 03.01.2022
4485 Clear 13 1011 62 10000 7.2 270 12:48 03.01.2022
4486 Clear 14 1012 62 10000 2.06 0 11:39 03.01.2022
4487 Clear 11 1013 76 10000 1.03 0 10:37 03.01.2022
4488 Mist 8 1014 100 3800 0.51 0 08:48 03.01.2022
4489 Mist 6 1014 100 5000 1.03 0 07:36 03.01.2022
4490 Clear 5 1020 100 10000 2.06 20 00:29 03.01.2022
4491 Clouds 5 1021 96 10000 1.54 60 23:22 02.01.2022
4492 Clear 5 1021 96 10000 2.06 70 22:55 02.01.2022
4493 Clear 5 1022 96 10000 1.54 100 21:46 02.01.2022
4494 Clear 6 1023 96 10000 2.06 100 20:38 02.01.2022
4495 Clear 6 1023 92 10000 2.06 110 20:18 02.01.2022
4496 Clouds 6 1023 92 10000 2.06 100 19:30 02.01.2022
4497 Clouds 7 1024 92 10000 1.54 120 18:46 02.01.2022
4498 Clouds 7 1024 92 10000 1.54 120 18:46 02.01.2022
4499 Clouds 8 1024 89 10000 1.54 140 17:54 02.01.2022
4500 Clouds 8 1024 89 10000 1.54 140 17:36 02.01.2022
4501 Clouds 8 1024 89 10000 1.54 130 17:18 02.01.2022
4502 Clouds 8 1024 86 10000 3.09 120 16:26 02.01.2022
4503 Clouds 10 1024 83 10000 2.57 140 14:32 02.01.2022
4504 Clouds 10 1024 78 10000 2.57 350 12:50 02.01.2022
4505 Clouds 10 1025 78 10000 3.09 30 11:58 02.01.2022
4506 Clouds 10 1025 75 10000 3.6 10 11:26 02.01.2022
4507 Clouds 10 1025 75 10000 3.6 10 10:46 02.01.2022
4508 Clouds 9 1024 86 10000 3.09 0 08:46 02.01.2022
4509 Clear 9 1021 92 10000 1.54 80 03:49 02.01.2022
4510 Clear 8 1020 96 10000 1.54 340 00:58 02.01.2022
4511 Clouds 10 1020 92 10000 2.57 270 23:39 01.01.2022
4512 Clouds 10 1020 92 10000 2.57 270 23:39 01.01.2022
4513 Clouds 10 1019 92 10000 3.6 280 22:55 01.01.2022
4514 Clouds 11 1019 89 10000 3.6 280 22:21 01.01.2022
4515 Clouds 11 1019 89 10000 4.63 280 21:43 01.01.2022
4516 Clear 11 1019 89 10000 3.09 250 20:53 01.01.2022
4517 Clear 12 1018 86 10000 3.6 270 19:57 01.01.2022
4518 Clouds 12 1018 86 10000 2.06 280 18:58 01.01.2022
4519 Clouds 11 1017 89 10000 3.6 300 17:58 01.01.2022
4520 Clouds 12 1016 86 10000 3.09 250 16:37 01.01.2022
4521 Clouds 12 1016 86 10000 3.09 220 16:19 01.01.2022
4522 Clouds 13 1016 86 10000 4.12 260 15:22 01.01.2022
4523 Clear 14 1015 87 10000 4.12 260 13:46 01.01.2022
4524 Clear 14 1015 84 10000 1.54 270 12:49 01.01.2022
4525 Clouds 12 1016 89 10000 5.66 270 11:51 01.01.2022
4526 Clouds 12 1015 89 10000 3.09 240 11:22 01.01.2022
4527 Clouds 11 1016 89 10000 2.06 220 10:26 01.01.2022
4528 Rain 11 1016 86 10000 2.06 290 09:41 01.01.2022
4529 Clear 11 1016 83 10000 3.09 0 08:25 01.01.2022
4530 Clear 11 1015 86 10000 5.14 260 07:41 01.01.2022
4531 Clear 11 1015 76 10000 6.69 280 06:46 01.01.2022
4532 Clear 10 1015 86 10000 4.63 280 05:26 01.01.2022
4533 Clear 10 1015 89 10000 3.6 260 04:37 01.01.2022
4534 Clear 9 1017 92 10000 3.09 270 00:53 01.01.2022
4535 Clear 8 1018 92 10000 2.57 300 23:22 31.12.2021
4536 Clear 7 1019 92 10000 0 0 21:52 31.12.2021
4537 Clear 7 1020 89 10000 1.54 290 20:33 31.12.2021
4538 Clear 7 1020 89 10000 2.06 270 19:29 31.12.2021
4539 Clear 7 1020 81 10000 2.57 290 18:32 31.12.2021
4540 Clear 8 1020 86 10000 5.14 270 17:38 31.12.2021
4541 Clear 8 1020 89 10000 5.66 270 17:18 31.12.2021
4542 Clear 9 1020 86 10000 5.14 270 16:21 31.12.2021
4543 Clear 9 1020 86 10000 5.66 270 15:53 31.12.2021
4544 Clear 10 1020 83 10000 6.17 270 15:28 31.12.2021
4545 Clear 10 1020 83 10000 6.17 270 15:28 31.12.2021
4546 Clear 10 1019 83 10000 7.72 270 14:43 31.12.2021
4547 Clear 11 1019 80 10000 8.75 280 14:18 31.12.2021
4548 Clear 11 1019 80 10000 8.75 280 13:36 31.12.2021
4549 Clear 11 1020 83 10000 8.75 290 12:44 31.12.2021
4550 Clouds 10 1021 83 10000 8.75 290 11:43 31.12.2021
4551 Clouds 9 1021 89 10000 7.72 270 11:20 31.12.2021
4552 Clouds 8 1022 89 10000 6.69 260 10:32 31.12.2021
4553 Clouds 6 1022 96 10000 4.12 240 09:35 31.12.2021
4554 Clouds 5 1023 96 10000 4.12 260 08:56 31.12.2021
4555 Clouds 4 1023 96 10000 3.09 270 08:25 31.12.2021
4556 Clouds 3 1023 96 10000 5.66 290 07:30 31.12.2021
4557 Clouds 3 1022 92 10000 3.09 280 23:23 30.12.2021
4558 Clouds 3 1022 92 10000 3.09 280 22:33 30.12.2021
4559 Clouds 3 1022 96 10000 2.57 280 21:51 30.12.2021
4560 Clouds 3 1022 96 10000 2.57 280 21:33 30.12.2021
4561 Clouds 3 1022 96 10000 3.09 300 20:44 30.12.2021
4562 Clouds 3 1022 96 10000 3.6 290 20:24 30.12.2021
4563 Clouds 3 1022 96 10000 2.57 270 19:44 30.12.2021
4564 Clouds 3 1021 96 10000 3.6 330 18:29 30.12.2021
4565 Clouds 3 1021 96 10000 2.57 290 17:45 30.12.2021
4566 Clouds 4 1019 96 10000 4.63 330 15:58 30.12.2021
4567 Clouds 4 1019 96 10000 4.63 330 15:39 30.12.2021
4568 Clouds 4 1018 96 10000 3.09 340 14:37 30.12.2021
4569 Clouds 5 1017 93 8000 1.54 0 13:33 30.12.2021
4570 Drizzle 6 1016 100 3400 2.57 220 12:29 30.12.2021
4571 Mist 5 1016 96 4600 4.12 250 10:50 30.12.2021
4572 Clouds 5 1016 93 10000 4.12 290 09:55 30.12.2021
4573 Rain 5 1015 100 10000 3.09 270 08:49 30.12.2021
4574 Rain 4 1013 93 9000 3.09 260 06:51 30.12.2021
4575 Rain 3 1010 93 8000 1.03 0 03:41 30.12.2021
4576 Rain 3 1010 93 9000 2.57 290 02:42 30.12.2021
4577 Rain 7 1009 100 3300 4.63 340 23:42 29.12.2021
4578 Rain 6 1009 100 3000 3.09 250 23:21 29.12.2021
4579 Clouds 8 1009 100 7000 2.57 40 22:18 29.12.2021
4580 Rain 8 1009 100 7000 1.54 70 21:27 29.12.2021
4581 Rain 9 1009 100 5000 2.57 90 20:34 29.12.2021
4582 Rain 8 1009 96 8000 3.09 50 19:48 29.12.2021
4583 Rain 8 1009 100 10000 3.6 60 18:47 29.12.2021
4584 Clouds 7 1008 100 10000 6.17 50 17:54 29.12.2021
4585 Clouds 7 1008 100 10000 6.69 60 17:27 29.12.2021
4586 Clouds 7 1009 96 10000 5.66 50 16:24 29.12.2021
4587 Mist 7 1009 96 5000 2.06 100 15:45 29.12.2021
4588 Clouds 6 1009 96 10000 2.57 100 13:55 29.12.2021
4589 Rain 6 1009 96 10000 4.12 100 12:36 29.12.2021
4590 Rain 5 1010 100 5000 1.54 290 11:27 29.12.2021
4591 Clouds 4 1011 100 7000 1.54 270 09:58 29.12.2021
4592 Clouds 3 1011 100 8000 0 0 07:51 29.12.2021
4593 Rain 2 1012 100 5000 0 0 06:38 29.12.2021
4594 Rain 2 1012 96 7000 0 0 05:59 29.12.2021
4595 Rain 2 1012 96 7000 0 0 05:36 29.12.2021
4596 Clouds 2 1012 100 9000 2.57 50 02:40 29.12.2021
4597 Mist 3 1012 100 5000 1.54 70 00:22 29.12.2021
4598 Clouds 3 1013 100 7000 2.06 50 23:34 28.12.2021
4599 Clouds 3 1013 96 10000 1.54 350 22:42 28.12.2021
4600 Clouds 3 1013 92 10000 2.57 360 22:23 28.12.2021
4601 Clouds 3 1013 92 10000 2.57 360 21:36 28.12.2021
4602 Clouds 3 1013 96 10000 3.09 360 20:35 28.12.2021
4603 Clouds 3 1013 96 10000 3.6 10 18:59 28.12.2021
4604 Clouds 3 1013 93 10000 3.6 10 18:35 28.12.2021
4605 Clouds 4 1013 92 10000 2.06 350 17:57 28.12.2021
4606 Clouds 4 1012 96 10000 2.57 330 16:34 28.12.2021
4607 Clouds 4 1012 95 10000 3.09 10 15:49 28.12.2021
4608 Clouds 4 1012 95 10000 1.54 10 15:20 28.12.2021
4609 Clouds 4 1012 95 10000 3.6 360 14:46 28.12.2021
4610 Clouds 4 1012 95 10000 3.09 350 14:20 28.12.2021
4611 Clouds 5 1012 92 10000 3.09 350 13:42 28.12.2021
4612 Clouds 5 1012 92 10000 2.57 360 13:24 28.12.2021
4613 Clouds 5 1012 92 10000 1.03 0 12:39 28.12.2021
4614 Clouds 5 1012 92 10000 3.09 360 11:27 28.12.2021
4615 Clouds 4 1011 96 10000 5.66 310 07:40 28.12.2021
4616 Clouds 5 1011 92 10000 3.6 290 06:40 28.12.2021
4617 Rain 12 1009 95 10000 0.51 20 23:42 27.12.2021
4618 Rain 12 1010 92 10000 0 0 22:58 27.12.2021
4619 Rain 13 1010 89 10000 2.06 160 21:33 27.12.2021
4620 Clouds 13 1010 92 10000 1.03 0 20:46 27.12.2021
4621 Clouds 11 1010 96 9000 1.03 0 19:57 27.12.2021
4622 Clouds 11 1010 95 9000 1.03 0 19:39 27.12.2021
4623 Clouds 10 1010 96 7000 3.6 100 17:55 27.12.2021
4624 Clouds 10 1010 96 7000 3.6 100 17:55 27.12.2021
4625 Clouds 10 1010 96 7000 3.6 100 17:37 27.12.2021
4626 Clouds 10 1010 100 6000 2.06 150 16:36 27.12.2021
4627 Clouds 11 1010 96 9000 2.06 140 15:51 27.12.2021
4628 Clouds 12 1011 89 10000 3.6 110 14:31 27.12.2021
4629 Clouds 12 1011 92 10000 4.12 120 13:39 27.12.2021
4630 Clouds 12 1012 82 10000 4.63 110 11:53 27.12.2021
4631 Clouds 11 1013 87 9000 3.09 120 10:29 27.12.2021
4632 Clouds 10 1013 93 7000 2.57 120 09:39 27.12.2021
4633 Mist 7 1013 100 4000 0 0 07:35 27.12.2021
4634 Mist 7 1013 100 5000 0 0 06:38 27.12.2021
4635 Clouds 6 1014 100 6000 0 0 01:59 27.12.2021
4636 Mist 6 1014 96 4100 1.03 0 23:57 26.12.2021
4637 Mist 6 1014 96 4100 1.03 0 23:34 26.12.2021
4638 Clouds 6 1014 96 6000 0 0 21:53 26.12.2021
4639 Clouds 6 1014 96 7000 1.54 90 20:42 26.12.2021
4640 Clouds 6 1014 96 6000 1.03 0 19:46 26.12.2021
4641 Clouds 6 1014 96 8000 1.54 100 18:23 26.12.2021
4642 Clear 7 1013 92 10000 3.09 140 15:57 26.12.2021
4643 Rain 8 1012 86 10000 4.63 130 14:27 26.12.2021
4644 Clear 9 1012 84 10000 5.14 120 13:40 26.12.2021
4645 Clear 10 1012 81 10000 4.63 120 13:18 26.12.2021
4646 Clear 9 1012 76 10000 3.09 110 12:27 26.12.2021
4647 Clear 7 1012 81 10000 2.57 120 10:22 26.12.2021
4648 Clear 7 1012 71 10000 3.09 130 09:19 26.12.2021
4649 Clear 6 1012 76 10000 2.06 130 08:40 26.12.2021
4650 Clear 5 1011 81 10000 2.57 10 07:25 26.12.2021
4651 Clear 7 1011 70 10000 3.09 360 00:59 26.12.2021
4652 Clear 8 1011 66 10000 2.57 350 23:51 25.12.2021
4653 Clear 8 1011 66 10000 2.57 320 23:26 25.12.2021
4654 Clear 8 1011 76 10000 3.09 340 22:23 25.12.2021
4655 Clear 10 1011 62 10000 3.6 310 20:48 25.12.2021
4656 Clear 9 1012 61 10000 2.06 350 19:22 25.12.2021
4657 Clear 9 1012 57 10000 2.57 310 18:54 25.12.2021
4658 Clear 9 1012 61 10000 1.54 350 17:29 25.12.2021
4659 Clear 10 1011 53 10000 1.54 310 16:35 25.12.2021
4660 Clear 14 1011 44 10000 3.09 290 14:38 25.12.2021
4661 Clear 12 1011 50 10000 3.6 280 12:48 25.12.2021
4662 Clear 11 1012 50 10000 3.6 290 11:37 25.12.2021
4663 Clear 9 1013 61 10000 2.06 320 09:49 25.12.2021
4664 Clear 7 1012 61 10000 2.06 330 08:19 25.12.2021
4665 Clear 4 1010 75 10000 3.09 330 02:22 25.12.2021
4666 Clear 6 1010 65 10000 2.57 350 00:33 25.12.2021
4667 Clear 5 1010 65 10000 2.06 310 23:38 24.12.2021
4668 Clear 6 1010 60 10000 2.57 340 19:39 24.12.2021
4669 Clear 6 1011 60 10000 3.6 310 19:20 24.12.2021
4670 Clear 5 1010 56 10000 4.12 280 16:50 24.12.2021
4671 Clear 6 1010 52 10000 4.12 280 16:21 24.12.2021
4672 Clear 6 1010 52 10000 4.63 280 15:46 24.12.2021
4673 Clear 8 1010 49 10000 4.12 280 14:46 24.12.2021
4674 Clear 7 1010 55 10000 4.63 270 14:23 24.12.2021
4675 Clear 8 1010 52 10000 6.17 270 13:37 24.12.2021
4676 Clear 7 1011 53 10000 4.12 280 12:48 24.12.2021
4677 Clear 5 1012 52 10000 4.63 260 11:52 24.12.2021
4678 Clear 5 1013 48 10000 4.63 260 11:26 24.12.2021
4679 Clear 5 1014 55 10000 3.6 270 10:50 24.12.2021
4680 Clear 4 1014 56 10000 2.06 330 10:18 24.12.2021
4681 Clear 1 1015 70 10000 2.06 350 08:24 24.12.2021
4682 Clear 0 1016 74 10000 1.54 340 07:48 24.12.2021
4683 Clear -3 1020 83 10000 1.54 100 02:52 24.12.2021
4684 Clear -2 1021 80 10000 1.54 20 00:19 24.12.2021
4685 Clear -1 1022 72 10000 1.03 0 23:22 23.12.2021
4686 Clear -2 1023 73 10000 0 0 22:37 23.12.2021
4687 Clear -2 1023 73 10000 0 0 22:37 23.12.2021
4688 Clear -2 1023 77 10000 2.06 360 22:19 23.12.2021
4689 Clear -2 1024 76 10000 1.03 40 20:59 23.12.2021
4690 Clear -2 1024 78 10000 0.51 30 20:19 23.12.2021
4691 Clear -2 1025 79 10000 0.51 0 18:37 23.12.2021
4692 Clear -2 1025 78 10000 0 0 17:57 23.12.2021
4693 Clear -1 1025 55 10000 1.54 100 16:47 23.12.2021
4694 Clear 0 1026 55 10000 1.54 100 16:24 23.12.2021
4695 Clear 1 1026 50 10000 0 0 15:31 23.12.2021
4696 Clear 2 1026 47 10000 2.57 260 14:52 23.12.2021
4697 Clear 2 1026 48 10000 3.09 250 14:31 23.12.2021
4698 Clear 2 1027 41 10000 2.06 260 12:57 23.12.2021
4699 Clear 1 1028 47 10000 0.51 0 10:53 23.12.2021
4700 Clear 0 1029 69 10000 1.03 0 09:47 23.12.2021
4701 Clear -2 1029 78 10000 1.54 260 08:59 23.12.2021
4702 Clear -5 1028 81 10000 1.54 30 06:58 23.12.2021
4703 Clear -5 1028 87 10000 1.54 0 04:33 23.12.2021
4704 Clear -4 1028 81 10000 1.54 290 23:26 22.12.2021
4705 Clear -3 1028 80 10000 1.54 270 22:47 22.12.2021
4706 Clear -3 1028 81 10000 1.54 250 21:56 22.12.2021
4707 Clear -2 1027 77 10000 1.54 300 21:29 22.12.2021
4708 Clear -2 1027 72 10000 1.03 0 20:47 22.12.2021
4709 Clear -2 1027 74 10000 2.06 320 20:26 22.12.2021
4710 Clear -1 1027 73 10000 2.06 340 19:28 22.12.2021
4711 Clear -1 1027 67 10000 2.57 10 17:42 22.12.2021
4712 Clear 0 1026 65 10000 2.06 320 16:40 22.12.2021
4713 Clear 1 1026 57 10000 3.6 240 15:40 22.12.2021
4714 Clear 3 1026 45 10000 4.12 260 13:33 22.12.2021
4715 Clear 2 1027 38 10000 5.66 250 12:40 22.12.2021
4716 Clear 0 1028 69 10000 2.06 250 10:19 22.12.2021
4717 Clouds 1 1030 74 10000 0.72 239 09:38 22.12.2021
4718 Clear -6 1028 93 10000 2.06 330 07:25 22.12.2021
4719 Clear -5 1027 85 10000 1.54 10 05:43 22.12.2021
4720 Clear -6 1027 88 10000 1.54 300 05:24 22.12.2021
4721 Clear -6 1027 90 10000 1.03 280 04:49 22.12.2021
4722 Clear -5 1027 86 10000 1.54 330 04:26 22.12.2021
4723 Clear -5 1027 90 10000 1.03 0 03:32 22.12.2021
4724 Clear -5 1026 90 10000 0 0 00:47 22.12.2021
4725 Clear -3 1026 82 10000 2.06 330 22:52 21.12.2021
4726 Clear -3 1025 79 10000 4.12 10 22:28 21.12.2021
4727 Clear -3 1025 84 10000 2.06 360 21:44 21.12.2021
4728 Clear -3 1025 81 10000 2.06 340 20:55 21.12.2021
4729 Clear -2 1024 86 10000 2.57 350 20:21 21.12.2021
4730 Clear -2 1024 80 10000 2.06 0 19:41 21.12.2021
4731 Clouds -1 1023 80 10000 1.03 0 18:45 21.12.2021
4732 Clouds -1 1023 83 10000 2.57 290 18:21 21.12.2021
4733 Clouds -1 1023 83 10000 3.09 330 17:41 21.12.2021
4734 Clouds 0 1021 83 10000 2.06 350 15:59 21.12.2021
4735 Snow 0 1021 84 10000 2.06 340 15:20 21.12.2021
4736 Clouds 0 1020 87 10000 3.6 280 13:50 21.12.2021
4737 Clouds 0 1020 87 10000 4.12 10 13:30 21.12.2021
4738 Clouds 2 1019 79 10000 9.26 310 11:36 21.12.2021
4739 Clouds 2 1019 83 10000 8.23 310 10:21 21.12.2021
4740 Clear 2 1018 86 10000 6.69 270 09:19 21.12.2021
4741 Clear 0 1017 95 10000 1.03 0 07:55 21.12.2021
4742 Clear 0 1017 92 10000 4.12 270 07:26 21.12.2021
4743 Clear 0 1016 91 10000 5.14 270 05:31 21.12.2021
4744 Clear 0 1015 96 9000 4.12 330 02:40 21.12.2021
4745 Clear 0 1015 96 10000 4.63 270 23:58 20.12.2021
4746 Clear 1 1015 92 10000 4.12 260 23:24 20.12.2021
4747 Clear 1 1014 92 10000 3.6 250 22:28 20.12.2021
4748 Clear 0 1014 96 10000 3.6 250 21:43 20.12.2021
4749 Clear 0 1014 92 10000 4.12 280 21:23 20.12.2021
4750 Clear 1 1013 88 10000 3.6 310 20:42 20.12.2021
4751 Clear 1 1013 92 10000 4.12 300 19:48 20.12.2021
4752 Clouds 1 1012 92 10000 3.6 290 19:29 20.12.2021
4753 Clouds 1 1012 92 10000 5.14 270 18:53 20.12.2021
4754 Clouds 2 1011 92 10000 2.06 300 17:52 20.12.2021
4755 Clouds 2 1010 92 10000 5.66 360 16:56 20.12.2021
4756 Clouds 2 1010 92 10000 6.17 360 16:36 20.12.2021
4757 Clouds 3 1009 92 10000 5.14 340 15:47 20.12.2021
4758 Clouds 3 1009 92 10000 4.12 360 14:42 20.12.2021
4759 Clouds 5 1008 83 10000 5.14 320 12:51 20.12.2021
4760 Clouds 6 1007 83 10000 6.69 280 11:18 20.12.2021
4761 Clouds 5 1007 83 10000 6.17 280 09:47 20.12.2021
4762 Clouds 5 1007 84 10000 5.14 260 08:57 20.12.2021
4763 Clouds 4 1006 87 10000 4.63 260 08:38 20.12.2021
4764 Clouds 4 1006 90 10000 6.17 280 07:46 20.12.2021
4765 Clouds 5 1005 83 10000 7.72 260 06:40 20.12.2021
4766 Clouds 4 1006 85 10000 3.09 260 03:41 20.12.2021
4767 Clouds 4 1008 86 10000 3.09 230 23:50 19.12.2021
4768 Clear 3 1008 85 10000 0.51 0 22:44 19.12.2021
4769 Clear 3 1009 85 10000 1.54 340 21:49 19.12.2021
4770 Clear 3 1009 85 10000 1.03 0 21:25 19.12.2021
4771 Clear 2 1010 85 10000 2.06 270 20:29 19.12.2021
4772 Clear 2 1010 86 10000 1.03 0 19:45 19.12.2021
4773 Clear 1 1010 89 10000 3.6 320 18:54 19.12.2021
4774 Clear 1 1011 86 10000 3.6 310 18:20 19.12.2021
4775 Clear 1 1011 89 10000 2.57 300 17:45 19.12.2021
4776 Clear 2 1011 86 10000 2.57 260 16:55 19.12.2021
4777 Clear 4 1011 79 10000 4.12 280 15:58 19.12.2021
4778 Clear 5 1012 76 10000 6.17 280 15:25 19.12.2021
4779 Clear 5 1012 75 10000 7.2 280 14:49 19.12.2021
4780 Clear 6 1013 72 10000 8.23 290 13:41 19.12.2021
4781 Clear 6 1014 68 10000 8.23 280 13:20 19.12.2021
4782 Clear 6 1014 68 10000 7.72 280 12:33 19.12.2021
4783 Clouds 6 1016 74 10000 6.69 270 11:39 19.12.2021
4784 Clouds 4 1017 80 10000 6.17 280 10:51 19.12.2021
4785 Clouds 4 1018 82 10000 6.17 270 10:23 19.12.2021
4786 Clouds 1 1019 90 10000 2.57 290 08:55 19.12.2021
4787 Clouds -1 1019 96 10000 0 0 06:54 19.12.2021
4788 Clear -1 1022 100 10000 1.03 0 02:30 19.12.2021
4789 Clear -1 1023 92 10000 3.09 260 00:55 19.12.2021
4790 Clear 1 1023 86 10000 2.06 270 23:21 18.12.2021
4791 Clear 1 1024 82 10000 2.06 270 22:29 18.12.2021
4792 Clear 2 1024 80 10000 2.06 10 21:44 18.12.2021
4793 Clear 2 1024 82 10000 2.57 330 21:26 18.12.2021
4794 Clouds 2 1024 82 10000 2.06 320 20:43 18.12.2021
4795 Clouds 2 1024 82 10000 2.06 320 20:43 18.12.2021
4796 Clouds 2 1023 86 10000 2.57 0 19:40 18.12.2021
4797 Clouds 2 1023 83 10000 4.12 350 18:26 18.12.2021
4798 Clouds 2 1023 86 10000 4.63 360 17:49 18.12.2021
4799 Clouds 3 1023 82 10000 3.09 330 16:50 18.12.2021
4800 Clouds 3 1022 82 10000 4.12 350 16:21 18.12.2021
4801 Clouds 4 1022 79 10000 4.12 350 15:25 18.12.2021
4802 Clouds 4 1022 77 10000 6.17 10 14:19 18.12.2021
4803 Clouds 4 1022 82 10000 5.14 360 11:59 18.12.2021
4804 Clouds 4 1021 82 10000 5.14 360 10:42 18.12.2021
4805 Clouds 4 1021 85 10000 5.14 360 09:32 18.12.2021
4806 Clouds 3 1020 86 10000 2.57 0 08:36 18.12.2021
4807 Clouds 3 1020 88 10000 4.12 350 07:41 18.12.2021
4808 Clouds 1 1018 96 10000 2.57 250 01:47 18.12.2021
4809 Clouds 2 1019 95 10000 4.63 250 23:56 17.12.2021
4810 Clouds 3 1019 95 10000 4.63 260 22:51 17.12.2021
4811 Clouds 3 1018 91 10000 2.57 280 21:50 17.12.2021
4812 Clouds 3 1018 91 10000 3.09 260 20:48 17.12.2021
4813 Clouds 4 1018 91 10000 3.6 260 19:58 17.12.2021
4814 Clouds 4 1018 91 10000 3.09 240 18:40 17.12.2021
4815 Clouds 4 1018 91 10000 3.09 240 18:18 17.12.2021
4816 Clouds 5 1018 87 10000 2.57 300 16:57 17.12.2021
4817 Clouds 5 1018 87 10000 3.09 320 16:28 17.12.2021
4818 Clouds 5 1017 87 10000 3.6 270 15:51 17.12.2021
4819 Clouds 6 1017 83 10000 3.09 300 14:43 17.12.2021
4820 Clouds 6 1018 83 10000 4.63 310 13:55 17.12.2021
4821 Clouds 6 1018 83 10000 5.66 300 12:37 17.12.2021
4822 Clouds 6 1019 83 10000 5.66 320 10:42 17.12.2021
4823 Clouds 5 1019 91 10000 5.66 300 09:47 17.12.2021
4824 Clouds 4 1020 92 10000 4.63 290 08:43 17.12.2021
4825 Clouds 4 1020 91 10000 5.14 300 08:18 17.12.2021
4826 Clouds 4 1020 92 10000 4.12 280 04:57 17.12.2021
4827 Clouds 3 1021 96 8000 6.69 280 00:57 17.12.2021
4828 Clouds 3 1022 92 8000 6.17 280 22:44 16.12.2021
4829 Clouds 3 1022 92 10000 5.66 290 22:22 16.12.2021
4830 Clouds 3 1022 92 9000 5.14 290 21:43 16.12.2021
4831 Clouds 3 1022 92 10000 5.66 290 20:40 16.12.2021
4832 Clouds 3 1022 92 10000 5.14 280 19:52 16.12.2021
4833 Clouds 2 1022 96 10000 5.66 280 18:45 16.12.2021
4834 Clouds 3 1022 92 10000 5.14 280 18:26 16.12.2021
4835 Clouds 3 1022 92 10000 5.66 300 17:36 16.12.2021
4836 Clouds 3 1022 92 10000 7.2 320 16:24 16.12.2021
4837 Clouds 3 1022 92 10000 6.69 340 15:26 16.12.2021
4838 Clouds 3 1022 92 10000 8.75 330 13:45 16.12.2021
4839 Clouds 3 1023 92 8000 5.66 310 11:48 16.12.2021
4840 Rain 3 1023 92 8000 4.63 310 11:18 16.12.2021
4841 Clouds 2 1023 96 8000 4.12 290 10:39 16.12.2021
4842 Rain 2 1024 95 8000 4.12 300 09:39 16.12.2021
4843 Rain 3 1023 92 10000 4.63 330 06:23 16.12.2021
4844 Clouds 4 1023 87 10000 5.14 330 03:19 16.12.2021
4845 Clouds 3 1024 87 10000 5.14 320 23:36 15.12.2021
4846 Clouds 2 1024 86 10000 4.63 320 22:49 15.12.2021
4847 Clouds 2 1024 86 10000 5.66 330 22:19 15.12.2021
4848 Clouds 3 1024 83 10000 4.63 320 21:31 15.12.2021
4849 Clouds 3 1024 86 10000 5.66 310 20:36 15.12.2021
4850 Clouds 3 1023 87 10000 6.17 330 19:53 15.12.2021
4851 Clouds 3 1022 92 10000 5.14 330 18:41 15.12.2021
4852 Rain 3 1022 90 10000 7.2 330 18:18 15.12.2021
4853 Rain 3 1021 83 10000 8.75 340 17:40 15.12.2021
4854 Rain 3 1021 82 10000 7.2 340 16:57 15.12.2021
4855 Clouds 3 1021 81 10000 7.72 330 15:47 15.12.2021
4856 Clouds 3 1021 82 10000 7.72 330 15:29 15.12.2021
4857 Clouds 3 1021 82 10000 6.69 320 14:44 15.12.2021
4858 Clouds 3 1021 86 10000 5.14 310 13:27 15.12.2021
4859 Clouds 4 1022 82 10000 7.2 310 10:58 15.12.2021
4860 Clouds 3 1022 87 10000 6.69 300 09:31 15.12.2021
4861 Clouds 3 1022 87 10000 7.72 310 07:47 15.12.2021
4862 Clouds 2 1022 87 10000 6.17 300 02:40 15.12.2021
4863 Clouds 2 1022 86 10000 5.14 310 23:44 14.12.2021
4864 Clouds 2 1023 86 10000 3.09 310 22:49 14.12.2021
4865 Clouds 2 1023 86 10000 3.09 310 22:49 14.12.2021
4866 Clouds 2 1023 86 10000 3.09 310 22:49 14.12.2021
4867 Clouds 2 1022 86 10000 4.12 330 22:30 14.12.2021
4868 Clouds 3 1022 83 10000 2.06 310 20:57 14.12.2021
4869 Clouds 3 1022 87 10000 4.12 310 19:44 14.12.2021
4870 Clouds 3 1022 87 10000 4.12 310 19:44 14.12.2021
4871 Clouds 3 1022 88 10000 3.09 310 19:20 14.12.2021
4872 Clouds 3 1022 88 10000 3.6 310 18:29 14.12.2021
4873 Clouds 3 1022 91 10000 3.09 310 17:34 14.12.2021
4874 Clouds 3 1021 91 10000 3.09 300 16:43 14.12.2021
4875 Clouds 3 1021 92 10000 3.09 260 15:41 14.12.2021
4876 Clouds 4 1020 92 10000 2.57 0 13:32 14.12.2021
4877 Clouds 4 1021 92 10000 3.09 0 12:27 14.12.2021
4878 Clouds 4 1021 92 10000 2.57 300 11:24 14.12.2021
4879 Clouds 4 1021 92 10000 2.57 0 10:25 14.12.2021
4880 Clouds 4 1021 92 10000 3.09 0 09:53 14.12.2021
4881 Clouds 4 1021 92 8000 2.57 0 08:28 14.12.2021
4882 Drizzle 4 1021 92 7000 3.09 250 07:59 14.12.2021
4883 Clouds 4 1020 92 10000 4.12 260 05:38 14.12.2021
4884 Clouds 5 1019 92 10000 4.63 280 22:59 13.12.2021
4885 Clouds 4 1019 96 10000 4.63 270 21:54 13.12.2021
4886 Clouds 4 1019 96 8000 4.12 300 21:34 13.12.2021
4887 Clouds 4 1020 96 10000 3.6 290 20:45 13.12.2021
4888 Clouds 4 1019 96 10000 4.12 310 19:57 13.12.2021
4889 Clouds 4 1019 95 10000 5.14 300 19:19 13.12.2021
4890 Clouds 4 1019 95 10000 4.63 310 17:26 13.12.2021
4891 Clouds 4 1018 91 10000 4.63 290 15:56 13.12.2021
4892 Clouds 4 1018 91 10000 4.63 300 15:38 13.12.2021
4893 Clouds 4 1017 91 10000 6.17 290 13:47 13.12.2021
4894 Clouds 5 1017 88 10000 4.63 290 13:18 13.12.2021
4895 Clouds 5 1017 87 10000 5.66 290 12:19 13.12.2021
4896 Clouds 5 1018 86 10000 5.66 290 11:35 13.12.2021
4897 Clouds 5 1018 82 10000 5.66 290 10:47 13.12.2021
4898 Clouds 4 1018 86 10000 4.63 290 09:41 13.12.2021
4899 Rain 4 1017 87 10000 5.14 270 07:57 13.12.2021
4900 Clouds 5 1016 88 10000 5.14 280 05:36 13.12.2021
4901 Rain 5 1016 91 10000 6.17 300 03:30 13.12.2021
4902 Clouds 7 1015 95 10000 3.6 280 23:26 12.12.2021
4903 Rain 9 1015 99 7000 3.6 270 21:41 12.12.2021
4904 Clouds 10 1014 91 10000 2.06 60 20:28 12.12.2021
4905 Rain 10 1013 94 10000 1.54 80 18:43 12.12.2021
4906 Mist 10 1013 95 6000 3.09 110 17:45 12.12.2021
4907 Rain 11 1012 91 10000 0 0 16:28 12.12.2021
4908 Clouds 11 1012 91 10000 2.06 130 15:50 12.12.2021
4909 Rain 11 1012 95 10000 1.54 110 15:25 12.12.2021
4910 Rain 12 1011 91 10000 3.6 130 14:36 12.12.2021
4911 Rain 12 1011 95 10000 2.57 130 13:26 12.12.2021
4912 Rain 12 1011 95 10000 3.6 130 12:30 12.12.2021
4913 Rain 12 1011 91 10000 5.14 130 11:44 12.12.2021
4914 Rain 12 1011 92 10000 4.63 110 11:22 12.12.2021
4915 Rain 12 1011 91 10000 2.57 120 10:22 12.12.2021
4916 Rain 12 1011 91 10000 5.14 130 09:38 12.12.2021
4917 Rain 12 1011 91 10000 2.06 0 07:57 12.12.2021
4918 Rain 13 1010 92 10000 3.6 220 06:19 12.12.2021
4919 Clouds 13 1008 89 10000 6.17 110 04:56 12.12.2021
4920 Rain 13 1009 90 10000 7.72 120 03:31 12.12.2021
4921 Clear 12 1010 90 10000 5.14 100 23:44 11.12.2021
4922 Clouds 12 1011 90 10000 5.66 100 22:22 11.12.2021
4923 Clouds 12 1012 90 10000 4.12 110 21:51 11.12.2021
4924 Rain 12 1012 86 10000 5.66 130 20:51 11.12.2021
4925 Clear 12 1011 89 10000 6.69 90 19:23 11.12.2021
4926 Clear 12 1012 86 10000 7.2 120 18:52 11.12.2021
4927 Clouds 12 1012 83 10000 6.17 120 18:19 11.12.2021
4928 Clear 12 1011 86 10000 6.17 120 17:20 11.12.2021
4929 Clouds 13 1011 85 10000 5.14 120 15:52 11.12.2021
4930 Clouds 12 1011 87 10000 4.12 120 15:27 11.12.2021
4931 Clouds 13 1011 84 10000 7.72 120 12:50 11.12.2021
4932 Clouds 13 1011 84 10000 7.72 120 12:50 11.12.2021
4933 Clouds 13 1011 76 10000 5.66 120 11:25 11.12.2021
4934 Clear 12 1012 80 10000 3.6 120 09:45 11.12.2021
4935 Clouds 8 1011 89 10000 3.09 110 07:49 11.12.2021
4936 Clear 8 1010 85 10000 1.03 0 02:20 11.12.2021
4937 Clear 10 1008 82 10000 2.57 210 23:50 10.12.2021
4938 Clear 11 1008 81 10000 4.63 190 23:18 10.12.2021
4939 Clouds 11 1007 86 10000 2.06 130 21:52 10.12.2021
4940 Clouds 11 1007 90 10000 3.6 120 20:57 10.12.2021
4941 Clouds 12 1007 91 10000 3.6 120 19:21 10.12.2021
4942 Rain 12 1007 91 10000 4.12 130 17:59 10.12.2021
4943 Rain 11 1008 99 10000 2.57 90 16:56 10.12.2021
4944 Rain 12 1008 91 10000 2.06 140 16:19 10.12.2021
4945 Rain 13 1008 84 10000 5.66 150 15:39 10.12.2021
4946 Rain 14 1008 84 10000 5.66 150 15:20 10.12.2021
4947 Clouds 15 1007 72 10000 8.23 160 13:51 10.12.2021
4948 Clouds 15 1008 72 10000 7.72 150 13:26 10.12.2021
4949 Clear 15 1008 69 10000 6.69 150 12:34 10.12.2021
4950 Clear 15 1009 68 10000 6.17 140 11:28 10.12.2021
4951 Clear 15 1009 68 10000 6.17 140 11:28 10.12.2021
4952 Clear 14 1010 75 10000 6.69 150 09:54 10.12.2021
4953 Clouds 13 1010 82 10000 4.63 130 08:32 10.12.2021
4954 Clouds 13 1010 81 10000 5.14 150 05:57 10.12.2021
4955 Clouds 12 1010 88 10000 3.6 130 02:48 10.12.2021
4956 Clouds 12 1011 90 10000 5.66 120 23:54 09.12.2021
4957 Clouds 11 1011 90 10000 4.63 130 23:20 09.12.2021
4958 Clouds 11 1012 90 10000 2.57 110 22:24 09.12.2021
4959 Clouds 10 1012 94 10000 2.57 120 21:50 09.12.2021
4960 Clouds 10 1012 90 10000 3.6 120 20:41 09.12.2021
4961 Clouds 10 1012 90 10000 3.6 120 20:41 09.12.2021
4962 Clouds 10 1012 93 10000 3.09 140 20:20 09.12.2021
4963 Clear 9 1012 90 10000 4.12 100 19:21 09.12.2021
4964 Clouds 9 1012 93 10000 4.12 110 18:36 09.12.2021
4965 Clouds 9 1012 93 10000 3.6 100 17:51 09.12.2021
4966 Clear 9 1012 93 10000 2.57 130 17:25 09.12.2021
4967 Clouds 9 1012 89 10000 4.12 100 16:53 09.12.2021
4968 Clouds 10 1012 83 10000 3.09 140 15:32 09.12.2021
4969 Clouds 12 1012 72 10000 3.6 180 14:46 09.12.2021
4970 Clear 12 1012 65 10000 4.12 180 13:19 09.12.2021
4971 Clear 11 1012 66 10000 4.12 160 12:35 09.12.2021
4972 Clear 9 1013 71 10000 2.57 120 10:58 09.12.2021
4973 Clear 6 1014 89 10000 2.06 110 08:49 09.12.2021
4974 Clouds 2 1013 100 7000 1.03 80 06:19 09.12.2021
4975 Clear 2 1012 95 8000 1.54 50 02:58 09.12.2021
4976 Clear 4 1012 89 10000 3.09 330 23:43 08.12.2021
4977 Clouds 4 1012 93 9000 2.57 300 23:21 08.12.2021
4978 Clouds 4 1012 90 10000 3.09 290 22:46 08.12.2021
4979 Clouds 4 1012 93 8000 3.09 260 21:40 08.12.2021
4980 Clouds 4 1011 94 9000 3.09 260 20:59 08.12.2021
4981 Clouds 4 1011 94 10000 2.06 250 19:58 08.12.2021
4982 Clouds 4 1011 91 10000 3.6 270 19:33 08.12.2021
4983 Clouds 4 1011 94 10000 3.6 280 18:31 08.12.2021
4984 Clouds 4 1010 91 10000 4.63 280 17:26 08.12.2021
4985 Clouds 4 1009 87 10000 6.69 290 15:47 08.12.2021
4986 Clouds 4 1009 91 10000 5.14 280 15:26 08.12.2021
4987 Clouds 5 1008 86 10000 6.69 290 14:28 08.12.2021
4988 Clouds 5 1007 86 10000 8.23 280 10:54 08.12.2021
4989 Clouds 5 1007 86 10000 8.23 290 10:28 08.12.2021
4990 Clouds 4 1006 88 10000 6.17 300 08:54 08.12.2021
4991 Clouds 3 1005 91 10000 8.23 320 07:21 08.12.2021
4992 Clouds 5 1002 96 6000 6.69 290 01:40 08.12.2021
4993 Rain 6 1001 92 10000 5.66 290 23:33 07.12.2021
4994 Clouds 8 1001 87 10000 3.09 260 21:26 07.12.2021
4995 Rain 8 1000 95 10000 1.54 0 20:54 07.12.2021
4996 Rain 9 1000 100 5000 3.6 250 19:50 07.12.2021
4997 Rain 11 1000 96 9000 4.63 100 18:39 07.12.2021
4998 Rain 12 1000 96 10000 3.09 80 17:27 07.12.2021
4999 Rain 12 1000 96 10000 3.09 80 17:27 07.12.2021
5000 Rain 12 1000 96 10000 2.57 60 16:57 07.12.2021
5001 Clouds 12 1000 96 10000 1.54 110 16:28 07.12.2021
5002 Clouds 12 1000 96 10000 2.57 110 14:50 07.12.2021
5003 Rain 13 1001 91 10000 4.63 120 13:49 07.12.2021
5004 Rain 13 1001 94 10000 4.63 110 12:46 07.12.2021
5005 Clouds 13 1002 90 10000 5.14 100 11:25 07.12.2021
5006 Clouds 13 1003 94 10000 6.69 120 09:44 07.12.2021
5007 Clouds 13 1003 89 10000 3.6 110 07:55 07.12.2021
5008 Rain 13 1004 90 10000 3.6 110 05:55 07.12.2021
5009 Clear 13 1004 90 10000 4.12 140 05:27 07.12.2021
5010 Rain 12 1007 99 10000 2.57 90 23:45 06.12.2021
5011 Clouds 12 1006 93 10000 3.6 100 22:44 06.12.2021
5012 Clear 12 1006 96 10000 3.09 110 22:18 06.12.2021
5013 Clouds 13 1006 93 10000 3.09 90 21:37 06.12.2021
5014 Clouds 13 1007 93 10000 1.03 0 20:33 06.12.2021
5015 Clear 12 1007 92 10000 1.54 330 19:27 06.12.2021
5016 Clear 13 1007 89 10000 2.57 120 18:57 06.12.2021
5017 Clouds 13 1007 90 10000 3.6 120 17:55 06.12.2021
5018 Clouds 13 1007 90 10000 3.6 120 17:34 06.12.2021
5019 Clouds 13 1007 94 10000 3.09 110 16:21 06.12.2021
5020 Rain 14 1007 90 6000 4.12 160 14:51 06.12.2021
5021 Clouds 17 1006 66 10000 6.69 190 13:36 06.12.2021
5022 Clouds 17 1007 64 10000 5.66 210 12:39 06.12.2021
5023 Clouds 14 1008 79 10000 1.03 0 10:30 06.12.2021
5024 Clouds 12 1008 90 10000 2.06 150 07:41 06.12.2021
5025 Clear 11 1007 94 10000 3.09 160 03:52 06.12.2021
5026 Rain 10 1009 90 10000 0 0 22:28 05.12.2021
5027 Clouds 10 1009 93 10000 2.06 150 21:26 05.12.2021
5028 Clouds 10 1009 94 10000 2.57 130 20:58 05.12.2021
5029 Clouds 10 1009 90 10000 0 0 20:18 05.12.2021
5030 Clouds 10 1010 90 10000 1.03 0 19:26 05.12.2021
5031 Clouds 10 1010 89 10000 0 0 18:37 05.12.2021
5032 Clouds 10 1010 93 10000 0 0 17:53 05.12.2021
5033 Clouds 10 1009 89 10000 1.54 0 17:34 05.12.2021
5034 Clouds 11 1009 85 10000 2.57 160 16:38 05.12.2021
5035 Clouds 11 1009 85 10000 2.57 160 16:19 05.12.2021
5036 Clouds 12 1009 78 10000 1.54 140 14:48 05.12.2021
5037 Clouds 11 1009 78 10000 2.57 190 14:30 05.12.2021
5038 Clouds 12 1009 74 10000 4.12 190 13:36 05.12.2021
5039 Clouds 11 1009 82 10000 4.63 190 12:47 05.12.2021
5040 Clouds 11 1010 76 10000 5.14 200 12:27 05.12.2021
5041 Clouds 11 1010 82 10000 2.57 190 11:46 05.12.2021
5042 Clouds 10 1010 87 10000 2.06 110 10:43 05.12.2021
5043 Clouds 8 1011 88 10000 0 0 09:47 05.12.2021
5044 Clouds 4 1011 100 9000 1.03 0 06:30 05.12.2021
5045 Fog 2 1011 100 1900 0.51 0 01:29 05.12.2021
5046 Clouds 3 1012 100 10000 0 0 23:22 04.12.2021
5047 Clouds 3 1012 93 10000 1.54 350 21:51 04.12.2021
5048 Clouds 3 1012 93 10000 2.06 320 20:47 04.12.2021
5049 Clouds 3 1012 93 10000 3.09 300 19:54 04.12.2021
5050 Clouds 3 1012 93 10000 2.06 300 19:30 04.12.2021
5051 Clouds 3 1011 93 10000 3.09 320 17:53 04.12.2021
5052 Clouds 3 1013 93 10000 3.09 320 17:35 04.12.2021
5053 Clouds 3 1012 93 8000 5.14 300 16:47 04.12.2021
5054 Clouds 3 1012 93 10000 5.14 290 16:28 04.12.2021
5055 Clouds 4 1010 88 10000 4.63 300 13:30 04.12.2021
5056 Rain 4 1010 87 10000 5.14 270 11:41 04.12.2021
5057 Rain 4 1010 87 8000 3.09 300 11:18 04.12.2021
5058 Rain 4 1011 93 5000 6.69 360 09:44 04.12.2021
5059 Rain 4 1011 93 5000 3.6 320 08:35 04.12.2021
5060 Rain 5 1011 93 8000 4.12 0 04:43 04.12.2021
5061 Rain 6 1011 86 6000 5.66 10 03:36 04.12.2021
5062 Clouds 10 1011 76 10000 6.17 360 23:47 03.12.2021
5063 Clouds 11 1010 86 10000 3.6 320 22:53 03.12.2021
5064 Clouds 12 1010 82 10000 1.03 240 21:57 03.12.2021
5065 Clouds 13 1010 79 10000 0 0 21:23 03.12.2021
5066 Clouds 14 1010 77 10000 2.57 230 20:42 03.12.2021
5067 Clouds 14 1009 73 10000 1.03 0 19:28 03.12.2021
5068 Clear 13 1009 72 10000 2.57 300 18:23 03.12.2021
5069 Clear 13 1008 70 10000 1.03 0 17:31 03.12.2021
5070 Clouds 18 1007 55 10000 6.17 240 13:40 03.12.2021
5071 Clear 18 1006 55 10000 6.69 250 12:44 03.12.2021
5072 Clear 17 1007 55 10000 6.69 270 11:23 03.12.2021
5073 Clear 14 1008 71 10000 4.12 290 09:22 03.12.2021
5074 Clear 12 1007 74 10000 4.12 270 08:18 03.12.2021
5075 Clear 9 1007 76 10000 3.09 30 06:44 03.12.2021
5076 Clear 7 1007 76 10000 0 0 00:50 03.12.2021
5077 Clear 7 1007 80 10000 1.54 0 00:21 03.12.2021
5078 Clear 7 1007 80 10000 2.06 80 23:38 02.12.2021
5079 Clear 9 1008 76 10000 2.06 70 21:41 02.12.2021
5080 Clear 9 1008 76 10000 1.54 320 20:46 02.12.2021
5081 Clear 10 1008 74 10000 4.63 220 20:26 02.12.2021
5082 Clear 9 1008 79 10000 1.03 0 19:23 02.12.2021
5083 Clear 11 1008 70 10000 2.06 170 17:21 02.12.2021
5084 Clear 12 1008 65 10000 2.57 270 15:41 02.12.2021
5085 Clear 13 1009 54 10000 5.14 260 14:57 02.12.2021
5086 Clear 13 1008 47 10000 4.63 230 13:44 02.12.2021
5087 Clear 13 1009 47 10000 5.66 270 12:50 02.12.2021
5088 Clear 13 1009 47 10000 4.63 250 11:52 02.12.2021
5089 Clear 9 1011 57 10000 1.54 120 09:27 02.12.2021
5090 Clear 5 1011 83 10000 0 0 08:19 02.12.2021
5091 Clear 2 1012 93 10000 0.51 0 01:58 02.12.2021
5092 Clear 2 1012 87 10000 1.03 0 00:50 02.12.2021
5093 Clear 3 1013 86 10000 0 0 22:33 01.12.2021
5094 Clear 3 1012 83 10000 2.06 10 21:55 01.12.2021
5095 Clear 4 1012 83 10000 1.54 220 20:35 01.12.2021
5096 Clear 3 1012 83 10000 1.03 0 19:47 01.12.2021
5097 Clear 4 1012 79 10000 1.54 360 18:55 01.12.2021
5098 Clear 5 1012 79 10000 0 0 17:32 01.12.2021
5099 Clouds 6 1011 73 10000 2.57 300 16:37 01.12.2021
5100 Clouds 9 1010 64 10000 6.69 280 14:48 01.12.2021
5101 Clouds 10 1009 63 10000 9.77 290 13:38 01.12.2021
5102 Clouds 8 1009 68 10000 9.26 290 11:34 01.12.2021
5103 Clouds 7 1010 66 10000 7.72 290 10:41 01.12.2021
5104 Clouds 4 1010 68 10000 1.54 250 08:53 01.12.2021
5105 Clouds 3 1010 71 10000 1.54 330 08:26 01.12.2021
5106 Clouds 1 1009 69 10000 3.09 270 07:32 01.12.2021
5107 Clear 1 1009 75 10000 2.06 310 04:18 01.12.2021
5108 Clear 1 1010 80 10000 4.12 300 03:32 01.12.2021
5109 Clear 2 1010 75 10000 7.2 280 00:45 01.12.2021
5110 Clear 2 1010 75 10000 8.75 280 23:33 30.11.2021
5111 Clear 2 1010 75 10000 9.77 270 22:39 30.11.2021
5112 Clouds 3 1009 75 10000 10.8 270 20:48 30.11.2021
5113 Clouds 2 1009 80 10000 9.77 270 20:27 30.11.2021
5114 Clouds 2 1009 87 10000 8.75 270 19:47 30.11.2021
5115 Clouds 3 1008 87 10000 8.23 280 18:57 30.11.2021
5116 Clouds 3 1008 87 10000 7.2 270 17:57 30.11.2021
5117 Clouds 3 1006 93 10000 6.69 270 16:25 30.11.2021
5118 Clouds 3 1004 87 10000 5.66 270 14:35 30.11.2021
5119 Rain 3 1002 88 10000 6.17 300 13:48 30.11.2021
5120 Rain 3 1001 85 10000 6.17 320 13:22 30.11.2021
5121 Rain 3 1001 88 10000 8.23 310 12:41 30.11.2021
5122 Rain 3 999 93 10000 10.29 290 11:26 30.11.2021
5123 Rain 4 998 93 10000 8.23 300 10:36 30.11.2021
5124 Rain 8 996 93 5000 5.14 40 08:59 30.11.2021
5125 Rain 8 995 87 10000 7.2 40 08:40 30.11.2021
5126 Rain 8 995 87 10000 7.2 40 08:19 30.11.2021
5127 Rain 6 998 100 8000 1.54 20 06:39 30.11.2021
5128 Clear 4 1001 100 10000 2.06 30 01:51 30.11.2021
5129 Clear 5 1001 100 10000 3.09 10 01:28 30.11.2021
5130 Clear 6 1002 86 10000 1.54 360 23:51 29.11.2021
5131 Clear 6 1002 82 10000 2.57 360 23:19 29.11.2021
5132 Clear 6 1001 86 10000 2.06 340 22:38 29.11.2021
5133 Clear 7 1001 93 10000 2.06 320 21:56 29.11.2021
5134 Clear 7 1000 86 10000 1.03 0 21:20 29.11.2021
5135 Clear 7 1000 86 10000 2.06 330 20:54 29.11.2021
5136 Clear 8 999 89 10000 1.54 310 19:59 29.11.2021
5137 Clouds 8 999 89 9000 1.54 130 19:41 29.11.2021
5138 Clouds 8 999 89 9000 1.54 130 19:21 29.11.2021
5139 Clouds 10 1000 68 10000 6.82 293 18:42 29.11.2021
5140 Rain 10 998 72 10000 7.5 284 17:22 29.11.2021
5141 Rain 10 998 72 10000 7.5 284 16:50 29.11.2021
5142 Rain 12 997 71 10000 7.22 284 16:24 29.11.2021
5143 Rain 13 996 66 10000 7.44 277 14:47 29.11.2021
5144 Clouds 14 995 68 10000 8.64 285 14:23 29.11.2021
5145 Clouds 16 994 63 10000 12.42 272 12:59 29.11.2021
5146 Clouds 20 992 50 10000 13.58 222 12:19 29.11.2021
5147 Clouds 20 992 58 10000 12.22 214 11:28 29.11.2021
5148 Clouds 21 993 60 9000 8.75 220 09:59 29.11.2021
5149 Clouds 15 994 77 10000 2.57 10 07:26 29.11.2021
5150 Clouds 13 995 88 10000 5.14 110 05:51 29.11.2021
5151 Clouds 16 999 72 10000 1.03 0 01:24 29.11.2021
5152 Clouds 15 1000 72 10000 2.57 160 23:54 28.11.2021
5153 Clouds 15 1000 72 10000 2.57 160 23:36 28.11.2021
5154 Clear 14 1002 72 10000 4.12 180 22:18 28.11.2021
5155 Clear 12 1002 82 10000 3.09 120 21:39 28.11.2021
5156 Clear 12 1003 76 10000 2.06 140 20:40 28.11.2021
5157 Clear 14 1003 72 10000 2.57 180 19:44 28.11.2021
5158 Clear 12 1003 82 10000 1.54 70 18:40 28.11.2021
5159 Clear 13 1003 76 10000 1.54 20 17:58 28.11.2021
5160 Clear 14 1003 77 10000 3.09 240 17:34 28.11.2021
5161 Clear 13 1003 76 10000 2.06 230 16:47 28.11.2021
5162 Clear 14 1003 72 10000 2.06 260 16:27 28.11.2021
5163 Clouds 15 1003 67 10000 4.12 240 15:48 28.11.2021
5164 Clouds 15 1003 72 10000 3.09 240 14:55 28.11.2021
5165 Clouds 16 1003 72 10000 3.6 220 13:53 28.11.2021
5166 Clouds 17 1003 63 10000 5.14 230 12:54 28.11.2021
5167 Clouds 16 1002 77 10000 2.06 130 11:29 28.11.2021
5168 Clouds 15 1003 82 10000 0 0 10:23 28.11.2021
5169 Clouds 15 1003 82 10000 2.06 180 09:40 28.11.2021
5170 Clouds 13 1003 94 10000 1.03 0 08:28 28.11.2021
5171 Clear 10 1004 93 10000 2.06 70 00:49 28.11.2021
5172 Clear 10 1005 93 10000 3.6 110 21:46 27.11.2021
5173 Clear 10 1006 87 10000 2.06 50 19:50 27.11.2021
5174 Clear 10 1005 87 10000 2.06 100 18:26 27.11.2021
5175 Clear 15 1005 63 10000 1.54 0 15:59 27.11.2021
5176 Clouds 16 1005 59 10000 3.09 280 14:35 27.11.2021
5177 Clear 16 1005 59 10000 3.6 270 13:21 27.11.2021
5178 Clear 16 1005 59 10000 4.12 280 11:23 27.11.2021
5179 Clear 13 1005 76 10000 2.57 250 09:55 27.11.2021
5180 Clouds 11 1005 82 10000 1.03 0 08:53 27.11.2021
5181 Clouds 10 1004 87 10000 1.54 100 06:58 27.11.2021
5182 Clear 8 1003 93 10000 1.54 60 03:57 27.11.2021
5183 Clouds 11 1003 93 10000 0.51 0 00:23 27.11.2021
5184 Clouds 12 1003 94 9000 3.09 130 22:41 26.11.2021
5185 Clouds 12 1003 94 10000 2.06 150 22:20 26.11.2021
5186 Clouds 12 1003 94 10000 4.12 160 21:23 26.11.2021
5187 Clouds 12 1003 94 10000 3.6 160 20:40 26.11.2021
5188 Rain 12 1004 94 7000 4.63 120 19:55 26.11.2021
5189 Rain 12 1004 82 10000 4.63 140 18:45 26.11.2021
5190 Clouds 12 1005 87 10000 6.17 140 17:27 26.11.2021
5191 Clouds 12 1006 82 10000 6.17 150 16:50 26.11.2021
5192 Rain 12 1007 76 10000 5.66 140 14:57 26.11.2021
5193 Clouds 12 1009 71 10000 3.6 140 13:35 26.11.2021
5194 Clouds 12 1011 58 10000 5.14 180 10:44 26.11.2021
5195 Clear 12 1013 65 10000 4.12 150 09:53 26.11.2021
5196 Clouds 9 1014 74 10000 0 0 08:50 26.11.2021
5197 Clouds 8 1014 80 10000 0 0 08:20 26.11.2021
5198 Clouds 4 1014 87 10000 1.03 0 06:31 26.11.2021
5199 Clear 4 1015 87 10000 2.06 100 05:35 26.11.2021
5200 Clouds 4 1016 93 10000 1.54 10 03:39 26.11.2021
5201 Clouds 6 1018 83 10000 0 0 23:49 25.11.2021
5202 Clouds 7 1018 76 10000 0 0 22:34 25.11.2021
5203 Clouds 7 1019 76 10000 1.03 0 20:45 25.11.2021
5204 Clouds 7 1020 76 10000 1.03 300 19:22 25.11.2021
5205 Clouds 7 1020 79 10000 1.54 300 18:31 25.11.2021
5206 Clouds 7 1020 76 10000 2.57 140 17:28 25.11.2021
5207 Clouds 7 1020 75 10000 3.09 130 16:45 25.11.2021
5208 Clouds 8 1020 72 10000 3.6 120 16:00 25.11.2021
5209 Clouds 10 1021 65 10000 3.6 100 14:31 25.11.2021
5210 Clouds 9 1022 61 10000 1.54 120 12:57 25.11.2021
5211 Clouds 9 1022 61 10000 1.54 0 11:56 25.11.2021
5212 Clear 9 1023 61 10000 1.03 0 10:49 25.11.2021
5213 Clear 3 1024 80 6000 0 0 08:28 25.11.2021
5214 Clear 0 1025 85 10000 1.03 0 03:18 25.11.2021
5215 Clear 1 1025 85 10000 0 0 01:26 25.11.2021
5216 Clear 3 1026 71 10000 2.57 70 22:33 24.11.2021
5217 Clear 3 1026 71 10000 1.54 50 21:48 24.11.2021
5218 Clear 3 1026 71 10000 1.03 0 21:22 24.11.2021
5219 Clear 3 1026 71 10000 2.06 70 20:27 24.11.2021
5220 Clear 3 1026 70 10000 1.03 0 19:40 24.11.2021
5221 Clear 3 1027 73 10000 2.57 80 18:19 24.11.2021
5222 Clear 5 1026 68 10000 3.6 50 16:47 24.11.2021
5223 Clear 9 1026 57 10000 3.09 60 14:58 24.11.2021
5224 Clear 10 1026 57 10000 3.09 50 14:22 24.11.2021
5225 Clouds 9 1026 49 10000 3.09 50 13:35 24.11.2021
5226 Clear 9 1027 53 10000 3.09 70 11:34 24.11.2021
5227 Clear 8 1028 53 10000 3.6 70 10:58 24.11.2021
5228 Clear 8 1028 61 10000 3.6 10 10:36 24.11.2021
5229 Clear 7 1028 75 10000 4.63 10 09:33 24.11.2021
5230 Clear 3 1027 82 10000 3.09 10 07:41 24.11.2021
5231 Clouds 3 1025 87 10000 3.09 350 05:38 24.11.2021
5232 Clear 3 1025 93 10000 3.09 350 03:32 24.11.2021
5233 Clouds 7 1024 87 10000 2.06 350 23:33 23.11.2021
5234 Clouds 7 1024 87 10000 2.06 340 22:39 23.11.2021
5235 Clouds 7 1023 81 10000 2.57 340 21:45 23.11.2021
5236 Clouds 7 1022 87 10000 2.06 10 20:23 23.11.2021
5237 Clouds 8 1022 87 10000 4.12 350 19:33 23.11.2021
5238 Clouds 9 1021 78 10000 3.09 360 18:34 23.11.2021
5239 Clouds 9 1020 78 10000 5.66 10 17:31 23.11.2021
5240 Clouds 9 1019 78 10000 6.17 360 16:35 23.11.2021
5241 Clouds 9 1019 78 10000 5.14 360 15:27 23.11.2021
5242 Clouds 10 1019 78 10000 5.14 360 14:54 23.11.2021
5243 Clouds 10 1018 81 8000 3.6 350 13:20 23.11.2021
5244 Rain 11 1018 80 5000 0 0 10:28 23.11.2021
5245 Mist 10 1018 93 5000 1.03 270 09:47 23.11.2021
5246 Clouds 10 1016 87 7000 2.06 50 07:58 23.11.2021
5247 Clouds 8 1015 93 9000 0.51 0 04:53 23.11.2021
5248 Clear 8 1015 93 10000 1.03 40 03:32 23.11.2021
5249 Clouds 9 1015 80 9000 2.57 80 23:38 22.11.2021
5250 Clear 9 1015 80 10000 1.54 50 22:58 22.11.2021
5251 Clear 9 1015 77 10000 0.51 110 22:30 22.11.2021
5252 Clear 9 1015 80 10000 1.54 120 21:44 22.11.2021
5253 Clouds 9 1015 81 9000 0 0 21:19 22.11.2021
5254 Clear 9 1014 77 10000 1.03 0 20:26 22.11.2021
5255 Clear 9 1014 74 10000 1.54 60 19:20 22.11.2021
5256 Clear 10 1014 77 10000 0 0 18:40 22.11.2021
5257 Clear 11 1014 74 10000 1.54 100 17:46 22.11.2021
5258 Clear 12 1013 73 10000 2.06 130 16:31 22.11.2021
5259 Clear 15 1013 65 10000 2.06 140 15:29 22.11.2021
5260 Clear 17 1013 48 10000 2.06 230 12:48 22.11.2021
5261 Clear 15 1013 62 10000 3.09 260 11:28 22.11.2021
5262 Clear 13 1014 67 10000 4.63 270 10:19 22.11.2021
5263 Clear 11 1014 81 7000 2.57 280 08:42 22.11.2021
5264 Clear 7 1013 89 7000 1.54 320 07:24 22.11.2021
5265 Clear 6 1012 84 7000 1.03 0 00:50 22.11.2021
5266 Clear 7 1013 88 8000 1.03 0 23:19 21.11.2021
5267 Clear 8 1013 84 8000 1.54 70 22:42 21.11.2021
5268 Clear 8 1013 88 9000 2.57 90 20:44 21.11.2021
5269 Clear 9 1013 84 10000 2.06 90 20:26 21.11.2021
5270 Clear 9 1013 80 10000 2.06 110 18:49 21.11.2021
5271 Clear 11 1013 80 10000 2.57 150 17:41 21.11.2021
5272 Clear 11 1013 80 10000 2.57 130 17:19 21.11.2021
5273 Clear 16 1013 55 10000 3.6 200 14:48 21.11.2021
5274 Clear 15 1014 67 10000 4.12 100 13:57 21.11.2021
5275 Clear 15 1014 63 10000 3.09 120 12:55 21.11.2021
5276 Clear 15 1015 58 10000 2.06 210 11:58 21.11.2021
5277 Clear 14 1016 58 10000 1.03 0 11:36 21.11.2021
5278 Clear 12 1017 71 10000 1.54 290 10:19 21.11.2021
5279 Clear 11 1018 74 10000 0 0 09:25 21.11.2021
5280 Clear 7 1018 85 10000 1.03 240 08:31 21.11.2021
5281 Clear 6 1018 85 10000 1.03 0 07:50 21.11.2021
5282 Clear 2 1018 100 10000 0 0 06:23 21.11.2021
5283 Clouds 4 1018 93 10000 0 0 05:37 21.11.2021
5284 Clear 6 1019 85 10000 2.06 240 03:21 21.11.2021
5285 Clear 6 1019 85 10000 1.03 360 02:53 21.11.2021
5286 Clear 6 1019 85 10000 1.54 260 01:24 21.11.2021
5287 Clear 8 1019 78 10000 2.57 230 00:40 21.11.2021
5288 Clear 9 1019 78 10000 3.6 290 21:51 20.11.2021
5289 Clear 10 1018 75 10000 2.57 240 21:30 20.11.2021
5290 Clear 8 1018 78 10000 1.03 300 19:24 20.11.2021
5291 Clear 8 1018 78 10000 1.54 0 18:45 20.11.2021
5292 Clear 8 1017 78 10000 3.09 330 18:19 20.11.2021
5293 Clear 11 1017 72 10000 2.57 300 17:19 20.11.2021
5294 Clear 15 1016 63 10000 4.12 280 14:50 20.11.2021
5295 Clear 15 1016 63 10000 4.63 260 14:28 20.11.2021
5296 Clear 14 1016 66 10000 5.14 270 13:33 20.11.2021
5297 Clouds 13 1017 62 10000 5.66 280 11:24 20.11.2021
5298 Clouds 11 1018 69 10000 6.69 270 09:54 20.11.2021
5299 Clouds 8 1018 78 10000 3.6 280 08:26 20.11.2021
5300 Clear 7 1018 81 10000 4.63 260 05:30 20.11.2021
5301 Clear 7 1018 81 10000 3.6 250 04:51 20.11.2021
5302 Clear 7 1018 76 10000 5.14 260 03:25 20.11.2021
5303 Clear 8 1018 71 10000 5.66 280 00:42 20.11.2021
5304 Clear 8 1019 71 10000 6.69 280 23:44 19.11.2021
5305 Clear 7 1019 76 10000 5.66 270 22:52 19.11.2021
5306 Clear 6 1020 81 10000 0 0 21:22 19.11.2021
5307 Clear 6 1020 81 10000 0.51 0 20:37 19.11.2021
5308 Clear 6 1020 81 10000 0 0 19:56 19.11.2021
5309 Clear 6 1020 81 10000 2.06 330 19:34 19.11.2021
5310 Clear 6 1020 81 10000 1.54 300 18:43 19.11.2021
5311 Clear 7 1020 76 10000 3.6 280 17:39 19.11.2021
5312 Clear 9 1020 66 10000 3.6 270 16:22 19.11.2021
5313 Clouds 11 1021 62 10000 7.2 280 14:19 19.11.2021
5314 Clouds 8 1023 76 10000 5.66 270 10:52 19.11.2021
5315 Clouds 8 1024 76 10000 4.12 280 10:23 19.11.2021
5316 Clouds 7 1024 81 10000 5.66 270 08:32 19.11.2021
5317 Clear 8 1023 81 10000 3.6 250 04:55 19.11.2021
5318 Clear 8 1023 76 10000 3.6 300 03:00 19.11.2021
5319 Clear 8 1023 71 10000 4.12 340 23:53 18.11.2021
5320 Clear 7 1023 76 10000 3.6 330 22:38 18.11.2021
5321 Clear 8 1024 71 10000 5.14 270 20:56 18.11.2021
5322 Clear 7 1024 76 10000 4.12 270 20:34 18.11.2021
5323 Clear 7 1024 76 10000 4.63 260 19:59 18.11.2021
5324 Clear 7 1023 70 10000 0.51 0 19:35 18.11.2021
5325 Clear 8 1023 71 10000 3.09 340 18:35 18.11.2021
5326 Clear 7 1023 76 10000 2.06 320 17:51 18.11.2021
5327 Clear 9 1022 66 10000 1.54 350 16:45 18.11.2021
5328 Clouds 11 1022 54 10000 2.57 290 15:52 18.11.2021
5329 Clouds 11 1022 54 10000 3.6 310 14:18 18.11.2021
5330 Clouds 11 1023 54 10000 4.12 300 12:34 18.11.2021
5331 Clouds 12 1023 50 10000 4.63 290 11:43 18.11.2021
5332 Clouds 11 1023 54 10000 4.12 240 11:25 18.11.2021
5333 Clear 11 1024 54 10000 3.09 230 10:19 18.11.2021
5334 Clouds 6 1024 87 10000 0 0 07:39 18.11.2021
5335 Clouds 5 1023 81 10000 2.06 360 05:59 18.11.2021
5336 Clear 5 1023 87 10000 2.57 10 05:39 18.11.2021
5337 Clouds 7 1023 70 10000 2.57 320 01:24 18.11.2021
5338 Clouds 7 1023 70 10000 2.57 320 01:24 18.11.2021
5339 Clouds 7 1024 76 10000 2.06 280 23:25 17.11.2021
5340 Clouds 7 1024 76 10000 1.54 320 22:34 17.11.2021
5341 Clouds 7 1024 79 10000 2.06 300 21:54 17.11.2021
5342 Clouds 7 1024 76 10000 2.06 300 21:34 17.11.2021
5343 Clouds 7 1024 76 10000 2.57 10 19:22 17.11.2021
5344 Clouds 7 1023 76 10000 3.6 350 17:31 17.11.2021
5345 Clouds 8 1023 73 10000 5.14 360 14:53 17.11.2021
5346 Clouds 9 1023 67 10000 4.12 350 12:42 17.11.2021
5347 Clouds 9 1024 66 10000 3.6 340 11:52 17.11.2021
5348 Clouds 9 1024 70 10000 3.6 360 10:50 17.11.2021
5349 Clouds 8 1025 73 10000 3.6 30 09:27 17.11.2021
5350 Clouds 7 1025 76 10000 2.57 20 07:45 17.11.2021
5351 Clouds 7 1024 76 10000 4.63 50 06:20 17.11.2021
5352 Clouds 7 1025 76 10000 2.06 320 02:42 17.11.2021
5353 Clouds 7 1026 70 10000 5.66 20 23:27 16.11.2021
5354 Clouds 7 1026 70 10000 6.17 20 21:51 16.11.2021
5355 Clouds 7 1027 73 10000 5.66 20 20:19 16.11.2021
5356 Clouds 7 1028 73 10000 3.09 40 18:56 16.11.2021
5357 Clouds 8 1028 73 10000 7.2 40 18:36 16.11.2021
5358 Clouds 8 1028 73 10000 7.2 40 18:36 16.11.2021
5359 Clouds 9 1028 74 10000 5.66 50 17:44 16.11.2021
5360 Clouds 9 1028 77 10000 6.69 50 16:58 16.11.2021
5361 Clouds 10 1028 74 10000 6.69 60 16:18 16.11.2021
5362 Clouds 10 1028 76 10000 5.14 50 15:41 16.11.2021
5363 Clouds 10 1029 79 10000 4.63 10 12:40 16.11.2021
5364 Clouds 9 1030 79 10000 6.17 10 09:49 16.11.2021
5365 Clouds 9 1029 79 10000 7.2 30 08:50 16.11.2021
5366 Clouds 8 1029 79 10000 6.17 20 07:34 16.11.2021
5367 Clouds 7 1028 81 10000 6.69 20 04:45 16.11.2021
5368 Clouds 7 1029 79 10000 5.14 10 23:24 15.11.2021
5369 Clouds 8 1029 78 10000 3.6 10 22:40 15.11.2021
5370 Clouds 8 1029 78 10000 4.63 10 21:55 15.11.2021
5371 Clouds 9 1029 76 10000 5.14 10 21:30 15.11.2021
5372 Clouds 9 1028 76 10000 5.66 10 20:29 15.11.2021
5373 Clouds 10 1028 73 10000 4.63 30 18:53 15.11.2021
5374 Clouds 10 1027 78 10000 4.63 20 16:56 15.11.2021
5375 Clouds 10 1026 76 10000 5.14 30 15:48 15.11.2021
5376 Clouds 10 1026 76 10000 5.14 30 15:48 15.11.2021
5377 Clouds 11 1026 72 10000 5.14 40 15:29 15.11.2021
5378 Clear 13 1026 65 10000 5.14 50 13:49 15.11.2021
5379 Clouds 13 1025 70 10000 3.09 0 12:18 15.11.2021
5380 Clouds 10 1025 78 10000 3.6 360 09:30 15.11.2021
5381 Clouds 9 1025 85 10000 1.54 0 07:59 15.11.2021
5382 Clouds 9 1024 93 10000 3.6 360 06:21 15.11.2021
5383 Clouds 9 1023 84 8000 2.06 310 00:33 15.11.2021
5384 Clouds 9 1023 84 8000 0 0 22:39 14.11.2021
5385 Clear 10 1022 81 10000 1.03 0 20:51 14.11.2021
5386 Clear 11 1022 78 10000 1.54 60 19:18 14.11.2021
5387 Clouds 10 1022 78 10000 2.06 80 18:54 14.11.2021
5388 Clouds 10 1022 81 10000 2.57 30 18:36 14.11.2021
5389 Clouds 10 1022 81 10000 2.57 30 18:18 14.11.2021
5390 Clouds 10 1022 81 10000 2.06 40 17:57 14.11.2021
5391 Clouds 11 1021 78 10000 2.06 50 17:39 14.11.2021
5392 Clouds 11 1021 78 10000 2.06 50 17:21 14.11.2021
5393 Clouds 11 1021 80 10000 2.57 110 16:50 14.11.2021
5394 Clouds 12 1021 80 10000 3.6 120 16:21 14.11.2021
5395 Clouds 13 1021 77 10000 3.6 120 15:51 14.11.2021
5396 Clouds 14 1021 73 10000 3.09 130 15:19 14.11.2021
5397 Clouds 16 1021 63 10000 1.03 0 14:33 14.11.2021
5398 Clouds 15 1021 63 10000 0 0 13:59 14.11.2021
5399 Clouds 14 1021 67 10000 0 0 13:40 14.11.2021
5400 Clouds 14 1021 67 10000 1.03 0 12:45 14.11.2021
5401 Clouds 14 1021 67 10000 0 0 12:18 14.11.2021
5402 Clouds 15 1021 63 10000 2.06 0 10:50 14.11.2021
5403 Clouds 14 1022 72 10000 2.06 210 10:27 14.11.2021
5404 Clouds 13 1022 74 7000 1.03 0 08:57 14.11.2021
5405 Mist 10 1022 81 5000 0 0 07:28 14.11.2021
5406 Clouds 10 1021 81 10000 0 0 01:25 14.11.2021
5407 Clouds 11 1022 75 10000 0 0 22:27 13.11.2021
5408 Clouds 11 1022 75 10000 0 0 22:27 13.11.2021
5409 Clouds 12 1022 69 10000 1.54 140 21:57 13.11.2021
5410 Clouds 12 1022 71 10000 3.09 130 21:27 13.11.2021
5411 Clouds 11 1022 71 10000 1.03 0 19:50 13.11.2021
5412 Clouds 11 1022 74 10000 2.06 80 18:48 13.11.2021
5413 Clouds 12 1022 71 10000 3.09 110 18:26 13.11.2021
5414 Clouds 12 1022 71 10000 3.09 100 16:40 13.11.2021
5415 Clouds 13 1021 68 10000 2.57 130 15:37 13.11.2021
5416 Clouds 13 1022 67 10000 4.12 140 14:33 13.11.2021
5417 Clouds 13 1022 67 10000 4.63 130 13:38 13.11.2021
5418 Clouds 14 1022 67 10000 4.63 120 12:28 13.11.2021
5419 Clouds 14 1023 69 10000 3.6 120 11:38 13.11.2021
5420 Clouds 13 1023 69 10000 4.12 130 10:45 13.11.2021
5421 Clouds 13 1023 69 10000 5.14 110 10:22 13.11.2021
5422 Clouds 12 1023 75 10000 1.54 130 09:38 13.11.2021
5423 Clouds 11 1023 81 10000 0 0 08:56 13.11.2021
5424 Clouds 11 1023 81 10000 0 0 08:31 13.11.2021
5425 Clouds 8 1022 93 10000 0 0 05:59 13.11.2021
5426 Clouds 7 1022 93 10000 1.03 0 04:30 13.11.2021
5427 Clouds 8 1022 93 10000 1.03 20 01:38 13.11.2021
5428 Clouds 7 1023 93 10000 1.03 0 22:58 12.11.2021
5429 Clouds 6 1023 100 10000 1.03 0 21:49 12.11.2021
5430 Clouds 6 1022 93 10000 1.54 20 19:55 12.11.2021
5431 Clouds 6 1022 93 10000 1.54 30 19:28 12.11.2021
5432 Clouds 6 1022 93 10000 2.06 30 18:46 12.11.2021
5433 Clear 10 1022 76 10000 3.09 120 16:39 12.11.2021
5434 Clear 12 1022 71 10000 3.6 130 15:33 12.11.2021
5435 Clear 12 1022 71 10000 3.6 130 15:33 12.11.2021
5436 Clear 13 1023 67 10000 3.6 100 11:58 12.11.2021
5437 Clouds 12 1023 71 10000 2.57 110 10:51 12.11.2021
5438 Clouds 12 1024 71 10000 0 0 09:45 12.11.2021
5439 Mist 7 1024 93 5000 0 0 08:39 12.11.2021
5440 Clear 3 1024 100 10000 0 0 03:18 12.11.2021
5441 Clouds 6 1026 87 10000 0.51 0 23:42 11.11.2021
5442 Clouds 5 1027 93 10000 1.03 340 22:36 11.11.2021
5443 Clouds 4 1027 93 10000 1.54 0 21:27 11.11.2021
5444 Clouds 5 1028 93 10000 1.54 10 20:42 11.11.2021
5445 Clouds 5 1028 93 10000 0 0 19:24 11.11.2021
5446 Clear 7 1029 76 10000 1.54 30 17:44 11.11.2021
5447 Clear 8 1029 76 10000 2.06 70 16:58 11.11.2021
5448 Clear 11 1029 62 10000 4.12 140 14:58 11.11.2021
5449 Clear 11 1029 62 10000 4.12 130 14:29 11.11.2021
5450 Clear 11 1030 58 10000 4.63 120 13:39 11.11.2021
5451 Clear 11 1030 62 10000 3.09 110 12:50 11.11.2021
5452 Clouds 10 1031 62 10000 3.09 130 10:44 11.11.2021
5453 Mist 9 1032 81 5000 0 0 09:36 11.11.2021
5454 Mist 4 1032 93 1900 1.54 280 07:59 11.11.2021
5455 Clouds 0 1033 93 6000 2.06 250 04:45 11.11.2021
5456 Clear 2 1036 81 10000 1.03 0 23:35 10.11.2021
5457 Clear 2 1036 78 10000 0 0 22:24 10.11.2021
5458 Clear 4 1036 72 10000 2.06 90 21:21 10.11.2021
5459 Clear 3 1036 75 10000 3.09 40 20:47 10.11.2021
5460 Clear 4 1036 75 10000 4.12 60 19:47 10.11.2021
5461 Clear 4 1036 75 10000 4.12 60 19:47 10.11.2021
5462 Clear 4 1036 75 10000 2.57 70 19:24 10.11.2021
5463 Clear 6 1036 71 10000 3.6 90 16:34 10.11.2021
5464 Clear 9 1036 58 10000 2.57 90 15:28 10.11.2021
5465 Clear 9 1037 53 10000 5.14 140 13:43 10.11.2021
5466 Clear 10 1037 34 10000 3.6 100 12:50 10.11.2021
5467 Clear 8 1038 46 10000 3.6 40 10:48 10.11.2021
5468 Clear 6 1039 70 10000 1.54 0 08:45 10.11.2021
5469 Clear 4 1038 83 10000 1.54 290 07:44 10.11.2021
5470 Clouds 2 1037 87 10000 1.54 30 06:26 10.11.2021
5471 Clouds 3 1037 87 10000 2.06 320 05:51 10.11.2021
5472 Clear 6 1034 87 10000 6.17 340 23:53 09.11.2021
5473 Clouds 5 1033 93 10000 4.12 250 21:48 09.11.2021
5474 Clouds 5 1032 93 10000 4.63 280 20:32 09.11.2021
5475 Clouds 6 1031 87 10000 2.57 310 19:25 09.11.2021
5476 Rain 8 1028 87 10000 8.75 10 17:37 09.11.2021
5477 Rain 8 1026 93 8000 8.23 10 15:45 09.11.2021
5478 Drizzle 9 1025 93 5000 6.17 10 14:43 09.11.2021
5479 Clouds 10 1023 93 10000 3.6 10 12:53 09.11.2021
5480 Clouds 10 1023 93 10000 3.6 10 12:53 09.11.2021
5481 Drizzle 11 1023 86 8000 2.57 340 11:42 09.11.2021
5482 Drizzle 11 1023 93 8000 2.06 320 10:44 09.11.2021
5483 Clouds 11 1022 87 10000 1.54 0 09:24 09.11.2021
5484 Clouds 11 1022 87 10000 1.03 0 08:25 09.11.2021
5485 Clouds 12 1021 82 10000 3.09 90 05:52 09.11.2021
5486 Clouds 13 1019 83 6000 4.63 360 02:23 09.11.2021
5487 Clouds 13 1020 83 6000 4.63 350 01:45 09.11.2021
5488 Clouds 13 1019 83 6000 3.09 310 23:58 08.11.2021
5489 Clouds 13 1019 83 7000 4.12 310 22:49 08.11.2021
5490 Clouds 14 1018 83 7000 3.09 290 21:55 08.11.2021
5491 Clouds 14 1017 82 8000 3.09 320 20:53 08.11.2021
5492 Fog 13 1016 89 1000 1.03 0 19:49 08.11.2021
5493 Mist 14 1016 89 1100 2.06 210 18:25 08.11.2021
5494 Mist 14 1014 88 1700 3.09 100 16:22 08.11.2021
5495 Mist 16 1014 84 3400 5.14 120 14:58 08.11.2021
5496 Mist 16 1014 84 4400 5.66 120 14:38 08.11.2021
5497 Mist 18 1014 83 5000 5.66 100 13:31 08.11.2021
5498 Clouds 18 1014 79 6000 5.66 120 11:56 08.11.2021
5499 Mist 18 1015 87 5000 2.57 140 10:50 08.11.2021
5500 Mist 16 1015 88 1200 2.06 140 09:39 08.11.2021
5501 Mist 15 1015 89 2000 1.54 90 08:53 08.11.2021
5502 Fog 12 1015 89 250 1.03 0 07:28 08.11.2021
5503 Clouds 12 1016 100 6000 0 0 03:48 08.11.2021
5504 Mist 12 1016 100 5000 0.51 0 03:26 08.11.2021
5505 Mist 11 1017 100 4400 2.06 40 23:45 07.11.2021
5506 Clouds 12 1018 100 9000 1.54 90 21:46 07.11.2021
5507 Clouds 13 1019 89 10000 2.06 120 20:52 07.11.2021
5508 Clouds 13 1019 86 10000 2.57 130 19:25 07.11.2021
5509 Clouds 14 1020 83 10000 3.6 130 17:49 07.11.2021
5510 Clouds 14 1020 81 10000 2.57 130 16:49 07.11.2021
5511 Clouds 15 1021 81 10000 3.6 120 15:44 07.11.2021
5512 Clouds 15 1021 78 10000 3.6 150 14:28 07.11.2021
5513 Clouds 15 1023 78 10000 3.09 160 12:57 07.11.2021
5514 Clouds 15 1023 78 10000 3.09 150 11:42 07.11.2021
5515 Clouds 14 1025 88 10000 3.09 120 09:22 07.11.2021
5516 Clouds 13 1026 88 10000 3.09 110 06:46 07.11.2021
5517 Clouds 13 1026 88 10000 2.06 60 02:32 07.11.2021
5518 Clouds 11 1027 83 6000 1.54 20 22:57 06.11.2021
5519 Clouds 12 1027 83 7000 0.51 0 22:32 06.11.2021
5520 Clouds 13 1027 83 7000 2.06 20 21:28 06.11.2021
5521 Clouds 13 1027 83 9000 1.03 0 20:32 06.11.2021
5522 Clouds 13 1026 83 8000 2.06 60 18:56 06.11.2021
5523 Clouds 16 1025 76 10000 1.03 0 16:38 06.11.2021
5524 Clouds 18 1025 72 10000 4.12 10 14:31 06.11.2021
5525 Clouds 18 1025 72 10000 4.63 340 13:38 06.11.2021
5526 Clouds 18 1024 77 10000 4.12 300 11:25 06.11.2021
5527 Clear 19 1023 68 10000 5.14 300 09:21 06.11.2021
5528 Clear 15 1020 82 10000 1.54 0 04:55 06.11.2021
5529 Mist 14 1019 87 6000 1.03 0 00:58 06.11.2021
5530 Clouds 14 1018 83 8000 0 0 23:33 05.11.2021
5531 Clear 14 1018 83 10000 0 0 22:33 05.11.2021
5532 Clear 14 1018 83 10000 0 0 22:33 05.11.2021
5533 Clouds 15 1017 83 8000 1.03 80 20:42 05.11.2021
5534 Clouds 15 1017 83 8000 0 0 20:19 05.11.2021
5535 Clear 16 1017 79 10000 0 0 18:59 05.11.2021
5536 Clear 16 1017 79 10000 1.54 310 18:38 05.11.2021
5537 Clear 18 1017 75 10000 2.57 120 17:25 05.11.2021
5538 Clear 22 1016 60 10000 4.63 120 14:54 05.11.2021
5539 Clear 22 1016 56 10000 5.14 110 13:33 05.11.2021
5540 Clear 20 1018 64 10000 0.51 0 09:59 05.11.2021
5541 Clear 19 1018 72 10000 0.51 0 08:38 05.11.2021
5542 Clear 13 1017 85 10000 1.03 30 06:50 05.11.2021
5543 Clear 14 1017 94 10000 2.57 90 04:42 05.11.2021
5544 Clear 14 1017 100 10000 2.57 90 02:22 05.11.2021
5545 Clear 13 1018 84 10000 2.57 100 00:30 05.11.2021
5546 Clear 15 1018 84 10000 0.51 0 22:56 04.11.2021
5547 Clear 14 1018 88 10000 1.54 60 22:18 04.11.2021
5548 Clear 14 1018 84 10000 1.54 90 21:29 04.11.2021
5549 Clear 15 1018 81 10000 1.54 120 20:29 04.11.2021
5550 Clear 16 1018 81 10000 2.57 110 19:50 04.11.2021
5551 Clear 17 1017 74 10000 2.57 130 19:28 04.11.2021
5552 Clear 17 1017 74 10000 2.06 120 18:30 04.11.2021
5553 Clear 18 1017 71 10000 2.06 150 17:27 04.11.2021
5554 Clear 20 1017 64 10000 1.03 0 16:23 04.11.2021
5555 Clear 20 1017 64 10000 1.03 0 16:23 04.11.2021
5556 Clear 22 1017 60 10000 3.6 180 14:19 04.11.2021
5557 Clear 20 1018 60 10000 3.6 210 10:52 04.11.2021
5558 Clear 17 1018 82 10000 2.57 170 08:48 04.11.2021
5559 Clear 18 1018 82 10000 2.57 160 08:25 04.11.2021
5560 Clouds 16 1018 86 10000 3.09 120 07:33 04.11.2021
5561 Fog 13 1018 89 800 3.09 90 23:23 03.11.2021
5562 Fog 13 1018 89 550 4.12 90 22:29 03.11.2021
5563 Clouds 13 1018 88 6000 4.12 110 21:37 03.11.2021
5564 Clouds 13 1018 88 8000 4.12 90 20:44 03.11.2021
5565 Clouds 12 1018 88 7000 3.09 100 20:25 03.11.2021
5566 Clouds 13 1018 84 7000 4.12 100 19:37 03.11.2021
5567 Clouds 13 1017 84 9000 3.09 110 18:27 03.11.2021
5568 Clouds 13 1017 84 9000 3.09 110 18:27 03.11.2021
5569 Clouds 13 1017 84 9000 3.09 110 18:27 03.11.2021
5570 Clear 14 1017 81 10000 4.63 100 17:48 03.11.2021
5571 Clear 15 1016 74 10000 3.6 90 16:49 03.11.2021
5572 Clear 17 1016 67 10000 4.12 100 15:49 03.11.2021
5573 Clear 19 1016 63 10000 3.6 120 15:30 03.11.2021
5574 Clear 20 1015 56 10000 2.57 240 13:41 03.11.2021
5575 Clear 17 1015 72 10000 3.09 220 11:35 03.11.2021
5576 Clear 16 1016 77 10000 4.12 250 10:50 03.11.2021
5577 Clear 15 1015 77 10000 3.09 230 09:46 03.11.2021
5578 Clear 15 1015 81 10000 3.09 230 08:53 03.11.2021
5579 Clear 13 1014 81 10000 2.06 290 07:55 03.11.2021
5580 Clouds 12 1014 86 8000 2.57 220 07:32 03.11.2021
5581 Fog 8 1012 100 1800 2.06 280 04:23 03.11.2021
5582 Mist 10 1009 89 3000 1.54 330 00:58 03.11.2021
5583 Clouds 10 1009 89 6000 1.54 10 23:21 02.11.2021
5584 Clouds 11 1009 89 8000 2.06 10 21:57 02.11.2021
5585 Clouds 12 1008 85 10000 2.06 100 20:43 02.11.2021
5586 Clouds 12 1008 89 10000 0.51 100 19:57 02.11.2021
5587 Clouds 12 1007 89 10000 1.54 140 19:27 02.11.2021
5588 Clouds 12 1007 89 10000 2.57 150 18:35 02.11.2021
5589 Clouds 12 1007 89 9000 2.06 130 17:44 02.11.2021
5590 Rain 13 1007 85 7000 1.54 150 16:47 02.11.2021
5591 Rain 13 1007 84 6000 1.54 150 15:50 02.11.2021
5592 Rain 15 1007 74 8000 5.14 230 14:56 02.11.2021
5593 Clouds 16 1007 65 10000 4.63 200 13:29 02.11.2021
5594 Clouds 17 1007 65 10000 6.17 190 12:46 02.11.2021
5595 Clouds 17 1007 65 10000 6.17 190 12:46 02.11.2021
5596 Clouds 16 1008 63 10000 5.66 170 11:39 02.11.2021
5597 Clouds 15 1009 72 10000 4.63 160 10:55 02.11.2021
5598 Clouds 15 1009 72 10000 4.12 180 10:32 02.11.2021
5599 Clouds 15 1009 74 10000 4.12 160 09:44 02.11.2021
5600 Clouds 13 1010 82 6000 3.09 160 07:46 02.11.2021
5601 Clouds 11 1011 100 6000 2.57 130 04:58 02.11.2021
5602 Clouds 11 1011 100 8000 0 0 03:22 02.11.2021
5603 Fog 9 1013 100 1800 1.03 30 23:42 01.11.2021
5604 Mist 10 1013 100 5000 1.03 300 21:46 01.11.2021
5605 Mist 11 1014 89 4700 1.54 290 20:44 01.11.2021
5606 Mist 11 1014 89 5000 1.03 0 19:58 01.11.2021
5607 Mist 11 1014 89 5000 0 0 19:38 01.11.2021
5608 Clouds 12 1014 89 7000 1.54 20 18:23 01.11.2021
5609 Clouds 12 1014 89 9000 1.03 290 17:36 01.11.2021
5610 Clouds 13 1014 78 10000 2.06 110 16:51 01.11.2021
5611 Clouds 13 1014 78 10000 3.09 90 16:20 01.11.2021
5612 Clouds 14 1014 72 10000 2.57 100 15:29 01.11.2021
5613 Clouds 14 1014 72 10000 3.09 110 14:45 01.11.2021
5614 Clouds 15 1014 72 10000 3.09 90 14:23 01.11.2021
5615 Clouds 15 1014 72 10000 3.09 120 13:50 01.11.2021
5616 Clouds 14 1015 78 10000 3.6 100 12:34 01.11.2021
5617 Clouds 14 1015 75 10000 3.09 80 11:27 01.11.2021
5618 Clouds 14 1016 78 10000 3.09 90 09:47 01.11.2021
5619 Clouds 13 1016 88 10000 2.57 100 08:18 01.11.2021
5620 Clouds 12 1016 94 10000 2.57 60 07:40 01.11.2021
5621 Clouds 12 1017 87 10000 1.54 60 03:48 01.11.2021
5622 Clouds 12 1018 87 10000 4.63 40 01:43 01.11.2021
5623 Clouds 12 1019 87 10000 1.03 0 22:42 31.10.2021
5624 Clouds 12 1019 82 10000 4.63 40 20:50 31.10.2021
5625 Clouds 12 1019 82 10000 4.63 40 20:50 31.10.2021
5626 Clouds 12 1020 76 10000 4.12 40 19:22 31.10.2021
5627 Clouds 12 1020 76 10000 3.6 60 18:40 31.10.2021
5628 Clouds 12 1020 76 10000 4.63 50 17:32 31.10.2021
5629 Clouds 13 1021 68 10000 2.06 90 15:50 31.10.2021
5630 Clouds 13 1020 71 10000 3.09 40 14:23 31.10.2021
5631 Clouds 13 1021 68 10000 3.6 20 12:50 31.10.2021
5632 Clouds 13 1021 68 10000 2.06 0 11:41 31.10.2021
5633 Clouds 13 1022 71 10000 2.06 0 10:43 31.10.2021
5634 Clouds 12 1022 82 10000 4.63 40 09:21 31.10.2021
5635 Clouds 12 1023 82 10000 2.06 150 08:19 31.10.2021
5636 Clouds 10 1024 79 10000 2.57 40 00:58 31.10.2021
5637 Clouds 10 1024 79 10000 3.6 30 22:47 30.10.2021
5638 Clouds 11 1025 79 10000 3.09 40 21:35 30.10.2021
5639 Clouds 10 1025 80 10000 2.57 50 20:44 30.10.2021
5640 Clouds 10 1024 75 10000 3.09 40 18:45 30.10.2021
5641 Clouds 13 1024 69 10000 3.09 80 17:25 30.10.2021
5642 Clouds 15 1024 64 10000 5.14 110 14:50 30.10.2021
5643 Clouds 16 1024 62 10000 4.12 110 13:39 30.10.2021
5644 Clouds 16 1024 62 10000 4.12 110 13:21 30.10.2021
5645 Clouds 15 1025 72 10000 4.63 30 11:58 30.10.2021
5646 Clouds 15 1026 72 10000 4.63 60 11:39 30.10.2021
5647 Clouds 13 1026 75 10000 3.6 60 10:32 30.10.2021
5648 Clear 13 1026 76 10000 1.54 80 08:52 30.10.2021
5649 Clouds 10 1025 93 8000 1.54 80 07:19 30.10.2021
5650 Clouds 9 1025 93 10000 3.09 20 05:39 30.10.2021
5651 Clear 10 1025 93 10000 4.12 40 00:45 30.10.2021
5652 Clouds 10 1026 93 10000 2.57 30 22:39 29.10.2021
5653 Clouds 10 1026 93 10000 2.57 30 22:20 29.10.2021
5654 Clouds 12 1026 87 10000 2.57 40 20:45 29.10.2021
5655 Clouds 10 1026 93 10000 3.09 50 19:50 29.10.2021
5656 Clouds 11 1025 87 10000 3.09 90 18:32 29.10.2021
5657 Clear 14 1025 72 10000 4.63 90 16:51 29.10.2021
5658 Clouds 16 1025 63 10000 4.12 100 14:33 29.10.2021
5659 Clouds 16 1026 51 10000 5.14 60 11:43 29.10.2021
5660 Clear 14 1026 67 10000 2.06 250 10:35 29.10.2021
5661 Clear 7 1026 93 8000 0 0 08:19 29.10.2021
5662 Clear 5 1026 100 10000 0 0 00:36 29.10.2021
5663 Clear 5 1027 93 10000 1.03 0 22:58 28.10.2021
5664 Clear 8 1026 81 10000 1.03 0 21:55 28.10.2021
5665 Clear 7 1026 87 10000 3.09 20 20:29 28.10.2021
5666 Clear 8 1026 87 10000 2.57 30 19:46 28.10.2021
5667 Clear 10 1026 71 10000 2.06 50 18:18 28.10.2021
5668 Clear 14 1026 54 10000 2.57 130 16:58 28.10.2021
5669 Clear 15 1026 51 10000 3.6 110 15:20 28.10.2021
5670 Clear 15 1026 51 10000 4.63 130 13:45 28.10.2021
5671 Clouds 15 1027 55 10000 4.63 140 13:21 28.10.2021
5672 Clouds 15 1027 55 10000 4.12 150 12:39 28.10.2021
5673 Clear 13 1027 62 10000 2.06 170 10:54 28.10.2021
5674 Clear 11 1028 66 10000 3.6 350 09:38 28.10.2021
5675 Clear 9 1028 76 10000 1.54 250 08:55 28.10.2021
5676 Clear 8 1027 76 10000 3.09 330 08:28 28.10.2021
5677 Clear 6 1026 87 10000 3.09 330 04:42 28.10.2021
5678 Clear 7 1027 83 10000 2.06 340 23:38 27.10.2021
5679 Clear 7 1027 83 10000 2.06 360 22:30 27.10.2021
5680 Clouds 9 1027 75 10000 1.54 330 21:33 27.10.2021
5681 Clouds 8 1026 79 10000 1.03 350 20:50 27.10.2021
5682 Clouds 9 1026 75 10000 1.54 20 19:52 27.10.2021
5683 Clouds 10 1026 74 10000 1.54 30 19:32 27.10.2021
5684 Clouds 11 1026 72 10000 0 0 18:39 27.10.2021
5685 Clouds 14 1025 66 10000 4.63 130 16:26 27.10.2021
5686 Clouds 16 1025 61 10000 3.6 150 15:30 27.10.2021
5687 Clouds 16 1025 56 10000 2.06 0 14:39 27.10.2021
5688 Clouds 14 1026 54 10000 2.57 70 11:21 27.10.2021
5689 Clouds 14 1026 58 10000 2.57 70 10:58 27.10.2021
5690 Clouds 13 1026 67 10000 2.57 70 09:43 27.10.2021
5691 Clouds 10 1025 71 10000 1.03 0 07:53 27.10.2021
5692 Clouds 11 1025 76 10000 2.57 50 06:38 27.10.2021
5693 Clouds 12 1025 72 10000 2.57 90 01:45 27.10.2021
5694 Clouds 12 1025 72 10000 4.63 90 00:56 27.10.2021
5695 Clouds 12 1025 72 10000 3.09 90 00:24 27.10.2021
5696 Clouds 12 1025 72 10000 3.6 90 23:40 26.10.2021
5697 Clouds 12 1026 72 10000 4.63 100 22:36 26.10.2021
5698 Clouds 11 1026 72 10000 3.09 40 21:52 26.10.2021
5699 Clouds 11 1026 69 10000 3.09 30 20:26 26.10.2021
5700 Clouds 11 1026 69 10000 3.09 40 19:26 26.10.2021
5701 Clouds 10 1026 72 10000 3.09 40 18:40 26.10.2021
5702 Clouds 12 1026 63 10000 3.6 130 16:22 26.10.2021
5703 Clouds 14 1026 62 10000 4.63 90 14:18 26.10.2021
5704 Clouds 10 1028 74 10000 2.06 240 11:33 26.10.2021
5705 Clouds 7 1028 93 10000 1.03 0 09:29 26.10.2021
5706 Clouds 4 1028 93 10000 1.54 230 07:24 26.10.2021
5707 Clear 4 1029 87 10000 1.54 240 03:37 26.10.2021
5708 Clear 6 1030 75 10000 2.06 210 23:49 25.10.2021
5709 Clear 5 1031 75 10000 1.03 0 22:38 25.10.2021
5710 Clear 7 1031 70 10000 4.63 40 21:55 25.10.2021
5711 Clear 7 1031 70 10000 2.06 150 21:25 25.10.2021
5712 Clear 8 1031 66 10000 2.57 110 19:45 25.10.2021
5713 Clear 8 1031 61 10000 2.06 0 19:24 25.10.2021
5714 Clear 8 1031 66 10000 4.12 90 18:50 25.10.2021
5715 Clouds 10 1031 62 10000 5.14 80 17:42 25.10.2021
5716 Clouds 12 1031 50 10000 4.63 80 15:31 25.10.2021
5717 Clear 13 1031 47 10000 3.09 30 13:54 25.10.2021
5718 Clear 12 1033 47 10000 2.57 100 11:58 25.10.2021
5719 Clear 9 1033 57 10000 1.54 0 09:23 25.10.2021
5720 Clear 6 1033 65 10000 3.09 360 07:40 25.10.2021
5721 Clear 5 1032 70 10000 3.09 360 05:24 25.10.2021
5722 Clear 7 1032 69 10000 3.09 30 00:52 25.10.2021
5723 Clear 7 1033 69 10000 3.09 30 00:34 25.10.2021
5724 Clear 7 1033 69 10000 3.09 30 00:34 25.10.2021
5725 Clear 7 1033 69 10000 3.09 30 00:34 25.10.2021
5726 Clear 7 1032 68 10000 4.12 40 23:44 24.10.2021
5727 Clear 6 1032 74 10000 1.03 0 22:39 24.10.2021
5728 Clear 6 1032 74 10000 3.09 360 22:20 24.10.2021
5729 Clear 6 1032 75 10000 2.06 20 21:33 24.10.2021
5730 Clear 7 1031 72 10000 2.06 360 20:42 24.10.2021
5731 Clear 7 1031 72 10000 2.57 10 19:49 24.10.2021
5732 Clear 10 1031 61 10000 2.57 30 18:30 24.10.2021
5733 Clear 11 1030 61 10000 2.57 20 17:46 24.10.2021
5734 Clear 14 1029 54 10000 3.6 360 15:57 24.10.2021
5735 Clear 15 1029 49 10000 5.14 20 15:19 24.10.2021
5736 Clouds 15 1028 44 10000 4.63 40 13:19 24.10.2021
5737 Clear 14 1028 51 10000 5.14 30 12:23 24.10.2021
5738 Clear 13 1028 62 10000 2.06 330 11:34 24.10.2021
5739 Clouds 12 1028 71 10000 2.57 350 10:30 24.10.2021
5740 Clouds 11 1025 87 10000 3.6 10 08:00 24.10.2021
5741 Rain 14 1022 82 10000 6.69 320 01:53 24.10.2021
5742 Clouds 15 1022 80 10000 0.51 0 23:51 23.10.2021
5743 Clouds 15 1022 49 10000 2.06 220 22:40 23.10.2021
5744 Clear 15 1021 73 10000 1.03 90 20:39 23.10.2021
5745 Clear 18 1020 64 10000 3.6 360 19:00 23.10.2021
5746 Clouds 17 1020 63 10000 2.06 350 18:31 23.10.2021
5747 Clear 19 1019 61 10000 2.57 340 17:44 23.10.2021
5748 Clear 21 1018 56 10000 5.14 330 16:38 23.10.2021
5749 Clear 22 1018 53 10000 6.69 260 14:45 23.10.2021
5750 Clear 18 1019 80 10000 2.06 230 09:45 23.10.2021
5751 Clear 13 1017 89 10000 2.57 360 00:28 23.10.2021
5752 Clear 13 1017 89 10000 2.57 10 23:23 22.10.2021
5753 Clear 14 1017 89 10000 2.57 10 20:55 22.10.2021
5754 Clear 16 1017 81 10000 1.03 0 18:57 22.10.2021
5755 Clear 18 1016 75 10000 2.06 90 17:44 22.10.2021
5756 Clear 23 1016 55 10000 3.6 220 15:57 22.10.2021
5757 Clear 23 1016 57 10000 4.12 240 14:30 22.10.2021
5758 Clear 22 1017 46 10000 3.6 230 12:38 22.10.2021
5759 Clear 19 1018 63 10000 3.09 240 10:48 22.10.2021
5760 Clear 17 1018 77 10000 2.06 230 09:56 22.10.2021
5761 Clear 15 1017 82 10000 1.03 0 09:30 22.10.2021
5762 Clear 10 1016 100 7000 0 0 07:25 22.10.2021
5763 Clear 10 1015 96 9000 1.03 0 03:48 22.10.2021
5764 Clear 11 1015 92 10000 1.03 0 00:24 22.10.2021
5765 Clear 10 1015 96 10000 2.06 360 23:40 21.10.2021
5766 Clear 11 1016 92 10000 1.03 0 22:21 21.10.2021
5767 Clear 12 1016 92 10000 2.06 50 20:53 21.10.2021
5768 Clear 13 1016 89 10000 2.06 50 20:19 21.10.2021
5769 Clear 13 1016 89 10000 2.57 60 19:30 21.10.2021
5770 Clear 14 1016 84 10000 3.6 180 18:52 21.10.2021
5771 Clear 14 1016 89 10000 3.09 130 18:22 21.10.2021
5772 Clear 14 1016 89 10000 4.12 120 17:42 21.10.2021
5773 Clear 18 1016 75 10000 3.09 130 16:18 21.10.2021
5774 Clear 20 1016 63 10000 4.63 190 15:21 21.10.2021
5775 Clear 19 1017 61 10000 4.12 180 14:39 21.10.2021
5776 Clear 18 1018 48 10000 4.63 190 13:20 21.10.2021
5777 Clear 17 1020 55 10000 3.6 190 11:27 21.10.2021
5778 Clear 13 1022 76 10000 1.03 0 08:55 21.10.2021
5779 Clear 10 1022 87 10000 1.03 0 07:29 21.10.2021
5780 Clear 9 1023 96 10000 0 0 03:49 21.10.2021
5781 Clear 9 1026 96 10000 1.54 40 23:31 20.10.2021
5782 Clear 10 1026 92 10000 2.06 120 22:18 20.10.2021
5783 Clear 10 1026 92 10000 1.54 100 21:38 20.10.2021
5784 Clear 10 1026 92 10000 2.06 100 20:54 20.10.2021
5785 Clear 10 1026 92 10000 2.06 100 20:33 20.10.2021
5786 Clear 11 1027 89 10000 1.54 130 19:57 20.10.2021
5787 Clear 12 1027 89 10000 2.57 140 18:54 20.10.2021
5788 Clear 13 1027 86 10000 2.57 130 17:50 20.10.2021
5789 Clear 16 1027 79 10000 4.63 130 15:39 20.10.2021
5790 Fog 13 1029 100 550 0 0 10:43 20.10.2021
5791 Clear 13 1030 99 10000 1.26 198 08:53 20.10.2021
5792 Mist 7 1029 100 4200 0 0 03:21 20.10.2021
5793 Rain 8 1029 100 8000 1.54 330 00:47 20.10.2021
5794 Rain 9 1029 95 8000 1.03 0 23:59 19.10.2021
5795 Clouds 11 1029 95 7000 1.54 10 21:43 19.10.2021
5796 Clouds 11 1029 95 8000 1.54 40 20:54 19.10.2021
5797 Clouds 12 1029 96 8000 0 0 20:22 19.10.2021
5798 Rain 12 1029 93 9000 0 0 19:41 19.10.2021
5799 Clouds 13 1028 88 10000 2.06 110 18:53 19.10.2021
5800 Clouds 13 1028 88 10000 2.06 120 17:58 19.10.2021
5801 Clouds 15 1027 72 10000 4.63 120 15:39 19.10.2021
5802 Clouds 15 1027 72 10000 3.6 120 15:19 19.10.2021
5803 Clouds 15 1027 67 10000 4.63 110 14:26 19.10.2021
5804 Clouds 16 1027 55 10000 3.09 280 13:29 19.10.2021
5805 Clouds 16 1028 63 10000 4.63 300 11:32 19.10.2021
5806 Clouds 16 1028 63 10000 4.63 300 11:32 19.10.2021
5807 Clear 15 1028 72 10000 2.57 250 10:19 19.10.2021
5808 Clear 12 1028 87 10000 2.57 240 08:58 19.10.2021
5809 Clear 10 1026 93 10000 1.03 0 06:34 19.10.2021
5810 Clouds 13 1025 82 10000 2.06 270 00:24 19.10.2021
5811 Clouds 13 1025 82 10000 0 0 23:49 18.10.2021
5812 Clouds 12 1025 87 10000 0.51 0 23:19 18.10.2021
5813 Clouds 12 1025 94 10000 0 0 22:51 18.10.2021
5814 Clouds 12 1024 94 10000 1.54 360 21:18 18.10.2021
5815 Rain 12 1024 94 10000 1.54 360 20:41 18.10.2021
5816 Clouds 13 1024 88 10000 1.03 10 19:50 18.10.2021
5817 Clouds 13 1023 82 10000 1.03 110 19:29 18.10.2021
5818 Clouds 13 1023 82 10000 1.03 120 18:52 18.10.2021
5819 Clouds 15 1022 72 10000 4.12 100 15:25 18.10.2021
5820 Clouds 16 1022 59 10000 1.03 0 12:55 18.10.2021
5821 Clouds 16 1023 59 10000 2.06 270 10:42 18.10.2021
5822 Clouds 12 1023 82 10000 2.06 240 09:28 18.10.2021
5823 Clear 11 1022 87 10000 1.03 230 02:30 18.10.2021
5824 Clouds 11 1021 82 10000 1.54 300 23:30 17.10.2021
5825 Clouds 12 1021 76 10000 2.06 290 21:52 17.10.2021
5826 Rain 12 1021 82 10000 3.09 270 21:00 17.10.2021
5827 Rain 12 1021 82 10000 3.09 270 20:36 17.10.2021
5828 Rain 12 1021 82 10000 2.57 280 19:39 17.10.2021
5829 Rain 12 1022 83 10000 3.79 326 18:57 17.10.2021
5830 Clouds 13 1020 76 10000 3.6 290 17:32 17.10.2021
5831 Clouds 13 1019 76 10000 4.63 310 15:19 17.10.2021
5832 Clouds 13 1019 76 10000 5.14 310 14:24 17.10.2021
5833 Clouds 13 1019 76 10000 5.14 320 13:38 17.10.2021
5834 Clouds 12 1019 82 10000 3.09 310 11:55 17.10.2021
5835 Clouds 12 1019 82 10000 3.6 300 10:34 17.10.2021
5836 Clouds 12 1019 82 10000 3.6 300 10:34 17.10.2021
5837 Clouds 11 1018 82 10000 4.12 300 09:30 17.10.2021
5838 Clouds 10 1017 87 10000 3.6 310 07:19 17.10.2021
5839 Clouds 12 1016 87 10000 3.09 230 00:53 17.10.2021
5840 Clouds 12 1015 87 10000 3.6 0 00:22 17.10.2021
5841 Clouds 14 1014 88 10000 2.06 0 21:38 16.10.2021
5842 Clouds 13 1014 94 10000 3.09 270 20:31 16.10.2021
5843 Clouds 13 1014 94 10000 5.14 250 19:45 16.10.2021
5844 Clouds 13 1013 94 10000 3.09 320 19:21 16.10.2021
5845 Clouds 13 1013 94 10000 5.14 270 18:54 16.10.2021
5846 Clouds 13 1013 94 10000 5.14 270 18:36 16.10.2021
5847 Clouds 13 1013 94 10000 5.14 270 18:18 16.10.2021
5848 Clouds 14 1012 100 10000 5.66 260 17:23 16.10.2021
5849 Thunderstorm 16 1011 88 10000 3.6 250 14:52 16.10.2021
5850 Clouds 17 1011 94 10000 2.06 100 11:52 16.10.2021
5851 Rain 16 1011 94 10000 2.06 60 10:36 16.10.2021
5852 Clouds 15 1011 94 10000 3.6 80 07:50 16.10.2021
5853 Clouds 14 1012 94 10000 5.14 60 01:25 16.10.2021
5854 Rain 14 1014 94 10000 2.57 120 23:53 15.10.2021
5855 Clouds 14 1015 88 10000 4.63 80 22:38 15.10.2021
5856 Clouds 14 1015 88 10000 5.14 80 22:18 15.10.2021
5857 Clouds 14 1015 88 10000 5.66 80 21:26 15.10.2021
5858 Clouds 14 1015 94 10000 6.17 90 20:46 15.10.2021
5859 Clouds 15 1015 82 10000 7.2 80 19:26 15.10.2021
5860 Clouds 15 1016 82 10000 7.72 80 18:40 15.10.2021
5861 Clouds 15 1015 82 10000 7.72 70 16:28 15.10.2021
5862 Clouds 15 1016 82 10000 8.75 60 15:36 15.10.2021
5863 Clouds 16 1018 82 10000 9.26 80 12:42 15.10.2021
5864 Clouds 16 1018 82 10000 7.72 90 11:31 15.10.2021
5865 Clouds 16 1018 82 10000 7.72 70 10:43 15.10.2021
5866 Clouds 13 1019 88 10000 4.12 50 08:59 15.10.2021
5867 Clouds 12 1019 87 10000 4.63 40 05:31 15.10.2021
5868 Clouds 13 1019 82 10000 7.2 50 00:48 15.10.2021
5869 Clouds 14 1019 77 10000 7.72 50 00:21 15.10.2021
5870 Clouds 13 1020 82 10000 5.14 70 22:51 14.10.2021
5871 Clouds 13 1020 82 10000 5.14 70 22:51 14.10.2021
5872 Clouds 13 1020 82 10000 5.14 90 21:44 14.10.2021
5873 Clouds 13 1020 82 10000 6.17 90 20:38 14.10.2021
5874 Clouds 13 1020 82 10000 6.17 90 20:18 14.10.2021
5875 Rain 13 1020 76 10000 6.17 90 19:32 14.10.2021
5876 Clouds 14 1019 72 10000 5.66 90 17:26 14.10.2021
5877 Clouds 14 1019 72 10000 5.66 90 16:48 14.10.2021
5878 Clouds 14 1019 77 10000 5.66 100 15:33 14.10.2021
5879 Clouds 14 1020 77 10000 6.69 90 14:41 14.10.2021
5880 Clouds 14 1020 82 10000 6.69 110 13:37 14.10.2021
5881 Clouds 12 1021 87 9000 0 0 11:43 14.10.2021
5882 Mist 11 1021 100 4000 1.54 230 09:55 14.10.2021
5883 Clouds 11 1020 84 10000 2 40 06:54 14.10.2021
5884 Clouds 11 1019 80 10000 1.15 322 00:57 14.10.2021
5885 Rain 11 1018 93 10000 1.54 310 00:22 14.10.2021
5886 Rain 12 1017 82 10000 1.54 60 21:45 13.10.2021
5887 Rain 11 1017 93 10000 1.03 90 21:27 13.10.2021
5888 Clouds 12 1017 82 10000 1.03 0 19:48 13.10.2021
5889 Clouds 12 1016 76 10000 2.06 350 18:49 13.10.2021
5890 Clouds 12 1016 76 10000 2.06 350 18:49 13.10.2021
5891 Clouds 12 1016 76 10000 2.06 350 18:49 13.10.2021
5892 Clouds 12 1015 76 10000 2.57 280 17:49 13.10.2021
5893 Clouds 14 1014 62 10000 6.17 300 15:24 13.10.2021
5894 Clouds 14 1013 58 10000 6.17 290 14:44 13.10.2021
5895 Clouds 14 1012 62 10000 7.2 310 12:54 13.10.2021
5896 Clouds 13 1012 67 10000 7.72 300 11:55 13.10.2021
5897 Clouds 10 1012 81 10000 5.14 280 10:21 13.10.2021
5898 Clouds 9 1010 87 10000 5.66 300 07:56 13.10.2021
5899 Rain 9 1008 93 10000 6.17 310 06:33 13.10.2021
5900 Rain 10 1005 93 6000 8.23 330 02:24 13.10.2021
5901 Rain 12 1005 94 6000 5.14 350 23:55 12.10.2021
5902 Rain 12 1005 94 5000 6.69 340 23:29 12.10.2021
5903 Rain 12 1006 94 6000 6.69 340 22:43 12.10.2021
5904 Rain 12 1007 94 4000 3.6 280 21:19 12.10.2021
5905 Rain 13 1006 94 6000 3.6 330 20:33 12.10.2021
5906 Rain 13 1006 88 8000 3.09 0 19:51 12.10.2021
5907 Rain 13 1006 94 8000 2.06 0 18:27 12.10.2021
5908 Rain 14 1006 88 10000 3.09 360 17:35 12.10.2021
5909 Clouds 14 1007 94 9000 3.6 40 16:36 12.10.2021
5910 Rain 14 1007 94 5000 2.06 70 15:43 12.10.2021
5911 Clouds 14 1008 100 10000 4.12 60 14:25 12.10.2021
5912 Rain 14 1008 100 10000 1.54 300 13:41 12.10.2021
5913 Rain 13 1009 100 3800 2.06 100 11:36 12.10.2021
5914 Thunderstorm 14 1010 88 9000 2.57 80 09:41 12.10.2021
5915 Clouds 14 1010 88 10000 3.09 60 08:35 12.10.2021
5916 Clouds 13 1011 88 10000 3.6 80 06:46 12.10.2021
5917 Clouds 13 1012 88 10000 0.51 0 04:52 12.10.2021
5918 Clouds 13 1012 88 10000 1.03 0 04:28 12.10.2021
5919 Clouds 13 1014 94 10000 2.57 110 23:59 11.10.2021
5920 Clouds 13 1014 94 10000 2.57 110 23:37 11.10.2021
5921 Drizzle 13 1015 94 10000 3.6 100 22:52 11.10.2021
5922 Clouds 14 1015 88 10000 4.12 100 21:32 11.10.2021
5923 Rain 13 1016 94 10000 2.57 110 20:31 11.10.2021
5924 Clouds 13 1016 94 10000 3.09 90 19:36 11.10.2021
5925 Rain 14 1016 82 10000 6.17 100 18:23 11.10.2021
5926 Clouds 15 1016 72 10000 7.2 90 16:41 11.10.2021
5927 Clouds 15 1016 72 10000 6.69 90 16:21 11.10.2021
5928 Clouds 15 1016 72 10000 6.69 90 16:21 11.10.2021
5929 Clouds 15 1017 72 10000 6.69 90 15:45 11.10.2021
5930 Clouds 16 1017 67 10000 6.69 100 14:54 11.10.2021
5931 Clouds 17 1017 63 10000 6.69 100 14:22 11.10.2021
5932 Clouds 17 1018 55 10000 6.69 80 13:35 11.10.2021
5933 Clouds 16 1019 67 10000 7.72 100 11:24 11.10.2021
5934 Clouds 15 1020 67 10000 8.23 80 09:47 11.10.2021
5935 Clouds 13 1020 77 10000 4.63 50 08:40 11.10.2021
5936 Clouds 13 1022 82 10000 4.12 50 01:46 11.10.2021
5937 Clouds 13 1022 76 10000 4.63 50 00:59 11.10.2021
5938 Clouds 13 1022 76 10000 4.63 50 00:40 11.10.2021
5939 Clouds 13 1024 76 10000 5.14 30 22:41 10.10.2021
5940 Clouds 13 1024 76 10000 4.63 40 21:49 10.10.2021
5941 Clouds 13 1024 76 10000 4.63 30 21:19 10.10.2021
5942 Clouds 13 1025 76 10000 4.12 30 20:39 10.10.2021
5943 Clouds 13 1025 76 10000 3.6 40 20:19 10.10.2021
5944 Clouds 13 1025 76 10000 3.6 50 19:44 10.10.2021
5945 Clouds 13 1025 76 10000 3.6 60 19:26 10.10.2021
5946 Clouds 13 1024 76 10000 4.63 40 18:20 10.10.2021
5947 Clouds 14 1025 67 10000 4.63 50 15:49 10.10.2021
5948 Clouds 14 1025 67 10000 5.66 30 14:57 10.10.2021
5949 Clouds 13 1025 71 10000 6.69 20 13:41 10.10.2021
5950 Clouds 13 1025 67 10000 6.69 30 12:43 10.10.2021
5951 Clouds 13 1025 67 10000 8.23 30 11:30 10.10.2021
5952 Clouds 12 1025 71 10000 6.17 20 10:26 10.10.2021
5953 Clouds 11 1025 71 10000 5.66 20 09:18 10.10.2021
5954 Clouds 11 1025 71 10000 5.14 10 08:50 10.10.2021
5955 Clouds 10 1025 71 10000 6.17 20 04:50 10.10.2021
5956 Clouds 10 1025 76 10000 5.66 10 02:19 10.10.2021
5957 Clouds 11 1025 76 10000 4.63 10 00:47 10.10.2021
5958 Clouds 11 1026 76 10000 3.09 30 23:26 09.10.2021
5959 Clouds 11 1025 76 10000 3.09 0 21:55 09.10.2021
5960 Clouds 11 1025 76 10000 2.57 0 21:30 09.10.2021
5961 Clouds 11 1026 76 10000 4.12 40 20:19 09.10.2021
5962 Clouds 11 1026 82 10000 1.54 0 19:41 09.10.2021
5963 Clouds 11 1025 82 10000 2.57 0 18:45 09.10.2021
5964 Clouds 12 1025 76 10000 3.09 220 17:51 09.10.2021
5965 Clouds 12 1024 82 10000 5.66 40 16:20 09.10.2021
5966 Clouds 11 1024 87 10000 2.06 0 13:49 09.10.2021
5967 Clouds 11 1024 87 10000 2.06 0 13:31 09.10.2021
5968 Clouds 11 1023 87 10000 7.72 10 12:23 09.10.2021
5969 Clouds 10 1023 93 10000 7.72 10 10:44 09.10.2021
5970 Clouds 10 1023 93 10000 7.2 10 10:18 09.10.2021
5971 Clouds 10 1022 87 10000 6.69 10 08:33 09.10.2021
5972 Clouds 10 1021 87 10000 7.72 20 07:54 09.10.2021
5973 Clouds 10 1021 87 10000 8.75 10 06:29 09.10.2021
5974 Clouds 9 1021 93 10000 7.72 10 04:31 09.10.2021
5975 Clouds 9 1021 93 10000 7.72 20 02:44 09.10.2021
5976 Rain 10 1021 87 10000 8.23 10 00:23 09.10.2021
5977 Clouds 10 1021 93 10000 8.23 20 23:31 08.10.2021
5978 Rain 10 1022 87 10000 7.72 20 22:42 08.10.2021
5979 Rain 10 1021 93 10000 9.26 20 21:44 08.10.2021
5980 Rain 11 1022 87 10000 10.29 30 19:47 08.10.2021
5981 Rain 11 1023 93 6000 6.69 20 18:23 08.10.2021
5982 Rain 11 1023 93 10000 8.23 20 16:54 08.10.2021
5983 Rain 11 1023 93 10000 7.72 20 16:24 08.10.2021
5984 Clouds 12 1023 87 10000 8.23 30 14:20 08.10.2021
5985 Drizzle 11 1023 93 10000 7.72 30 13:41 08.10.2021
5986 Rain 12 1023 82 10000 7.72 20 11:41 08.10.2021
5987 Rain 12 1023 82 10000 7.2 10 10:42 08.10.2021
5988 Clouds 11 1024 82 10000 6.69 20 09:46 08.10.2021
5989 Clouds 12 1024 82 10000 5.14 30 03:36 08.10.2021
5990 Clouds 12 1024 87 10000 4.63 50 23:22 07.10.2021
5991 Clouds 12 1024 94 10000 8.23 40 21:47 07.10.2021
5992 Clouds 12 1024 87 10000 7.72 30 21:28 07.10.2021
5993 Clouds 12 1024 87 10000 6.17 40 20:28 07.10.2021
5994 Clouds 12 1024 87 10000 6.69 40 19:31 07.10.2021
5995 Clouds 13 1024 88 10000 4.63 40 18:27 07.10.2021
5996 Clouds 13 1023 88 6000 6.17 40 17:27 07.10.2021
5997 Clouds 14 1024 82 10000 5.66 50 15:56 07.10.2021
5998 Clouds 14 1023 82 10000 5.66 30 14:48 07.10.2021
5999 Clouds 14 1023 77 10000 6.17 30 13:43 07.10.2021
6000 Clouds 14 1023 67 10000 6.69 40 12:48 07.10.2021
6001 Clouds 14 1023 72 10000 6.69 50 10:57 07.10.2021
6002 Clouds 14 1023 67 10000 7.2 50 10:22 07.10.2021
6003 Clouds 14 1023 72 10000 7.72 40 09:34 07.10.2021
6004 Clouds 14 1023 72 10000 7.72 40 09:34 07.10.2021
6005 Clouds 14 1022 72 10000 8.75 30 08:52 07.10.2021
6006 Clouds 13 1023 82 10000 6.17 20 07:56 07.10.2021
6007 Clouds 13 1023 82 10000 6.17 20 07:36 07.10.2021
6008 Clouds 13 1023 82 10000 5.14 20 03:54 07.10.2021
6009 Clouds 13 1023 88 10000 4.63 30 00:29 07.10.2021
6010 Clouds 12 1025 94 10000 4.12 30 22:51 06.10.2021
6011 Clouds 13 1025 82 10000 4.12 50 22:23 06.10.2021
6012 Clouds 14 1025 77 10000 3.09 70 20:43 06.10.2021
6013 Clouds 14 1024 77 10000 5.66 40 20:20 06.10.2021
6014 Clouds 14 1025 77 10000 3.6 70 18:42 06.10.2021
6015 Clouds 14 1025 82 10000 4.12 60 16:58 06.10.2021
6016 Clouds 14 1025 82 10000 4.12 60 16:58 06.10.2021
6017 Clouds 14 1024 82 10000 3.6 50 15:31 06.10.2021
6018 Clouds 16 1024 63 10000 5.14 100 14:28 06.10.2021
6019 Clouds 16 1025 77 10000 2.57 100 13:20 06.10.2021
6020 Clouds 16 1025 77 10000 7.2 80 12:43 06.10.2021
6021 Clouds 17 1025 63 10000 4.63 100 12:21 06.10.2021
6022 Clouds 17 1025 59 10000 5.14 60 10:23 06.10.2021
6023 Clouds 15 1025 63 10000 2.06 0 09:39 06.10.2021
6024 Clouds 14 1025 72 10000 2.06 230 08:51 06.10.2021
6025 Clouds 11 1025 82 10000 0 0 07:50 06.10.2021
6026 Clouds 10 1025 81 10000 2.57 330 05:26 06.10.2021
6027 Clear 9 1026 81 10000 1.54 230 01:23 06.10.2021
6028 Clear 11 1026 71 10000 4.63 20 00:18 06.10.2021
6029 Clear 11 1026 71 10000 4.63 10 23:45 05.10.2021
6030 Clouds 12 1026 66 10000 4.63 10 23:27 05.10.2021
6031 Clear 11 1026 71 10000 4.12 30 22:28 05.10.2021
6032 Clear 11 1026 71 10000 3.09 20 21:49 05.10.2021
6033 Clear 11 1027 71 10000 2.57 20 20:42 05.10.2021
6034 Clear 12 1027 66 10000 4.12 40 20:24 05.10.2021
6035 Clear 12 1027 66 10000 4.12 40 19:43 05.10.2021
6036 Clear 13 1026 62 10000 5.14 40 18:54 05.10.2021
6037 Clouds 16 1026 59 10000 6.69 80 16:48 05.10.2021
6038 Clouds 18 1025 42 10000 5.14 80 14:38 05.10.2021
6039 Clouds 18 1025 48 10000 5.66 70 13:35 05.10.2021
6040 Clouds 19 1025 42 10000 5.66 90 12:47 05.10.2021
6041 Clouds 19 1026 42 10000 5.66 80 12:18 05.10.2021
6042 Clouds 17 1025 48 10000 6.69 50 10:59 05.10.2021
6043 Clear 16 1026 55 10000 4.12 40 09:26 05.10.2021
6044 Clear 9 1024 87 10000 2.06 350 04:47 05.10.2021
6045 Clear 12 1025 82 10000 2.06 60 23:53 04.10.2021
6046 Clear 12 1025 82 10000 2.06 60 23:53 04.10.2021
6047 Clear 12 1025 82 10000 4.12 40 22:38 04.10.2021
6048 Clear 12 1024 76 10000 3.09 20 19:59 04.10.2021
6049 Clear 14 1024 72 10000 3.6 110 18:34 04.10.2021
6050 Clouds 18 1024 59 10000 6.69 120 16:24 04.10.2021
6051 Clouds 19 1024 55 10000 6.69 120 15:31 04.10.2021
6052 Clouds 18 1024 59 10000 5.14 130 14:42 04.10.2021
6053 Clouds 18 1024 63 10000 6.69 130 13:57 04.10.2021
6054 Clouds 19 1024 52 10000 4.12 140 13:24 04.10.2021
6055 Clouds 20 1025 45 10000 1.54 0 12:26 04.10.2021
6056 Clouds 18 1025 55 10000 3.09 40 11:30 04.10.2021
6057 Clouds 17 1025 63 10000 4.12 20 09:59 04.10.2021
6058 Clouds 12 1025 93 10000 1.54 280 08:40 04.10.2021
6059 Clouds 9 1025 100 8000 1.54 220 07:26 04.10.2021
6060 Clear 12 1024 87 10000 3.09 10 00:33 04.10.2021
6061 Clear 11 1025 93 10000 3.6 30 22:34 03.10.2021
6062 Clouds 13 1025 88 10000 3.6 30 21:39 03.10.2021
6063 Clouds 13 1025 82 10000 3.09 30 20:59 03.10.2021
6064 Clouds 15 1024 77 10000 3.6 70 19:57 03.10.2021
6065 Clouds 16 1024 67 10000 1.54 0 18:34 03.10.2021
6066 Clouds 18 1023 55 10000 4.63 30 17:48 03.10.2021
6067 Clouds 20 1023 45 10000 5.66 30 16:34 03.10.2021
6068 Clouds 20 1023 42 10000 4.12 130 14:46 03.10.2021
6069 Clouds 20 1023 40 10000 4.12 40 13:58 03.10.2021
6070 Clouds 19 1023 42 10000 3.09 40 13:22 03.10.2021
6071 Clear 20 1024 40 10000 3.6 320 12:29 03.10.2021
6072 Clear 18 1024 45 10000 5.14 10 10:37 03.10.2021
6073 Clear 13 1024 66 10000 4.12 330 08:36 03.10.2021
6074 Clear 10 1024 76 10000 4.63 350 01:30 03.10.2021
6075 Clear 10 1024 81 10000 3.6 350 22:34 02.10.2021
6076 Clear 11 1024 76 10000 3.09 40 20:55 02.10.2021
6077 Clouds 13 1024 71 10000 3.09 40 19:40 02.10.2021
6078 Clouds 14 1024 67 10000 3.09 40 18:51 02.10.2021
6079 Clouds 15 1024 63 10000 3.6 20 17:41 02.10.2021
6080 Clouds 15 1024 63 10000 3.6 30 17:19 02.10.2021
6081 Clouds 14 1024 67 10000 5.66 20 14:49 02.10.2021
6082 Clouds 14 1026 88 10000 2.57 50 15:49 30.09.2021
6083 Rain 14 1025 88 6000 4.63 30 14:46 30.09.2021
6084 Clouds 16 1025 67 10000 4.63 30 12:27 30.09.2021
6085 Clouds 16 1025 67 10000 5.14 30 11:31 30.09.2021
6086 Clouds 16 1025 63 10000 4.12 10 10:40 30.09.2021
6087 Clouds 15 1025 72 10000 5.14 20 08:55 30.09.2021
6088 Clouds 14 1025 77 10000 5.14 30 08:27 30.09.2021
6089 Clear 13 1024 76 10000 4.63 20 05:53 30.09.2021
6090 Clear 13 1025 76 10000 1.54 320 02:59 30.09.2021
6091 Clear 15 1025 72 10000 4.12 30 00:40 30.09.2021
6092 Clear 14 1025 77 10000 4.12 10 23:21 29.09.2021
6093 Clouds 13 1025 82 10000 3.09 20 21:54 29.09.2021
6094 Clouds 13 1025 82 10000 3.09 50 20:42 29.09.2021
6095 Clouds 13 1025 76 10000 3.09 50 20:20 29.09.2021
6096 Clouds 15 1024 72 10000 3.09 70 19:26 29.09.2021
6097 Clouds 16 1024 63 10000 2.06 80 18:18 29.09.2021
6098 Clouds 18 1023 55 10000 5.14 80 16:56 29.09.2021
6099 Clouds 18 1023 59 10000 6.17 90 16:28 29.09.2021
6100 Clouds 18 1023 59 10000 5.66 60 15:35 29.09.2021
6101 Clouds 19 1023 52 10000 5.14 100 14:37 29.09.2021
6102 Clouds 19 1023 55 10000 5.14 80 13:33 29.09.2021
6103 Clouds 19 1023 52 10000 5.66 40 12:38 29.09.2021
6104 Clouds 19 1023 52 10000 4.12 30 11:20 29.09.2021
6105 Clouds 18 1023 55 10000 4.63 20 10:28 29.09.2021
6106 Clear 18 1023 52 10000 5.14 20 09:41 29.09.2021
6107 Clouds 15 1022 67 10000 4.12 30 07:51 29.09.2021
6108 Clouds 14 1022 72 10000 5.66 20 06:27 29.09.2021
6109 Clouds 16 1022 63 10000 4.12 30 23:59 28.09.2021
6110 Clear 16 1022 63 10000 3.09 40 22:25 28.09.2021
6111 Clear 16 1022 63 10000 3.09 30 21:46 28.09.2021
6112 Clouds 16 1022 63 10000 4.12 70 20:48 28.09.2021
6113 Clouds 16 1021 63 10000 3.6 70 19:48 28.09.2021
6114 Clouds 16 1021 63 10000 3.09 60 19:27 28.09.2021
6115 Clouds 17 1021 59 10000 4.12 60 18:40 28.09.2021
6116 Clouds 17 1021 63 10000 4.12 80 16:54 28.09.2021
6117 Clouds 18 1020 59 10000 5.66 100 15:19 28.09.2021
6118 Clouds 18 1020 63 10000 5.14 100 13:25 28.09.2021
6119 Clouds 19 1020 59 10000 6.69 120 12:24 28.09.2021
6120 Clouds 19 1020 59 10000 7.2 110 11:47 28.09.2021
6121 Clouds 19 1020 59 10000 5.66 100 11:26 28.09.2021
6122 Clouds 18 1020 63 10000 5.14 90 10:27 28.09.2021
6123 Clouds 18 1020 63 10000 4.12 90 09:29 28.09.2021
6124 Clouds 18 1020 63 10000 3.09 80 08:43 28.09.2021
6125 Clouds 16 1019 72 10000 2.57 50 07:55 28.09.2021
6126 Clouds 14 1019 82 10000 3.09 30 06:25 28.09.2021
6127 Clouds 16 1019 88 10000 3.09 110 01:31 28.09.2021
6128 Clouds 16 1019 88 10000 3.09 90 00:30 28.09.2021
6129 Clouds 16 1019 88 10000 3.6 100 23:49 27.09.2021
6130 Clouds 17 1019 88 10000 4.63 100 23:24 27.09.2021
6131 Clouds 17 1019 88 10000 4.12 110 22:20 27.09.2021
6132 Clouds 17 1019 88 10000 4.12 110 22:20 27.09.2021
6133 Clouds 17 1019 88 10000 1.54 90 20:54 27.09.2021
6134 Clear 17 1018 88 10000 3.09 110 20:26 27.09.2021
6135 Clear 18 1018 82 10000 3.6 100 19:37 27.09.2021
6136 Clear 18 1018 82 10000 4.63 100 18:52 27.09.2021
6137 Clear 18 1018 82 10000 4.63 100 18:52 27.09.2021
6138 Clouds 21 1017 73 10000 6.17 120 17:37 27.09.2021
6139 Clouds 22 1017 60 10000 6.69 120 16:56 27.09.2021
6140 Clouds 22 1017 60 10000 6.69 120 16:33 27.09.2021
6141 Clear 23 1018 49 10000 6.69 110 15:36 27.09.2021
6142 Clear 24 1018 43 10000 5.14 120 13:44 27.09.2021
6143 Clouds 24 1019 50 10000 5.66 130 12:22 27.09.2021
6144 Clear 23 1019 56 10000 4.63 140 10:48 27.09.2021
6145 Clear 22 1019 64 10000 1.54 170 09:38 27.09.2021
6146 Clouds 15 1019 100 9000 1.03 0 07:44 27.09.2021
6147 Clear 14 1019 100 10000 0 0 03:31 27.09.2021
6148 Clear 17 1020 88 10000 2.06 60 23:42 26.09.2021
6149 Clear 18 1020 88 10000 1.54 50 21:55 26.09.2021
6150 Clear 18 1020 94 10000 2.57 90 21:26 26.09.2021
6151 Clear 18 1020 88 10000 3.6 100 20:25 26.09.2021
6152 Clear 19 1019 82 10000 4.63 100 19:54 26.09.2021
6153 Clear 18 1019 82 10000 4.12 100 19:25 26.09.2021
6154 Clear 18 1019 82 10000 4.12 100 19:25 26.09.2021
6155 Clear 18 1019 82 10000 4.12 100 19:25 26.09.2021
6156 Clear 19 1019 77 10000 4.12 100 18:34 26.09.2021
6157 Clear 23 1019 56 10000 3.6 120 17:37 26.09.2021
6158 Clear 23 1019 56 10000 3.6 120 17:18 26.09.2021
6159 Clear 24 1020 50 10000 5.66 120 16:22 26.09.2021
6160 Clear 24 1020 53 10000 6.69 110 15:22 26.09.2021
6161 Clear 25 1020 47 10000 6.69 110 14:18 26.09.2021
6162 Clear 24 1021 53 10000 6.69 110 13:42 26.09.2021
6163 Clear 25 1021 47 10000 3.6 130 12:26 26.09.2021
6164 Clear 26 1021 41 10000 2.57 160 11:53 26.09.2021
6165 Clear 23 1022 56 10000 1.03 0 10:52 26.09.2021
6166 Clear 21 1022 73 10000 0 0 09:37 26.09.2021
6167 Clear 17 1022 94 10000 1.03 260 08:30 26.09.2021
6168 Clear 15 1022 88 10000 2.06 80 00:28 26.09.2021
6169 Clear 16 1022 82 10000 2.06 80 23:41 25.09.2021
6170 Clear 16 1022 82 10000 2.06 70 22:39 25.09.2021
6171 Clear 16 1022 82 10000 2.06 70 22:18 25.09.2021
6172 Clear 16 1021 77 10000 2.06 90 21:36 25.09.2021
6173 Clear 17 1021 72 10000 2.06 130 20:52 25.09.2021
6174 Clear 17 1021 77 10000 2.06 130 19:33 25.09.2021
6175 Clear 19 1020 63 10000 3.09 130 18:27 25.09.2021
6176 Clear 20 1020 60 10000 4.63 120 17:18 25.09.2021
6177 Clouds 21 1020 52 10000 6.17 120 14:25 25.09.2021
6178 Clouds 22 1020 46 10000 4.63 120 13:54 25.09.2021
6179 Clouds 22 1020 43 10000 2.06 0 12:36 25.09.2021
6180 Clear 20 1020 45 10000 1.54 0 10:36 25.09.2021
6181 Clear 20 1020 45 10000 1.54 210 09:56 25.09.2021
6182 Clear 19 1019 45 10000 1.54 80 08:45 25.09.2021
6183 Clear 17 1018 59 10000 2.06 50 07:46 25.09.2021
6184 Clear 18 1014 48 10000 1.03 0 00:50 25.09.2021
6185 Clear 18 1014 48 10000 1.03 0 00:50 25.09.2021
6186 Clear 17 1012 48 10000 2.06 360 21:57 24.09.2021
6187 Clear 17 1012 51 10000 1.54 10 21:25 24.09.2021
6188 Clear 18 1012 42 10000 1.03 0 20:19 24.09.2021
6189 Clear 20 1011 34 10000 4.12 290 18:36 24.09.2021
6190 Clear 21 1011 32 10000 4.63 260 17:56 24.09.2021
6191 Clear 22 1011 30 10000 3.09 230 17:37 24.09.2021
6192 Clear 22 1011 30 10000 3.09 230 17:19 24.09.2021
6193 Clear 22 1012 28 10000 6.69 250 14:48 24.09.2021
6194 Clear 20 1014 34 10000 6.17 240 13:20 24.09.2021
6195 Clear 20 1014 34 10000 6.17 230 12:41 24.09.2021
6196 Clear 20 1014 37 10000 5.66 230 12:23 24.09.2021
6197 Clear 16 1016 55 10000 4.63 270 10:28 24.09.2021
6198 Rain 12 1017 62 10000 4.12 260 08:57 24.09.2021
6199 Clear 9 1017 87 10000 1.03 0 07:39 24.09.2021
6200 Clear 9 1017 87 10000 1.54 210 06:50 24.09.2021
6201 Clear 8 1017 81 10000 1.54 350 05:21 24.09.2021
6202 Clear 10 1019 76 10000 1.03 10 00:44 24.09.2021
6203 Clear 12 1019 66 10000 1.54 280 22:36 23.09.2021
6204 Clear 12 1019 71 10000 1.54 350 21:56 23.09.2021
6205 Clear 12 1019 66 10000 0 0 20:36 23.09.2021
6206 Clear 12 1019 66 10000 0 0 20:18 23.09.2021
6207 Clear 14 1018 54 10000 2.57 300 18:25 23.09.2021
6208 Clouds 17 1018 45 10000 5.66 320 15:37 23.09.2021
6209 Clouds 17 1018 48 10000 6.17 320 15:18 23.09.2021
6210 Clouds 16 1018 48 10000 6.69 330 13:48 23.09.2021
6211 Clouds 16 1018 51 10000 6.69 320 13:22 23.09.2021
6212 Clouds 16 1018 48 10000 6.17 320 12:53 23.09.2021
6213 Clouds 16 1018 48 10000 5.66 310 12:22 23.09.2021
6214 Clouds 16 1018 51 10000 5.66 350 11:47 23.09.2021
6215 Clear 13 1018 62 10000 6.17 350 10:27 23.09.2021
6216 Clear 13 1018 67 10000 5.66 340 09:52 23.09.2021
6217 Clear 11 1018 76 10000 5.66 340 08:25 23.09.2021
6218 Clear 8 1016 93 10000 5.66 280 04:27 23.09.2021
6219 Clear 11 1016 87 10000 3.09 270 23:35 22.09.2021
6220 Clouds 11 1016 93 10000 4.12 300 22:37 22.09.2021
6221 Clouds 11 1016 87 10000 4.12 280 21:56 22.09.2021
6222 Clouds 11 1016 87 10000 4.12 280 21:34 22.09.2021
6223 Clouds 11 1017 93 10000 4.12 280 20:57 22.09.2021
6224 Rain 12 1016 93 7000 6.17 340 19:33 22.09.2021
6225 Clouds 15 1016 63 10000 4.12 290 18:39 22.09.2021
6226 Clouds 14 1016 63 10000 4.12 290 18:39 22.09.2021
6227 Clouds 15 1016 58 10000 4.12 300 17:48 22.09.2021
6228 Clouds 14 1016 49 10000 0.8 326 16:38 22.09.2021
6229 Clouds 16 1017 55 10000 2.06 250 15:19 22.09.2021
6230 Clouds 16 1017 55 10000 3.09 250 13:48 22.09.2021
6231 Clouds 16 1018 59 10000 2.06 260 11:59 22.09.2021
6232 Clouds 15 1019 63 10000 2.57 250 10:52 22.09.2021
6233 Clouds 14 1019 67 10000 0.51 0 09:25 22.09.2021
6234 Clouds 11 1020 87 10000 0.51 0 08:29 22.09.2021
6235 Clear 10 1020 87 10000 2.57 280 07:19 22.09.2021
6236 Clouds 7 1020 93 9000 2.57 270 05:56 22.09.2021
6237 Clouds 7 1020 93 9000 2.57 270 05:34 22.09.2021
6238 Clear 8 1020 93 10000 1.03 0 03:50 22.09.2021
6239 Clear 10 1022 81 10000 1.03 0 00:22 22.09.2021
6240 Clear 12 1022 71 10000 3.6 360 22:54 21.09.2021
6241 Clear 12 1022 71 10000 3.09 360 21:36 21.09.2021
6242 Clouds 13 1023 55 10000 2.22 348 20:26 21.09.2021
6243 Clear 15 1021 58 10000 2.06 350 19:20 21.09.2021
6244 Clouds 16 1022 52 10000 2.81 0 17:35 21.09.2021
6245 Clouds 18 1021 52 10000 2.57 270 16:34 21.09.2021
6246 Clouds 17 1021 55 10000 3.6 310 15:39 21.09.2021
6247 Clouds 18 1021 52 10000 2.57 330 14:57 21.09.2021
6248 Clouds 17 1021 55 10000 3.09 310 13:56 21.09.2021
6249 Clouds 17 1021 55 10000 3.09 310 13:56 21.09.2021
6250 Clouds 17 1021 55 10000 3.09 310 13:36 21.09.2021
6251 Clouds 17 1021 55 10000 2.57 350 11:45 21.09.2021
6252 Clouds 15 1020 72 10000 3.6 360 09:58 21.09.2021
6253 Clouds 13 1019 82 10000 2.06 350 08:28 21.09.2021
6254 Clouds 13 1018 88 10000 3.6 300 06:41 21.09.2021
6255 Clouds 18 1014 88 10000 9.26 290 23:59 20.09.2021
6256 Clouds 19 1013 88 10000 5.14 260 22:25 20.09.2021
6257 Clouds 19 1012 88 10000 6.69 330 21:38 20.09.2021
6258 Rain 21 1011 88 10000 2.06 230 20:31 20.09.2021
6259 Clouds 21 1010 83 10000 3.6 110 19:30 20.09.2021
6260 Clear 22 1009 68 10000 4.63 120 17:46 20.09.2021
6261 Clear 23 1010 64 10000 5.66 120 16:43 20.09.2021
6262 Clear 24 1010 57 10000 6.17 120 15:49 20.09.2021
6263 Clear 24 1010 56 10000 6.17 120 15:24 20.09.2021
6264 Clear 25 1010 44 10000 5.66 130 14:24 20.09.2021
6265 Clear 25 1011 41 10000 5.66 130 12:35 20.09.2021
6266 Clear 24 1012 46 10000 5.66 140 11:26 20.09.2021
6267 Clear 23 1012 43 10000 3.6 140 10:18 20.09.2021
6268 Clear 23 1012 43 10000 2.06 140 09:36 20.09.2021
6269 Clear 21 1012 52 10000 2.06 110 09:18 20.09.2021
6270 Clear 17 1012 72 10000 0 0 07:45 20.09.2021
6271 Clear 16 1012 72 10000 2.06 360 23:49 19.09.2021
6272 Clear 17 1012 72 10000 0.51 0 22:26 19.09.2021
6273 Clear 18 1012 72 10000 1.54 20 21:43 19.09.2021
6274 Clear 19 1011 72 10000 0 0 20:43 19.09.2021
6275 Clear 20 1011 68 10000 1.54 90 19:31 19.09.2021
6276 Clouds 24 1010 41 10000 2.06 150 18:29 19.09.2021
6277 Clouds 26 1010 36 10000 5.14 270 17:23 19.09.2021
6278 Clear 27 1011 32 10000 5.14 260 15:55 19.09.2021
6279 Clear 27 1011 32 10000 5.14 250 15:30 19.09.2021
6280 Clear 27 1011 32 10000 5.14 250 15:30 19.09.2021
6281 Clear 26 1011 31 10000 5.66 250 14:48 19.09.2021
6282 Clear 26 1012 31 10000 6.17 240 13:24 19.09.2021
6283 Clear 26 1012 31 10000 7.72 250 12:50 19.09.2021
6284 Clear 24 1012 35 10000 7.72 270 11:28 19.09.2021
6285 Clear 23 1012 38 10000 8.23 280 10:47 19.09.2021
6286 Clear 22 1012 49 10000 7.2 270 09:40 19.09.2021
6287 Clear 22 1012 49 10000 7.2 270 09:40 19.09.2021
6288 Clear 19 1012 55 10000 6.69 280 08:31 19.09.2021
6289 Clear 16 1012 67 10000 3.09 310 06:41 19.09.2021
6290 Clear 20 1011 56 10000 3.6 250 23:38 18.09.2021
6291 Clouds 21 1010 52 10000 5.66 280 21:59 18.09.2021
6292 Clouds 22 1010 49 10000 5.66 290 20:52 18.09.2021
6293 Clouds 22 1010 49 10000 7.2 280 20:32 18.09.2021
6294 Clouds 24 1009 43 10000 8.75 290 19:39 18.09.2021
6295 Clouds 24 1009 43 10000 8.75 290 19:20 18.09.2021
6296 Clouds 24 1009 53 10000 4.63 270 18:32 18.09.2021
6297 Clouds 27 1008 47 10000 6.69 280 17:31 18.09.2021
6298 Clear 29 1008 45 10000 7.72 270 16:18 18.09.2021
6299 Clouds 28 1008 47 10000 8.75 280 13:49 18.09.2021
6300 Clouds 27 1008 50 10000 7.72 280 13:29 18.09.2021
6301 Clouds 29 1008 45 10000 6.69 270 12:49 18.09.2021
6302 Clouds 29 1008 45 10000 6.69 270 12:49 18.09.2021
6303 Clear 26 1009 61 10000 6.69 270 11:40 18.09.2021
6304 Clouds 25 1009 73 10000 4.12 260 10:31 18.09.2021
6305 Clouds 23 1009 68 8000 2.57 260 09:27 18.09.2021
6306 Mist 22 1009 88 5000 1.54 170 08:55 18.09.2021
6307 Clear 21 1009 84 10000 1.81 239 02:50 18.09.2021
6308 Rain 21 1010 85 10000 3.1 229 00:41 18.09.2021
6309 Rain 22 1011 82 10000 2.56 189 23:47 17.09.2021
6310 Rain 22 1011 80 10000 2.27 148 22:33 17.09.2021
6311 Rain 22 1010 78 10000 2.57 120 21:55 17.09.2021
6312 Clouds 22 1010 78 10000 2.57 100 20:45 17.09.2021
6313 Clear 23 1010 68 10000 3.6 110 18:54 17.09.2021
6314 Clear 24 1011 64 10000 5.66 130 16:51 17.09.2021
6315 Clear 25 1011 61 10000 6.17 130 16:18 17.09.2021
6316 Clear 27 1013 47 10000 6.69 110 12:36 17.09.2021
6317 Clear 26 1014 47 10000 3.6 160 10:41 17.09.2021
6318 Clear 22 1014 78 10000 2.06 120 08:25 17.09.2021
6319 Clouds 18 1014 100 8000 0 0 06:49 17.09.2021
6320 Clear 18 1017 94 10000 2.57 100 00:49 17.09.2021
6321 Clear 19 1017 94 10000 1.54 90 22:50 16.09.2021
6322 Clear 19 1017 94 10000 2.06 110 22:24 16.09.2021
6323 Clear 20 1017 88 10000 2.06 120 21:39 16.09.2021
6324 Clear 20 1017 83 10000 2.57 130 20:43 16.09.2021
6325 Clear 20 1017 77 10000 3.09 120 19:37 16.09.2021
6326 Clear 22 1016 68 10000 3.6 120 18:19 16.09.2021
6327 Clear 24 1016 60 10000 6.17 110 17:22 16.09.2021
6328 Clear 26 1016 50 10000 7.2 110 14:53 16.09.2021
6329 Clear 26 1017 47 10000 6.17 110 13:48 16.09.2021
6330 Clear 26 1017 47 10000 3.6 110 12:47 16.09.2021
6331 Clear 25 1017 57 10000 2.57 120 12:26 16.09.2021
6332 Clear 24 1018 60 10000 2.06 0 11:24 16.09.2021
6333 Clear 23 1018 64 10000 0.51 0 10:30 16.09.2021
6334 Clear 22 1018 73 10000 0 0 09:39 16.09.2021
6335 Clear 20 1017 82 10000 0 0 08:28 16.09.2021
6336 Clear 16 1017 94 10000 2.57 290 06:58 16.09.2021
6337 Clear 15 1017 94 10000 2.57 290 06:38 16.09.2021
6338 Clear 14 1017 94 10000 0 0 04:18 16.09.2021
6339 Mist 15 1017 100 4700 0.51 0 00:59 16.09.2021
6340 Clouds 16 1017 100 9000 1.03 320 23:31 15.09.2021
6341 Clear 17 1017 94 10000 1.54 340 22:44 15.09.2021
6342 Clear 18 1017 88 10000 2.06 10 21:31 15.09.2021
6343 Rain 18 1017 94 10000 2.06 10 20:51 15.09.2021
6344 Clear 19 1017 82 10000 1.54 10 19:34 15.09.2021
6345 Clouds 21 1016 83 10000 1.54 140 18:57 15.09.2021
6346 Clear 23 1016 73 10000 4.12 130 17:45 15.09.2021
6347 Clear 24 1016 68 10000 5.14 140 16:43 15.09.2021
6348 Clouds 25 1016 61 10000 3.6 140 15:25 15.09.2021
6349 Clouds 24 1016 73 10000 4.63 110 14:43 15.09.2021
6350 Rain 25 1016 57 10000 6.17 120 13:48 15.09.2021
6351 Clouds 25 1017 53 10000 4.63 110 13:28 15.09.2021
6352 Clouds 26 1017 57 10000 4.12 120 12:33 15.09.2021
6353 Rain 26 1017 47 10000 2.57 150 11:51 15.09.2021
6354 Clouds 27 1017 41 10000 3.6 60 10:58 15.09.2021
6355 Clouds 27 1017 41 10000 3.6 60 10:35 15.09.2021
6356 Clear 22 1017 56 10000 2.06 270 08:51 15.09.2021
6357 Clear 19 1017 68 10000 1.54 180 07:27 15.09.2021
6358 Clear 15 1016 72 10000 0 0 02:21 15.09.2021
6359 Clear 18 1016 59 10000 2.06 350 22:26 14.09.2021
6360 Clear 18 1016 59 10000 1.03 360 21:26 14.09.2021
6361 Clear 19 1016 55 10000 1.03 0 20:21 14.09.2021
6362 Clear 21 1015 52 10000 1.54 50 19:23 14.09.2021
6363 Clear 24 1015 50 10000 2.57 100 17:33 14.09.2021
6364 Clear 25 1015 50 10000 3.6 110 16:39 14.09.2021
6365 Clear 25 1015 44 10000 6.69 130 14:52 14.09.2021
6366 Clear 25 1015 44 10000 6.69 130 14:52 14.09.2021
6367 Clear 26 1015 44 10000 5.66 130 14:19 14.09.2021
6368 Clear 27 1015 39 10000 5.66 140 11:47 14.09.2021
6369 Clear 27 1015 36 10000 2.06 0 10:44 14.09.2021
6370 Clear 26 1015 36 10000 3.6 110 09:49 14.09.2021
6371 Clear 20 1015 49 10000 2.06 230 07:53 14.09.2021
6372 Clear 17 1014 63 10000 2.57 230 02:20 14.09.2021
6373 Clear 17 1014 77 10000 0 0 23:27 13.09.2021
6374 Clear 17 1014 72 10000 1.03 330 22:28 13.09.2021
6375 Clear 18 1014 72 10000 0 0 21:55 13.09.2021
6376 Clear 18 1014 72 10000 0 0 21:32 13.09.2021
6377 Clear 19 1013 68 10000 2.06 10 19:35 13.09.2021
6378 Clear 22 1013 60 10000 2.06 130 18:44 13.09.2021
6379 Clear 24 1012 57 10000 5.66 120 17:28 13.09.2021
6380 Clear 25 1012 53 10000 6.17 120 16:49 13.09.2021
6381 Clear 28 1012 21 10000 3.09 350 14:44 13.09.2021
6382 Clear 27 1013 29 10000 5.66 340 11:44 13.09.2021
6383 Clear 27 1013 29 10000 3.6 10 10:40 13.09.2021
6384 Mist 17 1013 77 4500 1.54 270 07:58 13.09.2021
6385 Clear 16 1013 82 10000 1.54 270 00:29 13.09.2021
6386 Clear 16 1013 82 10000 1.03 0 22:42 12.09.2021
6387 Clear 17 1013 82 10000 1.54 270 22:21 12.09.2021
6388 Rain 18 1013 72 10000 2.06 10 20:47 12.09.2021
6389 Rain 20 1012 64 10000 1.54 0 19:58 12.09.2021
6390 Clear 21 1012 60 10000 2.06 70 19:29 12.09.2021
6391 Clear 21 1012 64 10000 2.57 120 18:53 12.09.2021
6392 Clear 25 1012 50 10000 4.63 130 16:58 12.09.2021
6393 Clear 26 1012 50 10000 6.17 120 15:41 12.09.2021
6394 Clouds 28 1012 26 10000 3.09 10 14:37 12.09.2021
6395 Clouds 27 1013 29 10000 3.6 360 12:28 12.09.2021
6396 Clear 26 1014 38 10000 3.6 190 10:19 12.09.2021
6397 Clear 22 1014 46 10000 1.54 250 08:38 12.09.2021
6398 Clear 16 1013 63 10000 1.03 0 04:59 12.09.2021
6399 Clear 18 1014 55 10000 2.06 280 00:46 12.09.2021
6400 Rain 19 1014 52 10000 0 0 22:29 11.09.2021
6401 Rain 18 1015 52 10000 1.54 350 21:38 11.09.2021
6402 Clear 20 1014 52 10000 2.57 40 19:34 11.09.2021
6403 Clear 25 1014 33 10000 4.63 110 17:56 11.09.2021
6404 Clear 26 1014 29 10000 4.63 100 16:41 11.09.2021
6405 Clear 27 1014 24 10000 5.66 360 14:45 11.09.2021
6406 Clear 28 1015 24 10000 3.6 360 13:22 11.09.2021
6407 Clear 26 1015 29 10000 4.12 220 11:35 11.09.2021
6408 Clear 23 1016 38 10000 2.57 240 09:42 11.09.2021
6409 Clear 19 1016 45 10000 2.57 250 08:21 11.09.2021
6410 Clear 17 1016 51 10000 2.06 310 07:34 11.09.2021
6411 Clear 15 1016 67 10000 0.51 0 01:23 11.09.2021
6412 Clear 16 1017 55 10000 1.03 0 22:27 10.09.2021
6413 Clear 16 1017 59 10000 2.06 330 21:56 10.09.2021
6414 Rain 17 1017 55 10000 1.54 310 20:41 10.09.2021
6415 Clear 20 1017 45 10000 1.54 20 18:43 10.09.2021
6416 Clear 23 1017 38 10000 2.06 30 17:33 10.09.2021
6417 Clouds 23 1017 49 10000 4.63 120 15:37 10.09.2021
6418 Clouds 24 1017 38 10000 4.63 80 13:18 10.09.2021
6419 Clouds 20 1018 59 10000 5.66 360 10:21 10.09.2021
6420 Clear 16 1017 67 10000 5.66 350 07:51 10.09.2021
6421 Clear 16 1018 82 10000 2.57 310 04:21 10.09.2021
6422 Clear 16 1019 77 10000 3.09 30 22:33 09.09.2021
6423 Clear 17 1019 72 10000 2.06 20 21:47 09.09.2021
6424 Clouds 17 1019 72 10000 3.09 40 20:47 09.09.2021
6425 Clouds 18 1019 68 10000 3.09 50 20:22 09.09.2021
6426 Clouds 20 1018 60 10000 4.63 90 18:35 09.09.2021
6427 Clouds 23 1019 53 10000 6.69 100 16:41 09.09.2021
6428 Clouds 24 1019 53 10000 7.2 100 16:21 09.09.2021
6429 Clouds 25 1020 50 10000 7.2 110 13:33 09.09.2021
6430 Clouds 24 1020 50 10000 7.72 90 11:50 09.09.2021
6431 Clouds 24 1020 46 10000 7.2 90 10:31 09.09.2021
6432 Clouds 20 1021 56 10000 5.14 40 08:58 09.09.2021
6433 Clear 15 1021 77 10000 5.14 20 06:50 09.09.2021
6434 Clear 15 1021 77 10000 4.63 10 03:44 09.09.2021
6435 Clouds 16 1022 72 10000 4.63 30 22:53 08.09.2021
6436 Clouds 16 1022 72 10000 3.6 40 21:36 08.09.2021
6437 Clouds 17 1023 67 10000 3.6 30 20:19 08.09.2021
6438 Clouds 18 1022 63 10000 3.6 50 19:29 08.09.2021
6439 Clouds 20 1022 56 10000 5.14 70 18:31 08.09.2021
6440 Clouds 20 1022 56 10000 5.14 70 18:30 08.09.2021
6441 Clouds 21 1023 52 10000 6.69 70 17:57 08.09.2021
6442 Clouds 22 1023 49 10000 7.72 100 16:38 08.09.2021
6443 Clouds 24 1023 50 10000 7.72 100 14:30 08.09.2021
6444 Clouds 24 1023 50 10000 7.72 100 14:30 08.09.2021
6445 Clouds 24 1023 50 10000 7.72 100 14:30 08.09.2021
6446 Clouds 24 1023 50 10000 7.72 100 14:30 08.09.2021
6447 Clouds 24 1023 50 10000 7.72 100 14:30 08.09.2021
6448 Clouds 24 1024 43 10000 5.66 80 12:54 08.09.2021
6449 Clouds 23 1024 46 10000 6.69 100 12:27 08.09.2021
6450 Clouds 23 1024 43 10000 7.2 90 11:38 08.09.2021
6451 Clouds 22 1024 49 10000 5.14 50 10:43 08.09.2021
6452 Clouds 22 1024 49 10000 5.14 50 10:24 08.09.2021
6453 Clouds 18 1024 63 10000 4.63 10 08:54 08.09.2021
6454 Clouds 15 1024 72 10000 5.66 20 07:38 08.09.2021
6455 Clear 13 1024 72 10000 4.63 20 05:34 08.09.2021
6456 Clouds 15 1025 67 10000 3.6 20 22:50 07.09.2021
6457 Clouds 16 1025 59 10000 4.12 40 21:59 07.09.2021
6458 Clouds 16 1025 63 10000 3.09 50 19:54 07.09.2021
6459 Clouds 19 1025 52 10000 6.17 70 18:45 07.09.2021
6460 Clouds 19 1025 52 10000 6.17 80 18:18 07.09.2021
6461 Clouds 19 1025 52 10000 6.17 80 18:18 07.09.2021
6462 Clouds 21 1025 49 10000 7.72 80 16:42 07.09.2021
6463 Clouds 21 1025 52 10000 7.72 80 15:37 07.09.2021
6464 Clouds 22 1026 43 10000 7.72 100 14:42 07.09.2021
6465 Clouds 22 1026 46 10000 8.23 90 12:43 07.09.2021
6466 Clouds 22 1026 43 10000 7.72 80 11:45 07.09.2021
6467 Clouds 22 1026 43 10000 7.2 70 10:41 07.09.2021
6468 Clouds 19 1025 52 10000 5.66 20 08:34 07.09.2021
6469 Clouds 16 1025 55 10000 6.17 20 07:44 07.09.2021
6470 Clear 14 1025 62 10000 6.17 30 05:41 07.09.2021
6471 Clear 14 1025 62 10000 4.12 20 02:36 07.09.2021
6472 Clear 13 1026 67 10000 4.63 30 00:46 07.09.2021
6473 Clear 15 1026 63 10000 4.12 50 23:34 06.09.2021
6474 Clear 15 1026 67 10000 4.12 50 22:53 06.09.2021
6475 Clear 16 1025 63 10000 4.63 50 22:33 06.09.2021
6476 Clear 16 1025 63 10000 3.6 40 20:56 06.09.2021
6477 Clear 19 1024 55 10000 5.14 70 19:31 06.09.2021
6478 Clear 19 1024 55 10000 5.14 70 18:48 06.09.2021
6479 Clouds 20 1024 52 10000 5.66 80 18:23 06.09.2021
6480 Clouds 22 1023 49 10000 6.69 90 17:36 06.09.2021
6481 Clouds 22 1023 46 10000 7.72 80 15:52 06.09.2021
6482 Clouds 22 1023 49 10000 7.72 80 13:48 06.09.2021
6483 Clouds 23 1023 40 10000 5.66 60 12:47 06.09.2021
6484 Clouds 22 1023 43 10000 5.66 40 10:45 06.09.2021
6485 Clear 18 1023 52 10000 6.17 10 08:35 06.09.2021
6486 Clear 14 1022 54 10000 3.6 360 04:48 06.09.2021
6487 Clear 18 1021 63 10000 1.54 0 23:35 05.09.2021
6488 Clear 19 1021 63 10000 3.09 0 22:48 05.09.2021
6489 Clear 19 1021 72 10000 7.2 30 21:58 05.09.2021
6490 Clear 19 1020 72 10000 7.72 50 21:31 05.09.2021
6491 Clear 19 1020 72 10000 7.72 50 21:30 05.09.2021
6492 Clouds 20 1020 73 10000 6.69 40 19:56 05.09.2021
6493 Clouds 21 1019 68 10000 7.2 30 18:42 05.09.2021
6494 Clouds 22 1018 60 10000 7.2 80 17:31 05.09.2021
6495 Clouds 22 1018 60 10000 7.2 80 17:30 05.09.2021
6496 Clouds 23 1018 68 10000 0 0 15:27 05.09.2021
6497 Clear 24 1018 50 10000 6.17 140 14:19 05.09.2021
6498 Clear 25 1018 41 10000 5.66 130 12:26 05.09.2021
6499 Clear 24 1018 43 10000 4.63 140 10:48 05.09.2021
6500 Clear 24 1018 41 10000 3.09 140 10:23 05.09.2021
6501 Clear 22 1018 53 10000 1.03 0 09:21 05.09.2021
6502 Clear 16 1018 82 10000 1.54 250 07:43 05.09.2021
6503 Clear 14 1017 88 10000 1.54 330 00:48 05.09.2021
6504 Clear 16 1017 77 10000 1.03 0 00:22 05.09.2021
6505 Clear 15 1017 82 10000 2.06 340 23:32 04.09.2021
6506 Clear 16 1017 77 10000 2.57 20 22:35 04.09.2021
6507 Clear 17 1017 72 10000 2.57 360 21:55 04.09.2021
6508 Clear 19 1016 59 10000 2.57 130 19:41 04.09.2021
6509 Clear 21 1015 52 10000 4.12 130 18:19 04.09.2021
6510 Clear 24 1016 43 10000 6.17 130 15:53 04.09.2021
6511 Clouds 23 1017 43 10000 4.63 130 12:22 04.09.2021
6512 Clear 23 1017 40 10000 2.06 0 11:18 04.09.2021
6513 Clear 20 1017 59 10000 0 0 08:46 04.09.2021
6514 Clear 13 1018 87 10000 0 0 02:32 04.09.2021
6515 Clear 14 1018 82 10000 2.06 20 00:23 04.09.2021
6516 Clear 14 1019 82 10000 2.06 10 23:23 03.09.2021
6517 Clear 15 1019 77 10000 0 0 21:53 03.09.2021
6518 Clear 16 1019 67 10000 1.03 110 21:30 03.09.2021
6519 Rain 17 1019 63 10000 2.57 130 20:35 03.09.2021
6520 Clear 18 1019 59 10000 2.06 140 19:45 03.09.2021
6521 Clear 19 1019 55 10000 4.12 140 18:52 03.09.2021
6522 Clear 21 1019 46 10000 5.66 130 17:32 03.09.2021
6523 Clear 21 1020 46 10000 6.17 110 16:22 03.09.2021
6524 Clear 22 1020 40 10000 6.17 120 14:47 03.09.2021
6525 Clear 21 1022 35 10000 3.09 0 11:47 03.09.2021
6526 Clear 20 1023 34 10000 5.14 40 10:21 03.09.2021
6527 Clear 17 1022 51 10000 2.06 10 08:38 03.09.2021
6528 Clear 16 1022 55 10000 1.54 0 07:34 03.09.2021
6529 Clear 19 1020 48 10000 1.54 0 23:59 02.09.2021
6530 Clear 19 1019 55 10000 2.57 350 22:43 02.09.2021
6531 Clear 20 1019 56 10000 1.54 260 21:18 02.09.2021
6532 Clear 22 1017 49 10000 1.03 0 18:57 02.09.2021
6533 Clouds 23 1016 46 10000 3.09 10 16:57 02.09.2021
6534 Clouds 23 1016 49 10000 4.12 340 15:32 02.09.2021
6535 Clouds 24 1016 38 10000 6.69 320 13:42 02.09.2021
6536 Clouds 24 1016 43 10000 4.12 290 11:46 02.09.2021
6537 Clouds 23 1016 49 10000 4.12 290 11:24 02.09.2021
6538 Clear 20 1016 56 10000 6.17 270 09:20 02.09.2021
6539 Clear 18 1016 63 10000 6.69 270 07:36 02.09.2021
6540 Clear 16 1015 72 10000 4.12 260 06:40 02.09.2021
6541 Clear 16 1014 67 10000 4.12 250 02:38 02.09.2021
6542 Clear 17 1014 63 10000 3.6 230 01:50 02.09.2021
6543 Clear 18 1014 63 10000 3.6 280 23:41 01.09.2021
6544 Clear 18 1014 59 10000 4.12 280 23:23 01.09.2021
6545 Clear 20 1014 52 10000 5.66 290 22:30 01.09.2021
6546 Clear 20 1014 56 10000 6.17 280 21:32 01.09.2021
6547 Clear 24 1012 41 10000 7.2 280 19:37 01.09.2021
6548 Clear 26 1011 31 10000 10.29 280 17:55 01.09.2021
6549 Clear 28 1011 30 10000 9.77 290 16:59 01.09.2021
6550 Clear 28 1011 30 10000 9.77 290 16:36 01.09.2021
6551 Clear 29 1011 28 10000 10.29 270 14:59 01.09.2021
6552 Clear 27 1013 34 10000 9.77 270 11:47 01.09.2021
6553 Clear 25 1014 41 10000 9.77 280 10:23 01.09.2021
6554 Clear 20 1014 59 10000 4.12 260 08:27 01.09.2021
6555 Clear 18 1014 67 10000 1.54 0 06:42 01.09.2021
6556 Clear 17 1014 88 10000 1.03 0 23:32 31.08.2021
6557 Clear 20 1013 77 10000 0.51 0 22:21 31.08.2021
6558 Clear 23 1013 68 10000 4.63 100 19:52 31.08.2021
6559 Clouds 23 1013 68 10000 4.63 90 19:23 31.08.2021
6560 Clear 28 1012 26 10000 4.63 290 17:44 31.08.2021
6561 Clear 29 1012 28 10000 6.17 270 17:25 31.08.2021
6562 Clear 29 1012 26 10000 6.69 260 16:41 31.08.2021
6563 Clear 29 1013 26 10000 5.66 260 15:25 31.08.2021
6564 Clear 28 1014 34 10000 5.66 250 12:19 31.08.2021
6565 Clear 27 1014 32 10000 4.63 310 11:19 31.08.2021
6566 Clear 26 1014 38 10000 4.63 260 10:43 31.08.2021
6567 Clear 26 1015 36 10000 4.63 300 09:41 31.08.2021
6568 Clear 19 1015 68 10000 2.06 270 07:48 31.08.2021
6569 Clouds 15 1014 72 10000 2.57 310 05:56 31.08.2021
6570 Clear 18 1013 55 10000 3.09 310 23:36 30.08.2021
6571 Clear 19 1013 59 10000 3.09 290 22:32 30.08.2021
6572 Clear 19 1013 59 10000 3.6 320 21:35 30.08.2021
6573 Rain 20 1013 56 10000 2.57 330 20:41 30.08.2021
6574 Clear 22 1011 49 10000 3.09 330 19:33 30.08.2021
6575 Clear 25 1011 41 10000 3.6 310 18:58 30.08.2021
6576 Clear 27 1011 36 10000 4.63 300 17:49 30.08.2021
6577 Clear 28 1010 36 10000 5.66 300 16:27 30.08.2021
6578 Clear 28 1010 36 10000 6.69 280 15:40 30.08.2021
6579 Clouds 26 1011 41 10000 5.14 290 13:58 30.08.2021
6580 Clouds 25 1011 47 10000 6.69 270 12:58 30.08.2021
6581 Clear 25 1010 53 10000 7.72 250 10:42 30.08.2021
6582 Clouds 21 1008 88 10000 3.09 260 03:24 30.08.2021
6583 Rain 24 1007 73 10000 2.57 250 21:35 29.08.2021
6584 Rain 25 1006 69 10000 1.03 0 20:46 29.08.2021
6585 Clear 25 1005 88 10000 2.57 160 19:27 29.08.2021
6586 Clouds 27 1005 74 10000 5.14 120 17:58 29.08.2021
6587 Clouds 31 1004 45 10000 2.57 0 15:54 29.08.2021
6588 Clouds 31 1005 48 10000 3.09 340 14:27 29.08.2021
6589 Clouds 31 1005 48 10000 3.09 340 14:27 29.08.2021
6590 Clouds 31 1005 48 10000 3.6 360 13:55 29.08.2021
6591 Clouds 31 1005 48 10000 4.12 320 12:42 29.08.2021
6592 Clouds 30 1005 51 10000 4.12 260 11:53 29.08.2021
6593 Clouds 30 1005 51 10000 4.12 260 11:32 29.08.2021
6594 Clouds 28 1006 61 10000 2.06 220 10:46 29.08.2021
6595 Clouds 28 1006 61 10000 2.06 220 10:27 29.08.2021
6596 Clouds 27 1006 65 10000 3.09 70 09:21 29.08.2021
6597 Clouds 23 1008 88 10000 2.06 30 02:37 29.08.2021
6598 Clouds 24 1009 88 10000 3.6 80 22:25 28.08.2021
6599 Clouds 24 1010 88 10000 3.6 70 20:30 28.08.2021
6600 Clouds 25 1010 78 10000 5.14 90 18:51 28.08.2021
6601 Clouds 26 1010 73 10000 5.66 70 18:21 28.08.2021
6602 Clouds 26 1010 73 10000 5.66 90 17:45 28.08.2021
6603 Clouds 27 1010 74 10000 8.23 120 16:21 28.08.2021
6604 Clouds 28 1010 65 10000 8.75 100 14:42 28.08.2021
6605 Clouds 29 1011 61 10000 8.23 110 13:46 28.08.2021
6606 Clouds 29 1011 70 10000 8.23 130 12:45 28.08.2021
6607 Clouds 28 1011 69 10000 4.63 130 11:57 28.08.2021
6608 Clouds 28 1011 61 10000 3.6 180 10:43 28.08.2021
6609 Clouds 27 1012 74 10000 2.06 0 09:32 28.08.2021
6610 Fog 22 1012 100 300 3.09 280 07:25 28.08.2021
6611 Clouds 22 1011 100 6000 0 0 22:48 27.08.2021
6612 Rain 24 1011 94 9000 1.54 150 21:24 27.08.2021
6613 Rain 24 1010 94 10000 2.57 130 20:33 27.08.2021
6614 Clouds 25 1009 83 10000 2.57 130 18:58 27.08.2021
6615 Clouds 25 1009 83 10000 2.57 130 18:37 27.08.2021
6616 Clouds 26 1009 78 10000 5.14 120 17:21 27.08.2021
6617 Clouds 27 1009 69 10000 6.17 130 15:57 27.08.2021
6618 Clouds 27 1009 65 10000 6.17 110 14:43 27.08.2021
6619 Clouds 27 1009 69 10000 7.2 120 12:54 27.08.2021
6620 Clouds 27 1010 74 10000 3.09 150 11:26 27.08.2021
6621 Clouds 25 1010 78 10000 2.06 170 10:43 27.08.2021
6622 Clouds 25 1010 78 9000 2.06 140 09:37 27.08.2021
6623 Clouds 24 1010 88 7000 1.03 0 08:46 27.08.2021
6624 Mist 19 1010 100 3500 1.54 260 06:47 27.08.2021
6625 Mist 19 1009 100 4700 0 0 04:56 27.08.2021
6626 Rain 18 1010 100 6000 1.03 0 00:35 27.08.2021
6627 Mist 19 1010 100 5000 0 0 22:43 26.08.2021
6628 Clouds 19 1010 100 6000 1.54 320 22:18 26.08.2021
6629 Clouds 19 1010 100 8000 2.06 360 20:35 26.08.2021
6630 Clouds 21 1009 94 8000 1.54 290 18:51 26.08.2021
6631 Clouds 21 1010 94 9000 1.03 0 17:45 26.08.2021
6632 Rain 21 1010 100 10000 2.57 20 16:33 26.08.2021
6633 Thunderstorm 24 1009 78 10000 4.12 120 15:55 26.08.2021
6634 Clouds 29 1010 42 10000 3.6 230 13:48 26.08.2021
6635 Clouds 28 1010 47 10000 4.63 250 12:52 26.08.2021
6636 Clouds 28 1010 47 10000 2.57 0 12:24 26.08.2021
6637 Clouds 26 1011 53 10000 4.63 260 10:18 26.08.2021
6638 Clear 22 1011 78 10000 4.63 270 08:34 26.08.2021
6639 Clear 20 1011 94 6000 2.57 250 03:27 26.08.2021
6640 Clear 21 1011 88 10000 0 0 22:49 25.08.2021
6641 Clear 22 1011 88 10000 0 0 22:30 25.08.2021
6642 Clear 22 1012 88 10000 1.03 0 21:29 25.08.2021
6643 Rain 22 1012 83 10000 0.51 0 20:46 25.08.2021
6644 Rain 23 1012 78 10000 2.06 140 20:26 25.08.2021
6645 Clear 24 1011 73 10000 3.6 130 18:42 25.08.2021
6646 Clear 26 1011 65 10000 5.66 120 17:29 25.08.2021
6647 Clear 27 1012 61 10000 7.2 120 15:43 25.08.2021
6648 Clear 28 1012 54 10000 6.17 130 14:47 25.08.2021
6649 Clouds 27 1012 61 10000 6.17 120 14:18 25.08.2021
6650 Clouds 27 1013 61 10000 5.66 130 12:55 25.08.2021
6651 Clouds 27 1013 57 10000 5.14 140 11:26 25.08.2021
6652 Clouds 27 1013 57 10000 5.14 140 11:26 25.08.2021
6653 Clouds 26 1013 65 10000 2.57 130 10:30 25.08.2021
6654 Clouds 26 1013 65 10000 2.06 0 09:51 25.08.2021
6655 Clear 24 1014 78 8000 1.54 260 08:41 25.08.2021
6656 Clear 20 1013 100 6000 0 0 07:44 25.08.2021
6657 Clouds 18 1013 94 10000 1.03 240 03:28 25.08.2021
6658 Clouds 19 1014 94 10000 1.54 20 23:40 24.08.2021
6659 Rain 21 1014 83 10000 0 0 21:48 24.08.2021
6660 Rain 21 1014 83 10000 0.51 30 20:38 24.08.2021
6661 Clear 23 1014 73 10000 2.57 120 19:44 24.08.2021
6662 Cle